<?xml version="1.0" encoding="UTF-8" standalone="no" ?>
<gpx xmlns="http://www.topografix.com/GPX/1/1" xmlns:xsi="http://www.w3.org/2001/XMLSchema-instance" xsi:schemaLocation="http://www.topografix.com/GPX/1/1 http://www.topografix.com/GPX/1/1/gpx.xsd" version="1.1" creator="VisuGPX - https://www.visugpx.com">
  <metadata>
    <name>Cornettes de Bise</name>
  </metadata>
  <trk>
    <name><![CDATA[Cornettes de Bise]]></name>
    <extensions>
      <line xmlns="http://www.topografix.com/GPX/gpx_style/0/2">
        <color>0000FF</color>
        <width>4</width>
      </line>
    </extensions>
    <trkseg>
      <trkpt lat="46.29601" lon="6.78727">
        <ele>1025.9</ele>
        <time>2021-10-10T06:11:34Z</time>
      </trkpt>
      <trkpt lat="46.29605" lon="6.78733">
        <ele>1026.9</ele>
        <time>2021-10-10T06:11:38Z</time>
      </trkpt>
      <trkpt lat="46.29609" lon="6.7874">
        <ele>1027.9</ele>
        <time>2021-10-10T06:11:42Z</time>
      </trkpt>
      <trkpt lat="46.29613" lon="6.78744">
        <ele>1028.9</ele>
        <time>2021-10-10T06:11:45Z</time>
      </trkpt>
      <trkpt lat="46.29615" lon="6.78747">
        <ele>1029.4</ele>
        <time>2021-10-10T06:11:47Z</time>
      </trkpt>
      <trkpt lat="46.29619" lon="6.78753">
        <ele>1030.3</ele>
        <time>2021-10-10T06:11:51Z</time>
      </trkpt>
      <trkpt lat="46.2962" lon="6.78754">
        <ele>1030.6</ele>
        <time>2021-10-10T06:11:52Z</time>
      </trkpt>
      <trkpt lat="46.29623" lon="6.78758">
        <ele>1031.2</ele>
        <time>2021-10-10T06:11:55Z</time>
      </trkpt>
      <trkpt lat="46.29625" lon="6.7876">
        <ele>1031.7</ele>
        <time>2021-10-10T06:11:57Z</time>
      </trkpt>
      <trkpt lat="46.29628" lon="6.78765">
        <ele>1032.4</ele>
        <time>2021-10-10T06:12:00Z</time>
      </trkpt>
      <trkpt lat="46.29629" lon="6.78769">
        <ele>1032.6</ele>
        <time>2021-10-10T06:12:02Z</time>
      </trkpt>
      <trkpt lat="46.29633" lon="6.78773">
        <ele>1033.5</ele>
        <time>2021-10-10T06:12:05Z</time>
      </trkpt>
      <trkpt lat="46.29635" lon="6.78776">
        <ele>1033.9</ele>
        <time>2021-10-10T06:12:07Z</time>
      </trkpt>
      <trkpt lat="46.29637" lon="6.78781">
        <ele>1034.3</ele>
        <time>2021-10-10T06:12:10Z</time>
      </trkpt>
      <trkpt lat="46.29637" lon="6.78785">
        <ele>1034.4</ele>
        <time>2021-10-10T06:12:12Z</time>
      </trkpt>
      <trkpt lat="46.29639" lon="6.78793">
        <ele>1034.9</ele>
        <time>2021-10-10T06:12:16Z</time>
      </trkpt>
      <trkpt lat="46.2964" lon="6.78795">
        <ele>1035.1</ele>
        <time>2021-10-10T06:12:17Z</time>
      </trkpt>
      <trkpt lat="46.29642" lon="6.78802">
        <ele>1035.5</ele>
        <time>2021-10-10T06:12:21Z</time>
      </trkpt>
      <trkpt lat="46.29643" lon="6.78804">
        <ele>1035.7</ele>
        <time>2021-10-10T06:12:22Z</time>
      </trkpt>
      <trkpt lat="46.29644" lon="6.78809">
        <ele>1036</ele>
        <time>2021-10-10T06:12:25Z</time>
      </trkpt>
      <trkpt lat="46.29645" lon="6.78813">
        <ele>1036.2</ele>
        <time>2021-10-10T06:12:27Z</time>
      </trkpt>
      <trkpt lat="46.29647" lon="6.78818">
        <ele>1036.6</ele>
        <time>2021-10-10T06:12:30Z</time>
      </trkpt>
      <trkpt lat="46.29649" lon="6.78823">
        <ele>1037</ele>
        <time>2021-10-10T06:12:33Z</time>
      </trkpt>
      <trkpt lat="46.29651" lon="6.78829">
        <ele>1037.3</ele>
        <time>2021-10-10T06:12:36Z</time>
      </trkpt>
      <trkpt lat="46.29654" lon="6.78834">
        <ele>1037.9</ele>
        <time>2021-10-10T06:12:39Z</time>
      </trkpt>
      <trkpt lat="46.29657" lon="6.78839">
        <ele>1038.3</ele>
        <time>2021-10-10T06:12:43Z</time>
      </trkpt>
      <trkpt lat="46.29661" lon="6.78844">
        <ele>1038.9</ele>
        <time>2021-10-10T06:12:47Z</time>
      </trkpt>
      <trkpt lat="46.29664" lon="6.78848">
        <ele>1039.4</ele>
        <time>2021-10-10T06:12:50Z</time>
      </trkpt>
      <trkpt lat="46.29667" lon="6.78854">
        <ele>1039.8</ele>
        <time>2021-10-10T06:12:54Z</time>
      </trkpt>
      <trkpt lat="46.2967" lon="6.78858">
        <ele>1040.6</ele>
        <time>2021-10-10T06:12:57Z</time>
      </trkpt>
      <trkpt lat="46.29674" lon="6.78864">
        <ele>1041.5</ele>
        <time>2021-10-10T06:13:01Z</time>
      </trkpt>
      <trkpt lat="46.29677" lon="6.78867">
        <ele>1042.2</ele>
        <time>2021-10-10T06:13:04Z</time>
      </trkpt>
      <trkpt lat="46.29682" lon="6.7887">
        <ele>1043.3</ele>
        <time>2021-10-10T06:13:08Z</time>
      </trkpt>
      <trkpt lat="46.29686" lon="6.78875">
        <ele>1044</ele>
        <time>2021-10-10T06:13:13Z</time>
      </trkpt>
      <trkpt lat="46.29689" lon="6.7888">
        <ele>1044.5</ele>
        <time>2021-10-10T06:13:17Z</time>
      </trkpt>
      <trkpt lat="46.29693" lon="6.78884">
        <ele>1045.1</ele>
        <time>2021-10-10T06:13:21Z</time>
      </trkpt>
      <trkpt lat="46.29697" lon="6.78888">
        <ele>1045.7</ele>
        <time>2021-10-10T06:13:25Z</time>
      </trkpt>
      <trkpt lat="46.29699" lon="6.78892">
        <ele>1045.8</ele>
        <time>2021-10-10T06:13:28Z</time>
      </trkpt>
      <trkpt lat="46.29703" lon="6.78896">
        <ele>1046.3</ele>
        <time>2021-10-10T06:13:32Z</time>
      </trkpt>
      <trkpt lat="46.29706" lon="6.78903">
        <ele>1046.3</ele>
        <time>2021-10-10T06:13:37Z</time>
      </trkpt>
      <trkpt lat="46.29709" lon="6.78909">
        <ele>1046.3</ele>
        <time>2021-10-10T06:13:41Z</time>
      </trkpt>
      <trkpt lat="46.29712" lon="6.78916">
        <ele>1046.1</ele>
        <time>2021-10-10T06:13:45Z</time>
      </trkpt>
      <trkpt lat="46.29714" lon="6.78922">
        <ele>1046.6</ele>
        <time>2021-10-10T06:13:49Z</time>
      </trkpt>
      <trkpt lat="46.29717" lon="6.78928">
        <ele>1047.4</ele>
        <time>2021-10-10T06:13:53Z</time>
      </trkpt>
      <trkpt lat="46.29721" lon="6.78934">
        <ele>1048.3</ele>
        <time>2021-10-10T06:13:57Z</time>
      </trkpt>
      <trkpt lat="46.29725" lon="6.78939">
        <ele>1049.2</ele>
        <time>2021-10-10T06:14:01Z</time>
      </trkpt>
      <trkpt lat="46.29728" lon="6.78944">
        <ele>1049.9</ele>
        <time>2021-10-10T06:14:05Z</time>
      </trkpt>
      <trkpt lat="46.29731" lon="6.78948">
        <ele>1050.5</ele>
        <time>2021-10-10T06:14:10Z</time>
      </trkpt>
      <trkpt lat="46.29734" lon="6.78952">
        <ele>1051.2</ele>
        <time>2021-10-10T06:14:14Z</time>
      </trkpt>
      <trkpt lat="46.29739" lon="6.78956">
        <ele>1052.2</ele>
        <time>2021-10-10T06:14:18Z</time>
      </trkpt>
      <trkpt lat="46.29743" lon="6.78959">
        <ele>1052.9</ele>
        <time>2021-10-10T06:14:22Z</time>
      </trkpt>
      <trkpt lat="46.29747" lon="6.78962">
        <ele>1053.7</ele>
        <time>2021-10-10T06:14:26Z</time>
      </trkpt>
      <trkpt lat="46.29752" lon="6.78965">
        <ele>1054.7</ele>
        <time>2021-10-10T06:14:31Z</time>
      </trkpt>
      <trkpt lat="46.29756" lon="6.78967">
        <ele>1055.6</ele>
        <time>2021-10-10T06:14:35Z</time>
      </trkpt>
      <trkpt lat="46.29759" lon="6.78968">
        <ele>1056.2</ele>
        <time>2021-10-10T06:14:38Z</time>
      </trkpt>
      <trkpt lat="46.29761" lon="6.78969">
        <ele>1056.6</ele>
        <time>2021-10-10T06:14:40Z</time>
      </trkpt>
      <trkpt lat="46.29765" lon="6.7897">
        <ele>1057.5</ele>
        <time>2021-10-10T06:14:44Z</time>
      </trkpt>
      <trkpt lat="46.29769" lon="6.7897">
        <ele>1058.2</ele>
        <time>2021-10-10T06:14:47Z</time>
      </trkpt>
      <trkpt lat="46.29773" lon="6.78971">
        <ele>1059</ele>
        <time>2021-10-10T06:14:51Z</time>
      </trkpt>
      <trkpt lat="46.29778" lon="6.78969">
        <ele>1059.9</ele>
        <time>2021-10-10T06:14:57Z</time>
      </trkpt>
      <trkpt lat="46.29782" lon="6.78966">
        <ele>1060.6</ele>
        <time>2021-10-10T06:15:02Z</time>
      </trkpt>
      <trkpt lat="46.29786" lon="6.78963">
        <ele>1061.3</ele>
        <time>2021-10-10T06:15:07Z</time>
      </trkpt>
      <trkpt lat="46.29791" lon="6.7896">
        <ele>1062.2</ele>
        <time>2021-10-10T06:15:13Z</time>
      </trkpt>
      <trkpt lat="46.29795" lon="6.78956">
        <ele>1062.8</ele>
        <time>2021-10-10T06:15:18Z</time>
      </trkpt>
      <trkpt lat="46.29798" lon="6.78955">
        <ele>1063.4</ele>
        <time>2021-10-10T06:15:22Z</time>
      </trkpt>
      <trkpt lat="46.29803" lon="6.78953">
        <ele>1064.4</ele>
        <time>2021-10-10T06:15:27Z</time>
      </trkpt>
      <trkpt lat="46.29807" lon="6.78952">
        <ele>1065.1</ele>
        <time>2021-10-10T06:15:32Z</time>
      </trkpt>
      <trkpt lat="46.29811" lon="6.7895">
        <ele>1065.9</ele>
        <time>2021-10-10T06:15:36Z</time>
      </trkpt>
      <trkpt lat="46.29815" lon="6.7895">
        <ele>1066.7</ele>
        <time>2021-10-10T06:15:41Z</time>
      </trkpt>
      <trkpt lat="46.2982" lon="6.7895">
        <ele>1067.7</ele>
        <time>2021-10-10T06:15:45Z</time>
      </trkpt>
      <trkpt lat="46.29824" lon="6.7895">
        <ele>1068.5</ele>
        <time>2021-10-10T06:15:49Z</time>
      </trkpt>
      <trkpt lat="46.29829" lon="6.78948">
        <ele>1069.5</ele>
        <time>2021-10-10T06:15:53Z</time>
      </trkpt>
      <trkpt lat="46.29834" lon="6.78951">
        <ele>1070.6</ele>
        <time>2021-10-10T06:15:58Z</time>
      </trkpt>
      <trkpt lat="46.29839" lon="6.78953">
        <ele>1072.2</ele>
        <time>2021-10-10T06:16:03Z</time>
      </trkpt>
      <trkpt lat="46.29841" lon="6.78954">
        <ele>1072.8</ele>
        <time>2021-10-10T06:16:05Z</time>
      </trkpt>
      <trkpt lat="46.29846" lon="6.78955">
        <ele>1074.3</ele>
        <time>2021-10-10T06:16:10Z</time>
      </trkpt>
      <trkpt lat="46.2985" lon="6.78957">
        <ele>1075.6</ele>
        <time>2021-10-10T06:16:16Z</time>
      </trkpt>
      <trkpt lat="46.29855" lon="6.7896">
        <ele>1077.2</ele>
        <time>2021-10-10T06:16:22Z</time>
      </trkpt>
      <trkpt lat="46.2986" lon="6.78961">
        <ele>1078.7</ele>
        <time>2021-10-10T06:16:26Z</time>
      </trkpt>
      <trkpt lat="46.29866" lon="6.78962">
        <ele>1080.6</ele>
        <time>2021-10-10T06:16:30Z</time>
      </trkpt>
      <trkpt lat="46.2987" lon="6.78963">
        <ele>1081.8</ele>
        <time>2021-10-10T06:16:33Z</time>
      </trkpt>
      <trkpt lat="46.29875" lon="6.78963">
        <ele>1083.3</ele>
        <time>2021-10-10T06:16:37Z</time>
      </trkpt>
      <trkpt lat="46.29879" lon="6.78962">
        <ele>1084.5</ele>
        <time>2021-10-10T06:16:41Z</time>
      </trkpt>
      <trkpt lat="46.29883" lon="6.78964">
        <ele>1085.8</ele>
        <time>2021-10-10T06:16:45Z</time>
      </trkpt>
      <trkpt lat="46.29887" lon="6.78965">
        <ele>1087.1</ele>
        <time>2021-10-10T06:16:49Z</time>
      </trkpt>
      <trkpt lat="46.29892" lon="6.78967">
        <ele>1088.6</ele>
        <time>2021-10-10T06:16:53Z</time>
      </trkpt>
      <trkpt lat="46.29896" lon="6.7897">
        <ele>1089.9</ele>
        <time>2021-10-10T06:16:58Z</time>
      </trkpt>
      <trkpt lat="46.299" lon="6.78972">
        <ele>1091.2</ele>
        <time>2021-10-10T06:17:01Z</time>
      </trkpt>
      <trkpt lat="46.29905" lon="6.78973">
        <ele>1092.8</ele>
        <time>2021-10-10T06:17:05Z</time>
      </trkpt>
      <trkpt lat="46.29909" lon="6.78976">
        <ele>1094.1</ele>
        <time>2021-10-10T06:17:09Z</time>
      </trkpt>
      <trkpt lat="46.29914" lon="6.78979">
        <ele>1095.7</ele>
        <time>2021-10-10T06:17:13Z</time>
      </trkpt>
      <trkpt lat="46.29919" lon="6.78981">
        <ele>1096.8</ele>
        <time>2021-10-10T06:17:18Z</time>
      </trkpt>
      <trkpt lat="46.29924" lon="6.78983">
        <ele>1097.4</ele>
        <time>2021-10-10T06:17:22Z</time>
      </trkpt>
      <trkpt lat="46.29928" lon="6.78984">
        <ele>1097.9</ele>
        <time>2021-10-10T06:17:25Z</time>
      </trkpt>
      <trkpt lat="46.2993" lon="6.78985">
        <ele>1098.1</ele>
        <time>2021-10-10T06:17:27Z</time>
      </trkpt>
      <trkpt lat="46.29933" lon="6.78985">
        <ele>1098.5</ele>
        <time>2021-10-10T06:17:30Z</time>
      </trkpt>
      <trkpt lat="46.29937" lon="6.78985">
        <ele>1098.9</ele>
        <time>2021-10-10T06:17:34Z</time>
      </trkpt>
      <trkpt lat="46.2994" lon="6.78988">
        <ele>1099.2</ele>
        <time>2021-10-10T06:17:37Z</time>
      </trkpt>
      <trkpt lat="46.29945" lon="6.78989">
        <ele>1099.8</ele>
        <time>2021-10-10T06:17:42Z</time>
      </trkpt>
      <trkpt lat="46.29949" lon="6.7899">
        <ele>1100.2</ele>
        <time>2021-10-10T06:17:47Z</time>
      </trkpt>
      <trkpt lat="46.29954" lon="6.78991">
        <ele>1100.7</ele>
        <time>2021-10-10T06:17:51Z</time>
      </trkpt>
      <trkpt lat="46.29959" lon="6.78993">
        <ele>1101.2</ele>
        <time>2021-10-10T06:17:55Z</time>
      </trkpt>
      <trkpt lat="46.29963" lon="6.78995">
        <ele>1101.6</ele>
        <time>2021-10-10T06:17:58Z</time>
      </trkpt>
      <trkpt lat="46.29966" lon="6.78996">
        <ele>1101.8</ele>
        <time>2021-10-10T06:18:00Z</time>
      </trkpt>
      <trkpt lat="46.29971" lon="6.78996">
        <ele>1102.3</ele>
        <time>2021-10-10T06:18:05Z</time>
      </trkpt>
      <trkpt lat="46.29976" lon="6.78998">
        <ele>1102.8</ele>
        <time>2021-10-10T06:18:11Z</time>
      </trkpt>
      <trkpt lat="46.29979" lon="6.78998">
        <ele>1103.1</ele>
        <time>2021-10-10T06:18:14Z</time>
      </trkpt>
      <trkpt lat="46.29985" lon="6.78997">
        <ele>1103.7</ele>
        <time>2021-10-10T06:18:19Z</time>
      </trkpt>
      <trkpt lat="46.2999" lon="6.78997">
        <ele>1104.2</ele>
        <time>2021-10-10T06:18:24Z</time>
      </trkpt>
      <trkpt lat="46.29994" lon="6.78997">
        <ele>1104.6</ele>
        <time>2021-10-10T06:18:28Z</time>
      </trkpt>
      <trkpt lat="46.3" lon="6.79">
        <ele>1105</ele>
        <time>2021-10-10T06:18:33Z</time>
      </trkpt>
      <trkpt lat="46.30006" lon="6.79001">
        <ele>1105.7</ele>
        <time>2021-10-10T06:18:36Z</time>
      </trkpt>
      <trkpt lat="46.30011" lon="6.79">
        <ele>1105.7</ele>
        <time>2021-10-10T06:18:40Z</time>
      </trkpt>
      <trkpt lat="46.30016" lon="6.78999">
        <ele>1106</ele>
        <time>2021-10-10T06:18:44Z</time>
      </trkpt>
      <trkpt lat="46.30021" lon="6.78998">
        <ele>1106.4</ele>
        <time>2021-10-10T06:18:48Z</time>
      </trkpt>
      <trkpt lat="46.30025" lon="6.78998">
        <ele>1106.7</ele>
        <time>2021-10-10T06:18:52Z</time>
      </trkpt>
      <trkpt lat="46.3003" lon="6.78998">
        <ele>1107</ele>
        <time>2021-10-10T06:18:56Z</time>
      </trkpt>
      <trkpt lat="46.30033" lon="6.78998">
        <ele>1107.2</ele>
        <time>2021-10-10T06:18:59Z</time>
      </trkpt>
      <trkpt lat="46.30038" lon="6.78999">
        <ele>1107.4</ele>
        <time>2021-10-10T06:19:03Z</time>
      </trkpt>
      <trkpt lat="46.30042" lon="6.79">
        <ele>1107.5</ele>
        <time>2021-10-10T06:19:07Z</time>
      </trkpt>
      <trkpt lat="46.30047" lon="6.78999">
        <ele>1107.9</ele>
        <time>2021-10-10T06:19:12Z</time>
      </trkpt>
      <trkpt lat="46.30051" lon="6.78999">
        <ele>1108.2</ele>
        <time>2021-10-10T06:19:16Z</time>
      </trkpt>
      <trkpt lat="46.30057" lon="6.78999">
        <ele>1108.5</ele>
        <time>2021-10-10T06:19:21Z</time>
      </trkpt>
      <trkpt lat="46.30061" lon="6.79">
        <ele>1108.7</ele>
        <time>2021-10-10T06:19:26Z</time>
      </trkpt>
      <trkpt lat="46.30065" lon="6.78999">
        <ele>1109</ele>
        <time>2021-10-10T06:19:30Z</time>
      </trkpt>
      <trkpt lat="46.3007" lon="6.78999">
        <ele>1109.3</ele>
        <time>2021-10-10T06:19:34Z</time>
      </trkpt>
      <trkpt lat="46.30075" lon="6.78999">
        <ele>1109.6</ele>
        <time>2021-10-10T06:19:38Z</time>
      </trkpt>
      <trkpt lat="46.3008" lon="6.78999">
        <ele>1110</ele>
        <time>2021-10-10T06:19:42Z</time>
      </trkpt>
      <trkpt lat="46.30085" lon="6.78997">
        <ele>1110.7</ele>
        <time>2021-10-10T06:19:47Z</time>
      </trkpt>
      <trkpt lat="46.30089" lon="6.78995">
        <ele>1111.5</ele>
        <time>2021-10-10T06:19:51Z</time>
      </trkpt>
      <trkpt lat="46.30093" lon="6.78994">
        <ele>1112.2</ele>
        <time>2021-10-10T06:19:56Z</time>
      </trkpt>
      <trkpt lat="46.30099" lon="6.78992">
        <ele>1113.2</ele>
        <time>2021-10-10T06:20:01Z</time>
      </trkpt>
      <trkpt lat="46.30103" lon="6.78989">
        <ele>1114.1</ele>
        <time>2021-10-10T06:20:06Z</time>
      </trkpt>
      <trkpt lat="46.30106" lon="6.78984">
        <ele>1115.1</ele>
        <time>2021-10-10T06:20:10Z</time>
      </trkpt>
      <trkpt lat="46.3011" lon="6.78979">
        <ele>1116.2</ele>
        <time>2021-10-10T06:20:14Z</time>
      </trkpt>
      <trkpt lat="46.30114" lon="6.78976">
        <ele>1117.1</ele>
        <time>2021-10-10T06:20:17Z</time>
      </trkpt>
      <trkpt lat="46.30119" lon="6.78971">
        <ele>1118.2</ele>
        <time>2021-10-10T06:20:22Z</time>
      </trkpt>
      <trkpt lat="46.30122" lon="6.78968">
        <ele>1118.8</ele>
        <time>2021-10-10T06:20:26Z</time>
      </trkpt>
      <trkpt lat="46.30126" lon="6.78965">
        <ele>1119.6</ele>
        <time>2021-10-10T06:20:30Z</time>
      </trkpt>
      <trkpt lat="46.30131" lon="6.78962">
        <ele>1120.4</ele>
        <time>2021-10-10T06:20:35Z</time>
      </trkpt>
      <trkpt lat="46.30136" lon="6.7896">
        <ele>1121.1</ele>
        <time>2021-10-10T06:20:40Z</time>
      </trkpt>
      <trkpt lat="46.3014" lon="6.78957">
        <ele>1121.7</ele>
        <time>2021-10-10T06:20:44Z</time>
      </trkpt>
      <trkpt lat="46.30145" lon="6.78954">
        <ele>1122.5</ele>
        <time>2021-10-10T06:20:48Z</time>
      </trkpt>
      <trkpt lat="46.30149" lon="6.7895">
        <ele>1123.2</ele>
        <time>2021-10-10T06:20:52Z</time>
      </trkpt>
      <trkpt lat="46.30151" lon="6.78949">
        <ele>1123.4</ele>
        <time>2021-10-10T06:20:54Z</time>
      </trkpt>
      <trkpt lat="46.30155" lon="6.78947">
        <ele>1123.9</ele>
        <time>2021-10-10T06:20:58Z</time>
      </trkpt>
      <trkpt lat="46.3016" lon="6.78945">
        <ele>1124.4</ele>
        <time>2021-10-10T06:21:03Z</time>
      </trkpt>
      <trkpt lat="46.30165" lon="6.78943">
        <ele>1125</ele>
        <time>2021-10-10T06:21:08Z</time>
      </trkpt>
      <trkpt lat="46.30171" lon="6.78943">
        <ele>1125.5</ele>
        <time>2021-10-10T06:21:12Z</time>
      </trkpt>
      <trkpt lat="46.30176" lon="6.78943">
        <ele>1125.9</ele>
        <time>2021-10-10T06:21:16Z</time>
      </trkpt>
      <trkpt lat="46.30181" lon="6.78941">
        <ele>1126.4</ele>
        <time>2021-10-10T06:21:20Z</time>
      </trkpt>
      <trkpt lat="46.30186" lon="6.7894">
        <ele>1126.8</ele>
        <time>2021-10-10T06:21:24Z</time>
      </trkpt>
      <trkpt lat="46.30191" lon="6.7894">
        <ele>1127.2</ele>
        <time>2021-10-10T06:21:28Z</time>
      </trkpt>
      <trkpt lat="46.30195" lon="6.7894">
        <ele>1127.5</ele>
        <time>2021-10-10T06:21:32Z</time>
      </trkpt>
      <trkpt lat="46.302" lon="6.78941">
        <ele>1127.9</ele>
        <time>2021-10-10T06:21:36Z</time>
      </trkpt>
      <trkpt lat="46.30204" lon="6.7894">
        <ele>1128.2</ele>
        <time>2021-10-10T06:21:41Z</time>
      </trkpt>
      <trkpt lat="46.30209" lon="6.78939">
        <ele>1128.6</ele>
        <time>2021-10-10T06:21:45Z</time>
      </trkpt>
      <trkpt lat="46.30215" lon="6.78941">
        <ele>1129.1</ele>
        <time>2021-10-10T06:21:49Z</time>
      </trkpt>
      <trkpt lat="46.3022" lon="6.78942">
        <ele>1129.5</ele>
        <time>2021-10-10T06:21:53Z</time>
      </trkpt>
      <trkpt lat="46.30224" lon="6.78941">
        <ele>1129.8</ele>
        <time>2021-10-10T06:21:57Z</time>
      </trkpt>
      <trkpt lat="46.30227" lon="6.7894">
        <ele>1130</ele>
        <time>2021-10-10T06:22:00Z</time>
      </trkpt>
      <trkpt lat="46.30232" lon="6.78939">
        <ele>1130.4</ele>
        <time>2021-10-10T06:22:04Z</time>
      </trkpt>
      <trkpt lat="46.30236" lon="6.78939">
        <ele>1130.7</ele>
        <time>2021-10-10T06:22:08Z</time>
      </trkpt>
      <trkpt lat="46.3024" lon="6.78938">
        <ele>1131</ele>
        <time>2021-10-10T06:22:11Z</time>
      </trkpt>
      <trkpt lat="46.30246" lon="6.78936">
        <ele>1131.4</ele>
        <time>2021-10-10T06:22:16Z</time>
      </trkpt>
      <trkpt lat="46.3025" lon="6.78933">
        <ele>1131.6</ele>
        <time>2021-10-10T06:22:20Z</time>
      </trkpt>
      <trkpt lat="46.30253" lon="6.78931">
        <ele>1131.6</ele>
        <time>2021-10-10T06:22:23Z</time>
      </trkpt>
      <trkpt lat="46.30258" lon="6.7893">
        <ele>1131.7</ele>
        <time>2021-10-10T06:22:27Z</time>
      </trkpt>
      <trkpt lat="46.30263" lon="6.78928">
        <ele>1131.8</ele>
        <time>2021-10-10T06:22:31Z</time>
      </trkpt>
      <trkpt lat="46.30265" lon="6.78927">
        <ele>1131.8</ele>
        <time>2021-10-10T06:22:33Z</time>
      </trkpt>
      <trkpt lat="46.30269" lon="6.78925">
        <ele>1131.8</ele>
        <time>2021-10-10T06:22:36Z</time>
      </trkpt>
      <trkpt lat="46.30274" lon="6.78925">
        <ele>1132</ele>
        <time>2021-10-10T06:22:40Z</time>
      </trkpt>
      <trkpt lat="46.30279" lon="6.78925">
        <ele>1132.1</ele>
        <time>2021-10-10T06:22:44Z</time>
      </trkpt>
      <trkpt lat="46.30283" lon="6.78924">
        <ele>1132.2</ele>
        <time>2021-10-10T06:22:47Z</time>
      </trkpt>
      <trkpt lat="46.30287" lon="6.78925">
        <ele>1132.4</ele>
        <time>2021-10-10T06:22:51Z</time>
      </trkpt>
      <trkpt lat="46.30292" lon="6.78925">
        <ele>1132.5</ele>
        <time>2021-10-10T06:22:55Z</time>
      </trkpt>
      <trkpt lat="46.30297" lon="6.78927">
        <ele>1132.8</ele>
        <time>2021-10-10T06:22:59Z</time>
      </trkpt>
      <trkpt lat="46.30303" lon="6.78929">
        <ele>1133.1</ele>
        <time>2021-10-10T06:23:04Z</time>
      </trkpt>
      <trkpt lat="46.30308" lon="6.7893">
        <ele>1133.3</ele>
        <time>2021-10-10T06:23:08Z</time>
      </trkpt>
      <trkpt lat="46.30311" lon="6.78931">
        <ele>1133.5</ele>
        <time>2021-10-10T06:23:11Z</time>
      </trkpt>
      <trkpt lat="46.30316" lon="6.78931">
        <ele>1133.6</ele>
        <time>2021-10-10T06:23:16Z</time>
      </trkpt>
      <trkpt lat="46.3032" lon="6.78931">
        <ele>1133.8</ele>
        <time>2021-10-10T06:23:21Z</time>
      </trkpt>
      <trkpt lat="46.30325" lon="6.78932">
        <ele>1134</ele>
        <time>2021-10-10T06:23:25Z</time>
      </trkpt>
      <trkpt lat="46.30329" lon="6.78931">
        <ele>1134.1</ele>
        <time>2021-10-10T06:23:30Z</time>
      </trkpt>
      <trkpt lat="46.30334" lon="6.78931">
        <ele>1134.3</ele>
        <time>2021-10-10T06:23:34Z</time>
      </trkpt>
      <trkpt lat="46.3034" lon="6.78932">
        <ele>1135.6</ele>
        <time>2021-10-10T06:23:38Z</time>
      </trkpt>
      <trkpt lat="46.30343" lon="6.78932">
        <ele>1136.2</ele>
        <time>2021-10-10T06:23:41Z</time>
      </trkpt>
      <trkpt lat="46.30347" lon="6.78929">
        <ele>1136.7</ele>
        <time>2021-10-10T06:23:46Z</time>
      </trkpt>
      <trkpt lat="46.30347" lon="6.78924">
        <ele>1136.3</ele>
        <time>2021-10-10T06:23:53Z</time>
      </trkpt>
      <trkpt lat="46.30346" lon="6.78921">
        <ele>1135.9</ele>
        <time>2021-10-10T06:23:55Z</time>
      </trkpt>
      <trkpt lat="46.30346" lon="6.78915">
        <ele>1136.1</ele>
        <time>2021-10-10T06:24:01Z</time>
      </trkpt>
      <trkpt lat="46.30345" lon="6.7892">
        <ele>1135.6</ele>
        <time>2021-10-10T06:25:13Z</time>
      </trkpt>
      <trkpt lat="46.30348" lon="6.78923">
        <ele>1136.5</ele>
        <time>2021-10-10T06:25:16Z</time>
      </trkpt>
      <trkpt lat="46.30351" lon="6.78928">
        <ele>1137.4</ele>
        <time>2021-10-10T06:25:20Z</time>
      </trkpt>
      <trkpt lat="46.30354" lon="6.78932">
        <ele>1138.3</ele>
        <time>2021-10-10T06:25:35Z</time>
      </trkpt>
      <trkpt lat="46.30354" lon="6.78939">
        <ele>1138.8</ele>
        <time>2021-10-10T06:25:42Z</time>
      </trkpt>
      <trkpt lat="46.30358" lon="6.78941">
        <ele>1139.7</ele>
        <time>2021-10-10T06:25:48Z</time>
      </trkpt>
      <trkpt lat="46.30363" lon="6.78943">
        <ele>1140.8</ele>
        <time>2021-10-10T06:25:53Z</time>
      </trkpt>
      <trkpt lat="46.30366" lon="6.78947">
        <ele>1141.6</ele>
        <time>2021-10-10T06:25:58Z</time>
      </trkpt>
      <trkpt lat="46.3037" lon="6.78954">
        <ele>1142.8</ele>
        <time>2021-10-10T06:26:04Z</time>
      </trkpt>
      <trkpt lat="46.30369" lon="6.78961">
        <ele>1143.1</ele>
        <time>2021-10-10T06:26:10Z</time>
      </trkpt>
      <trkpt lat="46.30366" lon="6.78965">
        <ele>1142.8</ele>
        <time>2021-10-10T06:26:15Z</time>
      </trkpt>
      <trkpt lat="46.30361" lon="6.78967">
        <ele>1142.1</ele>
        <time>2021-10-10T06:26:18Z</time>
      </trkpt>
      <trkpt lat="46.30355" lon="6.78969">
        <ele>1141.2</ele>
        <time>2021-10-10T06:26:22Z</time>
      </trkpt>
      <trkpt lat="46.30351" lon="6.78968">
        <ele>1140.4</ele>
        <time>2021-10-10T06:26:25Z</time>
      </trkpt>
      <trkpt lat="46.30346" lon="6.78969">
        <ele>1139.6</ele>
        <time>2021-10-10T06:26:29Z</time>
      </trkpt>
      <trkpt lat="46.30341" lon="6.78971">
        <ele>1138.9</ele>
        <time>2021-10-10T06:26:33Z</time>
      </trkpt>
      <trkpt lat="46.30337" lon="6.78972">
        <ele>1138.3</ele>
        <time>2021-10-10T06:26:36Z</time>
      </trkpt>
      <trkpt lat="46.30332" lon="6.78975">
        <ele>1137.8</ele>
        <time>2021-10-10T06:26:41Z</time>
      </trkpt>
      <trkpt lat="46.30327" lon="6.78978">
        <ele>1137.8</ele>
        <time>2021-10-10T06:26:45Z</time>
      </trkpt>
      <trkpt lat="46.30322" lon="6.78979">
        <ele>1137.6</ele>
        <time>2021-10-10T06:26:49Z</time>
      </trkpt>
      <trkpt lat="46.3032" lon="6.78982">
        <ele>1137.7</ele>
        <time>2021-10-10T06:26:52Z</time>
      </trkpt>
      <trkpt lat="46.30316" lon="6.78985">
        <ele>1137.6</ele>
        <time>2021-10-10T06:26:57Z</time>
      </trkpt>
      <trkpt lat="46.30311" lon="6.78988">
        <ele>1137.5</ele>
        <time>2021-10-10T06:27:02Z</time>
      </trkpt>
      <trkpt lat="46.30307" lon="6.7899">
        <ele>1137.4</ele>
        <time>2021-10-10T06:27:06Z</time>
      </trkpt>
      <trkpt lat="46.30306" lon="6.78998">
        <ele>1137.9</ele>
        <time>2021-10-10T06:27:12Z</time>
      </trkpt>
      <trkpt lat="46.30301" lon="6.79002">
        <ele>1138.4</ele>
        <time>2021-10-10T06:27:17Z</time>
      </trkpt>
      <trkpt lat="46.30296" lon="6.79004">
        <ele>1138.7</ele>
        <time>2021-10-10T06:27:22Z</time>
      </trkpt>
      <trkpt lat="46.30291" lon="6.79007">
        <ele>1139.5</ele>
        <time>2021-10-10T06:27:28Z</time>
      </trkpt>
      <trkpt lat="46.30288" lon="6.79008">
        <ele>1139.6</ele>
        <time>2021-10-10T06:27:31Z</time>
      </trkpt>
      <trkpt lat="46.30283" lon="6.79008">
        <ele>1139.3</ele>
        <time>2021-10-10T06:27:35Z</time>
      </trkpt>
      <trkpt lat="46.30279" lon="6.79009">
        <ele>1139.4</ele>
        <time>2021-10-10T06:27:39Z</time>
      </trkpt>
      <trkpt lat="46.30274" lon="6.7901">
        <ele>1139.4</ele>
        <time>2021-10-10T06:27:43Z</time>
      </trkpt>
      <trkpt lat="46.3027" lon="6.79012">
        <ele>1139.8</ele>
        <time>2021-10-10T06:27:47Z</time>
      </trkpt>
      <trkpt lat="46.30265" lon="6.79014">
        <ele>1140.2</ele>
        <time>2021-10-10T06:27:51Z</time>
      </trkpt>
      <trkpt lat="46.30261" lon="6.79015">
        <ele>1140.3</ele>
        <time>2021-10-10T06:27:54Z</time>
      </trkpt>
      <trkpt lat="46.30256" lon="6.79017">
        <ele>1140.7</ele>
        <time>2021-10-10T06:27:58Z</time>
      </trkpt>
      <trkpt lat="46.30253" lon="6.7902">
        <ele>1141.6</ele>
        <time>2021-10-10T06:28:01Z</time>
      </trkpt>
      <trkpt lat="46.30249" lon="6.79023">
        <ele>1142.4</ele>
        <time>2021-10-10T06:28:05Z</time>
      </trkpt>
      <trkpt lat="46.30245" lon="6.79027">
        <ele>1143.2</ele>
        <time>2021-10-10T06:28:09Z</time>
      </trkpt>
      <trkpt lat="46.30241" lon="6.79031">
        <ele>1144</ele>
        <time>2021-10-10T06:28:13Z</time>
      </trkpt>
      <trkpt lat="46.30237" lon="6.79035">
        <ele>1144.9</ele>
        <time>2021-10-10T06:28:17Z</time>
      </trkpt>
      <trkpt lat="46.30233" lon="6.79038">
        <ele>1145.3</ele>
        <time>2021-10-10T06:28:21Z</time>
      </trkpt>
      <trkpt lat="46.30229" lon="6.79041">
        <ele>1145.7</ele>
        <time>2021-10-10T06:28:25Z</time>
      </trkpt>
      <trkpt lat="46.30223" lon="6.79044">
        <ele>1145.8</ele>
        <time>2021-10-10T06:28:30Z</time>
      </trkpt>
      <trkpt lat="46.30219" lon="6.79048">
        <ele>1146.6</ele>
        <time>2021-10-10T06:28:35Z</time>
      </trkpt>
      <trkpt lat="46.30214" lon="6.79051">
        <ele>1146.8</ele>
        <time>2021-10-10T06:28:40Z</time>
      </trkpt>
      <trkpt lat="46.30208" lon="6.79053">
        <ele>1146.5</ele>
        <time>2021-10-10T06:28:45Z</time>
      </trkpt>
      <trkpt lat="46.30203" lon="6.79057">
        <ele>1147.1</ele>
        <time>2021-10-10T06:28:50Z</time>
      </trkpt>
      <trkpt lat="46.302" lon="6.7906">
        <ele>1147.7</ele>
        <time>2021-10-10T06:28:54Z</time>
      </trkpt>
      <trkpt lat="46.30196" lon="6.79065">
        <ele>1148.7</ele>
        <time>2021-10-10T06:28:58Z</time>
      </trkpt>
      <trkpt lat="46.30192" lon="6.79069">
        <ele>1149.5</ele>
        <time>2021-10-10T06:29:02Z</time>
      </trkpt>
      <trkpt lat="46.3019" lon="6.79075">
        <ele>1151.2</ele>
        <time>2021-10-10T06:29:07Z</time>
      </trkpt>
      <trkpt lat="46.30186" lon="6.7908">
        <ele>1152.3</ele>
        <time>2021-10-10T06:29:11Z</time>
      </trkpt>
      <trkpt lat="46.30183" lon="6.79085">
        <ele>1153.5</ele>
        <time>2021-10-10T06:29:15Z</time>
      </trkpt>
      <trkpt lat="46.30179" lon="6.79089">
        <ele>1154.2</ele>
        <time>2021-10-10T06:29:19Z</time>
      </trkpt>
      <trkpt lat="46.30175" lon="6.79092">
        <ele>1154.5</ele>
        <time>2021-10-10T06:29:23Z</time>
      </trkpt>
      <trkpt lat="46.3017" lon="6.79094">
        <ele>1154.3</ele>
        <time>2021-10-10T06:29:27Z</time>
      </trkpt>
      <trkpt lat="46.30166" lon="6.79094">
        <ele>1153.6</ele>
        <time>2021-10-10T06:29:30Z</time>
      </trkpt>
      <trkpt lat="46.30162" lon="6.79094">
        <ele>1152.7</ele>
        <time>2021-10-10T06:29:33Z</time>
      </trkpt>
      <trkpt lat="46.30157" lon="6.79094">
        <ele>1151.7</ele>
        <time>2021-10-10T06:29:37Z</time>
      </trkpt>
      <trkpt lat="46.30152" lon="6.79096">
        <ele>1151.3</ele>
        <time>2021-10-10T06:29:41Z</time>
      </trkpt>
      <trkpt lat="46.30147" lon="6.79098">
        <ele>1150.9</ele>
        <time>2021-10-10T06:29:45Z</time>
      </trkpt>
      <trkpt lat="46.30143" lon="6.791">
        <ele>1150.8</ele>
        <time>2021-10-10T06:29:49Z</time>
      </trkpt>
      <trkpt lat="46.30139" lon="6.79103">
        <ele>1151</ele>
        <time>2021-10-10T06:29:53Z</time>
      </trkpt>
      <trkpt lat="46.30135" lon="6.79107">
        <ele>1151.6</ele>
        <time>2021-10-10T06:29:57Z</time>
      </trkpt>
      <trkpt lat="46.30132" lon="6.79109">
        <ele>1151.7</ele>
        <time>2021-10-10T06:30:00Z</time>
      </trkpt>
      <trkpt lat="46.30127" lon="6.79114">
        <ele>1152.5</ele>
        <time>2021-10-10T06:30:05Z</time>
      </trkpt>
      <trkpt lat="46.30124" lon="6.79119">
        <ele>1153.6</ele>
        <time>2021-10-10T06:30:09Z</time>
      </trkpt>
      <trkpt lat="46.3012" lon="6.79123">
        <ele>1154.3</ele>
        <time>2021-10-10T06:30:13Z</time>
      </trkpt>
      <trkpt lat="46.30117" lon="6.79129">
        <ele>1155.8</ele>
        <time>2021-10-10T06:30:17Z</time>
      </trkpt>
      <trkpt lat="46.30114" lon="6.79135">
        <ele>1157.4</ele>
        <time>2021-10-10T06:30:21Z</time>
      </trkpt>
      <trkpt lat="46.30111" lon="6.7914">
        <ele>1158.6</ele>
        <time>2021-10-10T06:30:25Z</time>
      </trkpt>
      <trkpt lat="46.30108" lon="6.79146">
        <ele>1160.2</ele>
        <time>2021-10-10T06:30:29Z</time>
      </trkpt>
      <trkpt lat="46.30105" lon="6.79151">
        <ele>1161.4</ele>
        <time>2021-10-10T06:30:33Z</time>
      </trkpt>
      <trkpt lat="46.30101" lon="6.79157">
        <ele>1162.8</ele>
        <time>2021-10-10T06:30:37Z</time>
      </trkpt>
      <trkpt lat="46.30098" lon="6.79164">
        <ele>1164.8</ele>
        <time>2021-10-10T06:30:41Z</time>
      </trkpt>
      <trkpt lat="46.30095" lon="6.7917">
        <ele>1166.1</ele>
        <time>2021-10-10T06:30:45Z</time>
      </trkpt>
      <trkpt lat="46.30092" lon="6.79174">
        <ele>1166.6</ele>
        <time>2021-10-10T06:30:48Z</time>
      </trkpt>
      <trkpt lat="46.30088" lon="6.7918">
        <ele>1167.5</ele>
        <time>2021-10-10T06:30:52Z</time>
      </trkpt>
      <trkpt lat="46.30083" lon="6.79184">
        <ele>1167.7</ele>
        <time>2021-10-10T06:30:56Z</time>
      </trkpt>
      <trkpt lat="46.30079" lon="6.79185">
        <ele>1167.6</ele>
        <time>2021-10-10T06:30:59Z</time>
      </trkpt>
      <trkpt lat="46.30075" lon="6.79186">
        <ele>1167.4</ele>
        <time>2021-10-10T06:31:02Z</time>
      </trkpt>
      <trkpt lat="46.3007" lon="6.79187">
        <ele>1167.1</ele>
        <time>2021-10-10T06:31:05Z</time>
      </trkpt>
      <trkpt lat="46.30067" lon="6.79187">
        <ele>1166.7</ele>
        <time>2021-10-10T06:31:08Z</time>
      </trkpt>
      <trkpt lat="46.30062" lon="6.79188">
        <ele>1166.4</ele>
        <time>2021-10-10T06:31:11Z</time>
      </trkpt>
      <trkpt lat="46.30058" lon="6.79189">
        <ele>1166.2</ele>
        <time>2021-10-10T06:31:14Z</time>
      </trkpt>
      <trkpt lat="46.30054" lon="6.79188">
        <ele>1165.4</ele>
        <time>2021-10-10T06:31:17Z</time>
      </trkpt>
      <trkpt lat="46.30049" lon="6.7919">
        <ele>1165.4</ele>
        <time>2021-10-10T06:31:22Z</time>
      </trkpt>
      <trkpt lat="46.30044" lon="6.7919">
        <ele>1164.8</ele>
        <time>2021-10-10T06:31:26Z</time>
      </trkpt>
      <trkpt lat="46.30039" lon="6.79192">
        <ele>1164.7</ele>
        <time>2021-10-10T06:31:33Z</time>
      </trkpt>
      <trkpt lat="46.30034" lon="6.79191">
        <ele>1163.9</ele>
        <time>2021-10-10T06:31:37Z</time>
      </trkpt>
      <trkpt lat="46.30031" lon="6.7919">
        <ele>1163.3</ele>
        <time>2021-10-10T06:31:40Z</time>
      </trkpt>
      <trkpt lat="46.30027" lon="6.79188">
        <ele>1162.3</ele>
        <time>2021-10-10T06:31:43Z</time>
      </trkpt>
      <trkpt lat="46.30022" lon="6.79187">
        <ele>1161.4</ele>
        <time>2021-10-10T06:31:47Z</time>
      </trkpt>
      <trkpt lat="46.30017" lon="6.79186">
        <ele>1160.6</ele>
        <time>2021-10-10T06:31:51Z</time>
      </trkpt>
      <trkpt lat="46.3002" lon="6.79192">
        <ele>1162.5</ele>
        <time>2021-10-10T06:32:05Z</time>
      </trkpt>
      <trkpt lat="46.30023" lon="6.79197">
        <ele>1164.1</ele>
        <time>2021-10-10T06:32:09Z</time>
      </trkpt>
      <trkpt lat="46.30025" lon="6.79199">
        <ele>1164.8</ele>
        <time>2021-10-10T06:32:11Z</time>
      </trkpt>
      <trkpt lat="46.30028" lon="6.79201">
        <ele>1165.7</ele>
        <time>2021-10-10T06:32:13Z</time>
      </trkpt>
      <trkpt lat="46.30032" lon="6.79204">
        <ele>1166.9</ele>
        <time>2021-10-10T06:32:17Z</time>
      </trkpt>
      <trkpt lat="46.30036" lon="6.79205">
        <ele>1167.7</ele>
        <time>2021-10-10T06:32:21Z</time>
      </trkpt>
      <trkpt lat="46.30041" lon="6.79208">
        <ele>1169.1</ele>
        <time>2021-10-10T06:32:26Z</time>
      </trkpt>
      <trkpt lat="46.30045" lon="6.79209">
        <ele>1169.8</ele>
        <time>2021-10-10T06:32:30Z</time>
      </trkpt>
      <trkpt lat="46.30051" lon="6.7921">
        <ele>1170.9</ele>
        <time>2021-10-10T06:32:35Z</time>
      </trkpt>
      <trkpt lat="46.30056" lon="6.79209">
        <ele>1171.2</ele>
        <time>2021-10-10T06:32:39Z</time>
      </trkpt>
      <trkpt lat="46.3006" lon="6.79208">
        <ele>1171.5</ele>
        <time>2021-10-10T06:32:43Z</time>
      </trkpt>
      <trkpt lat="46.30065" lon="6.79207">
        <ele>1171.8</ele>
        <time>2021-10-10T06:32:49Z</time>
      </trkpt>
      <trkpt lat="46.3007" lon="6.79208">
        <ele>1172.7</ele>
        <time>2021-10-10T06:32:54Z</time>
      </trkpt>
      <trkpt lat="46.30075" lon="6.79208">
        <ele>1173.4</ele>
        <time>2021-10-10T06:32:59Z</time>
      </trkpt>
      <trkpt lat="46.30078" lon="6.7921">
        <ele>1174.3</ele>
        <time>2021-10-10T06:33:04Z</time>
      </trkpt>
      <trkpt lat="46.30083" lon="6.79213">
        <ele>1175.7</ele>
        <time>2021-10-10T06:33:10Z</time>
      </trkpt>
      <trkpt lat="46.30087" lon="6.79216">
        <ele>1177.2</ele>
        <time>2021-10-10T06:33:17Z</time>
      </trkpt>
      <trkpt lat="46.30092" lon="6.79219">
        <ele>1178.7</ele>
        <time>2021-10-10T06:33:23Z</time>
      </trkpt>
      <trkpt lat="46.30097" lon="6.79223">
        <ele>1180.5</ele>
        <time>2021-10-10T06:33:29Z</time>
      </trkpt>
      <trkpt lat="46.30099" lon="6.79224">
        <ele>1181.1</ele>
        <time>2021-10-10T06:33:33Z</time>
      </trkpt>
      <trkpt lat="46.30104" lon="6.79228">
        <ele>1182.8</ele>
        <time>2021-10-10T06:33:37Z</time>
      </trkpt>
      <trkpt lat="46.30109" lon="6.7923">
        <ele>1184</ele>
        <time>2021-10-10T06:33:40Z</time>
      </trkpt>
      <trkpt lat="46.30114" lon="6.79231">
        <ele>1184.9</ele>
        <time>2021-10-10T06:33:43Z</time>
      </trkpt>
      <trkpt lat="46.3012" lon="6.7923">
        <ele>1185.5</ele>
        <time>2021-10-10T06:33:47Z</time>
      </trkpt>
      <trkpt lat="46.30123" lon="6.79226">
        <ele>1185</ele>
        <time>2021-10-10T06:33:50Z</time>
      </trkpt>
      <trkpt lat="46.30126" lon="6.79222">
        <ele>1184.4</ele>
        <time>2021-10-10T06:33:53Z</time>
      </trkpt>
      <trkpt lat="46.30128" lon="6.79216">
        <ele>1183.3</ele>
        <time>2021-10-10T06:33:57Z</time>
      </trkpt>
      <trkpt lat="46.3013" lon="6.7921">
        <ele>1182.2</ele>
        <time>2021-10-10T06:34:01Z</time>
      </trkpt>
      <trkpt lat="46.30133" lon="6.79204">
        <ele>1181.2</ele>
        <time>2021-10-10T06:34:05Z</time>
      </trkpt>
      <trkpt lat="46.30137" lon="6.79204">
        <ele>1181.9</ele>
        <time>2021-10-10T06:34:10Z</time>
      </trkpt>
      <trkpt lat="46.30138" lon="6.79209">
        <ele>1183.2</ele>
        <time>2021-10-10T06:34:14Z</time>
      </trkpt>
      <trkpt lat="46.30139" lon="6.79215">
        <ele>1184.7</ele>
        <time>2021-10-10T06:34:18Z</time>
      </trkpt>
      <trkpt lat="46.30138" lon="6.79222">
        <ele>1186.2</ele>
        <time>2021-10-10T06:34:23Z</time>
      </trkpt>
      <trkpt lat="46.30138" lon="6.79228">
        <ele>1187.5</ele>
        <time>2021-10-10T06:34:27Z</time>
      </trkpt>
      <trkpt lat="46.30139" lon="6.79234">
        <ele>1189</ele>
        <time>2021-10-10T06:34:31Z</time>
      </trkpt>
      <trkpt lat="46.30141" lon="6.79241">
        <ele>1190.9</ele>
        <time>2021-10-10T06:34:35Z</time>
      </trkpt>
      <trkpt lat="46.30141" lon="6.79247">
        <ele>1192.2</ele>
        <time>2021-10-10T06:34:39Z</time>
      </trkpt>
      <trkpt lat="46.30141" lon="6.79254">
        <ele>1194</ele>
        <time>2021-10-10T06:34:44Z</time>
      </trkpt>
      <trkpt lat="46.30139" lon="6.7926">
        <ele>1195.4</ele>
        <time>2021-10-10T06:34:49Z</time>
      </trkpt>
      <trkpt lat="46.30137" lon="6.79265">
        <ele>1196.5</ele>
        <time>2021-10-10T06:34:55Z</time>
      </trkpt>
      <trkpt lat="46.30142" lon="6.79267">
        <ele>1197.5</ele>
        <time>2021-10-10T06:35:01Z</time>
      </trkpt>
      <trkpt lat="46.30145" lon="6.79269">
        <ele>1198.3</ele>
        <time>2021-10-10T06:35:07Z</time>
      </trkpt>
      <trkpt lat="46.30149" lon="6.7927">
        <ele>1198.9</ele>
        <time>2021-10-10T06:35:13Z</time>
      </trkpt>
      <trkpt lat="46.30154" lon="6.7927">
        <ele>1199.3</ele>
        <time>2021-10-10T06:35:19Z</time>
      </trkpt>
      <trkpt lat="46.30159" lon="6.7927">
        <ele>1199.7</ele>
        <time>2021-10-10T06:35:25Z</time>
      </trkpt>
      <trkpt lat="46.30163" lon="6.79269">
        <ele>1199.8</ele>
        <time>2021-10-10T06:35:29Z</time>
      </trkpt>
      <trkpt lat="46.30168" lon="6.79268">
        <ele>1200.1</ele>
        <time>2021-10-10T06:35:34Z</time>
      </trkpt>
      <trkpt lat="46.30173" lon="6.79267">
        <ele>1200.5</ele>
        <time>2021-10-10T06:35:40Z</time>
      </trkpt>
      <trkpt lat="46.30178" lon="6.79265">
        <ele>1200.7</ele>
        <time>2021-10-10T06:35:45Z</time>
      </trkpt>
      <trkpt lat="46.30182" lon="6.79265">
        <ele>1201.3</ele>
        <time>2021-10-10T06:35:49Z</time>
      </trkpt>
      <trkpt lat="46.30186" lon="6.79263">
        <ele>1201.3</ele>
        <time>2021-10-10T06:35:51Z</time>
      </trkpt>
      <trkpt lat="46.30191" lon="6.79261">
        <ele>1201.5</ele>
        <time>2021-10-10T06:35:58Z</time>
      </trkpt>
      <trkpt lat="46.30195" lon="6.79261">
        <ele>1202</ele>
        <time>2021-10-10T06:36:01Z</time>
      </trkpt>
      <trkpt lat="46.302" lon="6.79258">
        <ele>1202</ele>
        <time>2021-10-10T06:36:06Z</time>
      </trkpt>
      <trkpt lat="46.30203" lon="6.79253">
        <ele>1201.1</ele>
        <time>2021-10-10T06:36:10Z</time>
      </trkpt>
      <trkpt lat="46.30207" lon="6.79249">
        <ele>1200.7</ele>
        <time>2021-10-10T06:36:15Z</time>
      </trkpt>
      <trkpt lat="46.30211" lon="6.79247">
        <ele>1200.8</ele>
        <time>2021-10-10T06:36:20Z</time>
      </trkpt>
      <trkpt lat="46.30216" lon="6.79246">
        <ele>1201.2</ele>
        <time>2021-10-10T06:36:26Z</time>
      </trkpt>
      <trkpt lat="46.30219" lon="6.79245">
        <ele>1201.4</ele>
        <time>2021-10-10T06:36:28Z</time>
      </trkpt>
      <trkpt lat="46.30223" lon="6.79242">
        <ele>1201.4</ele>
        <time>2021-10-10T06:36:32Z</time>
      </trkpt>
      <trkpt lat="46.30228" lon="6.7924">
        <ele>1201.7</ele>
        <time>2021-10-10T06:36:35Z</time>
      </trkpt>
      <trkpt lat="46.30232" lon="6.79235">
        <ele>1201.3</ele>
        <time>2021-10-10T06:36:38Z</time>
      </trkpt>
      <trkpt lat="46.30237" lon="6.79231">
        <ele>1201.3</ele>
        <time>2021-10-10T06:36:41Z</time>
      </trkpt>
      <trkpt lat="46.30242" lon="6.79228">
        <ele>1201.5</ele>
        <time>2021-10-10T06:36:44Z</time>
      </trkpt>
      <trkpt lat="46.30246" lon="6.79226">
        <ele>1201.7</ele>
        <time>2021-10-10T06:36:47Z</time>
      </trkpt>
      <trkpt lat="46.30251" lon="6.79222">
        <ele>1201.7</ele>
        <time>2021-10-10T06:36:53Z</time>
      </trkpt>
      <trkpt lat="46.30255" lon="6.79219">
        <ele>1201.4</ele>
        <time>2021-10-10T06:36:56Z</time>
      </trkpt>
      <trkpt lat="46.30259" lon="6.79215">
        <ele>1201</ele>
        <time>2021-10-10T06:37:00Z</time>
      </trkpt>
      <trkpt lat="46.30265" lon="6.79214">
        <ele>1201.1</ele>
        <time>2021-10-10T06:37:03Z</time>
      </trkpt>
      <trkpt lat="46.3027" lon="6.79207">
        <ele>1200.1</ele>
        <time>2021-10-10T06:37:06Z</time>
      </trkpt>
      <trkpt lat="46.30274" lon="6.79202">
        <ele>1199.3</ele>
        <time>2021-10-10T06:37:09Z</time>
      </trkpt>
      <trkpt lat="46.30277" lon="6.79198">
        <ele>1198.7</ele>
        <time>2021-10-10T06:37:12Z</time>
      </trkpt>
      <trkpt lat="46.30281" lon="6.79195">
        <ele>1198.2</ele>
        <time>2021-10-10T06:37:15Z</time>
      </trkpt>
      <trkpt lat="46.30285" lon="6.79192">
        <ele>1197.7</ele>
        <time>2021-10-10T06:37:18Z</time>
      </trkpt>
      <trkpt lat="46.30289" lon="6.79188">
        <ele>1196.9</ele>
        <time>2021-10-10T06:37:22Z</time>
      </trkpt>
      <trkpt lat="46.30293" lon="6.79184">
        <ele>1196.2</ele>
        <time>2021-10-10T06:37:26Z</time>
      </trkpt>
      <trkpt lat="46.30299" lon="6.79182">
        <ele>1195.8</ele>
        <time>2021-10-10T06:37:30Z</time>
      </trkpt>
      <trkpt lat="46.30304" lon="6.79178">
        <ele>1194.9</ele>
        <time>2021-10-10T06:37:34Z</time>
      </trkpt>
      <trkpt lat="46.30309" lon="6.79176">
        <ele>1194.5</ele>
        <time>2021-10-10T06:37:37Z</time>
      </trkpt>
      <trkpt lat="46.30312" lon="6.79174">
        <ele>1194</ele>
        <time>2021-10-10T06:37:40Z</time>
      </trkpt>
      <trkpt lat="46.30317" lon="6.79173">
        <ele>1193.7</ele>
        <time>2021-10-10T06:37:44Z</time>
      </trkpt>
      <trkpt lat="46.30321" lon="6.79173">
        <ele>1193.7</ele>
        <time>2021-10-10T06:37:48Z</time>
      </trkpt>
      <trkpt lat="46.30326" lon="6.79173">
        <ele>1193.7</ele>
        <time>2021-10-10T06:37:53Z</time>
      </trkpt>
      <trkpt lat="46.30331" lon="6.79177">
        <ele>1194.7</ele>
        <time>2021-10-10T06:37:58Z</time>
      </trkpt>
      <trkpt lat="46.30336" lon="6.7918">
        <ele>1195.8</ele>
        <time>2021-10-10T06:38:03Z</time>
      </trkpt>
      <trkpt lat="46.3034" lon="6.79177">
        <ele>1195.5</ele>
        <time>2021-10-10T06:38:11Z</time>
      </trkpt>
      <trkpt lat="46.30345" lon="6.79177">
        <ele>1196</ele>
        <time>2021-10-10T06:38:15Z</time>
      </trkpt>
      <trkpt lat="46.3035" lon="6.79175">
        <ele>1196</ele>
        <time>2021-10-10T06:38:21Z</time>
      </trkpt>
      <trkpt lat="46.30356" lon="6.79173">
        <ele>1196.2</ele>
        <time>2021-10-10T06:38:25Z</time>
      </trkpt>
      <trkpt lat="46.3036" lon="6.79172">
        <ele>1196.3</ele>
        <time>2021-10-10T06:38:28Z</time>
      </trkpt>
      <trkpt lat="46.30365" lon="6.7917">
        <ele>1196.3</ele>
        <time>2021-10-10T06:38:32Z</time>
      </trkpt>
      <trkpt lat="46.3037" lon="6.7917">
        <ele>1196.9</ele>
        <time>2021-10-10T06:38:35Z</time>
      </trkpt>
      <trkpt lat="46.30374" lon="6.79167">
        <ele>1196.5</ele>
        <time>2021-10-10T06:38:39Z</time>
      </trkpt>
      <trkpt lat="46.30379" lon="6.79164">
        <ele>1196.2</ele>
        <time>2021-10-10T06:38:43Z</time>
      </trkpt>
      <trkpt lat="46.30383" lon="6.79162">
        <ele>1196.1</ele>
        <time>2021-10-10T06:38:47Z</time>
      </trkpt>
      <trkpt lat="46.30387" lon="6.79158">
        <ele>1195.4</ele>
        <time>2021-10-10T06:38:51Z</time>
      </trkpt>
      <trkpt lat="46.30392" lon="6.79155">
        <ele>1195.1</ele>
        <time>2021-10-10T06:38:55Z</time>
      </trkpt>
      <trkpt lat="46.30396" lon="6.79151">
        <ele>1194.4</ele>
        <time>2021-10-10T06:38:59Z</time>
      </trkpt>
      <trkpt lat="46.304" lon="6.7915">
        <ele>1194.6</ele>
        <time>2021-10-10T06:39:03Z</time>
      </trkpt>
      <trkpt lat="46.30406" lon="6.79146">
        <ele>1194.1</ele>
        <time>2021-10-10T06:39:07Z</time>
      </trkpt>
      <trkpt lat="46.3041" lon="6.79144">
        <ele>1194</ele>
        <time>2021-10-10T06:39:11Z</time>
      </trkpt>
      <trkpt lat="46.30415" lon="6.79143">
        <ele>1194.3</ele>
        <time>2021-10-10T06:39:14Z</time>
      </trkpt>
      <trkpt lat="46.30419" lon="6.7914">
        <ele>1193.8</ele>
        <time>2021-10-10T06:39:17Z</time>
      </trkpt>
      <trkpt lat="46.30424" lon="6.79137">
        <ele>1193.3</ele>
        <time>2021-10-10T06:39:20Z</time>
      </trkpt>
      <trkpt lat="46.30428" lon="6.79135">
        <ele>1193</ele>
        <time>2021-10-10T06:39:23Z</time>
      </trkpt>
      <trkpt lat="46.30432" lon="6.79133">
        <ele>1192.7</ele>
        <time>2021-10-10T06:39:27Z</time>
      </trkpt>
      <trkpt lat="46.30437" lon="6.7913">
        <ele>1192.3</ele>
        <time>2021-10-10T06:39:31Z</time>
      </trkpt>
      <trkpt lat="46.30441" lon="6.79128">
        <ele>1192</ele>
        <time>2021-10-10T06:39:34Z</time>
      </trkpt>
      <trkpt lat="46.30445" lon="6.79125">
        <ele>1191.5</ele>
        <time>2021-10-10T06:39:37Z</time>
      </trkpt>
      <trkpt lat="46.30451" lon="6.79122">
        <ele>1191.2</ele>
        <time>2021-10-10T06:39:41Z</time>
      </trkpt>
      <trkpt lat="46.30454" lon="6.79121">
        <ele>1191.2</ele>
        <time>2021-10-10T06:39:44Z</time>
      </trkpt>
      <trkpt lat="46.30459" lon="6.7912">
        <ele>1191.3</ele>
        <time>2021-10-10T06:40:19Z</time>
      </trkpt>
      <trkpt lat="46.30462" lon="6.79121">
        <ele>1191.8</ele>
        <time>2021-10-10T06:40:22Z</time>
      </trkpt>
      <trkpt lat="46.30467" lon="6.79123">
        <ele>1192.6</ele>
        <time>2021-10-10T06:40:27Z</time>
      </trkpt>
      <trkpt lat="46.30472" lon="6.79123">
        <ele>1193</ele>
        <time>2021-10-10T06:40:30Z</time>
      </trkpt>
      <trkpt lat="46.30477" lon="6.79125">
        <ele>1193.8</ele>
        <time>2021-10-10T06:40:34Z</time>
      </trkpt>
      <trkpt lat="46.30481" lon="6.79126">
        <ele>1194.4</ele>
        <time>2021-10-10T06:40:38Z</time>
      </trkpt>
      <trkpt lat="46.30486" lon="6.79129">
        <ele>1195.4</ele>
        <time>2021-10-10T06:40:43Z</time>
      </trkpt>
      <trkpt lat="46.30491" lon="6.7913">
        <ele>1196</ele>
        <time>2021-10-10T06:40:47Z</time>
      </trkpt>
      <trkpt lat="46.30495" lon="6.79135">
        <ele>1197.4</ele>
        <time>2021-10-10T06:40:51Z</time>
      </trkpt>
      <trkpt lat="46.30498" lon="6.79138">
        <ele>1198.3</ele>
        <time>2021-10-10T06:40:54Z</time>
      </trkpt>
      <trkpt lat="46.30502" lon="6.79144">
        <ele>1200.2</ele>
        <time>2021-10-10T06:40:59Z</time>
      </trkpt>
      <trkpt lat="46.30506" lon="6.79148">
        <ele>1201.8</ele>
        <time>2021-10-10T06:41:03Z</time>
      </trkpt>
      <trkpt lat="46.3051" lon="6.7915">
        <ele>1202.9</ele>
        <time>2021-10-10T06:41:05Z</time>
      </trkpt>
      <trkpt lat="46.30515" lon="6.79151">
        <ele>1204</ele>
        <time>2021-10-10T06:41:08Z</time>
      </trkpt>
      <trkpt lat="46.3052" lon="6.79151">
        <ele>1204.8</ele>
        <time>2021-10-10T06:41:11Z</time>
      </trkpt>
      <trkpt lat="46.30523" lon="6.79149">
        <ele>1204.9</ele>
        <time>2021-10-10T06:41:16Z</time>
      </trkpt>
      <trkpt lat="46.30526" lon="6.79145">
        <ele>1204.6</ele>
        <time>2021-10-10T06:41:20Z</time>
      </trkpt>
      <trkpt lat="46.30531" lon="6.79142">
        <ele>1204.9</ele>
        <time>2021-10-10T06:41:24Z</time>
      </trkpt>
      <trkpt lat="46.30535" lon="6.79141">
        <ele>1205.4</ele>
        <time>2021-10-10T06:41:26Z</time>
      </trkpt>
      <trkpt lat="46.3054" lon="6.79139">
        <ele>1205.9</ele>
        <time>2021-10-10T06:41:29Z</time>
      </trkpt>
      <trkpt lat="46.30546" lon="6.79133">
        <ele>1205.8</ele>
        <time>2021-10-10T06:41:33Z</time>
      </trkpt>
      <trkpt lat="46.30545" lon="6.79126">
        <ele>1204.3</ele>
        <time>2021-10-10T06:41:37Z</time>
      </trkpt>
      <trkpt lat="46.30543" lon="6.79122">
        <ele>1203.2</ele>
        <time>2021-10-10T06:41:40Z</time>
      </trkpt>
      <trkpt lat="46.3054" lon="6.79113">
        <ele>1200.9</ele>
        <time>2021-10-10T06:41:46Z</time>
      </trkpt>
      <trkpt lat="46.3054" lon="6.79107">
        <ele>1199.7</ele>
        <time>2021-10-10T06:41:49Z</time>
      </trkpt>
      <trkpt lat="46.30541" lon="6.791">
        <ele>1198.6</ele>
        <time>2021-10-10T06:41:53Z</time>
      </trkpt>
      <trkpt lat="46.30542" lon="6.79092">
        <ele>1197.2</ele>
        <time>2021-10-10T06:41:58Z</time>
      </trkpt>
      <trkpt lat="46.30541" lon="6.79086">
        <ele>1195.9</ele>
        <time>2021-10-10T06:42:00Z</time>
      </trkpt>
      <trkpt lat="46.30543" lon="6.79079">
        <ele>1194.7</ele>
        <time>2021-10-10T06:42:03Z</time>
      </trkpt>
      <trkpt lat="46.30545" lon="6.79074">
        <ele>1193.9</ele>
        <time>2021-10-10T06:42:06Z</time>
      </trkpt>
      <trkpt lat="46.30548" lon="6.79068">
        <ele>1193</ele>
        <time>2021-10-10T06:42:10Z</time>
      </trkpt>
      <trkpt lat="46.30553" lon="6.79063">
        <ele>1192.9</ele>
        <time>2021-10-10T06:42:14Z</time>
      </trkpt>
      <trkpt lat="46.30556" lon="6.79059">
        <ele>1192.6</ele>
        <time>2021-10-10T06:42:17Z</time>
      </trkpt>
      <trkpt lat="46.30557" lon="6.79053">
        <ele>1191.4</ele>
        <time>2021-10-10T06:42:22Z</time>
      </trkpt>
      <trkpt lat="46.3056" lon="6.79057">
        <ele>1193.1</ele>
        <time>2021-10-10T06:42:45Z</time>
      </trkpt>
      <trkpt lat="46.30565" lon="6.7906">
        <ele>1195</ele>
        <time>2021-10-10T06:42:55Z</time>
      </trkpt>
      <trkpt lat="46.3057" lon="6.79064">
        <ele>1197.2</ele>
        <time>2021-10-10T06:43:03Z</time>
      </trkpt>
      <trkpt lat="46.30574" lon="6.79067">
        <ele>1198.9</ele>
        <time>2021-10-10T06:43:08Z</time>
      </trkpt>
      <trkpt lat="46.30578" lon="6.79071">
        <ele>1200.8</ele>
        <time>2021-10-10T06:43:16Z</time>
      </trkpt>
      <trkpt lat="46.30582" lon="6.79074">
        <ele>1202.5</ele>
        <time>2021-10-10T06:43:25Z</time>
      </trkpt>
      <trkpt lat="46.30586" lon="6.79076">
        <ele>1204</ele>
        <time>2021-10-10T06:43:34Z</time>
      </trkpt>
      <trkpt lat="46.30589" lon="6.79079">
        <ele>1205.7</ele>
        <time>2021-10-10T06:43:41Z</time>
      </trkpt>
      <trkpt lat="46.30593" lon="6.79082">
        <ele>1207.6</ele>
        <time>2021-10-10T06:43:48Z</time>
      </trkpt>
      <trkpt lat="46.30597" lon="6.79085">
        <ele>1209.4</ele>
        <time>2021-10-10T06:43:58Z</time>
      </trkpt>
      <trkpt lat="46.30601" lon="6.79089">
        <ele>1211.4</ele>
        <time>2021-10-10T06:44:05Z</time>
      </trkpt>
      <trkpt lat="46.30605" lon="6.79092">
        <ele>1213.2</ele>
        <time>2021-10-10T06:44:12Z</time>
      </trkpt>
      <trkpt lat="46.30609" lon="6.79095">
        <ele>1215.1</ele>
        <time>2021-10-10T06:44:18Z</time>
      </trkpt>
      <trkpt lat="46.30612" lon="6.79098">
        <ele>1216.7</ele>
        <time>2021-10-10T06:44:25Z</time>
      </trkpt>
      <trkpt lat="46.30614" lon="6.79101">
        <ele>1218</ele>
        <time>2021-10-10T06:44:35Z</time>
      </trkpt>
      <trkpt lat="46.30619" lon="6.79104">
        <ele>1220.3</ele>
        <time>2021-10-10T06:44:45Z</time>
      </trkpt>
      <trkpt lat="46.30624" lon="6.79104">
        <ele>1222</ele>
        <time>2021-10-10T06:44:54Z</time>
      </trkpt>
      <trkpt lat="46.30628" lon="6.79104">
        <ele>1223.4</ele>
        <time>2021-10-10T06:44:58Z</time>
      </trkpt>
      <trkpt lat="46.30632" lon="6.79106">
        <ele>1225.2</ele>
        <time>2021-10-10T06:45:11Z</time>
      </trkpt>
      <trkpt lat="46.30635" lon="6.79105">
        <ele>1226</ele>
        <time>2021-10-10T06:45:15Z</time>
      </trkpt>
      <trkpt lat="46.30638" lon="6.79105">
        <ele>1227</ele>
        <time>2021-10-10T06:45:21Z</time>
      </trkpt>
      <trkpt lat="46.30643" lon="6.79109">
        <ele>1229.8</ele>
        <time>2021-10-10T06:45:32Z</time>
      </trkpt>
      <trkpt lat="46.30647" lon="6.79106">
        <ele>1230.3</ele>
        <time>2021-10-10T06:46:19Z</time>
      </trkpt>
      <trkpt lat="46.30648" lon="6.7911">
        <ele>1231.8</ele>
        <time>2021-10-10T06:47:26Z</time>
      </trkpt>
      <trkpt lat="46.30646" lon="6.79114">
        <ele>1232.2</ele>
        <time>2021-10-10T06:47:30Z</time>
      </trkpt>
      <trkpt lat="46.30642" lon="6.79115">
        <ele>1231</ele>
        <time>2021-10-10T06:48:04Z</time>
      </trkpt>
      <trkpt lat="46.3064" lon="6.7912">
        <ele>1231.6</ele>
        <time>2021-10-10T06:48:30Z</time>
      </trkpt>
      <trkpt lat="46.30642" lon="6.79124">
        <ele>1233.4</ele>
        <time>2021-10-10T06:48:46Z</time>
      </trkpt>
      <trkpt lat="46.30645" lon="6.7912">
        <ele>1233.5</ele>
        <time>2021-10-10T06:49:38Z</time>
      </trkpt>
      <trkpt lat="46.30648" lon="6.79115">
        <ele>1233.2</ele>
        <time>2021-10-10T06:49:45Z</time>
      </trkpt>
      <trkpt lat="46.30647" lon="6.7911">
        <ele>1231.4</ele>
        <time>2021-10-10T06:50:02Z</time>
      </trkpt>
      <trkpt lat="46.30643" lon="6.79109">
        <ele>1229.8</ele>
        <time>2021-10-10T06:50:11Z</time>
      </trkpt>
      <trkpt lat="46.30638" lon="6.79106">
        <ele>1227.3</ele>
        <time>2021-10-10T06:51:10Z</time>
      </trkpt>
      <trkpt lat="46.30635" lon="6.7911">
        <ele>1227.2</ele>
        <time>2021-10-10T06:51:29Z</time>
      </trkpt>
      <trkpt lat="46.30632" lon="6.79115">
        <ele>1227.4</ele>
        <time>2021-10-10T06:51:40Z</time>
      </trkpt>
      <trkpt lat="46.30632" lon="6.79122">
        <ele>1229.2</ele>
        <time>2021-10-10T06:53:03Z</time>
      </trkpt>
      <trkpt lat="46.30628" lon="6.79125">
        <ele>1228.4</ele>
        <time>2021-10-10T06:53:54Z</time>
      </trkpt>
      <trkpt lat="46.30626" lon="6.7913">
        <ele>1228.8</ele>
        <time>2021-10-10T06:54:05Z</time>
      </trkpt>
      <trkpt lat="46.30629" lon="6.79127">
        <ele>1229.2</ele>
        <time>2021-10-10T06:54:27Z</time>
      </trkpt>
      <trkpt lat="46.30632" lon="6.79122">
        <ele>1229.2</ele>
        <time>2021-10-10T06:54:37Z</time>
      </trkpt>
      <trkpt lat="46.30635" lon="6.79119">
        <ele>1229.5</ele>
        <time>2021-10-10T06:54:54Z</time>
      </trkpt>
      <trkpt lat="46.30637" lon="6.79124">
        <ele>1231.5</ele>
        <time>2021-10-10T06:55:37Z</time>
      </trkpt>
      <trkpt lat="46.30638" lon="6.79126">
        <ele>1232.4</ele>
        <time>2021-10-10T06:55:50Z</time>
      </trkpt>
      <trkpt lat="46.30642" lon="6.79127">
        <ele>1234.2</ele>
        <time>2021-10-10T06:56:09Z</time>
      </trkpt>
      <trkpt lat="46.30646" lon="6.79125">
        <ele>1235.2</ele>
        <time>2021-10-10T06:56:21Z</time>
      </trkpt>
      <trkpt lat="46.30651" lon="6.79123">
        <ele>1236.5</ele>
        <time>2021-10-10T06:56:28Z</time>
      </trkpt>
      <trkpt lat="46.30649" lon="6.79121">
        <ele>1235.2</ele>
        <time>2021-10-10T06:58:36Z</time>
      </trkpt>
      <trkpt lat="46.30645" lon="6.79121">
        <ele>1233.7</ele>
        <time>2021-10-10T06:59:15Z</time>
      </trkpt>
      <trkpt lat="46.30643" lon="6.79127">
        <ele>1234.6</ele>
        <time>2021-10-10T06:59:24Z</time>
      </trkpt>
      <trkpt lat="46.30642" lon="6.79133">
        <ele>1235.8</ele>
        <time>2021-10-10T06:59:31Z</time>
      </trkpt>
      <trkpt lat="46.30642" lon="6.79139">
        <ele>1237.4</ele>
        <time>2021-10-10T06:59:39Z</time>
      </trkpt>
      <trkpt lat="46.30641" lon="6.79146">
        <ele>1238.8</ele>
        <time>2021-10-10T06:59:45Z</time>
      </trkpt>
      <trkpt lat="46.30641" lon="6.79148">
        <ele>1239.4</ele>
        <time>2021-10-10T06:59:46Z</time>
      </trkpt>
      <trkpt lat="46.30641" lon="6.79152">
        <ele>1240.4</ele>
        <time>2021-10-10T06:59:52Z</time>
      </trkpt>
      <trkpt lat="46.30639" lon="6.79157">
        <ele>1240.9</ele>
        <time>2021-10-10T06:59:57Z</time>
      </trkpt>
      <trkpt lat="46.30637" lon="6.79162">
        <ele>1241.3</ele>
        <time>2021-10-10T07:00:02Z</time>
      </trkpt>
      <trkpt lat="46.30635" lon="6.79167">
        <ele>1241.6</ele>
        <time>2021-10-10T07:00:08Z</time>
      </trkpt>
      <trkpt lat="46.30634" lon="6.79174">
        <ele>1242.5</ele>
        <time>2021-10-10T07:00:14Z</time>
      </trkpt>
      <trkpt lat="46.30633" lon="6.7918">
        <ele>1243.2</ele>
        <time>2021-10-10T07:00:20Z</time>
      </trkpt>
      <trkpt lat="46.30633" lon="6.79187">
        <ele>1244.6</ele>
        <time>2021-10-10T07:00:26Z</time>
      </trkpt>
      <trkpt lat="46.30632" lon="6.79192">
        <ele>1245.1</ele>
        <time>2021-10-10T07:00:32Z</time>
      </trkpt>
      <trkpt lat="46.3063" lon="6.79199">
        <ele>1245.5</ele>
        <time>2021-10-10T07:00:42Z</time>
      </trkpt>
      <trkpt lat="46.30629" lon="6.79205">
        <ele>1246.2</ele>
        <time>2021-10-10T07:00:50Z</time>
      </trkpt>
      <trkpt lat="46.30628" lon="6.79211">
        <ele>1246.9</ele>
        <time>2021-10-10T07:00:59Z</time>
      </trkpt>
      <trkpt lat="46.30625" lon="6.79216">
        <ele>1246.5</ele>
        <time>2021-10-10T07:01:10Z</time>
      </trkpt>
      <trkpt lat="46.30626" lon="6.79223">
        <ele>1248.3</ele>
        <time>2021-10-10T07:01:19Z</time>
      </trkpt>
      <trkpt lat="46.30623" lon="6.79229">
        <ele>1248.1</ele>
        <time>2021-10-10T07:01:30Z</time>
      </trkpt>
      <trkpt lat="46.30623" lon="6.79235">
        <ele>1249.2</ele>
        <time>2021-10-10T07:01:38Z</time>
      </trkpt>
      <trkpt lat="46.30622" lon="6.79239">
        <ele>1249.5</ele>
        <time>2021-10-10T07:01:47Z</time>
      </trkpt>
      <trkpt lat="46.3062" lon="6.79244">
        <ele>1249.6</ele>
        <time>2021-10-10T07:01:53Z</time>
      </trkpt>
      <trkpt lat="46.30622" lon="6.7925">
        <ele>1251.6</ele>
        <time>2021-10-10T07:02:08Z</time>
      </trkpt>
      <trkpt lat="46.30626" lon="6.79252">
        <ele>1253.8</ele>
        <time>2021-10-10T07:02:23Z</time>
      </trkpt>
      <trkpt lat="46.30628" lon="6.79257">
        <ele>1255.7</ele>
        <time>2021-10-10T07:02:35Z</time>
      </trkpt>
      <trkpt lat="46.30629" lon="6.79263">
        <ele>1257.3</ele>
        <time>2021-10-10T07:02:41Z</time>
      </trkpt>
      <trkpt lat="46.30632" lon="6.79268">
        <ele>1259.6</ele>
        <time>2021-10-10T07:02:51Z</time>
      </trkpt>
      <trkpt lat="46.30634" lon="6.79263">
        <ele>1259.5</ele>
        <time>2021-10-10T07:02:57Z</time>
      </trkpt>
      <trkpt lat="46.30637" lon="6.7926">
        <ele>1260.3</ele>
        <time>2021-10-10T07:03:04Z</time>
      </trkpt>
      <trkpt lat="46.3064" lon="6.79263">
        <ele>1262.1</ele>
        <time>2021-10-10T07:03:13Z</time>
      </trkpt>
      <trkpt lat="46.3064" lon="6.7927">
        <ele>1263.3</ele>
        <time>2021-10-10T07:03:19Z</time>
      </trkpt>
      <trkpt lat="46.3064" lon="6.79276">
        <ele>1264.4</ele>
        <time>2021-10-10T07:03:26Z</time>
      </trkpt>
      <trkpt lat="46.30644" lon="6.79279">
        <ele>1266.5</ele>
        <time>2021-10-10T07:03:37Z</time>
      </trkpt>
      <trkpt lat="46.30646" lon="6.79274">
        <ele>1266.5</ele>
        <time>2021-10-10T07:03:42Z</time>
      </trkpt>
      <trkpt lat="46.3065" lon="6.7927">
        <ele>1267.6</ele>
        <time>2021-10-10T07:03:48Z</time>
      </trkpt>
      <trkpt lat="46.30653" lon="6.79266">
        <ele>1268.2</ele>
        <time>2021-10-10T07:03:54Z</time>
      </trkpt>
      <trkpt lat="46.30658" lon="6.79263">
        <ele>1269.9</ele>
        <time>2021-10-10T07:04:01Z</time>
      </trkpt>
      <trkpt lat="46.30661" lon="6.79259">
        <ele>1270.7</ele>
        <time>2021-10-10T07:04:08Z</time>
      </trkpt>
      <trkpt lat="46.30665" lon="6.79261">
        <ele>1272.7</ele>
        <time>2021-10-10T07:04:20Z</time>
      </trkpt>
      <trkpt lat="46.30669" lon="6.79259">
        <ele>1274.7</ele>
        <time>2021-10-10T07:04:25Z</time>
      </trkpt>
      <trkpt lat="46.30673" lon="6.79255">
        <ele>1276.6</ele>
        <time>2021-10-10T07:04:32Z</time>
      </trkpt>
      <trkpt lat="46.30676" lon="6.79251">
        <ele>1278</ele>
        <time>2021-10-10T07:04:39Z</time>
      </trkpt>
      <trkpt lat="46.3068" lon="6.79248">
        <ele>1279.9</ele>
        <time>2021-10-10T07:04:47Z</time>
      </trkpt>
      <trkpt lat="46.30683" lon="6.79248">
        <ele>1281.7</ele>
        <time>2021-10-10T07:04:57Z</time>
      </trkpt>
      <trkpt lat="46.30687" lon="6.79247">
        <ele>1284</ele>
        <time>2021-10-10T07:05:02Z</time>
      </trkpt>
      <trkpt lat="46.30688" lon="6.79246">
        <ele>1284.4</ele>
        <time>2021-10-10T07:05:05Z</time>
      </trkpt>
      <trkpt lat="46.30691" lon="6.79245">
        <ele>1286</ele>
        <time>2021-10-10T07:05:12Z</time>
      </trkpt>
      <trkpt lat="46.30694" lon="6.79244">
        <ele>1287.6</ele>
        <time>2021-10-10T07:05:18Z</time>
      </trkpt>
      <trkpt lat="46.30698" lon="6.79242">
        <ele>1289.5</ele>
        <time>2021-10-10T07:05:27Z</time>
      </trkpt>
      <trkpt lat="46.30702" lon="6.79242">
        <ele>1292</ele>
        <time>2021-10-10T07:05:36Z</time>
      </trkpt>
      <trkpt lat="46.30706" lon="6.7924">
        <ele>1293.9</ele>
        <time>2021-10-10T07:05:43Z</time>
      </trkpt>
      <trkpt lat="46.3071" lon="6.79239">
        <ele>1296</ele>
        <time>2021-10-10T07:05:52Z</time>
      </trkpt>
      <trkpt lat="46.30714" lon="6.79237">
        <ele>1297.9</ele>
        <time>2021-10-10T07:06:00Z</time>
      </trkpt>
      <trkpt lat="46.30717" lon="6.79243">
        <ele>1301.4</ele>
        <time>2021-10-10T07:06:16Z</time>
      </trkpt>
      <trkpt lat="46.30714" lon="6.79247">
        <ele>1300.7</ele>
        <time>2021-10-10T07:06:27Z</time>
      </trkpt>
      <trkpt lat="46.30714" lon="6.79253">
        <ele>1302</ele>
        <time>2021-10-10T07:06:35Z</time>
      </trkpt>
      <trkpt lat="46.30714" lon="6.79259">
        <ele>1303</ele>
        <time>2021-10-10T07:06:44Z</time>
      </trkpt>
      <trkpt lat="46.30713" lon="6.79265">
        <ele>1303.3</ele>
        <time>2021-10-10T07:06:54Z</time>
      </trkpt>
      <trkpt lat="46.30713" lon="6.79272">
        <ele>1304.4</ele>
        <time>2021-10-10T07:07:03Z</time>
      </trkpt>
      <trkpt lat="46.30713" lon="6.79278">
        <ele>1305.4</ele>
        <time>2021-10-10T07:07:10Z</time>
      </trkpt>
      <trkpt lat="46.30712" lon="6.79285">
        <ele>1305.8</ele>
        <time>2021-10-10T07:07:18Z</time>
      </trkpt>
      <trkpt lat="46.30712" lon="6.79291">
        <ele>1306.8</ele>
        <time>2021-10-10T07:07:26Z</time>
      </trkpt>
      <trkpt lat="46.30711" lon="6.79296">
        <ele>1306.9</ele>
        <time>2021-10-10T07:07:33Z</time>
      </trkpt>
      <trkpt lat="46.30709" lon="6.79302">
        <ele>1306.5</ele>
        <time>2021-10-10T07:07:41Z</time>
      </trkpt>
      <trkpt lat="46.30708" lon="6.79308">
        <ele>1306.8</ele>
        <time>2021-10-10T07:07:48Z</time>
      </trkpt>
      <trkpt lat="46.3071" lon="6.79314">
        <ele>1309.1</ele>
        <time>2021-10-10T07:07:56Z</time>
      </trkpt>
      <trkpt lat="46.30711" lon="6.79319">
        <ele>1310.5</ele>
        <time>2021-10-10T07:08:02Z</time>
      </trkpt>
      <trkpt lat="46.30714" lon="6.79323">
        <ele>1313.2</ele>
        <time>2021-10-10T07:08:13Z</time>
      </trkpt>
      <trkpt lat="46.30716" lon="6.79329">
        <ele>1315.5</ele>
        <time>2021-10-10T07:08:26Z</time>
      </trkpt>
      <trkpt lat="46.30718" lon="6.79335">
        <ele>1317.6</ele>
        <time>2021-10-10T07:08:35Z</time>
      </trkpt>
      <trkpt lat="46.3072" lon="6.79339">
        <ele>1319.1</ele>
        <time>2021-10-10T07:08:40Z</time>
      </trkpt>
      <trkpt lat="46.30721" lon="6.79345">
        <ele>1320</ele>
        <time>2021-10-10T07:08:48Z</time>
      </trkpt>
      <trkpt lat="46.30723" lon="6.79352">
        <ele>1321.5</ele>
        <time>2021-10-10T07:08:58Z</time>
      </trkpt>
      <trkpt lat="46.30726" lon="6.79357">
        <ele>1323.6</ele>
        <time>2021-10-10T07:09:05Z</time>
      </trkpt>
      <trkpt lat="46.30729" lon="6.79362">
        <ele>1325.7</ele>
        <time>2021-10-10T07:09:33Z</time>
      </trkpt>
      <trkpt lat="46.30733" lon="6.79366">
        <ele>1328.3</ele>
        <time>2021-10-10T07:10:07Z</time>
      </trkpt>
      <trkpt lat="46.30735" lon="6.79365">
        <ele>1329.5</ele>
        <time>2021-10-10T07:10:10Z</time>
      </trkpt>
      <trkpt lat="46.30737" lon="6.79365">
        <ele>1330.8</ele>
        <time>2021-10-10T07:10:42Z</time>
      </trkpt>
      <trkpt lat="46.30737" lon="6.79371">
        <ele>1330.9</ele>
        <time>2021-10-10T07:11:05Z</time>
      </trkpt>
      <trkpt lat="46.30739" lon="6.79378">
        <ele>1332.2</ele>
        <time>2021-10-10T07:11:11Z</time>
      </trkpt>
      <trkpt lat="46.30739" lon="6.79385">
        <ele>1332.3</ele>
        <time>2021-10-10T07:11:17Z</time>
      </trkpt>
      <trkpt lat="46.3074" lon="6.79388">
        <ele>1333</ele>
        <time>2021-10-10T07:11:21Z</time>
      </trkpt>
      <trkpt lat="46.30741" lon="6.79393">
        <ele>1333.6</ele>
        <time>2021-10-10T07:11:26Z</time>
      </trkpt>
      <trkpt lat="46.30743" lon="6.79399">
        <ele>1334.9</ele>
        <time>2021-10-10T07:11:33Z</time>
      </trkpt>
      <trkpt lat="46.30746" lon="6.79404">
        <ele>1336.7</ele>
        <time>2021-10-10T07:11:39Z</time>
      </trkpt>
      <trkpt lat="46.30749" lon="6.7941">
        <ele>1338.4</ele>
        <time>2021-10-10T07:11:45Z</time>
      </trkpt>
      <trkpt lat="46.3075" lon="6.79416">
        <ele>1339</ele>
        <time>2021-10-10T07:11:54Z</time>
      </trkpt>
      <trkpt lat="46.30754" lon="6.79417">
        <ele>1341.8</ele>
        <time>2021-10-10T07:12:02Z</time>
      </trkpt>
      <trkpt lat="46.30756" lon="6.79415">
        <ele>1343.2</ele>
        <time>2021-10-10T07:12:07Z</time>
      </trkpt>
      <trkpt lat="46.3076" lon="6.79419">
        <ele>1345.8</ele>
        <time>2021-10-10T07:12:20Z</time>
      </trkpt>
      <trkpt lat="46.3076" lon="6.79424">
        <ele>1345.6</ele>
        <time>2021-10-10T07:12:26Z</time>
      </trkpt>
      <trkpt lat="46.30761" lon="6.7943">
        <ele>1346</ele>
        <time>2021-10-10T07:12:37Z</time>
      </trkpt>
      <trkpt lat="46.30764" lon="6.79434">
        <ele>1347.7</ele>
        <time>2021-10-10T07:12:46Z</time>
      </trkpt>
      <trkpt lat="46.30768" lon="6.79433">
        <ele>1350.4</ele>
        <time>2021-10-10T07:12:55Z</time>
      </trkpt>
      <trkpt lat="46.30769" lon="6.79426">
        <ele>1351.5</ele>
        <time>2021-10-10T07:13:03Z</time>
      </trkpt>
      <trkpt lat="46.30771" lon="6.7942">
        <ele>1353.4</ele>
        <time>2021-10-10T07:13:09Z</time>
      </trkpt>
      <trkpt lat="46.30773" lon="6.79415">
        <ele>1355</ele>
        <time>2021-10-10T07:13:16Z</time>
      </trkpt>
      <trkpt lat="46.30774" lon="6.79409">
        <ele>1355.9</ele>
        <time>2021-10-10T07:13:25Z</time>
      </trkpt>
      <trkpt lat="46.30775" lon="6.79403">
        <ele>1356.7</ele>
        <time>2021-10-10T07:13:32Z</time>
      </trkpt>
      <trkpt lat="46.30777" lon="6.79397">
        <ele>1358.3</ele>
        <time>2021-10-10T07:13:41Z</time>
      </trkpt>
      <trkpt lat="46.30777" lon="6.79391">
        <ele>1358.4</ele>
        <time>2021-10-10T07:13:48Z</time>
      </trkpt>
      <trkpt lat="46.30778" lon="6.79388">
        <ele>1359.2</ele>
        <time>2021-10-10T07:13:52Z</time>
      </trkpt>
      <trkpt lat="46.30781" lon="6.79382">
        <ele>1361.5</ele>
        <time>2021-10-10T07:14:01Z</time>
      </trkpt>
      <trkpt lat="46.30781" lon="6.79376">
        <ele>1361.7</ele>
        <time>2021-10-10T07:14:11Z</time>
      </trkpt>
      <trkpt lat="46.30781" lon="6.79373">
        <ele>1361.7</ele>
        <time>2021-10-10T07:14:14Z</time>
      </trkpt>
      <trkpt lat="46.30782" lon="6.79367">
        <ele>1362.6</ele>
        <time>2021-10-10T07:14:23Z</time>
      </trkpt>
      <trkpt lat="46.30785" lon="6.79364">
        <ele>1365</ele>
        <time>2021-10-10T07:14:30Z</time>
      </trkpt>
      <trkpt lat="46.30787" lon="6.79358">
        <ele>1366.6</ele>
        <time>2021-10-10T07:14:40Z</time>
      </trkpt>
      <trkpt lat="46.30788" lon="6.79353">
        <ele>1367.5</ele>
        <time>2021-10-10T07:14:49Z</time>
      </trkpt>
      <trkpt lat="46.30789" lon="6.79346">
        <ele>1368.5</ele>
        <time>2021-10-10T07:14:59Z</time>
      </trkpt>
      <trkpt lat="46.30792" lon="6.79344">
        <ele>1370.9</ele>
        <time>2021-10-10T07:15:08Z</time>
      </trkpt>
      <trkpt lat="46.30796" lon="6.79342">
        <ele>1374</ele>
        <time>2021-10-10T07:15:17Z</time>
      </trkpt>
      <trkpt lat="46.308" lon="6.79339">
        <ele>1377.2</ele>
        <time>2021-10-10T07:15:26Z</time>
      </trkpt>
      <trkpt lat="46.30803" lon="6.79335">
        <ele>1379.6</ele>
        <time>2021-10-10T07:15:37Z</time>
      </trkpt>
      <trkpt lat="46.30807" lon="6.79331">
        <ele>1382.1</ele>
        <time>2021-10-10T07:15:50Z</time>
      </trkpt>
      <trkpt lat="46.30811" lon="6.79329">
        <ele>1384.6</ele>
        <time>2021-10-10T07:15:58Z</time>
      </trkpt>
      <trkpt lat="46.30812" lon="6.79332">
        <ele>1386.2</ele>
        <time>2021-10-10T07:16:07Z</time>
      </trkpt>
      <trkpt lat="46.30811" lon="6.79339">
        <ele>1385.5</ele>
        <time>2021-10-10T07:16:19Z</time>
      </trkpt>
      <trkpt lat="46.30811" lon="6.79344">
        <ele>1385.3</ele>
        <time>2021-10-10T07:16:25Z</time>
      </trkpt>
      <trkpt lat="46.30813" lon="6.79351">
        <ele>1386.4</ele>
        <time>2021-10-10T07:16:32Z</time>
      </trkpt>
      <trkpt lat="46.30814" lon="6.79357">
        <ele>1386.8</ele>
        <time>2021-10-10T07:16:42Z</time>
      </trkpt>
      <trkpt lat="46.30817" lon="6.79363">
        <ele>1388.7</ele>
        <time>2021-10-10T07:16:50Z</time>
      </trkpt>
      <trkpt lat="46.30819" lon="6.79369">
        <ele>1389.9</ele>
        <time>2021-10-10T07:16:58Z</time>
      </trkpt>
      <trkpt lat="46.30822" lon="6.79375">
        <ele>1391.7</ele>
        <time>2021-10-10T07:17:04Z</time>
      </trkpt>
      <trkpt lat="46.30825" lon="6.79379">
        <ele>1393.6</ele>
        <time>2021-10-10T07:17:10Z</time>
      </trkpt>
      <trkpt lat="46.30827" lon="6.79382">
        <ele>1394.9</ele>
        <time>2021-10-10T07:17:17Z</time>
      </trkpt>
      <trkpt lat="46.3083" lon="6.79388">
        <ele>1396.7</ele>
        <time>2021-10-10T07:17:24Z</time>
      </trkpt>
      <trkpt lat="46.30832" lon="6.79394">
        <ele>1397.7</ele>
        <time>2021-10-10T07:17:31Z</time>
      </trkpt>
      <trkpt lat="46.30836" lon="6.79398">
        <ele>1399.9</ele>
        <time>2021-10-10T07:17:40Z</time>
      </trkpt>
      <trkpt lat="46.3084" lon="6.794">
        <ele>1402.2</ele>
        <time>2021-10-10T07:17:47Z</time>
      </trkpt>
      <trkpt lat="46.30842" lon="6.79394">
        <ele>1403.8</ele>
        <time>2021-10-10T07:17:57Z</time>
      </trkpt>
      <trkpt lat="46.30843" lon="6.79388">
        <ele>1404.9</ele>
        <time>2021-10-10T07:18:06Z</time>
      </trkpt>
      <trkpt lat="46.30843" lon="6.79381">
        <ele>1405.4</ele>
        <time>2021-10-10T07:18:14Z</time>
      </trkpt>
      <trkpt lat="46.30844" lon="6.79375">
        <ele>1406.5</ele>
        <time>2021-10-10T07:18:19Z</time>
      </trkpt>
      <trkpt lat="46.30847" lon="6.7937">
        <ele>1408.7</ele>
        <time>2021-10-10T07:18:26Z</time>
      </trkpt>
      <trkpt lat="46.30849" lon="6.79365">
        <ele>1410.3</ele>
        <time>2021-10-10T07:18:35Z</time>
      </trkpt>
      <trkpt lat="46.30852" lon="6.79358">
        <ele>1412.7</ele>
        <time>2021-10-10T07:18:44Z</time>
      </trkpt>
      <trkpt lat="46.30854" lon="6.79353">
        <ele>1414.3</ele>
        <time>2021-10-10T07:18:49Z</time>
      </trkpt>
      <trkpt lat="46.30857" lon="6.79348">
        <ele>1416.6</ele>
        <time>2021-10-10T07:18:55Z</time>
      </trkpt>
      <trkpt lat="46.30861" lon="6.79345">
        <ele>1419.3</ele>
        <time>2021-10-10T07:19:06Z</time>
      </trkpt>
      <trkpt lat="46.30864" lon="6.79349">
        <ele>1420.8</ele>
        <time>2021-10-10T07:19:18Z</time>
      </trkpt>
      <trkpt lat="46.30865" lon="6.79352">
        <ele>1421.2</ele>
        <time>2021-10-10T07:19:25Z</time>
      </trkpt>
      <trkpt lat="46.30869" lon="6.79357">
        <ele>1423.2</ele>
        <time>2021-10-10T07:19:38Z</time>
      </trkpt>
      <trkpt lat="46.3087" lon="6.79362">
        <ele>1423.4</ele>
        <time>2021-10-10T07:19:45Z</time>
      </trkpt>
      <trkpt lat="46.30871" lon="6.79368">
        <ele>1423.4</ele>
        <time>2021-10-10T07:19:53Z</time>
      </trkpt>
      <trkpt lat="46.30872" lon="6.79373">
        <ele>1423.6</ele>
        <time>2021-10-10T07:19:57Z</time>
      </trkpt>
      <trkpt lat="46.30874" lon="6.79379">
        <ele>1424.3</ele>
        <time>2021-10-10T07:20:02Z</time>
      </trkpt>
      <trkpt lat="46.30878" lon="6.79384">
        <ele>1426.2</ele>
        <time>2021-10-10T07:20:09Z</time>
      </trkpt>
      <trkpt lat="46.30881" lon="6.79388">
        <ele>1427.7</ele>
        <time>2021-10-10T07:20:17Z</time>
      </trkpt>
      <trkpt lat="46.30884" lon="6.79392">
        <ele>1429.1</ele>
        <time>2021-10-10T07:20:27Z</time>
      </trkpt>
      <trkpt lat="46.30887" lon="6.79396">
        <ele>1430.5</ele>
        <time>2021-10-10T07:20:33Z</time>
      </trkpt>
      <trkpt lat="46.30889" lon="6.79399">
        <ele>1431.4</ele>
        <time>2021-10-10T07:20:38Z</time>
      </trkpt>
      <trkpt lat="46.30894" lon="6.79404">
        <ele>1433.9</ele>
        <time>2021-10-10T07:20:46Z</time>
      </trkpt>
      <trkpt lat="46.30897" lon="6.79407">
        <ele>1435.4</ele>
        <time>2021-10-10T07:20:51Z</time>
      </trkpt>
      <trkpt lat="46.30899" lon="6.79407">
        <ele>1436.6</ele>
        <time>2021-10-10T07:20:55Z</time>
      </trkpt>
      <trkpt lat="46.30901" lon="6.79401">
        <ele>1438.4</ele>
        <time>2021-10-10T07:21:07Z</time>
      </trkpt>
      <trkpt lat="46.30902" lon="6.79394">
        <ele>1439.7</ele>
        <time>2021-10-10T07:21:13Z</time>
      </trkpt>
      <trkpt lat="46.30903" lon="6.79388">
        <ele>1440.9</ele>
        <time>2021-10-10T07:21:19Z</time>
      </trkpt>
      <trkpt lat="46.30903" lon="6.79382">
        <ele>1441.5</ele>
        <time>2021-10-10T07:21:27Z</time>
      </trkpt>
      <trkpt lat="46.30905" lon="6.79375">
        <ele>1443.4</ele>
        <time>2021-10-10T07:21:35Z</time>
      </trkpt>
      <trkpt lat="46.30907" lon="6.7937">
        <ele>1445.2</ele>
        <time>2021-10-10T07:21:45Z</time>
      </trkpt>
      <trkpt lat="46.30909" lon="6.79364">
        <ele>1447</ele>
        <time>2021-10-10T07:21:56Z</time>
      </trkpt>
      <trkpt lat="46.30913" lon="6.79361">
        <ele>1449.8</ele>
        <time>2021-10-10T07:22:12Z</time>
      </trkpt>
      <trkpt lat="46.30916" lon="6.79355">
        <ele>1452.3</ele>
        <time>2021-10-10T07:22:24Z</time>
      </trkpt>
      <trkpt lat="46.30918" lon="6.7935">
        <ele>1454</ele>
        <time>2021-10-10T07:22:35Z</time>
      </trkpt>
      <trkpt lat="46.3092" lon="6.79345">
        <ele>1455.7</ele>
        <time>2021-10-10T07:22:41Z</time>
      </trkpt>
      <trkpt lat="46.30925" lon="6.79341">
        <ele>1459.1</ele>
        <time>2021-10-10T07:22:49Z</time>
      </trkpt>
      <trkpt lat="46.30928" lon="6.79336">
        <ele>1461.5</ele>
        <time>2021-10-10T07:22:59Z</time>
      </trkpt>
      <trkpt lat="46.3093" lon="6.79331">
        <ele>1462.5</ele>
        <time>2021-10-10T07:23:06Z</time>
      </trkpt>
      <trkpt lat="46.30931" lon="6.79328">
        <ele>1462.4</ele>
        <time>2021-10-10T07:23:10Z</time>
      </trkpt>
      <trkpt lat="46.30932" lon="6.79323">
        <ele>1461.9</ele>
        <time>2021-10-10T07:23:15Z</time>
      </trkpt>
      <trkpt lat="46.30936" lon="6.7932">
        <ele>1463.7</ele>
        <time>2021-10-10T07:23:25Z</time>
      </trkpt>
      <trkpt lat="46.30938" lon="6.79318">
        <ele>1464.5</ele>
        <time>2021-10-10T07:23:31Z</time>
      </trkpt>
      <trkpt lat="46.30942" lon="6.79317">
        <ele>1466.8</ele>
        <time>2021-10-10T07:23:42Z</time>
      </trkpt>
      <trkpt lat="46.30947" lon="6.79314">
        <ele>1469.3</ele>
        <time>2021-10-10T07:23:52Z</time>
      </trkpt>
      <trkpt lat="46.3095" lon="6.79309">
        <ele>1470.2</ele>
        <time>2021-10-10T07:23:58Z</time>
      </trkpt>
      <trkpt lat="46.30952" lon="6.79304">
        <ele>1470.5</ele>
        <time>2021-10-10T07:24:03Z</time>
      </trkpt>
      <trkpt lat="46.30956" lon="6.79301">
        <ele>1472.5</ele>
        <time>2021-10-10T07:24:11Z</time>
      </trkpt>
      <trkpt lat="46.30958" lon="6.793">
        <ele>1473.6</ele>
        <time>2021-10-10T07:24:15Z</time>
      </trkpt>
      <trkpt lat="46.30962" lon="6.79296">
        <ele>1475.4</ele>
        <time>2021-10-10T07:24:22Z</time>
      </trkpt>
      <trkpt lat="46.30963" lon="6.793">
        <ele>1476.8</ele>
        <time>2021-10-10T07:24:35Z</time>
      </trkpt>
      <trkpt lat="46.30964" lon="6.79306">
        <ele>1478.5</ele>
        <time>2021-10-10T07:24:47Z</time>
      </trkpt>
      <trkpt lat="46.30966" lon="6.79312">
        <ele>1480.8</ele>
        <time>2021-10-10T07:25:00Z</time>
      </trkpt>
      <trkpt lat="46.3097" lon="6.79311">
        <ele>1483.2</ele>
        <time>2021-10-10T07:25:13Z</time>
      </trkpt>
      <trkpt lat="46.30974" lon="6.79311">
        <ele>1485.7</ele>
        <time>2021-10-10T07:25:19Z</time>
      </trkpt>
      <trkpt lat="46.30979" lon="6.79308">
        <ele>1488.4</ele>
        <time>2021-10-10T07:25:29Z</time>
      </trkpt>
      <trkpt lat="46.30982" lon="6.79304">
        <ele>1489.6</ele>
        <time>2021-10-10T07:25:37Z</time>
      </trkpt>
      <trkpt lat="46.30984" lon="6.79299">
        <ele>1490.2</ele>
        <time>2021-10-10T07:25:55Z</time>
      </trkpt>
      <trkpt lat="46.30984" lon="6.79292">
        <ele>1489.1</ele>
        <time>2021-10-10T07:30:06Z</time>
      </trkpt>
      <trkpt lat="46.30984" lon="6.79286">
        <ele>1488.2</ele>
        <time>2021-10-10T07:30:31Z</time>
      </trkpt>
      <trkpt lat="46.30986" lon="6.79281">
        <ele>1488.7</ele>
        <time>2021-10-10T07:30:38Z</time>
      </trkpt>
      <trkpt lat="46.3099" lon="6.79279">
        <ele>1491.1</ele>
        <time>2021-10-10T07:30:45Z</time>
      </trkpt>
      <trkpt lat="46.30995" lon="6.79277">
        <ele>1494.2</ele>
        <time>2021-10-10T07:30:55Z</time>
      </trkpt>
      <trkpt lat="46.30999" lon="6.79277">
        <ele>1496.9</ele>
        <time>2021-10-10T07:31:04Z</time>
      </trkpt>
      <trkpt lat="46.31" lon="6.79276">
        <ele>1497.4</ele>
        <time>2021-10-10T07:31:05Z</time>
      </trkpt>
      <trkpt lat="46.31004" lon="6.79273">
        <ele>1498.5</ele>
        <time>2021-10-10T07:31:12Z</time>
      </trkpt>
      <trkpt lat="46.31008" lon="6.79269">
        <ele>1499.5</ele>
        <time>2021-10-10T07:31:18Z</time>
      </trkpt>
      <trkpt lat="46.31012" lon="6.79265">
        <ele>1500.6</ele>
        <time>2021-10-10T07:31:24Z</time>
      </trkpt>
      <trkpt lat="46.31017" lon="6.79263">
        <ele>1502.3</ele>
        <time>2021-10-10T07:31:30Z</time>
      </trkpt>
      <trkpt lat="46.31022" lon="6.79264">
        <ele>1504.3</ele>
        <time>2021-10-10T07:31:35Z</time>
      </trkpt>
      <trkpt lat="46.31026" lon="6.79267">
        <ele>1506.2</ele>
        <time>2021-10-10T07:31:41Z</time>
      </trkpt>
      <trkpt lat="46.31026" lon="6.79272">
        <ele>1506.7</ele>
        <time>2021-10-10T07:31:48Z</time>
      </trkpt>
      <trkpt lat="46.31025" lon="6.79279">
        <ele>1507.1</ele>
        <time>2021-10-10T07:31:55Z</time>
      </trkpt>
      <trkpt lat="46.31024" lon="6.79286">
        <ele>1507.5</ele>
        <time>2021-10-10T07:32:01Z</time>
      </trkpt>
      <trkpt lat="46.31025" lon="6.79292">
        <ele>1508.5</ele>
        <time>2021-10-10T07:32:07Z</time>
      </trkpt>
      <trkpt lat="46.31025" lon="6.79298">
        <ele>1509.2</ele>
        <time>2021-10-10T07:32:12Z</time>
      </trkpt>
      <trkpt lat="46.31025" lon="6.79303">
        <ele>1509.8</ele>
        <time>2021-10-10T07:32:15Z</time>
      </trkpt>
      <trkpt lat="46.31024" lon="6.7931">
        <ele>1510.2</ele>
        <time>2021-10-10T07:32:19Z</time>
      </trkpt>
      <trkpt lat="46.31027" lon="6.79315">
        <ele>1511.8</ele>
        <time>2021-10-10T07:32:24Z</time>
      </trkpt>
      <trkpt lat="46.31031" lon="6.79318">
        <ele>1513.4</ele>
        <time>2021-10-10T07:32:30Z</time>
      </trkpt>
      <trkpt lat="46.31032" lon="6.79318">
        <ele>1513.8</ele>
        <time>2021-10-10T07:32:32Z</time>
      </trkpt>
      <trkpt lat="46.31035" lon="6.79316">
        <ele>1514.6</ele>
        <time>2021-10-10T07:32:37Z</time>
      </trkpt>
      <trkpt lat="46.31038" lon="6.79313">
        <ele>1515.3</ele>
        <time>2021-10-10T07:32:44Z</time>
      </trkpt>
      <trkpt lat="46.31041" lon="6.7931">
        <ele>1516</ele>
        <time>2021-10-10T07:32:48Z</time>
      </trkpt>
      <trkpt lat="46.31045" lon="6.79307">
        <ele>1517.1</ele>
        <time>2021-10-10T07:32:53Z</time>
      </trkpt>
      <trkpt lat="46.3105" lon="6.79305">
        <ele>1518.7</ele>
        <time>2021-10-10T07:32:59Z</time>
      </trkpt>
      <trkpt lat="46.31054" lon="6.79306">
        <ele>1520.2</ele>
        <time>2021-10-10T07:33:05Z</time>
      </trkpt>
      <trkpt lat="46.31059" lon="6.79306">
        <ele>1521.9</ele>
        <time>2021-10-10T07:33:10Z</time>
      </trkpt>
      <trkpt lat="46.31062" lon="6.79306">
        <ele>1522.9</ele>
        <time>2021-10-10T07:33:13Z</time>
      </trkpt>
      <trkpt lat="46.31067" lon="6.79306">
        <ele>1524.7</ele>
        <time>2021-10-10T07:33:18Z</time>
      </trkpt>
      <trkpt lat="46.31069" lon="6.79307">
        <ele>1525.4</ele>
        <time>2021-10-10T07:33:20Z</time>
      </trkpt>
      <trkpt lat="46.31073" lon="6.79308">
        <ele>1526.9</ele>
        <time>2021-10-10T07:33:24Z</time>
      </trkpt>
      <trkpt lat="46.31077" lon="6.79308">
        <ele>1528.3</ele>
        <time>2021-10-10T07:33:28Z</time>
      </trkpt>
      <trkpt lat="46.31082" lon="6.79307">
        <ele>1530</ele>
        <time>2021-10-10T07:33:33Z</time>
      </trkpt>
      <trkpt lat="46.31086" lon="6.79307">
        <ele>1531.1</ele>
        <time>2021-10-10T07:33:37Z</time>
      </trkpt>
      <trkpt lat="46.31091" lon="6.79306">
        <ele>1532.3</ele>
        <time>2021-10-10T07:33:41Z</time>
      </trkpt>
      <trkpt lat="46.31096" lon="6.79304">
        <ele>1533.4</ele>
        <time>2021-10-10T07:33:51Z</time>
      </trkpt>
      <trkpt lat="46.31099" lon="6.79304">
        <ele>1534.1</ele>
        <time>2021-10-10T07:33:54Z</time>
      </trkpt>
      <trkpt lat="46.31102" lon="6.79304">
        <ele>1534.8</ele>
        <time>2021-10-10T07:33:57Z</time>
      </trkpt>
      <trkpt lat="46.31108" lon="6.79303">
        <ele>1536.2</ele>
        <time>2021-10-10T07:34:02Z</time>
      </trkpt>
      <trkpt lat="46.31112" lon="6.79303">
        <ele>1537.2</ele>
        <time>2021-10-10T07:34:06Z</time>
      </trkpt>
      <trkpt lat="46.31114" lon="6.79303">
        <ele>1537.7</ele>
        <time>2021-10-10T07:34:08Z</time>
      </trkpt>
      <trkpt lat="46.31118" lon="6.79301">
        <ele>1538.5</ele>
        <time>2021-10-10T07:34:12Z</time>
      </trkpt>
      <trkpt lat="46.31123" lon="6.793">
        <ele>1539.6</ele>
        <time>2021-10-10T07:34:17Z</time>
      </trkpt>
      <trkpt lat="46.31128" lon="6.79298">
        <ele>1540.6</ele>
        <time>2021-10-10T07:34:23Z</time>
      </trkpt>
      <trkpt lat="46.31132" lon="6.79298">
        <ele>1541.6</ele>
        <time>2021-10-10T07:34:28Z</time>
      </trkpt>
      <trkpt lat="46.31136" lon="6.793">
        <ele>1542.8</ele>
        <time>2021-10-10T07:34:33Z</time>
      </trkpt>
      <trkpt lat="46.31141" lon="6.79304">
        <ele>1544.5</ele>
        <time>2021-10-10T07:34:39Z</time>
      </trkpt>
      <trkpt lat="46.31145" lon="6.79306">
        <ele>1545.7</ele>
        <time>2021-10-10T07:34:45Z</time>
      </trkpt>
      <trkpt lat="46.31148" lon="6.79307">
        <ele>1546.6</ele>
        <time>2021-10-10T07:34:50Z</time>
      </trkpt>
      <trkpt lat="46.31153" lon="6.7931">
        <ele>1548.2</ele>
        <time>2021-10-10T07:34:57Z</time>
      </trkpt>
      <trkpt lat="46.31155" lon="6.79315">
        <ele>1549.4</ele>
        <time>2021-10-10T07:35:03Z</time>
      </trkpt>
      <trkpt lat="46.3116" lon="6.79313">
        <ele>1550.4</ele>
        <time>2021-10-10T07:35:11Z</time>
      </trkpt>
      <trkpt lat="46.31163" lon="6.79311">
        <ele>1550.9</ele>
        <time>2021-10-10T07:35:16Z</time>
      </trkpt>
      <trkpt lat="46.31165" lon="6.79305">
        <ele>1550.5</ele>
        <time>2021-10-10T07:35:22Z</time>
      </trkpt>
      <trkpt lat="46.31168" lon="6.79302">
        <ele>1551</ele>
        <time>2021-10-10T07:35:27Z</time>
      </trkpt>
      <trkpt lat="46.31173" lon="6.79301">
        <ele>1552.7</ele>
        <time>2021-10-10T07:35:36Z</time>
      </trkpt>
      <trkpt lat="46.31176" lon="6.79301">
        <ele>1553.8</ele>
        <time>2021-10-10T07:35:43Z</time>
      </trkpt>
      <trkpt lat="46.31181" lon="6.79301">
        <ele>1555.6</ele>
        <time>2021-10-10T07:35:52Z</time>
      </trkpt>
      <trkpt lat="46.31184" lon="6.793">
        <ele>1556.6</ele>
        <time>2021-10-10T07:35:59Z</time>
      </trkpt>
      <trkpt lat="46.31189" lon="6.79298">
        <ele>1558.1</ele>
        <time>2021-10-10T07:36:07Z</time>
      </trkpt>
      <trkpt lat="46.31194" lon="6.79294">
        <ele>1559.2</ele>
        <time>2021-10-10T07:36:16Z</time>
      </trkpt>
      <trkpt lat="46.31199" lon="6.79291">
        <ele>1560.5</ele>
        <time>2021-10-10T07:36:25Z</time>
      </trkpt>
      <trkpt lat="46.31201" lon="6.79287">
        <ele>1560.5</ele>
        <time>2021-10-10T07:36:31Z</time>
      </trkpt>
      <trkpt lat="46.31206" lon="6.79287">
        <ele>1562.3</ele>
        <time>2021-10-10T07:36:58Z</time>
      </trkpt>
      <trkpt lat="46.31209" lon="6.79288">
        <ele>1563.6</ele>
        <time>2021-10-10T07:37:04Z</time>
      </trkpt>
      <trkpt lat="46.31213" lon="6.79285">
        <ele>1564.5</ele>
        <time>2021-10-10T07:37:09Z</time>
      </trkpt>
      <trkpt lat="46.31216" lon="6.79286">
        <ele>1565.7</ele>
        <time>2021-10-10T07:37:14Z</time>
      </trkpt>
      <trkpt lat="46.31218" lon="6.79286">
        <ele>1566.4</ele>
        <time>2021-10-10T07:37:17Z</time>
      </trkpt>
      <trkpt lat="46.31218" lon="6.79293">
        <ele>1567.7</ele>
        <time>2021-10-10T07:37:48Z</time>
      </trkpt>
      <trkpt lat="46.31214" lon="6.79296">
        <ele>1566.8</ele>
        <time>2021-10-10T07:38:13Z</time>
      </trkpt>
      <trkpt lat="46.31217" lon="6.79298">
        <ele>1568.3</ele>
        <time>2021-10-10T07:41:06Z</time>
      </trkpt>
      <trkpt lat="46.31218" lon="6.79295">
        <ele>1568.1</ele>
        <time>2021-10-10T07:41:32Z</time>
      </trkpt>
      <trkpt lat="46.31218" lon="6.79297">
        <ele>1568.5</ele>
        <time>2021-10-10T07:41:39Z</time>
      </trkpt>
      <trkpt lat="46.31218" lon="6.79302">
        <ele>1569.4</ele>
        <time>2021-10-10T07:42:28Z</time>
      </trkpt>
      <trkpt lat="46.31218" lon="6.79307">
        <ele>1570.4</ele>
        <time>2021-10-10T07:43:42Z</time>
      </trkpt>
      <trkpt lat="46.31219" lon="6.79302">
        <ele>1569.8</ele>
        <time>2021-10-10T07:43:57Z</time>
      </trkpt>
      <trkpt lat="46.31219" lon="6.79296">
        <ele>1568.7</ele>
        <time>2021-10-10T07:44:18Z</time>
      </trkpt>
      <trkpt lat="46.31221" lon="6.7929">
        <ele>1568.2</ele>
        <time>2021-10-10T07:46:01Z</time>
      </trkpt>
      <trkpt lat="46.31224" lon="6.79283">
        <ele>1568</ele>
        <time>2021-10-10T07:46:08Z</time>
      </trkpt>
      <trkpt lat="46.31226" lon="6.79277">
        <ele>1567.5</ele>
        <time>2021-10-10T07:46:14Z</time>
      </trkpt>
      <trkpt lat="46.31229" lon="6.79273">
        <ele>1567.7</ele>
        <time>2021-10-10T07:46:20Z</time>
      </trkpt>
      <trkpt lat="46.31234" lon="6.7927">
        <ele>1568.9</ele>
        <time>2021-10-10T07:46:27Z</time>
      </trkpt>
      <trkpt lat="46.31239" lon="6.79268">
        <ele>1570.2</ele>
        <time>2021-10-10T07:46:34Z</time>
      </trkpt>
      <trkpt lat="46.31242" lon="6.79267">
        <ele>1571</ele>
        <time>2021-10-10T07:46:39Z</time>
      </trkpt>
      <trkpt lat="46.31244" lon="6.79272">
        <ele>1572.7</ele>
        <time>2021-10-10T07:46:47Z</time>
      </trkpt>
      <trkpt lat="46.31245" lon="6.79274">
        <ele>1573.5</ele>
        <time>2021-10-10T07:46:50Z</time>
      </trkpt>
      <trkpt lat="46.31248" lon="6.79279">
        <ele>1575.6</ele>
        <time>2021-10-10T07:46:55Z</time>
      </trkpt>
      <trkpt lat="46.31251" lon="6.79284">
        <ele>1577.7</ele>
        <time>2021-10-10T07:47:02Z</time>
      </trkpt>
      <trkpt lat="46.31254" lon="6.79288">
        <ele>1579.8</ele>
        <time>2021-10-10T07:47:09Z</time>
      </trkpt>
      <trkpt lat="46.31256" lon="6.79292">
        <ele>1581.4</ele>
        <time>2021-10-10T07:47:17Z</time>
      </trkpt>
      <trkpt lat="46.31259" lon="6.79298">
        <ele>1583.9</ele>
        <time>2021-10-10T07:47:28Z</time>
      </trkpt>
      <trkpt lat="46.31263" lon="6.793">
        <ele>1585.9</ele>
        <time>2021-10-10T07:47:35Z</time>
      </trkpt>
      <trkpt lat="46.31266" lon="6.79302">
        <ele>1587.6</ele>
        <time>2021-10-10T07:47:44Z</time>
      </trkpt>
      <trkpt lat="46.31271" lon="6.79305">
        <ele>1590.2</ele>
        <time>2021-10-10T07:47:56Z</time>
      </trkpt>
      <trkpt lat="46.31275" lon="6.79307">
        <ele>1592.2</ele>
        <time>2021-10-10T07:48:10Z</time>
      </trkpt>
      <trkpt lat="46.31279" lon="6.79304">
        <ele>1593.1</ele>
        <time>2021-10-10T07:48:21Z</time>
      </trkpt>
      <trkpt lat="46.31281" lon="6.79302">
        <ele>1593.5</ele>
        <time>2021-10-10T07:48:25Z</time>
      </trkpt>
      <trkpt lat="46.31286" lon="6.79299">
        <ele>1594.8</ele>
        <time>2021-10-10T07:48:31Z</time>
      </trkpt>
      <trkpt lat="46.31289" lon="6.79298">
        <ele>1595.8</ele>
        <time>2021-10-10T07:48:37Z</time>
      </trkpt>
      <trkpt lat="46.31293" lon="6.79296">
        <ele>1597</ele>
        <time>2021-10-10T07:48:44Z</time>
      </trkpt>
      <trkpt lat="46.31295" lon="6.79299">
        <ele>1598.4</ele>
        <time>2021-10-10T07:48:53Z</time>
      </trkpt>
      <trkpt lat="46.31298" lon="6.79296">
        <ele>1598.9</ele>
        <time>2021-10-10T07:49:01Z</time>
      </trkpt>
      <trkpt lat="46.31299" lon="6.79299">
        <ele>1600</ele>
        <time>2021-10-10T07:49:10Z</time>
      </trkpt>
      <trkpt lat="46.31299" lon="6.79305">
        <ele>1601.3</ele>
        <time>2021-10-10T07:49:21Z</time>
      </trkpt>
      <trkpt lat="46.31303" lon="6.79304">
        <ele>1602.7</ele>
        <time>2021-10-10T07:49:30Z</time>
      </trkpt>
      <trkpt lat="46.31305" lon="6.79309">
        <ele>1604.5</ele>
        <time>2021-10-10T07:49:38Z</time>
      </trkpt>
      <trkpt lat="46.31304" lon="6.79317">
        <ele>1605.9</ele>
        <time>2021-10-10T07:49:46Z</time>
      </trkpt>
      <trkpt lat="46.31303" lon="6.79322">
        <ele>1606.5</ele>
        <time>2021-10-10T07:49:52Z</time>
      </trkpt>
      <trkpt lat="46.31302" lon="6.79328">
        <ele>1607.4</ele>
        <time>2021-10-10T07:49:59Z</time>
      </trkpt>
      <trkpt lat="46.31303" lon="6.79334">
        <ele>1609.1</ele>
        <time>2021-10-10T07:50:08Z</time>
      </trkpt>
      <trkpt lat="46.31304" lon="6.79335">
        <ele>1609.6</ele>
        <time>2021-10-10T07:50:10Z</time>
      </trkpt>
      <trkpt lat="46.31307" lon="6.79341">
        <ele>1611.6</ele>
        <time>2021-10-10T07:50:18Z</time>
      </trkpt>
      <trkpt lat="46.3131" lon="6.79346">
        <ele>1613.5</ele>
        <time>2021-10-10T07:50:26Z</time>
      </trkpt>
      <trkpt lat="46.31313" lon="6.79351">
        <ele>1615.3</ele>
        <time>2021-10-10T07:50:35Z</time>
      </trkpt>
      <trkpt lat="46.31314" lon="6.79355">
        <ele>1616.2</ele>
        <time>2021-10-10T07:50:41Z</time>
      </trkpt>
      <trkpt lat="46.31316" lon="6.7936">
        <ele>1617.5</ele>
        <time>2021-10-10T07:50:51Z</time>
      </trkpt>
      <trkpt lat="46.31319" lon="6.79365">
        <ele>1619.3</ele>
        <time>2021-10-10T07:51:01Z</time>
      </trkpt>
      <trkpt lat="46.31321" lon="6.7937">
        <ele>1620.6</ele>
        <time>2021-10-10T07:51:09Z</time>
      </trkpt>
      <trkpt lat="46.31324" lon="6.79374">
        <ele>1622.1</ele>
        <time>2021-10-10T07:51:16Z</time>
      </trkpt>
      <trkpt lat="46.31327" lon="6.79377">
        <ele>1623.5</ele>
        <time>2021-10-10T07:51:24Z</time>
      </trkpt>
      <trkpt lat="46.3133" lon="6.79381">
        <ele>1625</ele>
        <time>2021-10-10T07:51:34Z</time>
      </trkpt>
      <trkpt lat="46.31333" lon="6.79386">
        <ele>1626.6</ele>
        <time>2021-10-10T07:51:43Z</time>
      </trkpt>
      <trkpt lat="46.31335" lon="6.79389">
        <ele>1627.9</ele>
        <time>2021-10-10T07:51:49Z</time>
      </trkpt>
      <trkpt lat="46.31338" lon="6.79393">
        <ele>1629.8</ele>
        <time>2021-10-10T07:51:59Z</time>
      </trkpt>
      <trkpt lat="46.31341" lon="6.79398">
        <ele>1631.8</ele>
        <time>2021-10-10T07:52:07Z</time>
      </trkpt>
      <trkpt lat="46.31342" lon="6.794">
        <ele>1632.5</ele>
        <time>2021-10-10T07:52:10Z</time>
      </trkpt>
      <trkpt lat="46.31343" lon="6.79406">
        <ele>1633.5</ele>
        <time>2021-10-10T07:52:16Z</time>
      </trkpt>
      <trkpt lat="46.31343" lon="6.79411">
        <ele>1634</ele>
        <time>2021-10-10T07:52:21Z</time>
      </trkpt>
      <trkpt lat="46.31345" lon="6.79416">
        <ele>1635.4</ele>
        <time>2021-10-10T07:52:31Z</time>
      </trkpt>
      <trkpt lat="46.31347" lon="6.79422">
        <ele>1636.9</ele>
        <time>2021-10-10T07:52:39Z</time>
      </trkpt>
      <trkpt lat="46.31349" lon="6.79427">
        <ele>1638.2</ele>
        <time>2021-10-10T07:52:46Z</time>
      </trkpt>
      <trkpt lat="46.31352" lon="6.79432">
        <ele>1640</ele>
        <time>2021-10-10T07:52:53Z</time>
      </trkpt>
      <trkpt lat="46.31354" lon="6.79436">
        <ele>1641.1</ele>
        <time>2021-10-10T07:52:58Z</time>
      </trkpt>
      <trkpt lat="46.31357" lon="6.79443">
        <ele>1642.9</ele>
        <time>2021-10-10T07:53:06Z</time>
      </trkpt>
      <trkpt lat="46.31359" lon="6.79447">
        <ele>1644</ele>
        <time>2021-10-10T07:53:11Z</time>
      </trkpt>
      <trkpt lat="46.31361" lon="6.79453">
        <ele>1645.1</ele>
        <time>2021-10-10T07:53:18Z</time>
      </trkpt>
      <trkpt lat="46.31364" lon="6.79458">
        <ele>1646.6</ele>
        <time>2021-10-10T07:53:24Z</time>
      </trkpt>
      <trkpt lat="46.31366" lon="6.79462">
        <ele>1647.5</ele>
        <time>2021-10-10T07:53:28Z</time>
      </trkpt>
      <trkpt lat="46.31369" lon="6.79468">
        <ele>1648.9</ele>
        <time>2021-10-10T07:53:34Z</time>
      </trkpt>
      <trkpt lat="46.31372" lon="6.79474">
        <ele>1650.2</ele>
        <time>2021-10-10T07:53:40Z</time>
      </trkpt>
      <trkpt lat="46.31374" lon="6.79479">
        <ele>1651</ele>
        <time>2021-10-10T07:53:45Z</time>
      </trkpt>
      <trkpt lat="46.31377" lon="6.79484">
        <ele>1652.2</ele>
        <time>2021-10-10T07:53:50Z</time>
      </trkpt>
      <trkpt lat="46.31379" lon="6.79488">
        <ele>1652.9</ele>
        <time>2021-10-10T07:53:54Z</time>
      </trkpt>
      <trkpt lat="46.31382" lon="6.79494">
        <ele>1653.9</ele>
        <time>2021-10-10T07:54:00Z</time>
      </trkpt>
      <trkpt lat="46.31385" lon="6.79499">
        <ele>1654.9</ele>
        <time>2021-10-10T07:54:05Z</time>
      </trkpt>
      <trkpt lat="46.31388" lon="6.79505">
        <ele>1656</ele>
        <time>2021-10-10T07:54:10Z</time>
      </trkpt>
      <trkpt lat="46.3139" lon="6.7951">
        <ele>1656.8</ele>
        <time>2021-10-10T07:54:15Z</time>
      </trkpt>
      <trkpt lat="46.31393" lon="6.79517">
        <ele>1657.9</ele>
        <time>2021-10-10T07:54:21Z</time>
      </trkpt>
      <trkpt lat="46.31394" lon="6.79524">
        <ele>1658.4</ele>
        <time>2021-10-10T07:54:26Z</time>
      </trkpt>
      <trkpt lat="46.31396" lon="6.7953">
        <ele>1659.1</ele>
        <time>2021-10-10T07:54:31Z</time>
      </trkpt>
      <trkpt lat="46.31398" lon="6.79536">
        <ele>1659.7</ele>
        <time>2021-10-10T07:54:36Z</time>
      </trkpt>
      <trkpt lat="46.31399" lon="6.79543">
        <ele>1660.1</ele>
        <time>2021-10-10T07:54:41Z</time>
      </trkpt>
      <trkpt lat="46.31401" lon="6.79549">
        <ele>1660.7</ele>
        <time>2021-10-10T07:54:46Z</time>
      </trkpt>
      <trkpt lat="46.31403" lon="6.79556">
        <ele>1661.2</ele>
        <time>2021-10-10T07:54:52Z</time>
      </trkpt>
      <trkpt lat="46.31404" lon="6.79562">
        <ele>1661.4</ele>
        <time>2021-10-10T07:54:57Z</time>
      </trkpt>
      <trkpt lat="46.31406" lon="6.79569">
        <ele>1661.8</ele>
        <time>2021-10-10T07:55:02Z</time>
      </trkpt>
      <trkpt lat="46.31407" lon="6.79575">
        <ele>1662</ele>
        <time>2021-10-10T07:55:07Z</time>
      </trkpt>
      <trkpt lat="46.31409" lon="6.7958">
        <ele>1662.2</ele>
        <time>2021-10-10T07:55:12Z</time>
      </trkpt>
      <trkpt lat="46.3141" lon="6.79587">
        <ele>1662.7</ele>
        <time>2021-10-10T07:55:17Z</time>
      </trkpt>
      <trkpt lat="46.3141" lon="6.79594">
        <ele>1663.5</ele>
        <time>2021-10-10T07:55:22Z</time>
      </trkpt>
      <trkpt lat="46.3141" lon="6.79601">
        <ele>1664.2</ele>
        <time>2021-10-10T07:55:27Z</time>
      </trkpt>
      <trkpt lat="46.3141" lon="6.79607">
        <ele>1664.8</ele>
        <time>2021-10-10T07:55:31Z</time>
      </trkpt>
      <trkpt lat="46.31411" lon="6.79612">
        <ele>1665.4</ele>
        <time>2021-10-10T07:55:34Z</time>
      </trkpt>
      <trkpt lat="46.31412" lon="6.79619">
        <ele>1666.1</ele>
        <time>2021-10-10T07:55:39Z</time>
      </trkpt>
      <trkpt lat="46.31413" lon="6.79625">
        <ele>1666.6</ele>
        <time>2021-10-10T07:55:44Z</time>
      </trkpt>
      <trkpt lat="46.31414" lon="6.7963">
        <ele>1667.1</ele>
        <time>2021-10-10T07:55:48Z</time>
      </trkpt>
      <trkpt lat="46.31416" lon="6.79636">
        <ele>1667.5</ele>
        <time>2021-10-10T07:55:54Z</time>
      </trkpt>
      <trkpt lat="46.31416" lon="6.79643">
        <ele>1668.1</ele>
        <time>2021-10-10T07:56:00Z</time>
      </trkpt>
      <trkpt lat="46.31417" lon="6.7965">
        <ele>1668.7</ele>
        <time>2021-10-10T07:56:06Z</time>
      </trkpt>
      <trkpt lat="46.31418" lon="6.79655">
        <ele>1669.5</ele>
        <time>2021-10-10T07:56:13Z</time>
      </trkpt>
      <trkpt lat="46.31418" lon="6.79662">
        <ele>1670.1</ele>
        <time>2021-10-10T07:56:20Z</time>
      </trkpt>
      <trkpt lat="46.31421" lon="6.79666">
        <ele>1671.5</ele>
        <time>2021-10-10T07:56:27Z</time>
      </trkpt>
      <trkpt lat="46.31423" lon="6.79671">
        <ele>1673</ele>
        <time>2021-10-10T07:56:35Z</time>
      </trkpt>
      <trkpt lat="46.31426" lon="6.79675">
        <ele>1674.8</ele>
        <time>2021-10-10T07:56:43Z</time>
      </trkpt>
      <trkpt lat="46.31428" lon="6.79681">
        <ele>1676.5</ele>
        <time>2021-10-10T07:56:52Z</time>
      </trkpt>
      <trkpt lat="46.31429" lon="6.79687">
        <ele>1677.8</ele>
        <time>2021-10-10T07:57:00Z</time>
      </trkpt>
      <trkpt lat="46.31432" lon="6.79693">
        <ele>1679.6</ele>
        <time>2021-10-10T07:57:08Z</time>
      </trkpt>
      <trkpt lat="46.31435" lon="6.79698">
        <ele>1681.3</ele>
        <time>2021-10-10T07:57:16Z</time>
      </trkpt>
      <trkpt lat="46.31437" lon="6.79705">
        <ele>1682.9</ele>
        <time>2021-10-10T07:57:23Z</time>
      </trkpt>
      <trkpt lat="46.31439" lon="6.79708">
        <ele>1683.8</ele>
        <time>2021-10-10T07:57:27Z</time>
      </trkpt>
      <trkpt lat="46.31443" lon="6.79713">
        <ele>1685.6</ele>
        <time>2021-10-10T07:57:35Z</time>
      </trkpt>
      <trkpt lat="46.31445" lon="6.79719">
        <ele>1686.8</ele>
        <time>2021-10-10T07:57:43Z</time>
      </trkpt>
      <trkpt lat="46.31447" lon="6.79725">
        <ele>1688</ele>
        <time>2021-10-10T07:57:51Z</time>
      </trkpt>
      <trkpt lat="46.31449" lon="6.79729">
        <ele>1689</ele>
        <time>2021-10-10T07:57:57Z</time>
      </trkpt>
      <trkpt lat="46.31451" lon="6.79736">
        <ele>1690.2</ele>
        <time>2021-10-10T07:58:06Z</time>
      </trkpt>
      <trkpt lat="46.31451" lon="6.7974">
        <ele>1690.6</ele>
        <time>2021-10-10T07:58:11Z</time>
      </trkpt>
      <trkpt lat="46.31452" lon="6.79741">
        <ele>1690.9</ele>
        <time>2021-10-10T07:58:13Z</time>
      </trkpt>
      <trkpt lat="46.31454" lon="6.79747">
        <ele>1692</ele>
        <time>2021-10-10T07:58:20Z</time>
      </trkpt>
      <trkpt lat="46.31456" lon="6.79751">
        <ele>1692.8</ele>
        <time>2021-10-10T07:58:28Z</time>
      </trkpt>
      <trkpt lat="46.31457" lon="6.79755">
        <ele>1693.8</ele>
        <time>2021-10-10T07:58:32Z</time>
      </trkpt>
      <trkpt lat="46.31459" lon="6.7976">
        <ele>1695.2</ele>
        <time>2021-10-10T07:58:39Z</time>
      </trkpt>
      <trkpt lat="46.31461" lon="6.79764">
        <ele>1696.3</ele>
        <time>2021-10-10T07:58:44Z</time>
      </trkpt>
      <trkpt lat="46.31464" lon="6.7977">
        <ele>1697.9</ele>
        <time>2021-10-10T07:58:52Z</time>
      </trkpt>
      <trkpt lat="46.31467" lon="6.79776">
        <ele>1699.5</ele>
        <time>2021-10-10T07:58:58Z</time>
      </trkpt>
      <trkpt lat="46.31471" lon="6.79779">
        <ele>1700.5</ele>
        <time>2021-10-10T07:59:03Z</time>
      </trkpt>
      <trkpt lat="46.31475" lon="6.79782">
        <ele>1701.5</ele>
        <time>2021-10-10T07:59:12Z</time>
      </trkpt>
      <trkpt lat="46.31479" lon="6.79784">
        <ele>1702.3</ele>
        <time>2021-10-10T07:59:18Z</time>
      </trkpt>
      <trkpt lat="46.31484" lon="6.79787">
        <ele>1703.3</ele>
        <time>2021-10-10T07:59:24Z</time>
      </trkpt>
      <trkpt lat="46.31486" lon="6.79791">
        <ele>1704.1</ele>
        <time>2021-10-10T07:59:28Z</time>
      </trkpt>
      <trkpt lat="46.31489" lon="6.79795">
        <ele>1705</ele>
        <time>2021-10-10T07:59:34Z</time>
      </trkpt>
      <trkpt lat="46.31493" lon="6.79799">
        <ele>1705.9</ele>
        <time>2021-10-10T07:59:39Z</time>
      </trkpt>
      <trkpt lat="46.31495" lon="6.79802">
        <ele>1706.5</ele>
        <time>2021-10-10T07:59:44Z</time>
      </trkpt>
      <trkpt lat="46.31499" lon="6.79806">
        <ele>1707.3</ele>
        <time>2021-10-10T07:59:50Z</time>
      </trkpt>
      <trkpt lat="46.315" lon="6.79812">
        <ele>1708.2</ele>
        <time>2021-10-10T08:00:01Z</time>
      </trkpt>
      <trkpt lat="46.31495" lon="6.79814">
        <ele>1708.2</ele>
        <time>2021-10-10T08:00:20Z</time>
      </trkpt>
      <trkpt lat="46.31491" lon="6.79818">
        <ele>1708.6</ele>
        <time>2021-10-10T08:00:24Z</time>
      </trkpt>
      <trkpt lat="46.31486" lon="6.79821">
        <ele>1708.9</ele>
        <time>2021-10-10T08:00:30Z</time>
      </trkpt>
      <trkpt lat="46.31481" lon="6.79821">
        <ele>1708.7</ele>
        <time>2021-10-10T08:00:35Z</time>
      </trkpt>
      <trkpt lat="46.31476" lon="6.79824">
        <ele>1709.1</ele>
        <time>2021-10-10T08:00:41Z</time>
      </trkpt>
      <trkpt lat="46.31472" lon="6.79827">
        <ele>1709.5</ele>
        <time>2021-10-10T08:00:46Z</time>
      </trkpt>
      <trkpt lat="46.31469" lon="6.79829">
        <ele>1709.8</ele>
        <time>2021-10-10T08:00:50Z</time>
      </trkpt>
      <trkpt lat="46.31466" lon="6.79832">
        <ele>1710.3</ele>
        <time>2021-10-10T08:00:54Z</time>
      </trkpt>
      <trkpt lat="46.31461" lon="6.79835">
        <ele>1711.1</ele>
        <time>2021-10-10T08:00:59Z</time>
      </trkpt>
      <trkpt lat="46.31458" lon="6.79837">
        <ele>1711.9</ele>
        <time>2021-10-10T08:01:03Z</time>
      </trkpt>
      <trkpt lat="46.31456" lon="6.79838">
        <ele>1712.2</ele>
        <time>2021-10-10T08:01:06Z</time>
      </trkpt>
      <trkpt lat="46.31451" lon="6.79841">
        <ele>1713.4</ele>
        <time>2021-10-10T08:01:12Z</time>
      </trkpt>
      <trkpt lat="46.31446" lon="6.79842">
        <ele>1713.9</ele>
        <time>2021-10-10T08:01:18Z</time>
      </trkpt>
      <trkpt lat="46.31442" lon="6.79844">
        <ele>1714.8</ele>
        <time>2021-10-10T08:01:25Z</time>
      </trkpt>
      <trkpt lat="46.31438" lon="6.79846">
        <ele>1715.7</ele>
        <time>2021-10-10T08:01:33Z</time>
      </trkpt>
      <trkpt lat="46.31434" lon="6.7985">
        <ele>1717.6</ele>
        <time>2021-10-10T08:01:40Z</time>
      </trkpt>
      <trkpt lat="46.31429" lon="6.79854">
        <ele>1719.6</ele>
        <time>2021-10-10T08:01:47Z</time>
      </trkpt>
      <trkpt lat="46.31425" lon="6.79854">
        <ele>1719.8</ele>
        <time>2021-10-10T08:01:52Z</time>
      </trkpt>
      <trkpt lat="46.31423" lon="6.79853">
        <ele>1719.4</ele>
        <time>2021-10-10T08:01:56Z</time>
      </trkpt>
      <trkpt lat="46.31418" lon="6.7985">
        <ele>1718.2</ele>
        <time>2021-10-10T08:02:03Z</time>
      </trkpt>
      <trkpt lat="46.31414" lon="6.79849">
        <ele>1718.1</ele>
        <time>2021-10-10T08:02:08Z</time>
      </trkpt>
      <trkpt lat="46.3141" lon="6.79847">
        <ele>1717.8</ele>
        <time>2021-10-10T08:02:13Z</time>
      </trkpt>
      <trkpt lat="46.31406" lon="6.79844">
        <ele>1717.1</ele>
        <time>2021-10-10T08:02:19Z</time>
      </trkpt>
      <trkpt lat="46.31401" lon="6.7984">
        <ele>1716.2</ele>
        <time>2021-10-10T08:02:25Z</time>
      </trkpt>
      <trkpt lat="46.31398" lon="6.79839">
        <ele>1716.3</ele>
        <time>2021-10-10T08:02:29Z</time>
      </trkpt>
      <trkpt lat="46.31393" lon="6.79836">
        <ele>1716</ele>
        <time>2021-10-10T08:02:36Z</time>
      </trkpt>
      <trkpt lat="46.31388" lon="6.79834">
        <ele>1716.1</ele>
        <time>2021-10-10T08:02:43Z</time>
      </trkpt>
      <trkpt lat="46.31384" lon="6.79832">
        <ele>1716.3</ele>
        <time>2021-10-10T08:02:49Z</time>
      </trkpt>
      <trkpt lat="46.3138" lon="6.79831">
        <ele>1716.8</ele>
        <time>2021-10-10T08:02:55Z</time>
      </trkpt>
      <trkpt lat="46.31376" lon="6.7983">
        <ele>1717.4</ele>
        <time>2021-10-10T08:03:00Z</time>
      </trkpt>
      <trkpt lat="46.31372" lon="6.79828">
        <ele>1717.6</ele>
        <time>2021-10-10T08:03:06Z</time>
      </trkpt>
      <trkpt lat="46.31369" lon="6.79827">
        <ele>1717.9</ele>
        <time>2021-10-10T08:03:11Z</time>
      </trkpt>
      <trkpt lat="46.31365" lon="6.79826">
        <ele>1718.5</ele>
        <time>2021-10-10T08:03:18Z</time>
      </trkpt>
      <trkpt lat="46.31361" lon="6.79826">
        <ele>1719.3</ele>
        <time>2021-10-10T08:03:24Z</time>
      </trkpt>
      <trkpt lat="46.31358" lon="6.79829">
        <ele>1720.8</ele>
        <time>2021-10-10T08:03:30Z</time>
      </trkpt>
      <trkpt lat="46.31354" lon="6.79833">
        <ele>1722.7</ele>
        <time>2021-10-10T08:03:36Z</time>
      </trkpt>
      <trkpt lat="46.3135" lon="6.79836">
        <ele>1724.5</ele>
        <time>2021-10-10T08:03:42Z</time>
      </trkpt>
      <trkpt lat="46.31346" lon="6.79839">
        <ele>1726.2</ele>
        <time>2021-10-10T08:03:48Z</time>
      </trkpt>
      <trkpt lat="46.31343" lon="6.79842">
        <ele>1727.6</ele>
        <time>2021-10-10T08:03:54Z</time>
      </trkpt>
      <trkpt lat="46.3134" lon="6.79848">
        <ele>1729.9</ele>
        <time>2021-10-10T08:04:02Z</time>
      </trkpt>
      <trkpt lat="46.31336" lon="6.79852">
        <ele>1731.7</ele>
        <time>2021-10-10T08:04:08Z</time>
      </trkpt>
      <trkpt lat="46.31332" lon="6.79855">
        <ele>1732.3</ele>
        <time>2021-10-10T08:04:16Z</time>
      </trkpt>
      <trkpt lat="46.31329" lon="6.7986">
        <ele>1732.3</ele>
        <time>2021-10-10T08:04:24Z</time>
      </trkpt>
      <trkpt lat="46.31327" lon="6.79863">
        <ele>1732.1</ele>
        <time>2021-10-10T08:04:30Z</time>
      </trkpt>
      <trkpt lat="46.31328" lon="6.79869">
        <ele>1734.2</ele>
        <time>2021-10-10T08:04:37Z</time>
      </trkpt>
      <trkpt lat="46.31328" lon="6.79876">
        <ele>1736.1</ele>
        <time>2021-10-10T08:04:44Z</time>
      </trkpt>
      <trkpt lat="46.31326" lon="6.79883">
        <ele>1737</ele>
        <time>2021-10-10T08:04:52Z</time>
      </trkpt>
      <trkpt lat="46.31325" lon="6.79887">
        <ele>1737.6</ele>
        <time>2021-10-10T08:04:57Z</time>
      </trkpt>
      <trkpt lat="46.31323" lon="6.79894">
        <ele>1738.4</ele>
        <time>2021-10-10T08:05:06Z</time>
      </trkpt>
      <trkpt lat="46.31323" lon="6.79899">
        <ele>1739.7</ele>
        <time>2021-10-10T08:05:13Z</time>
      </trkpt>
      <trkpt lat="46.31323" lon="6.79906">
        <ele>1741.6</ele>
        <time>2021-10-10T08:05:22Z</time>
      </trkpt>
      <trkpt lat="46.31323" lon="6.79912">
        <ele>1743.2</ele>
        <time>2021-10-10T08:05:30Z</time>
      </trkpt>
      <trkpt lat="46.31324" lon="6.79918">
        <ele>1745.4</ele>
        <time>2021-10-10T08:05:38Z</time>
      </trkpt>
      <trkpt lat="46.31324" lon="6.79924">
        <ele>1747.4</ele>
        <time>2021-10-10T08:05:47Z</time>
      </trkpt>
      <trkpt lat="46.31324" lon="6.79931">
        <ele>1749.8</ele>
        <time>2021-10-10T08:05:56Z</time>
      </trkpt>
      <trkpt lat="46.31323" lon="6.79937">
        <ele>1751.2</ele>
        <time>2021-10-10T08:06:06Z</time>
      </trkpt>
      <trkpt lat="46.31319" lon="6.79942">
        <ele>1750.6</ele>
        <time>2021-10-10T08:06:13Z</time>
      </trkpt>
      <trkpt lat="46.31319" lon="6.79947">
        <ele>1752.3</ele>
        <time>2021-10-10T08:06:18Z</time>
      </trkpt>
      <trkpt lat="46.3132" lon="6.79951">
        <ele>1754.2</ele>
        <time>2021-10-10T08:06:22Z</time>
      </trkpt>
      <trkpt lat="46.3132" lon="6.79958">
        <ele>1756.5</ele>
        <time>2021-10-10T08:06:29Z</time>
      </trkpt>
      <trkpt lat="46.31319" lon="6.79963">
        <ele>1757.5</ele>
        <time>2021-10-10T08:06:36Z</time>
      </trkpt>
      <trkpt lat="46.3132" lon="6.79969">
        <ele>1760.1</ele>
        <time>2021-10-10T08:06:44Z</time>
      </trkpt>
      <trkpt lat="46.3132" lon="6.79974">
        <ele>1761.8</ele>
        <time>2021-10-10T08:06:52Z</time>
      </trkpt>
      <trkpt lat="46.31321" lon="6.79981">
        <ele>1764.7</ele>
        <time>2021-10-10T08:07:03Z</time>
      </trkpt>
      <trkpt lat="46.31322" lon="6.79988">
        <ele>1767.7</ele>
        <time>2021-10-10T08:07:16Z</time>
      </trkpt>
      <trkpt lat="46.31324" lon="6.79993">
        <ele>1770.6</ele>
        <time>2021-10-10T08:07:22Z</time>
      </trkpt>
      <trkpt lat="46.31322" lon="6.79997">
        <ele>1770.7</ele>
        <time>2021-10-10T08:07:27Z</time>
      </trkpt>
      <trkpt lat="46.3132" lon="6.80003">
        <ele>1771.2</ele>
        <time>2021-10-10T08:07:32Z</time>
      </trkpt>
      <trkpt lat="46.3132" lon="6.80009">
        <ele>1773</ele>
        <time>2021-10-10T08:07:39Z</time>
      </trkpt>
      <trkpt lat="46.31319" lon="6.80015">
        <ele>1774.2</ele>
        <time>2021-10-10T08:07:45Z</time>
      </trkpt>
      <trkpt lat="46.31318" lon="6.8002">
        <ele>1775</ele>
        <time>2021-10-10T08:07:51Z</time>
      </trkpt>
      <trkpt lat="46.31314" lon="6.80025">
        <ele>1774.1</ele>
        <time>2021-10-10T08:07:59Z</time>
      </trkpt>
      <trkpt lat="46.31313" lon="6.80032">
        <ele>1775.6</ele>
        <time>2021-10-10T08:08:05Z</time>
      </trkpt>
      <trkpt lat="46.31313" lon="6.80038">
        <ele>1777.4</ele>
        <time>2021-10-10T08:08:10Z</time>
      </trkpt>
      <trkpt lat="46.31311" lon="6.80044">
        <ele>1778.1</ele>
        <time>2021-10-10T08:08:19Z</time>
      </trkpt>
      <trkpt lat="46.31309" lon="6.80049">
        <ele>1778.5</ele>
        <time>2021-10-10T08:08:25Z</time>
      </trkpt>
      <trkpt lat="46.31307" lon="6.80055">
        <ele>1779.2</ele>
        <time>2021-10-10T08:08:32Z</time>
      </trkpt>
      <trkpt lat="46.31308" lon="6.80062">
        <ele>1782</ele>
        <time>2021-10-10T08:08:38Z</time>
      </trkpt>
      <trkpt lat="46.31307" lon="6.80068">
        <ele>1783.3</ele>
        <time>2021-10-10T08:08:44Z</time>
      </trkpt>
      <trkpt lat="46.31307" lon="6.80075">
        <ele>1785.5</ele>
        <time>2021-10-10T08:08:53Z</time>
      </trkpt>
      <trkpt lat="46.31309" lon="6.80081">
        <ele>1788.4</ele>
        <time>2021-10-10T08:09:00Z</time>
      </trkpt>
      <trkpt lat="46.31309" lon="6.80087">
        <ele>1789.7</ele>
        <time>2021-10-10T08:09:08Z</time>
      </trkpt>
      <trkpt lat="46.3131" lon="6.80095">
        <ele>1791.2</ele>
        <time>2021-10-10T08:09:15Z</time>
      </trkpt>
      <trkpt lat="46.31309" lon="6.80102">
        <ele>1791.7</ele>
        <time>2021-10-10T08:09:21Z</time>
      </trkpt>
      <trkpt lat="46.31309" lon="6.80106">
        <ele>1792.3</ele>
        <time>2021-10-10T08:09:24Z</time>
      </trkpt>
      <trkpt lat="46.31309" lon="6.80111">
        <ele>1792.9</ele>
        <time>2021-10-10T08:09:28Z</time>
      </trkpt>
      <trkpt lat="46.31309" lon="6.80119">
        <ele>1794</ele>
        <time>2021-10-10T08:09:33Z</time>
      </trkpt>
      <trkpt lat="46.3131" lon="6.80125">
        <ele>1795.3</ele>
        <time>2021-10-10T08:09:39Z</time>
      </trkpt>
      <trkpt lat="46.3131" lon="6.80131">
        <ele>1796.1</ele>
        <time>2021-10-10T08:09:45Z</time>
      </trkpt>
      <trkpt lat="46.31309" lon="6.80137">
        <ele>1796.5</ele>
        <time>2021-10-10T08:09:50Z</time>
      </trkpt>
      <trkpt lat="46.31307" lon="6.80141">
        <ele>1796.4</ele>
        <time>2021-10-10T08:09:52Z</time>
      </trkpt>
      <trkpt lat="46.31306" lon="6.80148">
        <ele>1797</ele>
        <time>2021-10-10T08:09:58Z</time>
      </trkpt>
      <trkpt lat="46.31306" lon="6.80154">
        <ele>1797.9</ele>
        <time>2021-10-10T08:10:05Z</time>
      </trkpt>
      <trkpt lat="46.31306" lon="6.80159">
        <ele>1798.7</ele>
        <time>2021-10-10T08:10:11Z</time>
      </trkpt>
      <trkpt lat="46.31306" lon="6.80165">
        <ele>1799.5</ele>
        <time>2021-10-10T08:10:17Z</time>
      </trkpt>
      <trkpt lat="46.31306" lon="6.80172">
        <ele>1801</ele>
        <time>2021-10-10T08:10:25Z</time>
      </trkpt>
      <trkpt lat="46.31308" lon="6.80178">
        <ele>1802.8</ele>
        <time>2021-10-10T08:10:33Z</time>
      </trkpt>
      <trkpt lat="46.31309" lon="6.80183">
        <ele>1804.1</ele>
        <time>2021-10-10T08:10:39Z</time>
      </trkpt>
      <trkpt lat="46.31311" lon="6.80188">
        <ele>1805.7</ele>
        <time>2021-10-10T08:10:45Z</time>
      </trkpt>
      <trkpt lat="46.31313" lon="6.80193">
        <ele>1807.3</ele>
        <time>2021-10-10T08:10:52Z</time>
      </trkpt>
      <trkpt lat="46.31315" lon="6.802">
        <ele>1809.3</ele>
        <time>2021-10-10T08:11:00Z</time>
      </trkpt>
      <trkpt lat="46.31317" lon="6.80205">
        <ele>1810.9</ele>
        <time>2021-10-10T08:11:07Z</time>
      </trkpt>
      <trkpt lat="46.31319" lon="6.80211">
        <ele>1812.6</ele>
        <time>2021-10-10T08:11:15Z</time>
      </trkpt>
      <trkpt lat="46.31321" lon="6.80218">
        <ele>1814.6</ele>
        <time>2021-10-10T08:11:24Z</time>
      </trkpt>
      <trkpt lat="46.31323" lon="6.80224">
        <ele>1816.3</ele>
        <time>2021-10-10T08:11:31Z</time>
      </trkpt>
      <trkpt lat="46.31325" lon="6.80229">
        <ele>1817.8</ele>
        <time>2021-10-10T08:11:38Z</time>
      </trkpt>
      <trkpt lat="46.31327" lon="6.80235">
        <ele>1819.5</ele>
        <time>2021-10-10T08:11:46Z</time>
      </trkpt>
      <trkpt lat="46.31329" lon="6.80241">
        <ele>1821.2</ele>
        <time>2021-10-10T08:11:53Z</time>
      </trkpt>
      <trkpt lat="46.31332" lon="6.80247">
        <ele>1823.1</ele>
        <time>2021-10-10T08:12:00Z</time>
      </trkpt>
      <trkpt lat="46.31334" lon="6.80253">
        <ele>1824.5</ele>
        <time>2021-10-10T08:12:07Z</time>
      </trkpt>
      <trkpt lat="46.31336" lon="6.80259">
        <ele>1825.4</ele>
        <time>2021-10-10T08:12:14Z</time>
      </trkpt>
      <trkpt lat="46.31337" lon="6.80267">
        <ele>1826.4</ele>
        <time>2021-10-10T08:12:22Z</time>
      </trkpt>
      <trkpt lat="46.31339" lon="6.80273">
        <ele>1827.3</ele>
        <time>2021-10-10T08:12:29Z</time>
      </trkpt>
      <trkpt lat="46.31341" lon="6.80279">
        <ele>1828.1</ele>
        <time>2021-10-10T08:12:36Z</time>
      </trkpt>
      <trkpt lat="46.31342" lon="6.80283">
        <ele>1828.5</ele>
        <time>2021-10-10T08:12:41Z</time>
      </trkpt>
      <trkpt lat="46.31343" lon="6.8029">
        <ele>1829.3</ele>
        <time>2021-10-10T08:12:49Z</time>
      </trkpt>
      <trkpt lat="46.31345" lon="6.80297">
        <ele>1830</ele>
        <time>2021-10-10T08:12:56Z</time>
      </trkpt>
      <trkpt lat="46.31346" lon="6.80304">
        <ele>1830.6</ele>
        <time>2021-10-10T08:13:03Z</time>
      </trkpt>
      <trkpt lat="46.31347" lon="6.8031">
        <ele>1831.1</ele>
        <time>2021-10-10T08:13:09Z</time>
      </trkpt>
      <trkpt lat="46.31349" lon="6.80317">
        <ele>1831.6</ele>
        <time>2021-10-10T08:13:16Z</time>
      </trkpt>
      <trkpt lat="46.3135" lon="6.80322">
        <ele>1832</ele>
        <time>2021-10-10T08:13:21Z</time>
      </trkpt>
      <trkpt lat="46.31351" lon="6.80329">
        <ele>1832.4</ele>
        <time>2021-10-10T08:13:28Z</time>
      </trkpt>
      <trkpt lat="46.31351" lon="6.80335">
        <ele>1832.7</ele>
        <time>2021-10-10T08:13:33Z</time>
      </trkpt>
      <trkpt lat="46.31352" lon="6.80339">
        <ele>1832.5</ele>
        <time>2021-10-10T08:13:37Z</time>
      </trkpt>
      <trkpt lat="46.31354" lon="6.80341">
        <ele>1832.2</ele>
        <time>2021-10-10T08:13:40Z</time>
      </trkpt>
      <trkpt lat="46.31356" lon="6.80347">
        <ele>1831.7</ele>
        <time>2021-10-10T08:13:46Z</time>
      </trkpt>
      <trkpt lat="46.31356" lon="6.80354">
        <ele>1831.4</ele>
        <time>2021-10-10T08:13:53Z</time>
      </trkpt>
      <trkpt lat="46.31355" lon="6.80358">
        <ele>1831.4</ele>
        <time>2021-10-10T08:14:00Z</time>
      </trkpt>
      <trkpt lat="46.31358" lon="6.80353">
        <ele>1831.2</ele>
        <time>2021-10-10T08:14:15Z</time>
      </trkpt>
      <trkpt lat="46.31354" lon="6.80357">
        <ele>1831.6</ele>
        <time>2021-10-10T08:15:28Z</time>
      </trkpt>
      <trkpt lat="46.3135" lon="6.80359">
        <ele>1832.2</ele>
        <time>2021-10-10T08:15:31Z</time>
      </trkpt>
      <trkpt lat="46.31345" lon="6.80362">
        <ele>1833</ele>
        <time>2021-10-10T08:15:36Z</time>
      </trkpt>
      <trkpt lat="46.31342" lon="6.80363">
        <ele>1833.5</ele>
        <time>2021-10-10T08:15:39Z</time>
      </trkpt>
      <trkpt lat="46.31338" lon="6.80365">
        <ele>1834.3</ele>
        <time>2021-10-10T08:15:44Z</time>
      </trkpt>
      <trkpt lat="46.31333" lon="6.80366">
        <ele>1835.1</ele>
        <time>2021-10-10T08:15:49Z</time>
      </trkpt>
      <trkpt lat="46.31329" lon="6.80368">
        <ele>1834.1</ele>
        <time>2021-10-10T08:15:54Z</time>
      </trkpt>
      <trkpt lat="46.31324" lon="6.8037">
        <ele>1832.9</ele>
        <time>2021-10-10T08:16:01Z</time>
      </trkpt>
      <trkpt lat="46.31324" lon="6.80377">
        <ele>1832.9</ele>
        <time>2021-10-10T08:16:10Z</time>
      </trkpt>
      <trkpt lat="46.31325" lon="6.80383">
        <ele>1833.2</ele>
        <time>2021-10-10T08:16:17Z</time>
      </trkpt>
      <trkpt lat="46.31322" lon="6.80386">
        <ele>1832.2</ele>
        <time>2021-10-10T08:16:27Z</time>
      </trkpt>
      <trkpt lat="46.3132" lon="6.80392">
        <ele>1831.5</ele>
        <time>2021-10-10T08:16:42Z</time>
      </trkpt>
      <trkpt lat="46.31321" lon="6.80395">
        <ele>1831.8</ele>
        <time>2021-10-10T08:16:50Z</time>
      </trkpt>
      <trkpt lat="46.31317" lon="6.80398">
        <ele>1830.3</ele>
        <time>2021-10-10T08:17:18Z</time>
      </trkpt>
      <trkpt lat="46.31317" lon="6.80403">
        <ele>1830.1</ele>
        <time>2021-10-10T08:17:26Z</time>
      </trkpt>
      <trkpt lat="46.31318" lon="6.80402">
        <ele>1830.5</ele>
        <time>2021-10-10T08:17:51Z</time>
      </trkpt>
      <trkpt lat="46.31316" lon="6.80396">
        <ele>1830</ele>
        <time>2021-10-10T08:18:04Z</time>
      </trkpt>
      <trkpt lat="46.31319" lon="6.80393">
        <ele>1831.1</ele>
        <time>2021-10-10T08:18:42Z</time>
      </trkpt>
      <trkpt lat="46.31321" lon="6.80391">
        <ele>1831.8</ele>
        <time>2021-10-10T08:18:51Z</time>
      </trkpt>
      <trkpt lat="46.31325" lon="6.80388">
        <ele>1833.2</ele>
        <time>2021-10-10T08:19:00Z</time>
      </trkpt>
      <trkpt lat="46.31331" lon="6.80387">
        <ele>1835.2</ele>
        <time>2021-10-10T08:19:06Z</time>
      </trkpt>
      <trkpt lat="46.31335" lon="6.80382">
        <ele>1835.3</ele>
        <time>2021-10-10T08:19:11Z</time>
      </trkpt>
      <trkpt lat="46.31337" lon="6.8038">
        <ele>1834.8</ele>
        <time>2021-10-10T08:19:13Z</time>
      </trkpt>
      <trkpt lat="46.31342" lon="6.80377">
        <ele>1833.6</ele>
        <time>2021-10-10T08:19:17Z</time>
      </trkpt>
      <trkpt lat="46.31344" lon="6.80372">
        <ele>1833.1</ele>
        <time>2021-10-10T08:19:20Z</time>
      </trkpt>
      <trkpt lat="46.31348" lon="6.80366">
        <ele>1832.4</ele>
        <time>2021-10-10T08:19:24Z</time>
      </trkpt>
      <trkpt lat="46.31351" lon="6.80361">
        <ele>1832</ele>
        <time>2021-10-10T08:19:27Z</time>
      </trkpt>
      <trkpt lat="46.31354" lon="6.80357">
        <ele>1831.6</ele>
        <time>2021-10-10T08:19:30Z</time>
      </trkpt>
      <trkpt lat="46.31356" lon="6.80352">
        <ele>1831.5</ele>
        <time>2021-10-10T08:19:33Z</time>
      </trkpt>
      <trkpt lat="46.3136" lon="6.80349">
        <ele>1831.1</ele>
        <time>2021-10-10T08:19:36Z</time>
      </trkpt>
      <trkpt lat="46.31365" lon="6.80347">
        <ele>1830.7</ele>
        <time>2021-10-10T08:19:40Z</time>
      </trkpt>
      <trkpt lat="46.3137" lon="6.80345">
        <ele>1830.2</ele>
        <time>2021-10-10T08:19:44Z</time>
      </trkpt>
      <trkpt lat="46.31374" lon="6.80344">
        <ele>1829.9</ele>
        <time>2021-10-10T08:19:47Z</time>
      </trkpt>
      <trkpt lat="46.31378" lon="6.80342">
        <ele>1829.7</ele>
        <time>2021-10-10T08:19:50Z</time>
      </trkpt>
      <trkpt lat="46.31383" lon="6.80338">
        <ele>1829.8</ele>
        <time>2021-10-10T08:19:54Z</time>
      </trkpt>
      <trkpt lat="46.31387" lon="6.80336">
        <ele>1829.7</ele>
        <time>2021-10-10T08:19:57Z</time>
      </trkpt>
      <trkpt lat="46.31391" lon="6.80331">
        <ele>1829.9</ele>
        <time>2021-10-10T08:20:01Z</time>
      </trkpt>
      <trkpt lat="46.31396" lon="6.80327">
        <ele>1829.8</ele>
        <time>2021-10-10T08:20:05Z</time>
      </trkpt>
      <trkpt lat="46.314" lon="6.80323">
        <ele>1829.8</ele>
        <time>2021-10-10T08:20:09Z</time>
      </trkpt>
      <trkpt lat="46.31403" lon="6.80318">
        <ele>1830.1</ele>
        <time>2021-10-10T08:20:12Z</time>
      </trkpt>
      <trkpt lat="46.31408" lon="6.80312">
        <ele>1830.4</ele>
        <time>2021-10-10T08:20:16Z</time>
      </trkpt>
      <trkpt lat="46.31411" lon="6.80309">
        <ele>1830.7</ele>
        <time>2021-10-10T08:20:19Z</time>
      </trkpt>
      <trkpt lat="46.31415" lon="6.80304">
        <ele>1831.2</ele>
        <time>2021-10-10T08:20:23Z</time>
      </trkpt>
      <trkpt lat="46.31419" lon="6.80299">
        <ele>1831.1</ele>
        <time>2021-10-10T08:20:27Z</time>
      </trkpt>
      <trkpt lat="46.31423" lon="6.80294">
        <ele>1830.8</ele>
        <time>2021-10-10T08:20:31Z</time>
      </trkpt>
      <trkpt lat="46.31425" lon="6.80289">
        <ele>1831.1</ele>
        <time>2021-10-10T08:20:34Z</time>
      </trkpt>
      <trkpt lat="46.31428" lon="6.80284">
        <ele>1831.2</ele>
        <time>2021-10-10T08:20:37Z</time>
      </trkpt>
      <trkpt lat="46.31431" lon="6.80279">
        <ele>1831.3</ele>
        <time>2021-10-10T08:20:41Z</time>
      </trkpt>
      <trkpt lat="46.31434" lon="6.80272">
        <ele>1832</ele>
        <time>2021-10-10T08:20:45Z</time>
      </trkpt>
      <trkpt lat="46.31436" lon="6.80267">
        <ele>1832.5</ele>
        <time>2021-10-10T08:20:48Z</time>
      </trkpt>
      <trkpt lat="46.31438" lon="6.8026">
        <ele>1833.5</ele>
        <time>2021-10-10T08:20:52Z</time>
      </trkpt>
      <trkpt lat="46.31441" lon="6.80255">
        <ele>1834</ele>
        <time>2021-10-10T08:20:56Z</time>
      </trkpt>
      <trkpt lat="46.31445" lon="6.80251">
        <ele>1834.4</ele>
        <time>2021-10-10T08:21:00Z</time>
      </trkpt>
      <trkpt lat="46.3145" lon="6.80247">
        <ele>1834.1</ele>
        <time>2021-10-10T08:21:05Z</time>
      </trkpt>
      <trkpt lat="46.31454" lon="6.80244">
        <ele>1833.7</ele>
        <time>2021-10-10T08:21:09Z</time>
      </trkpt>
      <trkpt lat="46.31459" lon="6.8024">
        <ele>1833.2</ele>
        <time>2021-10-10T08:21:14Z</time>
      </trkpt>
      <trkpt lat="46.31464" lon="6.80238">
        <ele>1832.8</ele>
        <time>2021-10-10T08:21:20Z</time>
      </trkpt>
      <trkpt lat="46.31466" lon="6.80243">
        <ele>1832.8</ele>
        <time>2021-10-10T08:21:28Z</time>
      </trkpt>
      <trkpt lat="46.31469" lon="6.80236">
        <ele>1832.5</ele>
        <time>2021-10-10T08:21:49Z</time>
      </trkpt>
      <trkpt lat="46.31471" lon="6.80231">
        <ele>1832.3</ele>
        <time>2021-10-10T08:21:54Z</time>
      </trkpt>
      <trkpt lat="46.31473" lon="6.80226">
        <ele>1832.2</ele>
        <time>2021-10-10T08:21:58Z</time>
      </trkpt>
      <trkpt lat="46.31476" lon="6.80221">
        <ele>1832.1</ele>
        <time>2021-10-10T08:22:02Z</time>
      </trkpt>
      <trkpt lat="46.31481" lon="6.80219">
        <ele>1831.9</ele>
        <time>2021-10-10T08:22:08Z</time>
      </trkpt>
      <trkpt lat="46.31485" lon="6.80218">
        <ele>1831.7</ele>
        <time>2021-10-10T08:22:14Z</time>
      </trkpt>
      <trkpt lat="46.3149" lon="6.8022">
        <ele>1831.5</ele>
        <time>2021-10-10T08:22:19Z</time>
      </trkpt>
      <trkpt lat="46.31493" lon="6.8022">
        <ele>1831.4</ele>
        <time>2021-10-10T08:22:23Z</time>
      </trkpt>
      <trkpt lat="46.31498" lon="6.80219">
        <ele>1831.2</ele>
        <time>2021-10-10T08:22:27Z</time>
      </trkpt>
      <trkpt lat="46.31496" lon="6.80214">
        <ele>1831.4</ele>
        <time>2021-10-10T08:22:50Z</time>
      </trkpt>
      <trkpt lat="46.31491" lon="6.80209">
        <ele>1831.7</ele>
        <time>2021-10-10T08:23:08Z</time>
      </trkpt>
      <trkpt lat="46.31487" lon="6.80205">
        <ele>1831.9</ele>
        <time>2021-10-10T08:23:13Z</time>
      </trkpt>
      <trkpt lat="46.31484" lon="6.802">
        <ele>1832</ele>
        <time>2021-10-10T08:23:19Z</time>
      </trkpt>
      <trkpt lat="46.31484" lon="6.80199">
        <ele>1832</ele>
        <time>2021-10-10T08:24:43Z</time>
      </trkpt>
      <trkpt lat="46.31487" lon="6.80203">
        <ele>1831.9</ele>
        <time>2021-10-10T08:24:47Z</time>
      </trkpt>
      <trkpt lat="46.3149" lon="6.80207">
        <ele>1831.8</ele>
        <time>2021-10-10T08:24:52Z</time>
      </trkpt>
      <trkpt lat="46.31495" lon="6.80211">
        <ele>1831.5</ele>
        <time>2021-10-10T08:24:58Z</time>
      </trkpt>
      <trkpt lat="46.31497" lon="6.80217">
        <ele>1831.3</ele>
        <time>2021-10-10T08:25:04Z</time>
      </trkpt>
      <trkpt lat="46.31501" lon="6.80218">
        <ele>1831</ele>
        <time>2021-10-10T08:25:08Z</time>
      </trkpt>
      <trkpt lat="46.31507" lon="6.80218">
        <ele>1830</ele>
        <time>2021-10-10T08:25:14Z</time>
      </trkpt>
      <trkpt lat="46.31511" lon="6.80218">
        <ele>1829.4</ele>
        <time>2021-10-10T08:25:19Z</time>
      </trkpt>
      <trkpt lat="46.31517" lon="6.80217">
        <ele>1828.5</ele>
        <time>2021-10-10T08:25:24Z</time>
      </trkpt>
      <trkpt lat="46.31522" lon="6.80215">
        <ele>1827.8</ele>
        <time>2021-10-10T08:25:29Z</time>
      </trkpt>
      <trkpt lat="46.31526" lon="6.80215">
        <ele>1827.2</ele>
        <time>2021-10-10T08:25:33Z</time>
      </trkpt>
      <trkpt lat="46.31531" lon="6.80215">
        <ele>1826.4</ele>
        <time>2021-10-10T08:25:37Z</time>
      </trkpt>
      <trkpt lat="46.31536" lon="6.80216">
        <ele>1825.5</ele>
        <time>2021-10-10T08:25:41Z</time>
      </trkpt>
      <trkpt lat="46.31541" lon="6.80216">
        <ele>1824.8</ele>
        <time>2021-10-10T08:25:45Z</time>
      </trkpt>
      <trkpt lat="46.31545" lon="6.80216">
        <ele>1824.1</ele>
        <time>2021-10-10T08:25:50Z</time>
      </trkpt>
      <trkpt lat="46.31544" lon="6.80211">
        <ele>1824.7</ele>
        <time>2021-10-10T08:26:11Z</time>
      </trkpt>
      <trkpt lat="46.31547" lon="6.80214">
        <ele>1824</ele>
        <time>2021-10-10T08:33:17Z</time>
      </trkpt>
      <trkpt lat="46.31552" lon="6.80213">
        <ele>1823.3</ele>
        <time>2021-10-10T08:33:23Z</time>
      </trkpt>
      <trkpt lat="46.31556" lon="6.80209">
        <ele>1823</ele>
        <time>2021-10-10T08:33:29Z</time>
      </trkpt>
      <trkpt lat="46.31561" lon="6.80207">
        <ele>1822.5</ele>
        <time>2021-10-10T08:33:35Z</time>
      </trkpt>
      <trkpt lat="46.31564" lon="6.80205">
        <ele>1822.2</ele>
        <time>2021-10-10T08:36:19Z</time>
      </trkpt>
      <trkpt lat="46.31566" lon="6.80204">
        <ele>1822</ele>
        <time>2021-10-10T08:36:21Z</time>
      </trkpt>
      <trkpt lat="46.31571" lon="6.80203">
        <ele>1821.4</ele>
        <time>2021-10-10T08:36:25Z</time>
      </trkpt>
      <trkpt lat="46.31576" lon="6.80205">
        <ele>1820.5</ele>
        <time>2021-10-10T08:36:29Z</time>
      </trkpt>
      <trkpt lat="46.31581" lon="6.80207">
        <ele>1819.5</ele>
        <time>2021-10-10T08:36:33Z</time>
      </trkpt>
      <trkpt lat="46.31586" lon="6.80207">
        <ele>1819.2</ele>
        <time>2021-10-10T08:36:37Z</time>
      </trkpt>
      <trkpt lat="46.31591" lon="6.80207">
        <ele>1819.2</ele>
        <time>2021-10-10T08:36:41Z</time>
      </trkpt>
      <trkpt lat="46.31594" lon="6.80208">
        <ele>1819.1</ele>
        <time>2021-10-10T08:36:44Z</time>
      </trkpt>
      <trkpt lat="46.31599" lon="6.80209">
        <ele>1819</ele>
        <time>2021-10-10T08:36:48Z</time>
      </trkpt>
      <trkpt lat="46.31604" lon="6.80212">
        <ele>1818.7</ele>
        <time>2021-10-10T08:36:52Z</time>
      </trkpt>
      <trkpt lat="46.31609" lon="6.80212">
        <ele>1818.8</ele>
        <time>2021-10-10T08:36:56Z</time>
      </trkpt>
      <trkpt lat="46.31614" lon="6.80212">
        <ele>1818.8</ele>
        <time>2021-10-10T08:37:01Z</time>
      </trkpt>
      <trkpt lat="46.31617" lon="6.80211">
        <ele>1818.9</ele>
        <time>2021-10-10T08:37:05Z</time>
      </trkpt>
      <trkpt lat="46.31621" lon="6.80206">
        <ele>1819.5</ele>
        <time>2021-10-10T08:37:12Z</time>
      </trkpt>
      <trkpt lat="46.31623" lon="6.80201">
        <ele>1820</ele>
        <time>2021-10-10T08:37:17Z</time>
      </trkpt>
      <trkpt lat="46.31627" lon="6.80198">
        <ele>1820.3</ele>
        <time>2021-10-10T08:37:22Z</time>
      </trkpt>
      <trkpt lat="46.31632" lon="6.80195">
        <ele>1820.6</ele>
        <time>2021-10-10T08:37:28Z</time>
      </trkpt>
      <trkpt lat="46.31636" lon="6.80195">
        <ele>1820.6</ele>
        <time>2021-10-10T08:37:31Z</time>
      </trkpt>
      <trkpt lat="46.31642" lon="6.80194">
        <ele>1820.7</ele>
        <time>2021-10-10T08:37:35Z</time>
      </trkpt>
      <trkpt lat="46.31645" lon="6.80193">
        <ele>1820.8</ele>
        <time>2021-10-10T08:37:38Z</time>
      </trkpt>
      <trkpt lat="46.31652" lon="6.8019">
        <ele>1821.1</ele>
        <time>2021-10-10T08:37:43Z</time>
      </trkpt>
      <trkpt lat="46.31655" lon="6.80185">
        <ele>1821.5</ele>
        <time>2021-10-10T08:37:47Z</time>
      </trkpt>
      <trkpt lat="46.3166" lon="6.8018">
        <ele>1821.9</ele>
        <time>2021-10-10T08:37:52Z</time>
      </trkpt>
      <trkpt lat="46.31664" lon="6.80175">
        <ele>1822.3</ele>
        <time>2021-10-10T08:37:56Z</time>
      </trkpt>
      <trkpt lat="46.31667" lon="6.80171">
        <ele>1822.7</ele>
        <time>2021-10-10T08:37:59Z</time>
      </trkpt>
      <trkpt lat="46.31671" lon="6.80168">
        <ele>1823.8</ele>
        <time>2021-10-10T08:38:03Z</time>
      </trkpt>
      <trkpt lat="46.31674" lon="6.80163">
        <ele>1823.6</ele>
        <time>2021-10-10T08:38:07Z</time>
      </trkpt>
      <trkpt lat="46.31678" lon="6.80159">
        <ele>1823.4</ele>
        <time>2021-10-10T08:38:12Z</time>
      </trkpt>
      <trkpt lat="46.31681" lon="6.80152">
        <ele>1822.3</ele>
        <time>2021-10-10T08:38:18Z</time>
      </trkpt>
      <trkpt lat="46.31685" lon="6.80148">
        <ele>1822.2</ele>
        <time>2021-10-10T08:38:23Z</time>
      </trkpt>
      <trkpt lat="46.3169" lon="6.80146">
        <ele>1822.8</ele>
        <time>2021-10-10T08:38:28Z</time>
      </trkpt>
      <trkpt lat="46.31692" lon="6.80143">
        <ele>1822.5</ele>
        <time>2021-10-10T08:38:32Z</time>
      </trkpt>
      <trkpt lat="46.31695" lon="6.80139">
        <ele>1822.3</ele>
        <time>2021-10-10T08:38:38Z</time>
      </trkpt>
      <trkpt lat="46.31699" lon="6.80136">
        <ele>1822.5</ele>
        <time>2021-10-10T08:38:43Z</time>
      </trkpt>
      <trkpt lat="46.31703" lon="6.80133">
        <ele>1822.8</ele>
        <time>2021-10-10T08:38:47Z</time>
      </trkpt>
      <trkpt lat="46.31708" lon="6.80133">
        <ele>1823.9</ele>
        <time>2021-10-10T08:38:51Z</time>
      </trkpt>
      <trkpt lat="46.31713" lon="6.80133">
        <ele>1825.1</ele>
        <time>2021-10-10T08:38:55Z</time>
      </trkpt>
      <trkpt lat="46.31717" lon="6.80131">
        <ele>1825.7</ele>
        <time>2021-10-10T08:38:59Z</time>
      </trkpt>
      <trkpt lat="46.31722" lon="6.80128">
        <ele>1826.2</ele>
        <time>2021-10-10T08:39:03Z</time>
      </trkpt>
      <trkpt lat="46.31726" lon="6.80123">
        <ele>1826.2</ele>
        <time>2021-10-10T08:39:07Z</time>
      </trkpt>
      <trkpt lat="46.3173" lon="6.80119">
        <ele>1826.4</ele>
        <time>2021-10-10T08:39:11Z</time>
      </trkpt>
      <trkpt lat="46.31734" lon="6.80115">
        <ele>1826.6</ele>
        <time>2021-10-10T08:39:15Z</time>
      </trkpt>
      <trkpt lat="46.31737" lon="6.80112">
        <ele>1826.8</ele>
        <time>2021-10-10T08:39:18Z</time>
      </trkpt>
      <trkpt lat="46.3174" lon="6.80107">
        <ele>1826.6</ele>
        <time>2021-10-10T08:39:22Z</time>
      </trkpt>
      <trkpt lat="46.31742" lon="6.80102">
        <ele>1826.2</ele>
        <time>2021-10-10T08:39:28Z</time>
      </trkpt>
      <trkpt lat="46.3174" lon="6.80096">
        <ele>1824.5</ele>
        <time>2021-10-10T08:39:35Z</time>
      </trkpt>
      <trkpt lat="46.31741" lon="6.8009">
        <ele>1823.7</ele>
        <time>2021-10-10T08:39:44Z</time>
      </trkpt>
      <trkpt lat="46.31742" lon="6.80083">
        <ele>1822.5</ele>
        <time>2021-10-10T08:39:51Z</time>
      </trkpt>
      <trkpt lat="46.31743" lon="6.80078">
        <ele>1820.5</ele>
        <time>2021-10-10T08:39:54Z</time>
      </trkpt>
      <trkpt lat="46.31745" lon="6.80072">
        <ele>1818.3</ele>
        <time>2021-10-10T08:39:57Z</time>
      </trkpt>
      <trkpt lat="46.31747" lon="6.80065">
        <ele>1815.6</ele>
        <time>2021-10-10T08:40:02Z</time>
      </trkpt>
      <trkpt lat="46.31751" lon="6.8006">
        <ele>1814.6</ele>
        <time>2021-10-10T08:40:07Z</time>
      </trkpt>
      <trkpt lat="46.31755" lon="6.80056">
        <ele>1814.6</ele>
        <time>2021-10-10T08:40:11Z</time>
      </trkpt>
      <trkpt lat="46.31759" lon="6.8005">
        <ele>1813.5</ele>
        <time>2021-10-10T08:40:15Z</time>
      </trkpt>
      <trkpt lat="46.31763" lon="6.80045">
        <ele>1812.9</ele>
        <time>2021-10-10T08:40:19Z</time>
      </trkpt>
      <trkpt lat="46.31767" lon="6.80042">
        <ele>1813.2</ele>
        <time>2021-10-10T08:40:23Z</time>
      </trkpt>
      <trkpt lat="46.31772" lon="6.80038">
        <ele>1813.4</ele>
        <time>2021-10-10T08:40:28Z</time>
      </trkpt>
      <trkpt lat="46.31774" lon="6.80032">
        <ele>1811.2</ele>
        <time>2021-10-10T08:40:33Z</time>
      </trkpt>
      <trkpt lat="46.31776" lon="6.80028">
        <ele>1809.9</ele>
        <time>2021-10-10T08:40:37Z</time>
      </trkpt>
      <trkpt lat="46.31779" lon="6.80025">
        <ele>1809.6</ele>
        <time>2021-10-10T08:40:40Z</time>
      </trkpt>
      <trkpt lat="46.3178" lon="6.80025">
        <ele>1810</ele>
        <time>2021-10-10T08:40:41Z</time>
      </trkpt>
      <trkpt lat="46.31783" lon="6.80022">
        <ele>1809.6</ele>
        <time>2021-10-10T08:40:46Z</time>
      </trkpt>
      <trkpt lat="46.31786" lon="6.80018">
        <ele>1808.7</ele>
        <time>2021-10-10T08:40:52Z</time>
      </trkpt>
      <trkpt lat="46.3179" lon="6.80015">
        <ele>1808.6</ele>
        <time>2021-10-10T08:40:58Z</time>
      </trkpt>
      <trkpt lat="46.31794" lon="6.80011">
        <ele>1808</ele>
        <time>2021-10-10T08:41:03Z</time>
      </trkpt>
      <trkpt lat="46.31798" lon="6.80009">
        <ele>1808.4</ele>
        <time>2021-10-10T08:41:20Z</time>
      </trkpt>
      <trkpt lat="46.31802" lon="6.80006">
        <ele>1808.2</ele>
        <time>2021-10-10T08:41:30Z</time>
      </trkpt>
      <trkpt lat="46.31804" lon="6.80002">
        <ele>1806.6</ele>
        <time>2021-10-10T08:41:50Z</time>
      </trkpt>
      <trkpt lat="46.31806" lon="6.79995">
        <ele>1804.4</ele>
        <time>2021-10-10T08:41:59Z</time>
      </trkpt>
      <trkpt lat="46.31808" lon="6.79989">
        <ele>1802.9</ele>
        <time>2021-10-10T08:42:03Z</time>
      </trkpt>
      <trkpt lat="46.31809" lon="6.79984">
        <ele>1801.5</ele>
        <time>2021-10-10T08:42:06Z</time>
      </trkpt>
      <trkpt lat="46.31809" lon="6.79978">
        <ele>1799.4</ele>
        <time>2021-10-10T08:42:15Z</time>
      </trkpt>
      <trkpt lat="46.31813" lon="6.79973">
        <ele>1799</ele>
        <time>2021-10-10T08:42:20Z</time>
      </trkpt>
      <trkpt lat="46.31817" lon="6.79971">
        <ele>1799.8</ele>
        <time>2021-10-10T08:42:25Z</time>
      </trkpt>
      <trkpt lat="46.31821" lon="6.79969">
        <ele>1800.6</ele>
        <time>2021-10-10T08:42:28Z</time>
      </trkpt>
      <trkpt lat="46.31825" lon="6.79966">
        <ele>1801</ele>
        <time>2021-10-10T08:42:33Z</time>
      </trkpt>
      <trkpt lat="46.3183" lon="6.79962">
        <ele>1801.5</ele>
        <time>2021-10-10T08:42:38Z</time>
      </trkpt>
      <trkpt lat="46.31834" lon="6.79958">
        <ele>1801.7</ele>
        <time>2021-10-10T08:42:42Z</time>
      </trkpt>
      <trkpt lat="46.31836" lon="6.79955">
        <ele>1801.7</ele>
        <time>2021-10-10T08:42:45Z</time>
      </trkpt>
      <trkpt lat="46.3184" lon="6.79949">
        <ele>1801.6</ele>
        <time>2021-10-10T08:42:51Z</time>
      </trkpt>
      <trkpt lat="46.31843" lon="6.79946">
        <ele>1802.1</ele>
        <time>2021-10-10T08:42:54Z</time>
      </trkpt>
      <trkpt lat="46.31846" lon="6.7994">
        <ele>1801.5</ele>
        <time>2021-10-10T08:42:58Z</time>
      </trkpt>
      <trkpt lat="46.31849" lon="6.79934">
        <ele>1800.9</ele>
        <time>2021-10-10T08:43:02Z</time>
      </trkpt>
      <trkpt lat="46.31852" lon="6.79929">
        <ele>1800.7</ele>
        <time>2021-10-10T08:43:06Z</time>
      </trkpt>
      <trkpt lat="46.31854" lon="6.79922">
        <ele>1799.3</ele>
        <time>2021-10-10T08:43:11Z</time>
      </trkpt>
      <trkpt lat="46.31855" lon="6.79915">
        <ele>1797.6</ele>
        <time>2021-10-10T08:43:15Z</time>
      </trkpt>
      <trkpt lat="46.31859" lon="6.79909">
        <ele>1798.5</ele>
        <time>2021-10-10T08:43:19Z</time>
      </trkpt>
      <trkpt lat="46.31861" lon="6.79905">
        <ele>1798.8</ele>
        <time>2021-10-10T08:43:22Z</time>
      </trkpt>
      <trkpt lat="46.31865" lon="6.79898">
        <ele>1799.4</ele>
        <time>2021-10-10T08:43:27Z</time>
      </trkpt>
      <trkpt lat="46.31869" lon="6.79892">
        <ele>1800.1</ele>
        <time>2021-10-10T08:43:31Z</time>
      </trkpt>
      <trkpt lat="46.31871" lon="6.79886">
        <ele>1799.9</ele>
        <time>2021-10-10T08:43:35Z</time>
      </trkpt>
      <trkpt lat="46.31873" lon="6.79878">
        <ele>1799.2</ele>
        <time>2021-10-10T08:43:39Z</time>
      </trkpt>
      <trkpt lat="46.31873" lon="6.7987">
        <ele>1797.6</ele>
        <time>2021-10-10T08:43:43Z</time>
      </trkpt>
      <trkpt lat="46.31874" lon="6.79865">
        <ele>1797</ele>
        <time>2021-10-10T08:43:46Z</time>
      </trkpt>
      <trkpt lat="46.31875" lon="6.79859">
        <ele>1796.2</ele>
        <time>2021-10-10T08:43:49Z</time>
      </trkpt>
      <trkpt lat="46.31876" lon="6.79853">
        <ele>1795.4</ele>
        <time>2021-10-10T08:43:52Z</time>
      </trkpt>
      <trkpt lat="46.31878" lon="6.79847">
        <ele>1795.1</ele>
        <time>2021-10-10T08:43:55Z</time>
      </trkpt>
      <trkpt lat="46.31879" lon="6.79844">
        <ele>1794.9</ele>
        <time>2021-10-10T08:43:57Z</time>
      </trkpt>
      <trkpt lat="46.31881" lon="6.79838">
        <ele>1794.4</ele>
        <time>2021-10-10T08:44:00Z</time>
      </trkpt>
      <trkpt lat="46.31882" lon="6.79832">
        <ele>1793.7</ele>
        <time>2021-10-10T08:44:04Z</time>
      </trkpt>
      <trkpt lat="46.31884" lon="6.79824">
        <ele>1793.4</ele>
        <time>2021-10-10T08:44:08Z</time>
      </trkpt>
      <trkpt lat="46.31886" lon="6.79819">
        <ele>1793.5</ele>
        <time>2021-10-10T08:44:11Z</time>
      </trkpt>
      <trkpt lat="46.31889" lon="6.79812">
        <ele>1793.5</ele>
        <time>2021-10-10T08:44:15Z</time>
      </trkpt>
      <trkpt lat="46.3189" lon="6.79808">
        <ele>1793.3</ele>
        <time>2021-10-10T08:44:17Z</time>
      </trkpt>
      <trkpt lat="46.3189" lon="6.79801">
        <ele>1792.2</ele>
        <time>2021-10-10T08:44:21Z</time>
      </trkpt>
      <trkpt lat="46.31891" lon="6.79794">
        <ele>1791.4</ele>
        <time>2021-10-10T08:44:25Z</time>
      </trkpt>
      <trkpt lat="46.31891" lon="6.79788">
        <ele>1790.5</ele>
        <time>2021-10-10T08:44:29Z</time>
      </trkpt>
      <trkpt lat="46.31889" lon="6.79781">
        <ele>1788.9</ele>
        <time>2021-10-10T08:44:33Z</time>
      </trkpt>
      <trkpt lat="46.31888" lon="6.79775">
        <ele>1787.8</ele>
        <time>2021-10-10T08:44:36Z</time>
      </trkpt>
      <trkpt lat="46.31887" lon="6.79768">
        <ele>1786.6</ele>
        <time>2021-10-10T08:44:40Z</time>
      </trkpt>
      <trkpt lat="46.31887" lon="6.79762">
        <ele>1785.8</ele>
        <time>2021-10-10T08:44:44Z</time>
      </trkpt>
      <trkpt lat="46.31887" lon="6.79755">
        <ele>1784.8</ele>
        <time>2021-10-10T08:44:49Z</time>
      </trkpt>
      <trkpt lat="46.31886" lon="6.79749">
        <ele>1783.6</ele>
        <time>2021-10-10T08:44:53Z</time>
      </trkpt>
      <trkpt lat="46.31885" lon="6.79742">
        <ele>1781.4</ele>
        <time>2021-10-10T08:44:57Z</time>
      </trkpt>
      <trkpt lat="46.31884" lon="6.79736">
        <ele>1779.5</ele>
        <time>2021-10-10T08:45:01Z</time>
      </trkpt>
      <trkpt lat="46.31883" lon="6.79731">
        <ele>1778</ele>
        <time>2021-10-10T08:45:04Z</time>
      </trkpt>
      <trkpt lat="46.31882" lon="6.79728">
        <ele>1777.1</ele>
        <time>2021-10-10T08:45:06Z</time>
      </trkpt>
      <trkpt lat="46.3188" lon="6.79722">
        <ele>1775.4</ele>
        <time>2021-10-10T08:45:10Z</time>
      </trkpt>
      <trkpt lat="46.31884" lon="6.79723">
        <ele>1775.6</ele>
        <time>2021-10-10T08:45:18Z</time>
      </trkpt>
      <trkpt lat="46.31886" lon="6.79726">
        <ele>1776.5</ele>
        <time>2021-10-10T08:45:21Z</time>
      </trkpt>
      <trkpt lat="46.31889" lon="6.79732">
        <ele>1778.5</ele>
        <time>2021-10-10T08:45:26Z</time>
      </trkpt>
      <trkpt lat="46.31892" lon="6.79735">
        <ele>1779.6</ele>
        <time>2021-10-10T08:45:30Z</time>
      </trkpt>
      <trkpt lat="46.31895" lon="6.7974">
        <ele>1781.6</ele>
        <time>2021-10-10T08:45:35Z</time>
      </trkpt>
      <trkpt lat="46.31898" lon="6.79745">
        <ele>1783.7</ele>
        <time>2021-10-10T08:45:40Z</time>
      </trkpt>
      <trkpt lat="46.31901" lon="6.79749">
        <ele>1785.5</ele>
        <time>2021-10-10T08:45:45Z</time>
      </trkpt>
      <trkpt lat="46.31904" lon="6.79753">
        <ele>1786.9</ele>
        <time>2021-10-10T08:45:51Z</time>
      </trkpt>
      <trkpt lat="46.31908" lon="6.79759">
        <ele>1788.8</ele>
        <time>2021-10-10T08:45:58Z</time>
      </trkpt>
      <trkpt lat="46.31912" lon="6.79764">
        <ele>1790.5</ele>
        <time>2021-10-10T08:46:05Z</time>
      </trkpt>
      <trkpt lat="46.31915" lon="6.79769">
        <ele>1792.2</ele>
        <time>2021-10-10T08:46:11Z</time>
      </trkpt>
      <trkpt lat="46.31918" lon="6.79774">
        <ele>1793.5</ele>
        <time>2021-10-10T08:46:17Z</time>
      </trkpt>
      <trkpt lat="46.31921" lon="6.79779">
        <ele>1794</ele>
        <time>2021-10-10T08:46:23Z</time>
      </trkpt>
      <trkpt lat="46.31924" lon="6.79784">
        <ele>1794.8</ele>
        <time>2021-10-10T08:46:29Z</time>
      </trkpt>
      <trkpt lat="46.31928" lon="6.79789">
        <ele>1795.5</ele>
        <time>2021-10-10T08:46:35Z</time>
      </trkpt>
      <trkpt lat="46.31931" lon="6.79794">
        <ele>1796.5</ele>
        <time>2021-10-10T08:46:41Z</time>
      </trkpt>
      <trkpt lat="46.31934" lon="6.79799">
        <ele>1797.6</ele>
        <time>2021-10-10T08:46:47Z</time>
      </trkpt>
      <trkpt lat="46.31936" lon="6.79803">
        <ele>1798.7</ele>
        <time>2021-10-10T08:46:52Z</time>
      </trkpt>
      <trkpt lat="46.31939" lon="6.79807">
        <ele>1799.7</ele>
        <time>2021-10-10T08:46:59Z</time>
      </trkpt>
      <trkpt lat="46.31941" lon="6.79813">
        <ele>1801.6</ele>
        <time>2021-10-10T08:47:06Z</time>
      </trkpt>
      <trkpt lat="46.31944" lon="6.79817">
        <ele>1802.8</ele>
        <time>2021-10-10T08:47:13Z</time>
      </trkpt>
      <trkpt lat="46.31948" lon="6.7982">
        <ele>1803.7</ele>
        <time>2021-10-10T08:47:19Z</time>
      </trkpt>
      <trkpt lat="46.31953" lon="6.79822">
        <ele>1804.4</ele>
        <time>2021-10-10T08:47:25Z</time>
      </trkpt>
      <trkpt lat="46.31957" lon="6.79824">
        <ele>1805.1</ele>
        <time>2021-10-10T08:47:30Z</time>
      </trkpt>
      <trkpt lat="46.31961" lon="6.79825">
        <ele>1805.5</ele>
        <time>2021-10-10T08:47:34Z</time>
      </trkpt>
      <trkpt lat="46.31966" lon="6.79827">
        <ele>1806.3</ele>
        <time>2021-10-10T08:47:39Z</time>
      </trkpt>
      <trkpt lat="46.31971" lon="6.7983">
        <ele>1807.7</ele>
        <time>2021-10-10T08:47:44Z</time>
      </trkpt>
      <trkpt lat="46.31976" lon="6.79833">
        <ele>1809.3</ele>
        <time>2021-10-10T08:47:49Z</time>
      </trkpt>
      <trkpt lat="46.31981" lon="6.79836">
        <ele>1811</ele>
        <time>2021-10-10T08:47:54Z</time>
      </trkpt>
      <trkpt lat="46.31986" lon="6.79838">
        <ele>1812.2</ele>
        <time>2021-10-10T08:47:59Z</time>
      </trkpt>
      <trkpt lat="46.31988" lon="6.79839">
        <ele>1812.9</ele>
        <time>2021-10-10T08:48:01Z</time>
      </trkpt>
      <trkpt lat="46.31992" lon="6.79842">
        <ele>1814.8</ele>
        <time>2021-10-10T08:48:06Z</time>
      </trkpt>
      <trkpt lat="46.31995" lon="6.79842">
        <ele>1815</ele>
        <time>2021-10-10T08:48:10Z</time>
      </trkpt>
      <trkpt lat="46.31999" lon="6.79846">
        <ele>1817.7</ele>
        <time>2021-10-10T08:48:45Z</time>
      </trkpt>
      <trkpt lat="46.32003" lon="6.79849">
        <ele>1819.2</ele>
        <time>2021-10-10T08:48:49Z</time>
      </trkpt>
      <trkpt lat="46.32008" lon="6.79851">
        <ele>1819.8</ele>
        <time>2021-10-10T08:48:54Z</time>
      </trkpt>
      <trkpt lat="46.32012" lon="6.79852">
        <ele>1820</ele>
        <time>2021-10-10T08:48:59Z</time>
      </trkpt>
      <trkpt lat="46.32017" lon="6.79854">
        <ele>1820.6</ele>
        <time>2021-10-10T08:49:04Z</time>
      </trkpt>
      <trkpt lat="46.32021" lon="6.79857">
        <ele>1821.9</ele>
        <time>2021-10-10T08:49:11Z</time>
      </trkpt>
      <trkpt lat="46.32026" lon="6.79858">
        <ele>1821.8</ele>
        <time>2021-10-10T08:49:23Z</time>
      </trkpt>
      <trkpt lat="46.32029" lon="6.79863">
        <ele>1824.4</ele>
        <time>2021-10-10T08:49:30Z</time>
      </trkpt>
      <trkpt lat="46.32031" lon="6.79868">
        <ele>1827.1</ele>
        <time>2021-10-10T08:49:37Z</time>
      </trkpt>
      <trkpt lat="46.32032" lon="6.79875">
        <ele>1831.1</ele>
        <time>2021-10-10T08:49:44Z</time>
      </trkpt>
      <trkpt lat="46.32036" lon="6.79879">
        <ele>1832.9</ele>
        <time>2021-10-10T08:49:50Z</time>
      </trkpt>
      <trkpt lat="46.3204" lon="6.79883">
        <ele>1834.6</ele>
        <time>2021-10-10T08:49:54Z</time>
      </trkpt>
      <trkpt lat="46.32045" lon="6.79884">
        <ele>1834.5</ele>
        <time>2021-10-10T08:49:59Z</time>
      </trkpt>
      <trkpt lat="46.32049" lon="6.79887">
        <ele>1835.7</ele>
        <time>2021-10-10T08:50:08Z</time>
      </trkpt>
      <trkpt lat="46.32053" lon="6.79889">
        <ele>1836.2</ele>
        <time>2021-10-10T08:50:16Z</time>
      </trkpt>
      <trkpt lat="46.32057" lon="6.79889">
        <ele>1835.6</ele>
        <time>2021-10-10T08:50:21Z</time>
      </trkpt>
      <trkpt lat="46.32062" lon="6.7989">
        <ele>1835.5</ele>
        <time>2021-10-10T08:50:25Z</time>
      </trkpt>
      <trkpt lat="46.32066" lon="6.79891">
        <ele>1835.4</ele>
        <time>2021-10-10T08:50:29Z</time>
      </trkpt>
      <trkpt lat="46.32068" lon="6.79891">
        <ele>1835.1</ele>
        <time>2021-10-10T08:50:31Z</time>
      </trkpt>
      <trkpt lat="46.32073" lon="6.79889">
        <ele>1833.3</ele>
        <time>2021-10-10T08:50:36Z</time>
      </trkpt>
      <trkpt lat="46.32077" lon="6.79886">
        <ele>1831</ele>
        <time>2021-10-10T08:50:42Z</time>
      </trkpt>
      <trkpt lat="46.32081" lon="6.79879">
        <ele>1826.5</ele>
        <time>2021-10-10T08:50:47Z</time>
      </trkpt>
      <trkpt lat="46.32086" lon="6.79873">
        <ele>1823</ele>
        <time>2021-10-10T08:50:52Z</time>
      </trkpt>
      <trkpt lat="46.32089" lon="6.79871">
        <ele>1822</ele>
        <time>2021-10-10T08:50:55Z</time>
      </trkpt>
      <trkpt lat="46.32093" lon="6.79868">
        <ele>1820.6</ele>
        <time>2021-10-10T08:50:59Z</time>
      </trkpt>
      <trkpt lat="46.32099" lon="6.79866">
        <ele>1819.8</ele>
        <time>2021-10-10T08:51:03Z</time>
      </trkpt>
      <trkpt lat="46.32104" lon="6.79864">
        <ele>1819</ele>
        <time>2021-10-10T08:51:07Z</time>
      </trkpt>
      <trkpt lat="46.32109" lon="6.79864">
        <ele>1819.3</ele>
        <time>2021-10-10T08:51:10Z</time>
      </trkpt>
      <trkpt lat="46.32114" lon="6.79864">
        <ele>1819.6</ele>
        <time>2021-10-10T08:51:14Z</time>
      </trkpt>
      <trkpt lat="46.32118" lon="6.79864">
        <ele>1819.8</ele>
        <time>2021-10-10T08:51:18Z</time>
      </trkpt>
      <trkpt lat="46.32123" lon="6.79864">
        <ele>1820.1</ele>
        <time>2021-10-10T08:51:22Z</time>
      </trkpt>
      <trkpt lat="46.32127" lon="6.79864">
        <ele>1820.3</ele>
        <time>2021-10-10T08:51:25Z</time>
      </trkpt>
      <trkpt lat="46.3213" lon="6.79865">
        <ele>1820.9</ele>
        <time>2021-10-10T08:51:27Z</time>
      </trkpt>
      <trkpt lat="46.32134" lon="6.79867">
        <ele>1822</ele>
        <time>2021-10-10T08:51:33Z</time>
      </trkpt>
      <trkpt lat="46.32139" lon="6.79867">
        <ele>1822.2</ele>
        <time>2021-10-10T08:51:39Z</time>
      </trkpt>
      <trkpt lat="46.32143" lon="6.79867">
        <ele>1822.4</ele>
        <time>2021-10-10T08:51:43Z</time>
      </trkpt>
      <trkpt lat="46.32147" lon="6.79867">
        <ele>1822.6</ele>
        <time>2021-10-10T08:51:48Z</time>
      </trkpt>
      <trkpt lat="46.32152" lon="6.79868">
        <ele>1823.2</ele>
        <time>2021-10-10T08:51:53Z</time>
      </trkpt>
      <trkpt lat="46.32155" lon="6.79867">
        <ele>1823</ele>
        <time>2021-10-10T08:51:58Z</time>
      </trkpt>
      <trkpt lat="46.3216" lon="6.79868">
        <ele>1823.6</ele>
        <time>2021-10-10T08:52:02Z</time>
      </trkpt>
      <trkpt lat="46.32164" lon="6.79866">
        <ele>1823</ele>
        <time>2021-10-10T08:52:07Z</time>
      </trkpt>
      <trkpt lat="46.32169" lon="6.79865">
        <ele>1822.2</ele>
        <time>2021-10-10T08:52:11Z</time>
      </trkpt>
      <trkpt lat="46.32174" lon="6.79864">
        <ele>1820.6</ele>
        <time>2021-10-10T08:52:16Z</time>
      </trkpt>
      <trkpt lat="46.32178" lon="6.79863">
        <ele>1819.3</ele>
        <time>2021-10-10T08:52:21Z</time>
      </trkpt>
      <trkpt lat="46.32182" lon="6.79862">
        <ele>1818</ele>
        <time>2021-10-10T08:52:32Z</time>
      </trkpt>
      <trkpt lat="46.32187" lon="6.79863">
        <ele>1817.1</ele>
        <time>2021-10-10T08:52:42Z</time>
      </trkpt>
      <trkpt lat="46.32192" lon="6.79862">
        <ele>1815.6</ele>
        <time>2021-10-10T08:52:47Z</time>
      </trkpt>
      <trkpt lat="46.32194" lon="6.79862">
        <ele>1815.1</ele>
        <time>2021-10-10T08:52:50Z</time>
      </trkpt>
      <trkpt lat="46.32199" lon="6.79861">
        <ele>1813.7</ele>
        <time>2021-10-10T08:52:55Z</time>
      </trkpt>
      <trkpt lat="46.32204" lon="6.79859">
        <ele>1812</ele>
        <time>2021-10-10T08:53:01Z</time>
      </trkpt>
      <trkpt lat="46.32208" lon="6.79856">
        <ele>1810.5</ele>
        <time>2021-10-10T08:53:07Z</time>
      </trkpt>
      <trkpt lat="46.32211" lon="6.79855">
        <ele>1809.6</ele>
        <time>2021-10-10T08:53:10Z</time>
      </trkpt>
      <trkpt lat="46.32216" lon="6.79854">
        <ele>1808.4</ele>
        <time>2021-10-10T08:53:14Z</time>
      </trkpt>
      <trkpt lat="46.32221" lon="6.79854">
        <ele>1807.3</ele>
        <time>2021-10-10T08:53:18Z</time>
      </trkpt>
      <trkpt lat="46.32226" lon="6.79855">
        <ele>1806.4</ele>
        <time>2021-10-10T08:53:21Z</time>
      </trkpt>
      <trkpt lat="46.3223" lon="6.79855">
        <ele>1805.6</ele>
        <time>2021-10-10T08:53:25Z</time>
      </trkpt>
      <trkpt lat="46.32235" lon="6.79854">
        <ele>1804.4</ele>
        <time>2021-10-10T08:53:29Z</time>
      </trkpt>
      <trkpt lat="46.3224" lon="6.79854">
        <ele>1803.3</ele>
        <time>2021-10-10T08:53:33Z</time>
      </trkpt>
      <trkpt lat="46.32244" lon="6.79853">
        <ele>1802.4</ele>
        <time>2021-10-10T08:53:36Z</time>
      </trkpt>
      <trkpt lat="46.3225" lon="6.79851">
        <ele>1801.1</ele>
        <time>2021-10-10T08:53:41Z</time>
      </trkpt>
      <trkpt lat="46.32254" lon="6.79851">
        <ele>1801.1</ele>
        <time>2021-10-10T08:53:44Z</time>
      </trkpt>
      <trkpt lat="46.32258" lon="6.79852">
        <ele>1801.2</ele>
        <time>2021-10-10T08:53:47Z</time>
      </trkpt>
      <trkpt lat="46.32263" lon="6.79851">
        <ele>1801.2</ele>
        <time>2021-10-10T08:53:52Z</time>
      </trkpt>
      <trkpt lat="46.32268" lon="6.79851">
        <ele>1801.3</ele>
        <time>2021-10-10T08:53:56Z</time>
      </trkpt>
      <trkpt lat="46.32274" lon="6.79852">
        <ele>1801.3</ele>
        <time>2021-10-10T08:54:01Z</time>
      </trkpt>
      <trkpt lat="46.3228" lon="6.79851">
        <ele>1801.4</ele>
        <time>2021-10-10T08:54:06Z</time>
      </trkpt>
      <trkpt lat="46.32285" lon="6.79851">
        <ele>1801.4</ele>
        <time>2021-10-10T08:54:10Z</time>
      </trkpt>
      <trkpt lat="46.32289" lon="6.79851">
        <ele>1801.5</ele>
        <time>2021-10-10T08:54:13Z</time>
      </trkpt>
      <trkpt lat="46.32293" lon="6.7985">
        <ele>1801.6</ele>
        <time>2021-10-10T08:54:17Z</time>
      </trkpt>
      <trkpt lat="46.32297" lon="6.7985">
        <ele>1801.7</ele>
        <time>2021-10-10T08:54:21Z</time>
      </trkpt>
      <trkpt lat="46.32301" lon="6.79849">
        <ele>1801.9</ele>
        <time>2021-10-10T08:54:24Z</time>
      </trkpt>
      <trkpt lat="46.32305" lon="6.79849">
        <ele>1801.9</ele>
        <time>2021-10-10T08:54:28Z</time>
      </trkpt>
      <trkpt lat="46.32308" lon="6.79849">
        <ele>1802</ele>
        <time>2021-10-10T08:54:30Z</time>
      </trkpt>
      <trkpt lat="46.3231" lon="6.79849">
        <ele>1802</ele>
        <time>2021-10-10T08:54:32Z</time>
      </trkpt>
      <trkpt lat="46.32314" lon="6.79851">
        <ele>1801.8</ele>
        <time>2021-10-10T08:54:36Z</time>
      </trkpt>
      <trkpt lat="46.32319" lon="6.7985">
        <ele>1802</ele>
        <time>2021-10-10T08:54:44Z</time>
      </trkpt>
      <trkpt lat="46.32323" lon="6.79847">
        <ele>1802.6</ele>
        <time>2021-10-10T08:54:54Z</time>
      </trkpt>
      <trkpt lat="46.32327" lon="6.79847">
        <ele>1802.7</ele>
        <time>2021-10-10T08:55:08Z</time>
      </trkpt>
      <trkpt lat="46.32332" lon="6.79849">
        <ele>1802.4</ele>
        <time>2021-10-10T08:55:14Z</time>
      </trkpt>
      <trkpt lat="46.32336" lon="6.79849">
        <ele>1802.9</ele>
        <time>2021-10-10T08:55:19Z</time>
      </trkpt>
      <trkpt lat="46.32339" lon="6.79851">
        <ele>1802.9</ele>
        <time>2021-10-10T08:55:24Z</time>
      </trkpt>
      <trkpt lat="46.32344" lon="6.79853">
        <ele>1803.3</ele>
        <time>2021-10-10T08:55:30Z</time>
      </trkpt>
      <trkpt lat="46.32348" lon="6.79856">
        <ele>1803.3</ele>
        <time>2021-10-10T08:55:36Z</time>
      </trkpt>
      <trkpt lat="46.32353" lon="6.79857">
        <ele>1803.9</ele>
        <time>2021-10-10T08:55:41Z</time>
      </trkpt>
      <trkpt lat="46.32358" lon="6.79857">
        <ele>1804.8</ele>
        <time>2021-10-10T08:55:45Z</time>
      </trkpt>
      <trkpt lat="46.32363" lon="6.79857">
        <ele>1805.6</ele>
        <time>2021-10-10T08:55:49Z</time>
      </trkpt>
      <trkpt lat="46.32367" lon="6.79856">
        <ele>1806.6</ele>
        <time>2021-10-10T08:55:53Z</time>
      </trkpt>
      <trkpt lat="46.32372" lon="6.79854">
        <ele>1807.9</ele>
        <time>2021-10-10T08:55:58Z</time>
      </trkpt>
      <trkpt lat="46.32376" lon="6.79853">
        <ele>1808.8</ele>
        <time>2021-10-10T08:56:02Z</time>
      </trkpt>
      <trkpt lat="46.3238" lon="6.79851">
        <ele>1810</ele>
        <time>2021-10-10T08:56:06Z</time>
      </trkpt>
      <trkpt lat="46.32384" lon="6.79849">
        <ele>1811.2</ele>
        <time>2021-10-10T08:56:10Z</time>
      </trkpt>
      <trkpt lat="46.32388" lon="6.79847">
        <ele>1812.4</ele>
        <time>2021-10-10T08:56:15Z</time>
      </trkpt>
      <trkpt lat="46.3239" lon="6.79846">
        <ele>1813</ele>
        <time>2021-10-10T08:56:19Z</time>
      </trkpt>
      <trkpt lat="46.32394" lon="6.79845">
        <ele>1814</ele>
        <time>2021-10-10T08:56:25Z</time>
      </trkpt>
      <trkpt lat="46.32399" lon="6.79843">
        <ele>1815.3</ele>
        <time>2021-10-10T08:56:33Z</time>
      </trkpt>
      <trkpt lat="46.32403" lon="6.79845">
        <ele>1815.5</ele>
        <time>2021-10-10T08:56:41Z</time>
      </trkpt>
      <trkpt lat="46.32408" lon="6.79844">
        <ele>1816.7</ele>
        <time>2021-10-10T08:56:50Z</time>
      </trkpt>
      <trkpt lat="46.32411" lon="6.79845">
        <ele>1816.9</ele>
        <time>2021-10-10T08:56:56Z</time>
      </trkpt>
      <trkpt lat="46.32415" lon="6.79843">
        <ele>1818.2</ele>
        <time>2021-10-10T08:57:06Z</time>
      </trkpt>
      <trkpt lat="46.3242" lon="6.79844">
        <ele>1820.3</ele>
        <time>2021-10-10T08:57:17Z</time>
      </trkpt>
      <trkpt lat="46.32425" lon="6.7984">
        <ele>1824.5</ele>
        <time>2021-10-10T08:57:26Z</time>
      </trkpt>
      <trkpt lat="46.32429" lon="6.79837">
        <ele>1827.8</ele>
        <time>2021-10-10T08:57:34Z</time>
      </trkpt>
      <trkpt lat="46.32433" lon="6.79832">
        <ele>1831.4</ele>
        <time>2021-10-10T08:57:43Z</time>
      </trkpt>
      <trkpt lat="46.32434" lon="6.7983">
        <ele>1832</ele>
        <time>2021-10-10T08:57:46Z</time>
      </trkpt>
      <trkpt lat="46.32437" lon="6.79827">
        <ele>1833.8</ele>
        <time>2021-10-10T08:57:52Z</time>
      </trkpt>
      <trkpt lat="46.3244" lon="6.79825">
        <ele>1835.7</ele>
        <time>2021-10-10T08:57:58Z</time>
      </trkpt>
      <trkpt lat="46.32443" lon="6.79821">
        <ele>1837.5</ele>
        <time>2021-10-10T08:58:07Z</time>
      </trkpt>
      <trkpt lat="46.32446" lon="6.79818">
        <ele>1839.4</ele>
        <time>2021-10-10T08:58:14Z</time>
      </trkpt>
      <trkpt lat="46.3245" lon="6.79814">
        <ele>1841.9</ele>
        <time>2021-10-10T08:58:24Z</time>
      </trkpt>
      <trkpt lat="46.32452" lon="6.7981">
        <ele>1843.1</ele>
        <time>2021-10-10T08:58:32Z</time>
      </trkpt>
      <trkpt lat="46.32457" lon="6.79806">
        <ele>1846.3</ele>
        <time>2021-10-10T08:58:42Z</time>
      </trkpt>
      <trkpt lat="46.32459" lon="6.79802">
        <ele>1847.6</ele>
        <time>2021-10-10T08:58:49Z</time>
      </trkpt>
      <trkpt lat="46.32463" lon="6.79797">
        <ele>1850.1</ele>
        <time>2021-10-10T08:58:59Z</time>
      </trkpt>
      <trkpt lat="46.32466" lon="6.79792">
        <ele>1852</ele>
        <time>2021-10-10T08:59:08Z</time>
      </trkpt>
      <trkpt lat="46.32469" lon="6.79787">
        <ele>1853.9</ele>
        <time>2021-10-10T08:59:17Z</time>
      </trkpt>
      <trkpt lat="46.32472" lon="6.79784">
        <ele>1855.8</ele>
        <time>2021-10-10T08:59:27Z</time>
      </trkpt>
      <trkpt lat="46.32475" lon="6.79779">
        <ele>1857.7</ele>
        <time>2021-10-10T08:59:37Z</time>
      </trkpt>
      <trkpt lat="46.32478" lon="6.79773">
        <ele>1859.6</ele>
        <time>2021-10-10T08:59:48Z</time>
      </trkpt>
      <trkpt lat="46.3248" lon="6.79767">
        <ele>1860.9</ele>
        <time>2021-10-10T08:59:57Z</time>
      </trkpt>
      <trkpt lat="46.32484" lon="6.79765">
        <ele>1863.5</ele>
        <time>2021-10-10T09:00:06Z</time>
      </trkpt>
      <trkpt lat="46.32486" lon="6.79765">
        <ele>1864.8</ele>
        <time>2021-10-10T09:00:12Z</time>
      </trkpt>
      <trkpt lat="46.32489" lon="6.79759">
        <ele>1866.8</ele>
        <time>2021-10-10T09:00:22Z</time>
      </trkpt>
      <trkpt lat="46.32493" lon="6.79757">
        <ele>1869.4</ele>
        <time>2021-10-10T09:00:35Z</time>
      </trkpt>
      <trkpt lat="46.32497" lon="6.79757">
        <ele>1872</ele>
        <time>2021-10-10T09:00:47Z</time>
      </trkpt>
      <trkpt lat="46.325" lon="6.79761">
        <ele>1874</ele>
        <time>2021-10-10T09:01:01Z</time>
      </trkpt>
      <trkpt lat="46.32504" lon="6.79758">
        <ele>1876.5</ele>
        <time>2021-10-10T09:01:18Z</time>
      </trkpt>
      <trkpt lat="46.32507" lon="6.79753">
        <ele>1878.5</ele>
        <time>2021-10-10T09:02:32Z</time>
      </trkpt>
      <trkpt lat="46.3251" lon="6.79748">
        <ele>1880.4</ele>
        <time>2021-10-10T09:02:41Z</time>
      </trkpt>
      <trkpt lat="46.32513" lon="6.7975">
        <ele>1882.4</ele>
        <time>2021-10-10T09:02:56Z</time>
      </trkpt>
      <trkpt lat="46.32516" lon="6.79755">
        <ele>1884.2</ele>
        <time>2021-10-10T09:03:10Z</time>
      </trkpt>
      <trkpt lat="46.32516" lon="6.79761">
        <ele>1884.1</ele>
        <time>2021-10-10T09:03:18Z</time>
      </trkpt>
      <trkpt lat="46.32519" lon="6.79763">
        <ele>1885.9</ele>
        <time>2021-10-10T09:03:33Z</time>
      </trkpt>
      <trkpt lat="46.32522" lon="6.79757">
        <ele>1888</ele>
        <time>2021-10-10T09:03:44Z</time>
      </trkpt>
      <trkpt lat="46.32524" lon="6.79753">
        <ele>1889.4</ele>
        <time>2021-10-10T09:03:50Z</time>
      </trkpt>
      <trkpt lat="46.32527" lon="6.79748">
        <ele>1891.4</ele>
        <time>2021-10-10T09:03:58Z</time>
      </trkpt>
      <trkpt lat="46.32529" lon="6.79743">
        <ele>1892.6</ele>
        <time>2021-10-10T09:04:07Z</time>
      </trkpt>
      <trkpt lat="46.32533" lon="6.7974">
        <ele>1895.1</ele>
        <time>2021-10-10T09:04:17Z</time>
      </trkpt>
      <trkpt lat="46.32534" lon="6.79747">
        <ele>1895.9</ele>
        <time>2021-10-10T09:04:27Z</time>
      </trkpt>
      <trkpt lat="46.32535" lon="6.79752">
        <ele>1896.6</ele>
        <time>2021-10-10T09:04:33Z</time>
      </trkpt>
      <trkpt lat="46.32538" lon="6.79755">
        <ele>1898.3</ele>
        <time>2021-10-10T09:04:44Z</time>
      </trkpt>
      <trkpt lat="46.32539" lon="6.79761">
        <ele>1898.5</ele>
        <time>2021-10-10T09:04:55Z</time>
      </trkpt>
      <trkpt lat="46.32542" lon="6.79765">
        <ele>1900.1</ele>
        <time>2021-10-10T09:05:02Z</time>
      </trkpt>
      <trkpt lat="46.32543" lon="6.7977">
        <ele>1900.4</ele>
        <time>2021-10-10T09:05:10Z</time>
      </trkpt>
      <trkpt lat="46.32545" lon="6.79774">
        <ele>1901.3</ele>
        <time>2021-10-10T09:05:18Z</time>
      </trkpt>
      <trkpt lat="46.32548" lon="6.79778">
        <ele>1902.8</ele>
        <time>2021-10-10T09:05:29Z</time>
      </trkpt>
      <trkpt lat="46.32552" lon="6.79782">
        <ele>1904.8</ele>
        <time>2021-10-10T09:05:43Z</time>
      </trkpt>
      <trkpt lat="46.32555" lon="6.79783">
        <ele>1906.5</ele>
        <time>2021-10-10T09:05:53Z</time>
      </trkpt>
      <trkpt lat="46.32557" lon="6.79787">
        <ele>1907.3</ele>
        <time>2021-10-10T09:06:04Z</time>
      </trkpt>
      <trkpt lat="46.32559" lon="6.79792">
        <ele>1908</ele>
        <time>2021-10-10T09:06:12Z</time>
      </trkpt>
      <trkpt lat="46.32563" lon="6.79789">
        <ele>1910.6</ele>
        <time>2021-10-10T09:06:26Z</time>
      </trkpt>
      <trkpt lat="46.32564" lon="6.79787">
        <ele>1911.4</ele>
        <time>2021-10-10T09:06:31Z</time>
      </trkpt>
      <trkpt lat="46.32566" lon="6.79782">
        <ele>1913.1</ele>
        <time>2021-10-10T09:06:39Z</time>
      </trkpt>
      <trkpt lat="46.32569" lon="6.79776">
        <ele>1915.6</ele>
        <time>2021-10-10T09:06:48Z</time>
      </trkpt>
      <trkpt lat="46.3257" lon="6.79771">
        <ele>1916.8</ele>
        <time>2021-10-10T09:06:57Z</time>
      </trkpt>
      <trkpt lat="46.32574" lon="6.79767">
        <ele>1919.8</ele>
        <time>2021-10-10T09:07:06Z</time>
      </trkpt>
      <trkpt lat="46.32576" lon="6.79761">
        <ele>1921.8</ele>
        <time>2021-10-10T09:07:17Z</time>
      </trkpt>
      <trkpt lat="46.32579" lon="6.79756">
        <ele>1924.4</ele>
        <time>2021-10-10T09:07:26Z</time>
      </trkpt>
      <trkpt lat="46.3258" lon="6.7975">
        <ele>1925.8</ele>
        <time>2021-10-10T09:07:37Z</time>
      </trkpt>
      <trkpt lat="46.32583" lon="6.79744">
        <ele>1927.8</ele>
        <time>2021-10-10T09:07:47Z</time>
      </trkpt>
      <trkpt lat="46.32584" lon="6.79737">
        <ele>1928.5</ele>
        <time>2021-10-10T09:07:58Z</time>
      </trkpt>
      <trkpt lat="46.32586" lon="6.79733">
        <ele>1929.8</ele>
        <time>2021-10-10T09:08:06Z</time>
      </trkpt>
      <trkpt lat="46.32588" lon="6.79726">
        <ele>1931.2</ele>
        <time>2021-10-10T09:08:17Z</time>
      </trkpt>
      <trkpt lat="46.32589" lon="6.79722">
        <ele>1931.9</ele>
        <time>2021-10-10T09:08:24Z</time>
      </trkpt>
      <trkpt lat="46.32591" lon="6.79716">
        <ele>1933.2</ele>
        <time>2021-10-10T09:08:32Z</time>
      </trkpt>
      <trkpt lat="46.32591" lon="6.79713">
        <ele>1933.2</ele>
        <time>2021-10-10T09:08:36Z</time>
      </trkpt>
      <trkpt lat="46.32594" lon="6.79708">
        <ele>1935.2</ele>
        <time>2021-10-10T09:08:44Z</time>
      </trkpt>
      <trkpt lat="46.32595" lon="6.79703">
        <ele>1935.8</ele>
        <time>2021-10-10T09:08:51Z</time>
      </trkpt>
      <trkpt lat="46.32596" lon="6.79696">
        <ele>1936.4</ele>
        <time>2021-10-10T09:09:00Z</time>
      </trkpt>
      <trkpt lat="46.32597" lon="6.79689">
        <ele>1937</ele>
        <time>2021-10-10T09:09:12Z</time>
      </trkpt>
      <trkpt lat="46.32599" lon="6.79685">
        <ele>1938.3</ele>
        <time>2021-10-10T09:09:20Z</time>
      </trkpt>
      <trkpt lat="46.32602" lon="6.7969">
        <ele>1940.3</ele>
        <time>2021-10-10T09:09:33Z</time>
      </trkpt>
      <trkpt lat="46.32605" lon="6.79695">
        <ele>1942.4</ele>
        <time>2021-10-10T09:09:43Z</time>
      </trkpt>
      <trkpt lat="46.32607" lon="6.797">
        <ele>1943.8</ele>
        <time>2021-10-10T09:09:52Z</time>
      </trkpt>
      <trkpt lat="46.32609" lon="6.79705">
        <ele>1945.2</ele>
        <time>2021-10-10T09:10:00Z</time>
      </trkpt>
      <trkpt lat="46.32611" lon="6.79712">
        <ele>1946.7</ele>
        <time>2021-10-10T09:10:12Z</time>
      </trkpt>
      <trkpt lat="46.32614" lon="6.79717">
        <ele>1948.8</ele>
        <time>2021-10-10T09:10:22Z</time>
      </trkpt>
      <trkpt lat="46.32617" lon="6.79718">
        <ele>1950.8</ele>
        <time>2021-10-10T09:10:32Z</time>
      </trkpt>
      <trkpt lat="46.32619" lon="6.79712">
        <ele>1952</ele>
        <time>2021-10-10T09:10:43Z</time>
      </trkpt>
      <trkpt lat="46.32621" lon="6.79707">
        <ele>1953.3</ele>
        <time>2021-10-10T09:10:50Z</time>
      </trkpt>
      <trkpt lat="46.32624" lon="6.79704">
        <ele>1955.2</ele>
        <time>2021-10-10T09:11:06Z</time>
      </trkpt>
      <trkpt lat="46.32626" lon="6.7971">
        <ele>1956.7</ele>
        <time>2021-10-10T09:11:15Z</time>
      </trkpt>
      <trkpt lat="46.32628" lon="6.79717">
        <ele>1958.2</ele>
        <time>2021-10-10T09:11:24Z</time>
      </trkpt>
      <trkpt lat="46.32631" lon="6.79722">
        <ele>1960.4</ele>
        <time>2021-10-10T09:11:33Z</time>
      </trkpt>
      <trkpt lat="46.32634" lon="6.79728">
        <ele>1962.6</ele>
        <time>2021-10-10T09:11:43Z</time>
      </trkpt>
      <trkpt lat="46.32636" lon="6.79733">
        <ele>1964.1</ele>
        <time>2021-10-10T09:11:52Z</time>
      </trkpt>
      <trkpt lat="46.32638" lon="6.79739">
        <ele>1965.7</ele>
        <time>2021-10-10T09:12:01Z</time>
      </trkpt>
      <trkpt lat="46.3264" lon="6.79743">
        <ele>1967.2</ele>
        <time>2021-10-10T09:12:09Z</time>
      </trkpt>
      <trkpt lat="46.32643" lon="6.79748">
        <ele>1969.5</ele>
        <time>2021-10-10T09:12:18Z</time>
      </trkpt>
      <trkpt lat="46.32644" lon="6.79753">
        <ele>1969.5</ele>
        <time>2021-10-10T09:12:24Z</time>
      </trkpt>
      <trkpt lat="46.32647" lon="6.79758">
        <ele>1970.4</ele>
        <time>2021-10-10T09:12:35Z</time>
      </trkpt>
      <trkpt lat="46.3265" lon="6.79763">
        <ele>1971.2</ele>
        <time>2021-10-10T09:12:44Z</time>
      </trkpt>
      <trkpt lat="46.32653" lon="6.79768">
        <ele>1971.9</ele>
        <time>2021-10-10T09:12:54Z</time>
      </trkpt>
      <trkpt lat="46.32654" lon="6.79771">
        <ele>1971.8</ele>
        <time>2021-10-10T09:13:01Z</time>
      </trkpt>
      <trkpt lat="46.32657" lon="6.79776">
        <ele>1972.5</ele>
        <time>2021-10-10T09:13:11Z</time>
      </trkpt>
      <trkpt lat="46.32661" lon="6.79774">
        <ele>1975.6</ele>
        <time>2021-10-10T09:13:21Z</time>
      </trkpt>
      <trkpt lat="46.32663" lon="6.79767">
        <ele>1978.9</ele>
        <time>2021-10-10T09:13:31Z</time>
      </trkpt>
      <trkpt lat="46.32664" lon="6.79763">
        <ele>1980.6</ele>
        <time>2021-10-10T09:13:37Z</time>
      </trkpt>
      <trkpt lat="46.32666" lon="6.79756">
        <ele>1983.9</ele>
        <time>2021-10-10T09:13:48Z</time>
      </trkpt>
      <trkpt lat="46.32669" lon="6.79752">
        <ele>1986.8</ele>
        <time>2021-10-10T09:13:57Z</time>
      </trkpt>
      <trkpt lat="46.32671" lon="6.79746">
        <ele>1988.3</ele>
        <time>2021-10-10T09:14:05Z</time>
      </trkpt>
      <trkpt lat="46.32672" lon="6.79739">
        <ele>1988.6</ele>
        <time>2021-10-10T09:14:14Z</time>
      </trkpt>
      <trkpt lat="46.32674" lon="6.79733">
        <ele>1989.4</ele>
        <time>2021-10-10T09:14:21Z</time>
      </trkpt>
      <trkpt lat="46.32675" lon="6.79726">
        <ele>1989.7</ele>
        <time>2021-10-10T09:14:30Z</time>
      </trkpt>
      <trkpt lat="46.32676" lon="6.79721">
        <ele>1990</ele>
        <time>2021-10-10T09:14:36Z</time>
      </trkpt>
      <trkpt lat="46.32677" lon="6.79716">
        <ele>1990.3</ele>
        <time>2021-10-10T09:14:42Z</time>
      </trkpt>
      <trkpt lat="46.32679" lon="6.79709">
        <ele>1991.1</ele>
        <time>2021-10-10T09:14:49Z</time>
      </trkpt>
      <trkpt lat="46.3268" lon="6.79704">
        <ele>1991.4</ele>
        <time>2021-10-10T09:14:56Z</time>
      </trkpt>
      <trkpt lat="46.32682" lon="6.79698">
        <ele>1992.2</ele>
        <time>2021-10-10T09:15:05Z</time>
      </trkpt>
      <trkpt lat="46.32684" lon="6.79694">
        <ele>1993.1</ele>
        <time>2021-10-10T09:15:12Z</time>
      </trkpt>
      <trkpt lat="46.32685" lon="6.79688">
        <ele>1993.3</ele>
        <time>2021-10-10T09:15:21Z</time>
      </trkpt>
      <trkpt lat="46.32687" lon="6.79682">
        <ele>1994.1</ele>
        <time>2021-10-10T09:15:30Z</time>
      </trkpt>
      <trkpt lat="46.3269" lon="6.79676">
        <ele>1995.4</ele>
        <time>2021-10-10T09:15:40Z</time>
      </trkpt>
      <trkpt lat="46.32692" lon="6.7967">
        <ele>1996.2</ele>
        <time>2021-10-10T09:15:48Z</time>
      </trkpt>
      <trkpt lat="46.32695" lon="6.79671">
        <ele>1997.9</ele>
        <time>2021-10-10T09:15:54Z</time>
      </trkpt>
      <trkpt lat="46.32695" lon="6.79673">
        <ele>1998</ele>
        <time>2021-10-10T09:15:56Z</time>
      </trkpt>
      <trkpt lat="46.32696" lon="6.79677">
        <ele>1998.8</ele>
        <time>2021-10-10T09:16:00Z</time>
      </trkpt>
      <trkpt lat="46.32698" lon="6.79682">
        <ele>2000.2</ele>
        <time>2021-10-10T09:16:07Z</time>
      </trkpt>
      <trkpt lat="46.327" lon="6.79688">
        <ele>2001.7</ele>
        <time>2021-10-10T09:16:15Z</time>
      </trkpt>
      <trkpt lat="46.32703" lon="6.79692">
        <ele>2003.7</ele>
        <time>2021-10-10T09:16:23Z</time>
      </trkpt>
      <trkpt lat="46.32704" lon="6.79697">
        <ele>2004.6</ele>
        <time>2021-10-10T09:16:30Z</time>
      </trkpt>
      <trkpt lat="46.32706" lon="6.79702">
        <ele>2006</ele>
        <time>2021-10-10T09:16:37Z</time>
      </trkpt>
      <trkpt lat="46.32709" lon="6.79706">
        <ele>2008</ele>
        <time>2021-10-10T09:16:45Z</time>
      </trkpt>
      <trkpt lat="46.32712" lon="6.79711">
        <ele>2010</ele>
        <time>2021-10-10T09:16:56Z</time>
      </trkpt>
      <trkpt lat="46.32715" lon="6.79716">
        <ele>2012.1</ele>
        <time>2021-10-10T09:17:05Z</time>
      </trkpt>
      <trkpt lat="46.32717" lon="6.79721">
        <ele>2013.6</ele>
        <time>2021-10-10T09:17:12Z</time>
      </trkpt>
      <trkpt lat="46.32721" lon="6.79718">
        <ele>2015.7</ele>
        <time>2021-10-10T09:17:22Z</time>
      </trkpt>
      <trkpt lat="46.32722" lon="6.79711">
        <ele>2015.7</ele>
        <time>2021-10-10T09:17:29Z</time>
      </trkpt>
      <trkpt lat="46.32724" lon="6.79705">
        <ele>2016.4</ele>
        <time>2021-10-10T09:17:35Z</time>
      </trkpt>
      <trkpt lat="46.32727" lon="6.79703">
        <ele>2018</ele>
        <time>2021-10-10T09:17:41Z</time>
      </trkpt>
      <trkpt lat="46.32731" lon="6.797">
        <ele>2020</ele>
        <time>2021-10-10T09:17:51Z</time>
      </trkpt>
      <trkpt lat="46.32735" lon="6.79701">
        <ele>2022.4</ele>
        <time>2021-10-10T09:18:05Z</time>
      </trkpt>
      <trkpt lat="46.32739" lon="6.79703">
        <ele>2024.8</ele>
        <time>2021-10-10T09:18:16Z</time>
      </trkpt>
      <trkpt lat="46.32742" lon="6.79707">
        <ele>2026.8</ele>
        <time>2021-10-10T09:18:24Z</time>
      </trkpt>
      <trkpt lat="46.32746" lon="6.79712">
        <ele>2029.5</ele>
        <time>2021-10-10T09:18:33Z</time>
      </trkpt>
      <trkpt lat="46.32745" lon="6.79718">
        <ele>2029.4</ele>
        <time>2021-10-10T09:18:39Z</time>
      </trkpt>
      <trkpt lat="46.32747" lon="6.79724">
        <ele>2031.1</ele>
        <time>2021-10-10T09:18:45Z</time>
      </trkpt>
      <trkpt lat="46.32751" lon="6.79728">
        <ele>2033.6</ele>
        <time>2021-10-10T09:18:52Z</time>
      </trkpt>
      <trkpt lat="46.32754" lon="6.79732">
        <ele>2035.3</ele>
        <time>2021-10-10T09:18:59Z</time>
      </trkpt>
      <trkpt lat="46.32756" lon="6.79738">
        <ele>2036.7</ele>
        <time>2021-10-10T09:19:06Z</time>
      </trkpt>
      <trkpt lat="46.3276" lon="6.79743">
        <ele>2038.9</ele>
        <time>2021-10-10T09:19:13Z</time>
      </trkpt>
      <trkpt lat="46.32761" lon="6.79747">
        <ele>2039.7</ele>
        <time>2021-10-10T09:19:17Z</time>
      </trkpt>
      <trkpt lat="46.32766" lon="6.7975">
        <ele>2042.1</ele>
        <time>2021-10-10T09:19:25Z</time>
      </trkpt>
      <trkpt lat="46.32768" lon="6.79755">
        <ele>2042.4</ele>
        <time>2021-10-10T09:19:31Z</time>
      </trkpt>
      <trkpt lat="46.32769" lon="6.7976">
        <ele>2042.2</ele>
        <time>2021-10-10T09:19:36Z</time>
      </trkpt>
      <trkpt lat="46.32769" lon="6.79768">
        <ele>2041.2</ele>
        <time>2021-10-10T09:19:43Z</time>
      </trkpt>
      <trkpt lat="46.32771" lon="6.79774">
        <ele>2041.3</ele>
        <time>2021-10-10T09:19:48Z</time>
      </trkpt>
      <trkpt lat="46.32773" lon="6.79777">
        <ele>2041.8</ele>
        <time>2021-10-10T09:19:53Z</time>
      </trkpt>
      <trkpt lat="46.32776" lon="6.79783">
        <ele>2042.3</ele>
        <time>2021-10-10T09:20:00Z</time>
      </trkpt>
      <trkpt lat="46.32779" lon="6.79779">
        <ele>2044.2</ele>
        <time>2021-10-10T09:20:07Z</time>
      </trkpt>
      <trkpt lat="46.32782" lon="6.79776">
        <ele>2045.8</ele>
        <time>2021-10-10T09:20:13Z</time>
      </trkpt>
      <trkpt lat="46.32786" lon="6.79773">
        <ele>2048</ele>
        <time>2021-10-10T09:20:22Z</time>
      </trkpt>
      <trkpt lat="46.3279" lon="6.79768">
        <ele>2050.4</ele>
        <time>2021-10-10T09:20:30Z</time>
      </trkpt>
      <trkpt lat="46.32793" lon="6.79766">
        <ele>2052</ele>
        <time>2021-10-10T09:20:37Z</time>
      </trkpt>
      <trkpt lat="46.32794" lon="6.79764">
        <ele>2052.7</ele>
        <time>2021-10-10T09:20:40Z</time>
      </trkpt>
      <trkpt lat="46.32797" lon="6.79761">
        <ele>2054.4</ele>
        <time>2021-10-10T09:20:48Z</time>
      </trkpt>
      <trkpt lat="46.32796" lon="6.79753">
        <ele>2055</ele>
        <time>2021-10-10T09:20:55Z</time>
      </trkpt>
      <trkpt lat="46.32797" lon="6.79747">
        <ele>2055.7</ele>
        <time>2021-10-10T09:21:05Z</time>
      </trkpt>
      <trkpt lat="46.32798" lon="6.79742">
        <ele>2056</ele>
        <time>2021-10-10T09:21:10Z</time>
      </trkpt>
      <trkpt lat="46.32801" lon="6.79738">
        <ele>2057.2</ele>
        <time>2021-10-10T09:21:16Z</time>
      </trkpt>
      <trkpt lat="46.32806" lon="6.79735">
        <ele>2059.3</ele>
        <time>2021-10-10T09:21:27Z</time>
      </trkpt>
      <trkpt lat="46.32809" lon="6.79732">
        <ele>2060.6</ele>
        <time>2021-10-10T09:21:32Z</time>
      </trkpt>
      <trkpt lat="46.32814" lon="6.79732">
        <ele>2062.9</ele>
        <time>2021-10-10T09:21:37Z</time>
      </trkpt>
      <trkpt lat="46.32818" lon="6.79732">
        <ele>2064.7</ele>
        <time>2021-10-10T09:21:43Z</time>
      </trkpt>
      <trkpt lat="46.32822" lon="6.79727">
        <ele>2066.5</ele>
        <time>2021-10-10T09:21:50Z</time>
      </trkpt>
      <trkpt lat="46.32824" lon="6.79722">
        <ele>2067.3</ele>
        <time>2021-10-10T09:21:55Z</time>
      </trkpt>
      <trkpt lat="46.32825" lon="6.79716">
        <ele>2067.6</ele>
        <time>2021-10-10T09:22:00Z</time>
      </trkpt>
      <trkpt lat="46.32829" lon="6.79712">
        <ele>2069.5</ele>
        <time>2021-10-10T09:22:08Z</time>
      </trkpt>
      <trkpt lat="46.32832" lon="6.79708">
        <ele>2070.9</ele>
        <time>2021-10-10T09:22:15Z</time>
      </trkpt>
      <trkpt lat="46.32834" lon="6.79702">
        <ele>2071.6</ele>
        <time>2021-10-10T09:22:22Z</time>
      </trkpt>
      <trkpt lat="46.32838" lon="6.79699">
        <ele>2072.8</ele>
        <time>2021-10-10T09:22:29Z</time>
      </trkpt>
      <trkpt lat="46.32841" lon="6.79694">
        <ele>2073.6</ele>
        <time>2021-10-10T09:22:35Z</time>
      </trkpt>
      <trkpt lat="46.32845" lon="6.7969">
        <ele>2074.6</ele>
        <time>2021-10-10T09:22:44Z</time>
      </trkpt>
      <trkpt lat="46.3285" lon="6.79688">
        <ele>2076</ele>
        <time>2021-10-10T09:22:52Z</time>
      </trkpt>
      <trkpt lat="46.32854" lon="6.79684">
        <ele>2076.8</ele>
        <time>2021-10-10T09:22:58Z</time>
      </trkpt>
      <trkpt lat="46.32858" lon="6.79681">
        <ele>2077.7</ele>
        <time>2021-10-10T09:23:02Z</time>
      </trkpt>
      <trkpt lat="46.32861" lon="6.79676">
        <ele>2078.1</ele>
        <time>2021-10-10T09:23:06Z</time>
      </trkpt>
      <trkpt lat="46.32864" lon="6.79673">
        <ele>2078.6</ele>
        <time>2021-10-10T09:23:09Z</time>
      </trkpt>
      <trkpt lat="46.32869" lon="6.79669">
        <ele>2079.4</ele>
        <time>2021-10-10T09:23:14Z</time>
      </trkpt>
      <trkpt lat="46.32873" lon="6.79665">
        <ele>2079.6</ele>
        <time>2021-10-10T09:23:18Z</time>
      </trkpt>
      <trkpt lat="46.32877" lon="6.79661">
        <ele>2079.3</ele>
        <time>2021-10-10T09:23:23Z</time>
      </trkpt>
      <trkpt lat="46.3288" lon="6.79656">
        <ele>2078.5</ele>
        <time>2021-10-10T09:23:28Z</time>
      </trkpt>
      <trkpt lat="46.32882" lon="6.79651">
        <ele>2077.5</ele>
        <time>2021-10-10T09:23:32Z</time>
      </trkpt>
      <trkpt lat="46.32887" lon="6.79646">
        <ele>2077.1</ele>
        <time>2021-10-10T09:23:37Z</time>
      </trkpt>
      <trkpt lat="46.32892" lon="6.79643">
        <ele>2077.2</ele>
        <time>2021-10-10T09:23:41Z</time>
      </trkpt>
      <trkpt lat="46.32896" lon="6.79639">
        <ele>2076.8</ele>
        <time>2021-10-10T09:23:45Z</time>
      </trkpt>
      <trkpt lat="46.329" lon="6.79635">
        <ele>2076.4</ele>
        <time>2021-10-10T09:23:49Z</time>
      </trkpt>
      <trkpt lat="46.32905" lon="6.79631">
        <ele>2076.1</ele>
        <time>2021-10-10T09:23:53Z</time>
      </trkpt>
      <trkpt lat="46.32909" lon="6.79628">
        <ele>2076</ele>
        <time>2021-10-10T09:23:57Z</time>
      </trkpt>
      <trkpt lat="46.32913" lon="6.79625">
        <ele>2075.8</ele>
        <time>2021-10-10T09:24:01Z</time>
      </trkpt>
      <trkpt lat="46.32917" lon="6.79622">
        <ele>2075.7</ele>
        <time>2021-10-10T09:24:04Z</time>
      </trkpt>
      <trkpt lat="46.32919" lon="6.79621">
        <ele>2076.1</ele>
        <time>2021-10-10T09:24:06Z</time>
      </trkpt>
      <trkpt lat="46.32923" lon="6.79617">
        <ele>2076.3</ele>
        <time>2021-10-10T09:24:10Z</time>
      </trkpt>
      <trkpt lat="46.32927" lon="6.79613">
        <ele>2076.5</ele>
        <time>2021-10-10T09:24:14Z</time>
      </trkpt>
      <trkpt lat="46.32931" lon="6.7961">
        <ele>2077</ele>
        <time>2021-10-10T09:24:18Z</time>
      </trkpt>
      <trkpt lat="46.32936" lon="6.79605">
        <ele>2077.3</ele>
        <time>2021-10-10T09:24:23Z</time>
      </trkpt>
      <trkpt lat="46.3294" lon="6.79601">
        <ele>2077.5</ele>
        <time>2021-10-10T09:24:27Z</time>
      </trkpt>
      <trkpt lat="46.32944" lon="6.79598">
        <ele>2078</ele>
        <time>2021-10-10T09:24:31Z</time>
      </trkpt>
      <trkpt lat="46.32948" lon="6.79593">
        <ele>2077.8</ele>
        <time>2021-10-10T09:24:36Z</time>
      </trkpt>
      <trkpt lat="46.32952" lon="6.79588">
        <ele>2077.7</ele>
        <time>2021-10-10T09:24:41Z</time>
      </trkpt>
      <trkpt lat="46.32956" lon="6.79584">
        <ele>2077.9</ele>
        <time>2021-10-10T09:24:45Z</time>
      </trkpt>
      <trkpt lat="46.3296" lon="6.79579">
        <ele>2078.8</ele>
        <time>2021-10-10T09:24:50Z</time>
      </trkpt>
      <trkpt lat="46.32962" lon="6.79574">
        <ele>2079.1</ele>
        <time>2021-10-10T09:24:59Z</time>
      </trkpt>
      <trkpt lat="46.32966" lon="6.79568">
        <ele>2080.1</ele>
        <time>2021-10-10T09:25:04Z</time>
      </trkpt>
      <trkpt lat="46.32968" lon="6.79565">
        <ele>2080.7</ele>
        <time>2021-10-10T09:25:07Z</time>
      </trkpt>
      <trkpt lat="46.32971" lon="6.7956">
        <ele>2081.4</ele>
        <time>2021-10-10T09:25:12Z</time>
      </trkpt>
      <trkpt lat="46.3297" lon="6.79554">
        <ele>2080.6</ele>
        <time>2021-10-10T09:25:18Z</time>
      </trkpt>
      <trkpt lat="46.32971" lon="6.79548">
        <ele>2080.5</ele>
        <time>2021-10-10T09:25:23Z</time>
      </trkpt>
      <trkpt lat="46.32975" lon="6.7954">
        <ele>2081.5</ele>
        <time>2021-10-10T09:25:29Z</time>
      </trkpt>
      <trkpt lat="46.32976" lon="6.79534">
        <ele>2081.4</ele>
        <time>2021-10-10T09:25:33Z</time>
      </trkpt>
      <trkpt lat="46.32976" lon="6.79529">
        <ele>2081.1</ele>
        <time>2021-10-10T09:25:36Z</time>
      </trkpt>
      <trkpt lat="46.32978" lon="6.79526">
        <ele>2081.6</ele>
        <time>2021-10-10T09:25:39Z</time>
      </trkpt>
      <trkpt lat="46.3298" lon="6.7952">
        <ele>2082</ele>
        <time>2021-10-10T09:25:46Z</time>
      </trkpt>
      <trkpt lat="46.32982" lon="6.79515">
        <ele>2082.5</ele>
        <time>2021-10-10T09:25:53Z</time>
      </trkpt>
      <trkpt lat="46.32984" lon="6.79508">
        <ele>2082.8</ele>
        <time>2021-10-10T09:26:03Z</time>
      </trkpt>
      <trkpt lat="46.32985" lon="6.79501">
        <ele>2082.8</ele>
        <time>2021-10-10T09:26:09Z</time>
      </trkpt>
      <trkpt lat="46.32985" lon="6.79495">
        <ele>2083.7</ele>
        <time>2021-10-10T09:26:14Z</time>
      </trkpt>
      <trkpt lat="46.32983" lon="6.79488">
        <ele>2084.3</ele>
        <time>2021-10-10T09:26:19Z</time>
      </trkpt>
      <trkpt lat="46.32983" lon="6.79482">
        <ele>2085.5</ele>
        <time>2021-10-10T09:26:25Z</time>
      </trkpt>
      <trkpt lat="46.32986" lon="6.79476">
        <ele>2088</ele>
        <time>2021-10-10T09:26:33Z</time>
      </trkpt>
      <trkpt lat="46.32989" lon="6.79474">
        <ele>2089.6</ele>
        <time>2021-10-10T09:26:38Z</time>
      </trkpt>
      <trkpt lat="46.3299" lon="6.79468">
        <ele>2091.3</ele>
        <time>2021-10-10T09:26:51Z</time>
      </trkpt>
      <trkpt lat="46.3299" lon="6.79461">
        <ele>2092.7</ele>
        <time>2021-10-10T09:27:05Z</time>
      </trkpt>
      <trkpt lat="46.32988" lon="6.79456">
        <ele>2092.9</ele>
        <time>2021-10-10T09:27:11Z</time>
      </trkpt>
      <trkpt lat="46.32986" lon="6.79451">
        <ele>2093</ele>
        <time>2021-10-10T09:27:15Z</time>
      </trkpt>
      <trkpt lat="46.32985" lon="6.79444">
        <ele>2094</ele>
        <time>2021-10-10T09:27:20Z</time>
      </trkpt>
      <trkpt lat="46.32981" lon="6.7944">
        <ele>2093.1</ele>
        <time>2021-10-10T09:27:24Z</time>
      </trkpt>
      <trkpt lat="46.32983" lon="6.79435">
        <ele>2095</ele>
        <time>2021-10-10T09:27:36Z</time>
      </trkpt>
      <trkpt lat="46.32985" lon="6.7943">
        <ele>2096.8</ele>
        <time>2021-10-10T09:27:48Z</time>
      </trkpt>
      <trkpt lat="46.32984" lon="6.79423">
        <ele>2097.8</ele>
        <time>2021-10-10T09:27:57Z</time>
      </trkpt>
      <trkpt lat="46.32983" lon="6.79417">
        <ele>2098.6</ele>
        <time>2021-10-10T09:28:07Z</time>
      </trkpt>
      <trkpt lat="46.32981" lon="6.79411">
        <ele>2098.8</ele>
        <time>2021-10-10T09:28:14Z</time>
      </trkpt>
      <trkpt lat="46.32981" lon="6.79405">
        <ele>2099.8</ele>
        <time>2021-10-10T09:28:21Z</time>
      </trkpt>
      <trkpt lat="46.32983" lon="6.794">
        <ele>2101.6</ele>
        <time>2021-10-10T09:28:30Z</time>
      </trkpt>
      <trkpt lat="46.32985" lon="6.79396">
        <ele>2103.1</ele>
        <time>2021-10-10T09:28:43Z</time>
      </trkpt>
      <trkpt lat="46.32987" lon="6.7939">
        <ele>2105</ele>
        <time>2021-10-10T09:28:53Z</time>
      </trkpt>
      <trkpt lat="46.32985" lon="6.79385">
        <ele>2105</ele>
        <time>2021-10-10T09:29:02Z</time>
      </trkpt>
      <trkpt lat="46.32981" lon="6.79382">
        <ele>2103.9</ele>
        <time>2021-10-10T09:29:09Z</time>
      </trkpt>
      <trkpt lat="46.3298" lon="6.79377">
        <ele>2104.4</ele>
        <time>2021-10-10T09:29:19Z</time>
      </trkpt>
      <trkpt lat="46.32982" lon="6.79372">
        <ele>2106.1</ele>
        <time>2021-10-10T09:29:26Z</time>
      </trkpt>
      <trkpt lat="46.32985" lon="6.79367">
        <ele>2108.2</ele>
        <time>2021-10-10T09:29:33Z</time>
      </trkpt>
      <trkpt lat="46.32985" lon="6.79361">
        <ele>2109.2</ele>
        <time>2021-10-10T09:29:40Z</time>
      </trkpt>
      <trkpt lat="46.32987" lon="6.79356">
        <ele>2110.9</ele>
        <time>2021-10-10T09:29:47Z</time>
      </trkpt>
      <trkpt lat="46.32988" lon="6.7935">
        <ele>2112.4</ele>
        <time>2021-10-10T09:29:54Z</time>
      </trkpt>
      <trkpt lat="46.32988" lon="6.79344">
        <ele>2113.4</ele>
        <time>2021-10-10T09:30:01Z</time>
      </trkpt>
      <trkpt lat="46.32987" lon="6.79339">
        <ele>2113.9</ele>
        <time>2021-10-10T09:30:06Z</time>
      </trkpt>
      <trkpt lat="46.32986" lon="6.79332">
        <ele>2114.6</ele>
        <time>2021-10-10T09:30:13Z</time>
      </trkpt>
      <trkpt lat="46.32985" lon="6.79327">
        <ele>2114.9</ele>
        <time>2021-10-10T09:30:20Z</time>
      </trkpt>
      <trkpt lat="46.32987" lon="6.79321">
        <ele>2116.4</ele>
        <time>2021-10-10T09:30:29Z</time>
      </trkpt>
      <trkpt lat="46.32987" lon="6.79316">
        <ele>2117.1</ele>
        <time>2021-10-10T09:30:38Z</time>
      </trkpt>
      <trkpt lat="46.32986" lon="6.79309">
        <ele>2117.6</ele>
        <time>2021-10-10T09:30:46Z</time>
      </trkpt>
      <trkpt lat="46.32985" lon="6.79306">
        <ele>2117.7</ele>
        <time>2021-10-10T09:30:49Z</time>
      </trkpt>
      <trkpt lat="46.32985" lon="6.79304">
        <ele>2118</ele>
        <time>2021-10-10T09:30:52Z</time>
      </trkpt>
      <trkpt lat="46.32984" lon="6.79297">
        <ele>2118.6</ele>
        <time>2021-10-10T09:30:58Z</time>
      </trkpt>
      <trkpt lat="46.32986" lon="6.79292">
        <ele>2119.8</ele>
        <time>2021-10-10T09:31:05Z</time>
      </trkpt>
      <trkpt lat="46.3299" lon="6.79292">
        <ele>2120.9</ele>
        <time>2021-10-10T09:31:11Z</time>
      </trkpt>
      <trkpt lat="46.32995" lon="6.79289">
        <ele>2122.5</ele>
        <time>2021-10-10T09:31:19Z</time>
      </trkpt>
      <trkpt lat="46.32997" lon="6.79285">
        <ele>2123.4</ele>
        <time>2021-10-10T09:31:24Z</time>
      </trkpt>
      <trkpt lat="46.32997" lon="6.79281">
        <ele>2123.7</ele>
        <time>2021-10-10T09:31:29Z</time>
      </trkpt>
      <trkpt lat="46.32997" lon="6.79278">
        <ele>2124</ele>
        <time>2021-10-10T09:31:36Z</time>
      </trkpt>
      <trkpt lat="46.33001" lon="6.7928">
        <ele>2125</ele>
        <time>2021-10-10T09:31:49Z</time>
      </trkpt>
      <trkpt lat="46.33006" lon="6.7928">
        <ele>2127.4</ele>
        <time>2021-10-10T09:31:59Z</time>
      </trkpt>
      <trkpt lat="46.33009" lon="6.79282">
        <ele>2128.7</ele>
        <time>2021-10-10T09:32:07Z</time>
      </trkpt>
      <trkpt lat="46.33014" lon="6.79283">
        <ele>2131.1</ele>
        <time>2021-10-10T09:32:15Z</time>
      </trkpt>
      <trkpt lat="46.33018" lon="6.79285">
        <ele>2132.9</ele>
        <time>2021-10-10T09:32:26Z</time>
      </trkpt>
      <trkpt lat="46.33022" lon="6.79286">
        <ele>2134.8</ele>
        <time>2021-10-10T09:32:33Z</time>
      </trkpt>
      <trkpt lat="46.33024" lon="6.79282">
        <ele>2136.1</ele>
        <time>2021-10-10T09:32:47Z</time>
      </trkpt>
      <trkpt lat="46.33024" lon="6.79275">
        <ele>2136.6</ele>
        <time>2021-10-10T09:32:59Z</time>
      </trkpt>
      <trkpt lat="46.33023" lon="6.79269">
        <ele>2136.6</ele>
        <time>2021-10-10T09:33:07Z</time>
      </trkpt>
      <trkpt lat="46.33025" lon="6.79263">
        <ele>2138</ele>
        <time>2021-10-10T09:33:16Z</time>
      </trkpt>
      <trkpt lat="46.33026" lon="6.79258">
        <ele>2138.9</ele>
        <time>2021-10-10T09:33:22Z</time>
      </trkpt>
      <trkpt lat="46.33028" lon="6.79254">
        <ele>2140.1</ele>
        <time>2021-10-10T09:33:28Z</time>
      </trkpt>
      <trkpt lat="46.33029" lon="6.79248">
        <ele>2141.3</ele>
        <time>2021-10-10T09:33:36Z</time>
      </trkpt>
      <trkpt lat="46.33029" lon="6.79241">
        <ele>2142.5</ele>
        <time>2021-10-10T09:33:43Z</time>
      </trkpt>
      <trkpt lat="46.33029" lon="6.79235">
        <ele>2143.6</ele>
        <time>2021-10-10T09:33:49Z</time>
      </trkpt>
      <trkpt lat="46.33032" lon="6.79229">
        <ele>2146.1</ele>
        <time>2021-10-10T09:34:05Z</time>
      </trkpt>
      <trkpt lat="46.33032" lon="6.79222">
        <ele>2147.3</ele>
        <time>2021-10-10T09:34:13Z</time>
      </trkpt>
      <trkpt lat="46.33034" lon="6.79216">
        <ele>2149.3</ele>
        <time>2021-10-10T09:34:22Z</time>
      </trkpt>
      <trkpt lat="46.33036" lon="6.79211">
        <ele>2151</ele>
        <time>2021-10-10T09:34:32Z</time>
      </trkpt>
      <trkpt lat="46.33037" lon="6.79205">
        <ele>2152.5</ele>
        <time>2021-10-10T09:34:39Z</time>
      </trkpt>
      <trkpt lat="46.33037" lon="6.79198">
        <ele>2153.7</ele>
        <time>2021-10-10T09:34:46Z</time>
      </trkpt>
      <trkpt lat="46.3304" lon="6.79192">
        <ele>2156</ele>
        <time>2021-10-10T09:34:54Z</time>
      </trkpt>
      <trkpt lat="46.33042" lon="6.79185">
        <ele>2158.1</ele>
        <time>2021-10-10T09:35:00Z</time>
      </trkpt>
      <trkpt lat="46.33045" lon="6.79179">
        <ele>2160.3</ele>
        <time>2021-10-10T09:35:08Z</time>
      </trkpt>
      <trkpt lat="46.33044" lon="6.79172">
        <ele>2161.1</ele>
        <time>2021-10-10T09:35:17Z</time>
      </trkpt>
      <trkpt lat="46.33043" lon="6.79166">
        <ele>2161.7</ele>
        <time>2021-10-10T09:35:25Z</time>
      </trkpt>
      <trkpt lat="46.33043" lon="6.79164">
        <ele>2162.2</ele>
        <time>2021-10-10T09:35:28Z</time>
      </trkpt>
      <trkpt lat="46.33044" lon="6.79158">
        <ele>2164</ele>
        <time>2021-10-10T09:35:37Z</time>
      </trkpt>
      <trkpt lat="46.33043" lon="6.79151">
        <ele>2165.3</ele>
        <time>2021-10-10T09:35:47Z</time>
      </trkpt>
      <trkpt lat="46.33044" lon="6.79146">
        <ele>2166.9</ele>
        <time>2021-10-10T09:35:53Z</time>
      </trkpt>
      <trkpt lat="46.33042" lon="6.7914">
        <ele>2167.5</ele>
        <time>2021-10-10T09:36:00Z</time>
      </trkpt>
      <trkpt lat="46.33041" lon="6.79134">
        <ele>2168.6</ele>
        <time>2021-10-10T09:36:06Z</time>
      </trkpt>
      <trkpt lat="46.33041" lon="6.79127">
        <ele>2170.3</ele>
        <time>2021-10-10T09:36:15Z</time>
      </trkpt>
      <trkpt lat="46.33041" lon="6.79121">
        <ele>2171.7</ele>
        <time>2021-10-10T09:36:22Z</time>
      </trkpt>
      <trkpt lat="46.33041" lon="6.79117">
        <ele>2172.7</ele>
        <time>2021-10-10T09:36:27Z</time>
      </trkpt>
      <trkpt lat="46.33042" lon="6.7911">
        <ele>2174.7</ele>
        <time>2021-10-10T09:36:35Z</time>
      </trkpt>
      <trkpt lat="46.33043" lon="6.79104">
        <ele>2176.5</ele>
        <time>2021-10-10T09:36:45Z</time>
      </trkpt>
      <trkpt lat="46.33044" lon="6.79099">
        <ele>2178.1</ele>
        <time>2021-10-10T09:36:58Z</time>
      </trkpt>
      <trkpt lat="46.33044" lon="6.79093">
        <ele>2179.5</ele>
        <time>2021-10-10T09:37:12Z</time>
      </trkpt>
      <trkpt lat="46.33047" lon="6.79089">
        <ele>2181.5</ele>
        <time>2021-10-10T09:37:20Z</time>
      </trkpt>
      <trkpt lat="46.33051" lon="6.79086">
        <ele>2183.5</ele>
        <time>2021-10-10T09:37:30Z</time>
      </trkpt>
      <trkpt lat="46.33053" lon="6.79084">
        <ele>2184.7</ele>
        <time>2021-10-10T09:37:35Z</time>
      </trkpt>
      <trkpt lat="46.33056" lon="6.79078">
        <ele>2186.2</ele>
        <time>2021-10-10T09:37:44Z</time>
      </trkpt>
      <trkpt lat="46.33059" lon="6.79073">
        <ele>2187.6</ele>
        <time>2021-10-10T09:37:54Z</time>
      </trkpt>
      <trkpt lat="46.33062" lon="6.7907">
        <ele>2188.9</ele>
        <time>2021-10-10T09:38:03Z</time>
      </trkpt>
      <trkpt lat="46.33066" lon="6.79068">
        <ele>2190.4</ele>
        <time>2021-10-10T09:38:11Z</time>
      </trkpt>
      <trkpt lat="46.33069" lon="6.79063">
        <ele>2191.9</ele>
        <time>2021-10-10T09:38:20Z</time>
      </trkpt>
      <trkpt lat="46.33071" lon="6.79057">
        <ele>2193.1</ele>
        <time>2021-10-10T09:38:27Z</time>
      </trkpt>
      <trkpt lat="46.33073" lon="6.79052">
        <ele>2194.3</ele>
        <time>2021-10-10T09:38:34Z</time>
      </trkpt>
      <trkpt lat="46.33075" lon="6.7905">
        <ele>2195.2</ele>
        <time>2021-10-10T09:38:38Z</time>
      </trkpt>
      <trkpt lat="46.33076" lon="6.79044">
        <ele>2196.1</ele>
        <time>2021-10-10T09:38:47Z</time>
      </trkpt>
      <trkpt lat="46.33075" lon="6.79041">
        <ele>2196</ele>
        <time>2021-10-10T09:38:52Z</time>
      </trkpt>
      <trkpt lat="46.33079" lon="6.79036">
        <ele>2197.9</ele>
        <time>2021-10-10T09:39:03Z</time>
      </trkpt>
      <trkpt lat="46.3308" lon="6.79034">
        <ele>2198.5</ele>
        <time>2021-10-10T09:39:07Z</time>
      </trkpt>
      <trkpt lat="46.33081" lon="6.79033">
        <ele>2198.9</ele>
        <time>2021-10-10T09:39:09Z</time>
      </trkpt>
      <trkpt lat="46.33082" lon="6.79028">
        <ele>2199.8</ele>
        <time>2021-10-10T09:39:19Z</time>
      </trkpt>
      <trkpt lat="46.33085" lon="6.79023">
        <ele>2201.5</ele>
        <time>2021-10-10T09:39:26Z</time>
      </trkpt>
      <trkpt lat="46.33088" lon="6.79019">
        <ele>2203.1</ele>
        <time>2021-10-10T09:39:34Z</time>
      </trkpt>
      <trkpt lat="46.33091" lon="6.79013">
        <ele>2204.9</ele>
        <time>2021-10-10T09:39:44Z</time>
      </trkpt>
      <trkpt lat="46.33094" lon="6.79009">
        <ele>2206.5</ele>
        <time>2021-10-10T09:39:51Z</time>
      </trkpt>
      <trkpt lat="46.33096" lon="6.79003">
        <ele>2207.8</ele>
        <time>2021-10-10T09:39:59Z</time>
      </trkpt>
      <trkpt lat="46.33098" lon="6.79">
        <ele>2208.8</ele>
        <time>2021-10-10T09:40:05Z</time>
      </trkpt>
      <trkpt lat="46.33102" lon="6.78997">
        <ele>2210.7</ele>
        <time>2021-10-10T09:40:12Z</time>
      </trkpt>
      <trkpt lat="46.33105" lon="6.78992">
        <ele>2212.3</ele>
        <time>2021-10-10T09:40:20Z</time>
      </trkpt>
      <trkpt lat="46.33108" lon="6.78989">
        <ele>2213.7</ele>
        <time>2021-10-10T09:40:26Z</time>
      </trkpt>
      <trkpt lat="46.33112" lon="6.78985">
        <ele>2215.5</ele>
        <time>2021-10-10T09:40:35Z</time>
      </trkpt>
      <trkpt lat="46.33115" lon="6.78981">
        <ele>2216.9</ele>
        <time>2021-10-10T09:40:42Z</time>
      </trkpt>
      <trkpt lat="46.33117" lon="6.78978">
        <ele>2217.8</ele>
        <time>2021-10-10T09:40:46Z</time>
      </trkpt>
      <trkpt lat="46.33119" lon="6.78979">
        <ele>2218.5</ele>
        <time>2021-10-10T09:40:49Z</time>
      </trkpt>
      <trkpt lat="46.33124" lon="6.78977">
        <ele>2220.4</ele>
        <time>2021-10-10T09:40:58Z</time>
      </trkpt>
      <trkpt lat="46.33128" lon="6.78978">
        <ele>2221.8</ele>
        <time>2021-10-10T09:41:05Z</time>
      </trkpt>
      <trkpt lat="46.33133" lon="6.78981">
        <ele>2223.5</ele>
        <time>2021-10-10T09:41:11Z</time>
      </trkpt>
      <trkpt lat="46.33136" lon="6.78981">
        <ele>2224.6</ele>
        <time>2021-10-10T09:41:18Z</time>
      </trkpt>
      <trkpt lat="46.33139" lon="6.78979">
        <ele>2225.7</ele>
        <time>2021-10-10T09:41:23Z</time>
      </trkpt>
      <trkpt lat="46.33142" lon="6.78977">
        <ele>2226.9</ele>
        <time>2021-10-10T09:41:29Z</time>
      </trkpt>
      <trkpt lat="46.33146" lon="6.78978">
        <ele>2228.3</ele>
        <time>2021-10-10T09:41:38Z</time>
      </trkpt>
      <trkpt lat="46.33151" lon="6.78978">
        <ele>2230.1</ele>
        <time>2021-10-10T09:41:45Z</time>
      </trkpt>
      <trkpt lat="46.33156" lon="6.78976">
        <ele>2231.9</ele>
        <time>2021-10-10T09:41:54Z</time>
      </trkpt>
      <trkpt lat="46.33158" lon="6.7897">
        <ele>2232.6</ele>
        <time>2021-10-10T09:42:12Z</time>
      </trkpt>
      <trkpt lat="46.33162" lon="6.78965">
        <ele>2234</ele>
        <time>2021-10-10T09:42:39Z</time>
      </trkpt>
      <trkpt lat="46.33166" lon="6.78963">
        <ele>2235.3</ele>
        <time>2021-10-10T09:42:45Z</time>
      </trkpt>
      <trkpt lat="46.33171" lon="6.78961">
        <ele>2236.5</ele>
        <time>2021-10-10T09:42:59Z</time>
      </trkpt>
      <trkpt lat="46.33174" lon="6.78958">
        <ele>2237.1</ele>
        <time>2021-10-10T09:43:05Z</time>
      </trkpt>
      <trkpt lat="46.33178" lon="6.78961">
        <ele>2238</ele>
        <time>2021-10-10T09:43:11Z</time>
      </trkpt>
      <trkpt lat="46.33183" lon="6.78958">
        <ele>2239</ele>
        <time>2021-10-10T09:43:16Z</time>
      </trkpt>
      <trkpt lat="46.33186" lon="6.78953">
        <ele>2239.7</ele>
        <time>2021-10-10T09:43:22Z</time>
      </trkpt>
      <trkpt lat="46.33191" lon="6.78947">
        <ele>2240.9</ele>
        <time>2021-10-10T09:43:28Z</time>
      </trkpt>
      <trkpt lat="46.33195" lon="6.78943">
        <ele>2241.8</ele>
        <time>2021-10-10T09:43:33Z</time>
      </trkpt>
      <trkpt lat="46.33197" lon="6.78941">
        <ele>2242.3</ele>
        <time>2021-10-10T09:43:35Z</time>
      </trkpt>
      <trkpt lat="46.33199" lon="6.78938">
        <ele>2242.8</ele>
        <time>2021-10-10T09:43:38Z</time>
      </trkpt>
      <trkpt lat="46.33201" lon="6.78934">
        <ele>2243.3</ele>
        <time>2021-10-10T09:44:02Z</time>
      </trkpt>
      <trkpt lat="46.33205" lon="6.7893">
        <ele>2244.4</ele>
        <time>2021-10-10T09:44:07Z</time>
      </trkpt>
      <trkpt lat="46.33208" lon="6.78925">
        <ele>2245.2</ele>
        <time>2021-10-10T09:44:12Z</time>
      </trkpt>
      <trkpt lat="46.33212" lon="6.78921">
        <ele>2246.3</ele>
        <time>2021-10-10T09:44:19Z</time>
      </trkpt>
      <trkpt lat="46.33215" lon="6.78916">
        <ele>2247.2</ele>
        <time>2021-10-10T09:44:26Z</time>
      </trkpt>
      <trkpt lat="46.33217" lon="6.78909">
        <ele>2248.4</ele>
        <time>2021-10-10T09:44:33Z</time>
      </trkpt>
      <trkpt lat="46.33219" lon="6.78903">
        <ele>2249.5</ele>
        <time>2021-10-10T09:44:41Z</time>
      </trkpt>
      <trkpt lat="46.3322" lon="6.78897">
        <ele>2250.3</ele>
        <time>2021-10-10T09:44:47Z</time>
      </trkpt>
      <trkpt lat="46.33223" lon="6.78891">
        <ele>2251.4</ele>
        <time>2021-10-10T09:44:53Z</time>
      </trkpt>
      <trkpt lat="46.33225" lon="6.78885">
        <ele>2252.3</ele>
        <time>2021-10-10T09:45:01Z</time>
      </trkpt>
      <trkpt lat="46.33229" lon="6.7888">
        <ele>2253.5</ele>
        <time>2021-10-10T09:45:10Z</time>
      </trkpt>
      <trkpt lat="46.33228" lon="6.78873">
        <ele>2253.8</ele>
        <time>2021-10-10T09:45:44Z</time>
      </trkpt>
      <trkpt lat="46.3323" lon="6.78868">
        <ele>2254.5</ele>
        <time>2021-10-10T09:45:49Z</time>
      </trkpt>
      <trkpt lat="46.33229" lon="6.78861">
        <ele>2254.9</ele>
        <time>2021-10-10T09:45:55Z</time>
      </trkpt>
      <trkpt lat="46.33228" lon="6.78855">
        <ele>2255.2</ele>
        <time>2021-10-10T09:46:02Z</time>
      </trkpt>
      <trkpt lat="46.33227" lon="6.78848">
        <ele>2255.6</ele>
        <time>2021-10-10T09:46:12Z</time>
      </trkpt>
      <trkpt lat="46.33225" lon="6.78842">
        <ele>2255.9</ele>
        <time>2021-10-10T09:46:21Z</time>
      </trkpt>
      <trkpt lat="46.33222" lon="6.78837">
        <ele>2256</ele>
        <time>2021-10-10T09:46:27Z</time>
      </trkpt>
      <trkpt lat="46.33219" lon="6.78832">
        <ele>2256.2</ele>
        <time>2021-10-10T09:46:33Z</time>
      </trkpt>
      <trkpt lat="46.33217" lon="6.78825">
        <ele>2256.8</ele>
        <time>2021-10-10T09:46:40Z</time>
      </trkpt>
      <trkpt lat="46.33215" lon="6.78819">
        <ele>2257.5</ele>
        <time>2021-10-10T09:46:47Z</time>
      </trkpt>
      <trkpt lat="46.33214" lon="6.78813">
        <ele>2258.2</ele>
        <time>2021-10-10T09:46:54Z</time>
      </trkpt>
      <trkpt lat="46.33212" lon="6.78808">
        <ele>2258.8</ele>
        <time>2021-10-10T09:47:01Z</time>
      </trkpt>
      <trkpt lat="46.3321" lon="6.78803">
        <ele>2259.4</ele>
        <time>2021-10-10T09:47:09Z</time>
      </trkpt>
      <trkpt lat="46.33208" lon="6.78799">
        <ele>2259.9</ele>
        <time>2021-10-10T09:47:16Z</time>
      </trkpt>
      <trkpt lat="46.33206" lon="6.78794">
        <ele>2260.7</ele>
        <time>2021-10-10T09:47:23Z</time>
      </trkpt>
      <trkpt lat="46.33203" lon="6.78789">
        <ele>2261.5</ele>
        <time>2021-10-10T09:47:33Z</time>
      </trkpt>
      <trkpt lat="46.33202" lon="6.78782">
        <ele>2262.6</ele>
        <time>2021-10-10T09:47:43Z</time>
      </trkpt>
      <trkpt lat="46.332" lon="6.78778">
        <ele>2263.4</ele>
        <time>2021-10-10T09:47:50Z</time>
      </trkpt>
      <trkpt lat="46.33197" lon="6.78772">
        <ele>2264.5</ele>
        <time>2021-10-10T09:48:00Z</time>
      </trkpt>
      <trkpt lat="46.33194" lon="6.78768">
        <ele>2265.5</ele>
        <time>2021-10-10T09:48:07Z</time>
      </trkpt>
      <trkpt lat="46.33189" lon="6.78765">
        <ele>2266.4</ele>
        <time>2021-10-10T09:48:14Z</time>
      </trkpt>
      <trkpt lat="46.33186" lon="6.78761">
        <ele>2267.5</ele>
        <time>2021-10-10T09:48:22Z</time>
      </trkpt>
      <trkpt lat="46.33183" lon="6.78758">
        <ele>2268.4</ele>
        <time>2021-10-10T09:48:30Z</time>
      </trkpt>
      <trkpt lat="46.33179" lon="6.78753">
        <ele>2269.9</ele>
        <time>2021-10-10T09:48:41Z</time>
      </trkpt>
      <trkpt lat="46.33176" lon="6.7875">
        <ele>2270.9</ele>
        <time>2021-10-10T09:48:50Z</time>
      </trkpt>
      <trkpt lat="46.33172" lon="6.78747">
        <ele>2271.9</ele>
        <time>2021-10-10T09:49:05Z</time>
      </trkpt>
      <trkpt lat="46.33168" lon="6.78745">
        <ele>2272.6</ele>
        <time>2021-10-10T09:49:16Z</time>
      </trkpt>
      <trkpt lat="46.33171" lon="6.78739">
        <ele>2273.3</ele>
        <time>2021-10-10T09:49:30Z</time>
      </trkpt>
      <trkpt lat="46.33171" lon="6.78733">
        <ele>2274.4</ele>
        <time>2021-10-10T09:49:50Z</time>
      </trkpt>
      <trkpt lat="46.33169" lon="6.78727">
        <ele>2275.5</ele>
        <time>2021-10-10T09:50:03Z</time>
      </trkpt>
      <trkpt lat="46.33169" lon="6.78721">
        <ele>2276.4</ele>
        <time>2021-10-10T09:50:21Z</time>
      </trkpt>
      <trkpt lat="46.3317" lon="6.78717">
        <ele>2277.1</ele>
        <time>2021-10-10T09:50:37Z</time>
      </trkpt>
      <trkpt lat="46.33171" lon="6.78711">
        <ele>2278.1</ele>
        <time>2021-10-10T09:50:50Z</time>
      </trkpt>
      <trkpt lat="46.33172" lon="6.78707">
        <ele>2278.8</ele>
        <time>2021-10-10T09:51:11Z</time>
      </trkpt>
      <trkpt lat="46.33174" lon="6.78703">
        <ele>2279.5</ele>
        <time>2021-10-10T09:51:36Z</time>
      </trkpt>
      <trkpt lat="46.33174" lon="6.78699">
        <ele>2280.2</ele>
        <time>2021-10-10T09:51:45Z</time>
      </trkpt>
      <trkpt lat="46.33171" lon="6.78694">
        <ele>2280.9</ele>
        <time>2021-10-10T09:52:01Z</time>
      </trkpt>
      <trkpt lat="46.33168" lon="6.78691">
        <ele>2281.3</ele>
        <time>2021-10-10T09:52:09Z</time>
      </trkpt>
      <trkpt lat="46.33163" lon="6.7869">
        <ele>2280.6</ele>
        <time>2021-10-10T09:52:26Z</time>
      </trkpt>
      <trkpt lat="46.33159" lon="6.78689">
        <ele>2280</ele>
        <time>2021-10-10T09:52:32Z</time>
      </trkpt>
      <trkpt lat="46.33155" lon="6.78684">
        <ele>2280.1</ele>
        <time>2021-10-10T09:52:41Z</time>
      </trkpt>
      <trkpt lat="46.33152" lon="6.7868">
        <ele>2280.2</ele>
        <time>2021-10-10T09:52:47Z</time>
      </trkpt>
      <trkpt lat="46.33152" lon="6.78674">
        <ele>2281.3</ele>
        <time>2021-10-10T09:53:03Z</time>
      </trkpt>
      <trkpt lat="46.33155" lon="6.78673">
        <ele>2282</ele>
        <time>2021-10-10T09:53:11Z</time>
      </trkpt>
      <trkpt lat="46.33154" lon="6.78669">
        <ele>2282.5</ele>
        <time>2021-10-10T09:53:19Z</time>
      </trkpt>
      <trkpt lat="46.33158" lon="6.78666">
        <ele>2283.9</ele>
        <time>2021-10-10T09:53:46Z</time>
      </trkpt>
      <trkpt lat="46.33162" lon="6.78666">
        <ele>2284.5</ele>
        <time>2021-10-10T09:54:00Z</time>
      </trkpt>
      <trkpt lat="46.33162" lon="6.78658">
        <ele>2288.5</ele>
        <time>2021-10-10T09:54:13Z</time>
      </trkpt>
      <trkpt lat="46.33163" lon="6.78654">
        <ele>2290.8</ele>
        <time>2021-10-10T09:54:17Z</time>
      </trkpt>
      <trkpt lat="46.33165" lon="6.78648">
        <ele>2294.4</ele>
        <time>2021-10-10T09:54:23Z</time>
      </trkpt>
      <trkpt lat="46.33169" lon="6.78647">
        <ele>2295.5</ele>
        <time>2021-10-10T09:54:36Z</time>
      </trkpt>
      <trkpt lat="46.33173" lon="6.78643">
        <ele>2297.6</ele>
        <time>2021-10-10T09:54:55Z</time>
      </trkpt>
      <trkpt lat="46.33176" lon="6.78645">
        <ele>2296.6</ele>
        <time>2021-10-10T09:55:07Z</time>
      </trkpt>
      <trkpt lat="46.33177" lon="6.7865">
        <ele>2294.3</ele>
        <time>2021-10-10T09:55:17Z</time>
      </trkpt>
      <trkpt lat="46.3318" lon="6.78649">
        <ele>2294.9</ele>
        <time>2021-10-10T09:55:43Z</time>
      </trkpt>
      <trkpt lat="46.33183" lon="6.78645">
        <ele>2296.8</ele>
        <time>2021-10-10T09:55:58Z</time>
      </trkpt>
      <trkpt lat="46.33186" lon="6.78642">
        <ele>2298.1</ele>
        <time>2021-10-10T09:56:14Z</time>
      </trkpt>
      <trkpt lat="46.33188" lon="6.78639">
        <ele>2299.4</ele>
        <time>2021-10-10T09:56:47Z</time>
      </trkpt>
      <trkpt lat="46.33191" lon="6.78637">
        <ele>2300.1</ele>
        <time>2021-10-10T09:57:22Z</time>
      </trkpt>
      <trkpt lat="46.33195" lon="6.78638">
        <ele>2299.7</ele>
        <time>2021-10-10T09:57:37Z</time>
      </trkpt>
      <trkpt lat="46.33199" lon="6.78633">
        <ele>2301.4</ele>
        <time>2021-10-10T09:58:20Z</time>
      </trkpt>
      <trkpt lat="46.33202" lon="6.78634">
        <ele>2300.9</ele>
        <time>2021-10-10T09:58:26Z</time>
      </trkpt>
      <trkpt lat="46.33206" lon="6.78638">
        <ele>2299.5</ele>
        <time>2021-10-10T09:58:37Z</time>
      </trkpt>
      <trkpt lat="46.33206" lon="6.78634">
        <ele>2300.8</ele>
        <time>2021-10-10T09:58:41Z</time>
      </trkpt>
      <trkpt lat="46.33208" lon="6.78629">
        <ele>2302.3</ele>
        <time>2021-10-10T09:58:50Z</time>
      </trkpt>
      <trkpt lat="46.33212" lon="6.78626">
        <ele>2302.9</ele>
        <time>2021-10-10T09:59:07Z</time>
      </trkpt>
      <trkpt lat="46.33217" lon="6.78629">
        <ele>2301.7</ele>
        <time>2021-10-10T09:59:33Z</time>
      </trkpt>
      <trkpt lat="46.33218" lon="6.78631">
        <ele>2301.1</ele>
        <time>2021-10-10T09:59:41Z</time>
      </trkpt>
      <trkpt lat="46.33222" lon="6.78627">
        <ele>2301.9</ele>
        <time>2021-10-10T10:00:01Z</time>
      </trkpt>
      <trkpt lat="46.33226" lon="6.78624">
        <ele>2302.2</ele>
        <time>2021-10-10T10:00:14Z</time>
      </trkpt>
      <trkpt lat="46.33229" lon="6.78627">
        <ele>2301.4</ele>
        <time>2021-10-10T10:00:24Z</time>
      </trkpt>
      <trkpt lat="46.33234" lon="6.78631">
        <ele>2300.3</ele>
        <time>2021-10-10T10:00:38Z</time>
      </trkpt>
      <trkpt lat="46.33238" lon="6.78634">
        <ele>2299.6</ele>
        <time>2021-10-10T10:00:51Z</time>
      </trkpt>
      <trkpt lat="46.3324" lon="6.78634">
        <ele>2299.5</ele>
        <time>2021-10-10T10:00:59Z</time>
      </trkpt>
      <trkpt lat="46.33244" lon="6.78634">
        <ele>2299.4</ele>
        <time>2021-10-10T10:01:13Z</time>
      </trkpt>
      <trkpt lat="46.33247" lon="6.78628">
        <ele>2299.9</ele>
        <time>2021-10-10T10:01:24Z</time>
      </trkpt>
      <trkpt lat="46.33247" lon="6.78622">
        <ele>2300.6</ele>
        <time>2021-10-10T10:01:31Z</time>
      </trkpt>
      <trkpt lat="46.33249" lon="6.78616">
        <ele>2301</ele>
        <time>2021-10-10T10:01:42Z</time>
      </trkpt>
      <trkpt lat="46.3325" lon="6.78609">
        <ele>2301.5</ele>
        <time>2021-10-10T10:01:51Z</time>
      </trkpt>
      <trkpt lat="46.3325" lon="6.78603">
        <ele>2302.1</ele>
        <time>2021-10-10T10:01:59Z</time>
      </trkpt>
      <trkpt lat="46.33252" lon="6.78597">
        <ele>2301.8</ele>
        <time>2021-10-10T10:02:09Z</time>
      </trkpt>
      <trkpt lat="46.33252" lon="6.78591">
        <ele>2302.5</ele>
        <time>2021-10-10T10:02:18Z</time>
      </trkpt>
      <trkpt lat="46.33251" lon="6.78584">
        <ele>2303.6</ele>
        <time>2021-10-10T10:02:26Z</time>
      </trkpt>
      <trkpt lat="46.3325" lon="6.78578">
        <ele>2304.7</ele>
        <time>2021-10-10T10:02:34Z</time>
      </trkpt>
      <trkpt lat="46.33251" lon="6.78571">
        <ele>2305.3</ele>
        <time>2021-10-10T10:02:45Z</time>
      </trkpt>
      <trkpt lat="46.33253" lon="6.78567">
        <ele>2305.2</ele>
        <time>2021-10-10T10:02:56Z</time>
      </trkpt>
      <trkpt lat="46.33251" lon="6.78562">
        <ele>2306.5</ele>
        <time>2021-10-10T10:03:04Z</time>
      </trkpt>
      <trkpt lat="46.3325" lon="6.78556">
        <ele>2307.6</ele>
        <time>2021-10-10T10:03:13Z</time>
      </trkpt>
      <trkpt lat="46.33249" lon="6.78549">
        <ele>2308.9</ele>
        <time>2021-10-10T10:03:24Z</time>
      </trkpt>
      <trkpt lat="46.33249" lon="6.78545">
        <ele>2309.4</ele>
        <time>2021-10-10T10:03:31Z</time>
      </trkpt>
      <trkpt lat="46.33247" lon="6.78539">
        <ele>2311</ele>
        <time>2021-10-10T10:03:38Z</time>
      </trkpt>
      <trkpt lat="46.33247" lon="6.78534">
        <ele>2311.7</ele>
        <time>2021-10-10T10:03:48Z</time>
      </trkpt>
      <trkpt lat="46.33251" lon="6.78535">
        <ele>2310.2</ele>
        <time>2021-10-10T10:03:59Z</time>
      </trkpt>
      <trkpt lat="46.33253" lon="6.78529">
        <ele>2310.6</ele>
        <time>2021-10-10T10:04:12Z</time>
      </trkpt>
      <trkpt lat="46.33253" lon="6.78524">
        <ele>2311.3</ele>
        <time>2021-10-10T10:04:23Z</time>
      </trkpt>
      <trkpt lat="46.33253" lon="6.78518">
        <ele>2312.2</ele>
        <time>2021-10-10T10:04:29Z</time>
      </trkpt>
      <trkpt lat="46.33253" lon="6.78513">
        <ele>2312.9</ele>
        <time>2021-10-10T10:04:37Z</time>
      </trkpt>
      <trkpt lat="46.33252" lon="6.78507">
        <ele>2313.8</ele>
        <time>2021-10-10T10:04:45Z</time>
      </trkpt>
      <trkpt lat="46.33251" lon="6.785">
        <ele>2314.9</ele>
        <time>2021-10-10T10:04:54Z</time>
      </trkpt>
      <trkpt lat="46.33249" lon="6.78495">
        <ele>2316.3</ele>
        <time>2021-10-10T10:05:00Z</time>
      </trkpt>
      <trkpt lat="46.33249" lon="6.78488">
        <ele>2317.6</ele>
        <time>2021-10-10T10:05:08Z</time>
      </trkpt>
      <trkpt lat="46.33249" lon="6.78483">
        <ele>2318.5</ele>
        <time>2021-10-10T10:05:19Z</time>
      </trkpt>
      <trkpt lat="46.33253" lon="6.78483">
        <ele>2317.3</ele>
        <time>2021-10-10T10:05:28Z</time>
      </trkpt>
      <trkpt lat="46.33255" lon="6.78479">
        <ele>2317.4</ele>
        <time>2021-10-10T10:05:41Z</time>
      </trkpt>
      <trkpt lat="46.33255" lon="6.78474">
        <ele>2318.1</ele>
        <time>2021-10-10T10:05:53Z</time>
      </trkpt>
      <trkpt lat="46.33255" lon="6.78467">
        <ele>2319</ele>
        <time>2021-10-10T10:06:05Z</time>
      </trkpt>
      <trkpt lat="46.33258" lon="6.78464">
        <ele>2318.2</ele>
        <time>2021-10-10T10:06:20Z</time>
      </trkpt>
      <trkpt lat="46.33262" lon="6.78461">
        <ele>2316.8</ele>
        <time>2021-10-10T10:06:30Z</time>
      </trkpt>
      <trkpt lat="46.3326" lon="6.78463">
        <ele>2428</ele>
        <time>2021-10-10T10:32:46Z</time>
      </trkpt>
      <trkpt lat="46.33259" lon="6.7846">
        <ele>2431.8</ele>
        <time>2021-10-10T10:33:04Z</time>
      </trkpt>
      <trkpt lat="46.33257" lon="6.78465">
        <ele>2434.6</ele>
        <time>2021-10-10T10:33:38Z</time>
      </trkpt>
      <trkpt lat="46.33255" lon="6.78471">
        <ele>2432.8</ele>
        <time>2021-10-10T10:33:51Z</time>
      </trkpt>
      <trkpt lat="46.33255" lon="6.78476">
        <ele>2431.8</ele>
        <time>2021-10-10T10:33:58Z</time>
      </trkpt>
      <trkpt lat="46.33254" lon="6.78484">
        <ele>2431</ele>
        <time>2021-10-10T10:34:10Z</time>
      </trkpt>
      <trkpt lat="46.33255" lon="6.7849">
        <ele>2428.4</ele>
        <time>2021-10-10T10:34:19Z</time>
      </trkpt>
      <trkpt lat="46.3325" lon="6.78491">
        <ele>2429.4</ele>
        <time>2021-10-10T10:34:34Z</time>
      </trkpt>
      <trkpt lat="46.33247" lon="6.78492">
        <ele>2426.6</ele>
        <time>2021-10-10T10:34:44Z</time>
      </trkpt>
      <trkpt lat="46.33243" lon="6.78492">
        <ele>2423.6</ele>
        <time>2021-10-10T10:34:51Z</time>
      </trkpt>
      <trkpt lat="46.33243" lon="6.78498">
        <ele>2424.6</ele>
        <time>2021-10-10T10:34:57Z</time>
      </trkpt>
      <trkpt lat="46.33242" lon="6.78504">
        <ele>2421.4</ele>
        <time>2021-10-10T10:35:08Z</time>
      </trkpt>
      <trkpt lat="46.33239" lon="6.78506">
        <ele>2417.6</ele>
        <time>2021-10-10T10:35:15Z</time>
      </trkpt>
      <trkpt lat="46.33234" lon="6.78507">
        <ele>2416</ele>
        <time>2021-10-10T10:35:25Z</time>
      </trkpt>
      <trkpt lat="46.3323" lon="6.78506">
        <ele>2415.2</ele>
        <time>2021-10-10T10:36:06Z</time>
      </trkpt>
      <trkpt lat="46.33225" lon="6.78502">
        <ele>2417</ele>
        <time>2021-10-10T10:36:12Z</time>
      </trkpt>
      <trkpt lat="46.33222" lon="6.78497">
        <ele>2413</ele>
        <time>2021-10-10T10:36:17Z</time>
      </trkpt>
      <trkpt lat="46.33221" lon="6.78493">
        <ele>2416.2</ele>
        <time>2021-10-10T10:36:21Z</time>
      </trkpt>
      <trkpt lat="46.33218" lon="6.78489">
        <ele>2414.2</ele>
        <time>2021-10-10T10:36:26Z</time>
      </trkpt>
      <trkpt lat="46.33217" lon="6.78482">
        <ele>2415.6</ele>
        <time>2021-10-10T10:36:32Z</time>
      </trkpt>
      <trkpt lat="46.33216" lon="6.78476">
        <ele>2416.6</ele>
        <time>2021-10-10T10:36:38Z</time>
      </trkpt>
      <trkpt lat="46.33213" lon="6.78471">
        <ele>2413.4</ele>
        <time>2021-10-10T10:36:50Z</time>
      </trkpt>
      <trkpt lat="46.33214" lon="6.78468">
        <ele>2408.6</ele>
        <time>2021-10-10T10:37:05Z</time>
      </trkpt>
      <trkpt lat="46.33216" lon="6.78468">
        <ele>2413</ele>
        <time>2021-10-10T10:37:13Z</time>
      </trkpt>
      <trkpt lat="46.33218" lon="6.78473">
        <ele>2416.6</ele>
        <time>2021-10-10T10:37:40Z</time>
      </trkpt>
      <trkpt lat="46.33218" lon="6.78478">
        <ele>2414</ele>
        <time>2021-10-10T10:39:28Z</time>
      </trkpt>
      <trkpt lat="46.33216" lon="6.78484">
        <ele>2413.4</ele>
        <time>2021-10-10T10:39:50Z</time>
      </trkpt>
      <trkpt lat="46.33213" lon="6.78488">
        <ele>2411.6</ele>
        <time>2021-10-10T10:39:59Z</time>
      </trkpt>
      <trkpt lat="46.33209" lon="6.78492">
        <ele>2409.2</ele>
        <time>2021-10-10T10:40:10Z</time>
      </trkpt>
      <trkpt lat="46.33205" lon="6.78495">
        <ele>2407.6</ele>
        <time>2021-10-10T10:40:19Z</time>
      </trkpt>
      <trkpt lat="46.33203" lon="6.78502">
        <ele>2407.4</ele>
        <time>2021-10-10T10:40:27Z</time>
      </trkpt>
      <trkpt lat="46.33203" lon="6.78507">
        <ele>2403</ele>
        <time>2021-10-10T10:40:32Z</time>
      </trkpt>
      <trkpt lat="46.33198" lon="6.78506">
        <ele>2402</ele>
        <time>2021-10-10T10:40:43Z</time>
      </trkpt>
      <trkpt lat="46.33195" lon="6.78507">
        <ele>2398.8</ele>
        <time>2021-10-10T10:40:50Z</time>
      </trkpt>
      <trkpt lat="46.33192" lon="6.78512">
        <ele>2396.2</ele>
        <time>2021-10-10T10:41:04Z</time>
      </trkpt>
      <trkpt lat="46.33189" lon="6.78511">
        <ele>2399</ele>
        <time>2021-10-10T10:41:12Z</time>
      </trkpt>
      <trkpt lat="46.33186" lon="6.78508">
        <ele>2396</ele>
        <time>2021-10-10T10:41:17Z</time>
      </trkpt>
      <trkpt lat="46.33185" lon="6.78513">
        <ele>2393.4</ele>
        <time>2021-10-10T10:41:22Z</time>
      </trkpt>
      <trkpt lat="46.33185" lon="6.7852">
        <ele>2393.8</ele>
        <time>2021-10-10T10:41:26Z</time>
      </trkpt>
      <trkpt lat="46.33182" lon="6.78524">
        <ele>2393</ele>
        <time>2021-10-10T10:41:34Z</time>
      </trkpt>
      <trkpt lat="46.33181" lon="6.78528">
        <ele>2388.8</ele>
        <time>2021-10-10T10:41:38Z</time>
      </trkpt>
      <trkpt lat="46.33178" lon="6.78528">
        <ele>2393</ele>
        <time>2021-10-10T10:41:42Z</time>
      </trkpt>
      <trkpt lat="46.33173" lon="6.78523">
        <ele>2389.4</ele>
        <time>2021-10-10T10:41:47Z</time>
      </trkpt>
      <trkpt lat="46.33172" lon="6.78517">
        <ele>2387.4</ele>
        <time>2021-10-10T10:42:01Z</time>
      </trkpt>
      <trkpt lat="46.33172" lon="6.7851">
        <ele>2386.4</ele>
        <time>2021-10-10T10:42:05Z</time>
      </trkpt>
      <trkpt lat="46.33171" lon="6.78504">
        <ele>2387.4</ele>
        <time>2021-10-10T10:42:09Z</time>
      </trkpt>
      <trkpt lat="46.3317" lon="6.78498">
        <ele>2384</ele>
        <time>2021-10-10T10:42:13Z</time>
      </trkpt>
      <trkpt lat="46.33171" lon="6.78491">
        <ele>2385.6</ele>
        <time>2021-10-10T10:42:18Z</time>
      </trkpt>
      <trkpt lat="46.3317" lon="6.78486">
        <ele>2383.4</ele>
        <time>2021-10-10T10:42:24Z</time>
      </trkpt>
      <trkpt lat="46.33169" lon="6.78483">
        <ele>2379.2</ele>
        <time>2021-10-10T10:42:28Z</time>
      </trkpt>
      <trkpt lat="46.33166" lon="6.78476">
        <ele>2379</ele>
        <time>2021-10-10T10:42:38Z</time>
      </trkpt>
      <trkpt lat="46.33164" lon="6.78469">
        <ele>2377</ele>
        <time>2021-10-10T10:42:44Z</time>
      </trkpt>
      <trkpt lat="46.33162" lon="6.78463">
        <ele>2379</ele>
        <time>2021-10-10T10:42:53Z</time>
      </trkpt>
      <trkpt lat="46.33159" lon="6.78459">
        <ele>2376.2</ele>
        <time>2021-10-10T10:43:00Z</time>
      </trkpt>
      <trkpt lat="46.33156" lon="6.78454">
        <ele>2378</ele>
        <time>2021-10-10T10:43:05Z</time>
      </trkpt>
      <trkpt lat="46.33154" lon="6.78452">
        <ele>2373.4</ele>
        <time>2021-10-10T10:43:08Z</time>
      </trkpt>
      <trkpt lat="46.3315" lon="6.78446">
        <ele>2373.2</ele>
        <time>2021-10-10T10:43:13Z</time>
      </trkpt>
      <trkpt lat="46.33148" lon="6.78441">
        <ele>2374.2</ele>
        <time>2021-10-10T10:43:16Z</time>
      </trkpt>
      <trkpt lat="46.33144" lon="6.78435">
        <ele>2374.2</ele>
        <time>2021-10-10T10:43:22Z</time>
      </trkpt>
      <trkpt lat="46.33143" lon="6.7843">
        <ele>2372</ele>
        <time>2021-10-10T10:43:52Z</time>
      </trkpt>
      <trkpt lat="46.33139" lon="6.78426">
        <ele>2371</ele>
        <time>2021-10-10T10:43:57Z</time>
      </trkpt>
      <trkpt lat="46.33134" lon="6.78423">
        <ele>2371.6</ele>
        <time>2021-10-10T10:44:01Z</time>
      </trkpt>
      <trkpt lat="46.33131" lon="6.78421">
        <ele>2370</ele>
        <time>2021-10-10T10:44:05Z</time>
      </trkpt>
      <trkpt lat="46.33126" lon="6.78417">
        <ele>2370.8</ele>
        <time>2021-10-10T10:44:10Z</time>
      </trkpt>
      <trkpt lat="46.33122" lon="6.78415">
        <ele>2373</ele>
        <time>2021-10-10T10:44:15Z</time>
      </trkpt>
      <trkpt lat="46.33118" lon="6.78414">
        <ele>2373.8</ele>
        <time>2021-10-10T10:44:22Z</time>
      </trkpt>
      <trkpt lat="46.33115" lon="6.78411">
        <ele>2377.6</ele>
        <time>2021-10-10T10:44:29Z</time>
      </trkpt>
      <trkpt lat="46.33111" lon="6.78408">
        <ele>2375.8</ele>
        <time>2021-10-10T10:44:42Z</time>
      </trkpt>
      <trkpt lat="46.33111" lon="6.78405">
        <ele>2380.6</ele>
        <time>2021-10-10T10:44:49Z</time>
      </trkpt>
      <trkpt lat="46.33114" lon="6.78401">
        <ele>2383</ele>
        <time>2021-10-10T10:45:05Z</time>
      </trkpt>
      <trkpt lat="46.33111" lon="6.78396">
        <ele>2380.8</ele>
        <time>2021-10-10T10:45:12Z</time>
      </trkpt>
      <trkpt lat="46.33106" lon="6.78397">
        <ele>2382.8</ele>
        <time>2021-10-10T10:45:37Z</time>
      </trkpt>
      <trkpt lat="46.33101" lon="6.78398">
        <ele>2384.2</ele>
        <time>2021-10-10T10:45:42Z</time>
      </trkpt>
      <trkpt lat="46.33097" lon="6.78397">
        <ele>2381.8</ele>
        <time>2021-10-10T10:45:51Z</time>
      </trkpt>
      <trkpt lat="46.33093" lon="6.78395">
        <ele>2384.6</ele>
        <time>2021-10-10T10:46:01Z</time>
      </trkpt>
      <trkpt lat="46.33091" lon="6.7839">
        <ele>2387.2</ele>
        <time>2021-10-10T10:46:19Z</time>
      </trkpt>
      <trkpt lat="46.33089" lon="6.78386">
        <ele>2388.4</ele>
        <time>2021-10-10T10:46:26Z</time>
      </trkpt>
      <trkpt lat="46.33088" lon="6.78382">
        <ele>2392.6</ele>
        <time>2021-10-10T10:46:33Z</time>
      </trkpt>
      <trkpt lat="46.33085" lon="6.78376">
        <ele>2392.8</ele>
        <time>2021-10-10T10:46:43Z</time>
      </trkpt>
      <trkpt lat="46.33082" lon="6.78371">
        <ele>2393.8</ele>
        <time>2021-10-10T10:46:59Z</time>
      </trkpt>
      <trkpt lat="46.33079" lon="6.78366">
        <ele>2393.4</ele>
        <time>2021-10-10T10:47:07Z</time>
      </trkpt>
      <trkpt lat="46.33075" lon="6.78361">
        <ele>2393.2</ele>
        <time>2021-10-10T10:47:22Z</time>
      </trkpt>
      <trkpt lat="46.33072" lon="6.78357">
        <ele>2389.8</ele>
        <time>2021-10-10T10:47:31Z</time>
      </trkpt>
      <trkpt lat="46.3307" lon="6.78352">
        <ele>2393</ele>
        <time>2021-10-10T10:47:45Z</time>
      </trkpt>
      <trkpt lat="46.33067" lon="6.7835">
        <ele>2397.2</ele>
        <time>2021-10-10T10:47:55Z</time>
      </trkpt>
      <trkpt lat="46.33065" lon="6.78345">
        <ele>2395.4</ele>
        <time>2021-10-10T10:48:02Z</time>
      </trkpt>
      <trkpt lat="46.33064" lon="6.7834">
        <ele>2398.8</ele>
        <time>2021-10-10T10:48:11Z</time>
      </trkpt>
      <trkpt lat="46.33063" lon="6.78338">
        <ele>2393.8</ele>
        <time>2021-10-10T10:48:41Z</time>
      </trkpt>
      <trkpt lat="46.33061" lon="6.78333">
        <ele>2396.4</ele>
        <time>2021-10-10T10:48:49Z</time>
      </trkpt>
      <trkpt lat="46.33057" lon="6.78333">
        <ele>2396.6</ele>
        <time>2021-10-10T10:50:02Z</time>
      </trkpt>
      <trkpt lat="46.33053" lon="6.78333">
        <ele>2396</ele>
        <time>2021-10-10T10:50:57Z</time>
      </trkpt>
      <trkpt lat="46.33048" lon="6.7833">
        <ele>2397.2</ele>
        <time>2021-10-10T10:51:09Z</time>
      </trkpt>
      <trkpt lat="46.33045" lon="6.78326">
        <ele>2393.6</ele>
        <time>2021-10-10T10:51:14Z</time>
      </trkpt>
      <trkpt lat="46.33042" lon="6.78322">
        <ele>2395.2</ele>
        <time>2021-10-10T10:51:19Z</time>
      </trkpt>
      <trkpt lat="46.33039" lon="6.78316">
        <ele>2396</ele>
        <time>2021-10-10T10:51:25Z</time>
      </trkpt>
      <trkpt lat="46.33035" lon="6.78316">
        <ele>2392.8</ele>
        <time>2021-10-10T10:52:04Z</time>
      </trkpt>
      <trkpt lat="46.33031" lon="6.78317">
        <ele>2395.4</ele>
        <time>2021-10-10T10:52:41Z</time>
      </trkpt>
      <trkpt lat="46.33027" lon="6.78314">
        <ele>2394.4</ele>
        <time>2021-10-10T10:52:52Z</time>
      </trkpt>
      <trkpt lat="46.33023" lon="6.78312">
        <ele>2394.8</ele>
        <time>2021-10-10T10:53:02Z</time>
      </trkpt>
      <trkpt lat="46.33021" lon="6.78306">
        <ele>2395</ele>
        <time>2021-10-10T10:53:11Z</time>
      </trkpt>
      <trkpt lat="46.3302" lon="6.78299">
        <ele>2397.4</ele>
        <time>2021-10-10T10:53:21Z</time>
      </trkpt>
      <trkpt lat="46.33016" lon="6.78296">
        <ele>2399.2</ele>
        <time>2021-10-10T10:53:46Z</time>
      </trkpt>
      <trkpt lat="46.33013" lon="6.78292">
        <ele>2401</ele>
        <time>2021-10-10T10:53:52Z</time>
      </trkpt>
      <trkpt lat="46.33012" lon="6.78286">
        <ele>2399.8</ele>
        <time>2021-10-10T10:53:59Z</time>
      </trkpt>
      <trkpt lat="46.3301" lon="6.7828">
        <ele>2402</ele>
        <time>2021-10-10T10:54:05Z</time>
      </trkpt>
      <trkpt lat="46.33006" lon="6.78278">
        <ele>2398.8</ele>
        <time>2021-10-10T10:54:12Z</time>
      </trkpt>
      <trkpt lat="46.33002" lon="6.78274">
        <ele>2398</ele>
        <time>2021-10-10T10:54:19Z</time>
      </trkpt>
      <trkpt lat="46.32998" lon="6.78269">
        <ele>2397</ele>
        <time>2021-10-10T10:54:27Z</time>
      </trkpt>
      <trkpt lat="46.32996" lon="6.78262">
        <ele>2397.8</ele>
        <time>2021-10-10T10:54:33Z</time>
      </trkpt>
      <trkpt lat="46.32993" lon="6.78258">
        <ele>2398</ele>
        <time>2021-10-10T10:54:38Z</time>
      </trkpt>
      <trkpt lat="46.32989" lon="6.78253">
        <ele>2397.8</ele>
        <time>2021-10-10T10:54:52Z</time>
      </trkpt>
      <trkpt lat="46.32988" lon="6.78247">
        <ele>2399.8</ele>
        <time>2021-10-10T10:55:00Z</time>
      </trkpt>
      <trkpt lat="46.32986" lon="6.78241">
        <ele>2401</ele>
        <time>2021-10-10T10:55:07Z</time>
      </trkpt>
      <trkpt lat="46.32983" lon="6.78237">
        <ele>2399.2</ele>
        <time>2021-10-10T10:55:20Z</time>
      </trkpt>
      <trkpt lat="46.32979" lon="6.78232">
        <ele>2399.4</ele>
        <time>2021-10-10T10:55:47Z</time>
      </trkpt>
      <trkpt lat="46.32976" lon="6.78228">
        <ele>2397.6</ele>
        <time>2021-10-10T10:56:07Z</time>
      </trkpt>
      <trkpt lat="46.32971" lon="6.78228">
        <ele>2395.6</ele>
        <time>2021-10-10T10:56:40Z</time>
      </trkpt>
      <trkpt lat="46.32968" lon="6.78228">
        <ele>2391.6</ele>
        <time>2021-10-10T10:57:05Z</time>
      </trkpt>
      <trkpt lat="46.32964" lon="6.78232">
        <ele>2392.8</ele>
        <time>2021-10-10T10:57:30Z</time>
      </trkpt>
      <trkpt lat="46.3296" lon="6.78228">
        <ele>2394</ele>
        <time>2021-10-10T10:57:37Z</time>
      </trkpt>
      <trkpt lat="46.32957" lon="6.78223">
        <ele>2395.4</ele>
        <time>2021-10-10T10:57:49Z</time>
      </trkpt>
      <trkpt lat="46.32955" lon="6.78218">
        <ele>2399.8</ele>
        <time>2021-10-10T10:57:54Z</time>
      </trkpt>
      <trkpt lat="46.32954" lon="6.78217">
        <ele>2394.6</ele>
        <time>2021-10-10T10:57:55Z</time>
      </trkpt>
      <trkpt lat="46.32951" lon="6.78213">
        <ele>2394.2</ele>
        <time>2021-10-10T10:58:00Z</time>
      </trkpt>
      <trkpt lat="46.32948" lon="6.78209">
        <ele>2392.2</ele>
        <time>2021-10-10T10:58:11Z</time>
      </trkpt>
      <trkpt lat="46.32948" lon="6.78205">
        <ele>2396.4</ele>
        <time>2021-10-10T10:58:19Z</time>
      </trkpt>
      <trkpt lat="46.32948" lon="6.78199">
        <ele>2395.6</ele>
        <time>2021-10-10T10:58:29Z</time>
      </trkpt>
      <trkpt lat="46.3295" lon="6.78192">
        <ele>2397</ele>
        <time>2021-10-10T10:58:45Z</time>
      </trkpt>
      <trkpt lat="46.32949" lon="6.78185">
        <ele>2398.2</ele>
        <time>2021-10-10T10:59:00Z</time>
      </trkpt>
      <trkpt lat="46.3295" lon="6.78181">
        <ele>2402.6</ele>
        <time>2021-10-10T10:59:08Z</time>
      </trkpt>
      <trkpt lat="46.32949" lon="6.78176">
        <ele>2405.6</ele>
        <time>2021-10-10T10:59:16Z</time>
      </trkpt>
      <trkpt lat="46.32949" lon="6.78168">
        <ele>2403.2</ele>
        <time>2021-10-10T10:59:22Z</time>
      </trkpt>
      <trkpt lat="46.32949" lon="6.78165">
        <ele>2407.6</ele>
        <time>2021-10-10T10:59:26Z</time>
      </trkpt>
      <trkpt lat="46.32947" lon="6.78158">
        <ele>2407.2</ele>
        <time>2021-10-10T10:59:38Z</time>
      </trkpt>
      <trkpt lat="46.32944" lon="6.78161">
        <ele>2407</ele>
        <time>2021-10-10T11:00:24Z</time>
      </trkpt>
      <trkpt lat="46.32944" lon="6.78166">
        <ele>2404.4</ele>
        <time>2021-10-10T11:02:20Z</time>
      </trkpt>
      <trkpt lat="46.32947" lon="6.78171">
        <ele>2407</ele>
        <time>2021-10-10T11:02:30Z</time>
      </trkpt>
      <trkpt lat="46.32949" lon="6.78177">
        <ele>2406.4</ele>
        <time>2021-10-10T11:02:38Z</time>
      </trkpt>
      <trkpt lat="46.32948" lon="6.78182">
        <ele>2402.6</ele>
        <time>2021-10-10T11:02:47Z</time>
      </trkpt>
      <trkpt lat="46.32947" lon="6.78188">
        <ele>2402.6</ele>
        <time>2021-10-10T11:03:10Z</time>
      </trkpt>
      <trkpt lat="46.32946" lon="6.78193">
        <ele>2398.2</ele>
        <time>2021-10-10T11:03:20Z</time>
      </trkpt>
      <trkpt lat="46.32944" lon="6.78199">
        <ele>2400.4</ele>
        <time>2021-10-10T11:03:29Z</time>
      </trkpt>
      <trkpt lat="46.32943" lon="6.78205">
        <ele>2395.6</ele>
        <time>2021-10-10T11:03:35Z</time>
      </trkpt>
      <trkpt lat="46.32942" lon="6.78212">
        <ele>2393.6</ele>
        <time>2021-10-10T11:03:43Z</time>
      </trkpt>
      <trkpt lat="46.32942" lon="6.78218">
        <ele>2393</ele>
        <time>2021-10-10T11:03:50Z</time>
      </trkpt>
      <trkpt lat="46.32942" lon="6.7822">
        <ele>2388.6</ele>
        <time>2021-10-10T11:03:52Z</time>
      </trkpt>
      <trkpt lat="46.32942" lon="6.78227">
        <ele>2386.4</ele>
        <time>2021-10-10T11:04:01Z</time>
      </trkpt>
      <trkpt lat="46.3294" lon="6.78232">
        <ele>2383.4</ele>
        <time>2021-10-10T11:04:41Z</time>
      </trkpt>
      <trkpt lat="46.32937" lon="6.78239">
        <ele>2383</ele>
        <time>2021-10-10T11:04:50Z</time>
      </trkpt>
      <trkpt lat="46.32937" lon="6.78245">
        <ele>2379.6</ele>
        <time>2021-10-10T11:04:55Z</time>
      </trkpt>
      <trkpt lat="46.32933" lon="6.78246">
        <ele>2374.8</ele>
        <time>2021-10-10T11:05:15Z</time>
      </trkpt>
      <trkpt lat="46.3293" lon="6.78249">
        <ele>2373.4</ele>
        <time>2021-10-10T11:05:27Z</time>
      </trkpt>
      <trkpt lat="46.32926" lon="6.78253">
        <ele>2371</ele>
        <time>2021-10-10T11:05:34Z</time>
      </trkpt>
      <trkpt lat="46.32924" lon="6.78258">
        <ele>2368.4</ele>
        <time>2021-10-10T11:05:40Z</time>
      </trkpt>
      <trkpt lat="46.32921" lon="6.78263">
        <ele>2367.4</ele>
        <time>2021-10-10T11:05:54Z</time>
      </trkpt>
      <trkpt lat="46.32919" lon="6.78268">
        <ele>2362.8</ele>
        <time>2021-10-10T11:06:01Z</time>
      </trkpt>
      <trkpt lat="46.32914" lon="6.7827">
        <ele>2358.2</ele>
        <time>2021-10-10T11:06:10Z</time>
      </trkpt>
      <trkpt lat="46.32911" lon="6.78271">
        <ele>2355.2</ele>
        <time>2021-10-10T11:06:17Z</time>
      </trkpt>
      <trkpt lat="46.32909" lon="6.78273">
        <ele>2350.4</ele>
        <time>2021-10-10T11:06:20Z</time>
      </trkpt>
      <trkpt lat="46.32909" lon="6.78274">
        <ele>2355</ele>
        <time>2021-10-10T11:06:21Z</time>
      </trkpt>
      <trkpt lat="46.32907" lon="6.78279">
        <ele>2351</ele>
        <time>2021-10-10T11:06:28Z</time>
      </trkpt>
      <trkpt lat="46.32904" lon="6.78283">
        <ele>2349.6</ele>
        <time>2021-10-10T11:06:36Z</time>
      </trkpt>
      <trkpt lat="46.329" lon="6.78286">
        <ele>2348</ele>
        <time>2021-10-10T11:06:44Z</time>
      </trkpt>
      <trkpt lat="46.32897" lon="6.78291">
        <ele>2346.8</ele>
        <time>2021-10-10T11:06:55Z</time>
      </trkpt>
      <trkpt lat="46.32895" lon="6.78295">
        <ele>2343</ele>
        <time>2021-10-10T11:07:05Z</time>
      </trkpt>
      <trkpt lat="46.32891" lon="6.78299">
        <ele>2342.6</ele>
        <time>2021-10-10T11:07:28Z</time>
      </trkpt>
      <trkpt lat="46.32886" lon="6.78302">
        <ele>2341.2</ele>
        <time>2021-10-10T11:07:35Z</time>
      </trkpt>
      <trkpt lat="46.32883" lon="6.783">
        <ele>2338</ele>
        <time>2021-10-10T11:09:30Z</time>
      </trkpt>
      <trkpt lat="46.32886" lon="6.78294">
        <ele>2338.6</ele>
        <time>2021-10-10T11:09:36Z</time>
      </trkpt>
      <trkpt lat="46.32883" lon="6.78288">
        <ele>2338.8</ele>
        <time>2021-10-10T11:09:42Z</time>
      </trkpt>
      <trkpt lat="46.3288" lon="6.78283">
        <ele>2336</ele>
        <time>2021-10-10T11:09:51Z</time>
      </trkpt>
      <trkpt lat="46.32881" lon="6.78276">
        <ele>2338.4</ele>
        <time>2021-10-10T11:10:08Z</time>
      </trkpt>
      <trkpt lat="46.32884" lon="6.78272">
        <ele>2335.6</ele>
        <time>2021-10-10T11:10:14Z</time>
      </trkpt>
      <trkpt lat="46.32887" lon="6.78266">
        <ele>2336.4</ele>
        <time>2021-10-10T11:10:18Z</time>
      </trkpt>
      <trkpt lat="46.32888" lon="6.7826">
        <ele>2333.2</ele>
        <time>2021-10-10T11:10:22Z</time>
      </trkpt>
      <trkpt lat="46.3289" lon="6.78255">
        <ele>2330.8</ele>
        <time>2021-10-10T11:10:49Z</time>
      </trkpt>
      <trkpt lat="46.32888" lon="6.7825">
        <ele>2327.2</ele>
        <time>2021-10-10T11:11:26Z</time>
      </trkpt>
      <trkpt lat="46.32891" lon="6.78243">
        <ele>2327.2</ele>
        <time>2021-10-10T11:11:40Z</time>
      </trkpt>
      <trkpt lat="46.32893" lon="6.78238">
        <ele>2328.4</ele>
        <time>2021-10-10T11:12:11Z</time>
      </trkpt>
      <trkpt lat="46.32893" lon="6.78231">
        <ele>2326.6</ele>
        <time>2021-10-10T11:12:21Z</time>
      </trkpt>
      <trkpt lat="46.32891" lon="6.78224">
        <ele>2323.8</ele>
        <time>2021-10-10T11:12:26Z</time>
      </trkpt>
      <trkpt lat="46.32891" lon="6.78216">
        <ele>2322.2</ele>
        <time>2021-10-10T11:12:30Z</time>
      </trkpt>
      <trkpt lat="46.32888" lon="6.7821">
        <ele>2322.6</ele>
        <time>2021-10-10T11:12:34Z</time>
      </trkpt>
      <trkpt lat="46.32888" lon="6.78204">
        <ele>2326.6</ele>
        <time>2021-10-10T11:12:38Z</time>
      </trkpt>
      <trkpt lat="46.32887" lon="6.78197">
        <ele>2327.6</ele>
        <time>2021-10-10T11:12:42Z</time>
      </trkpt>
      <trkpt lat="46.32884" lon="6.7819">
        <ele>2329</ele>
        <time>2021-10-10T11:12:46Z</time>
      </trkpt>
      <trkpt lat="46.32882" lon="6.78183">
        <ele>2327.4</ele>
        <time>2021-10-10T11:12:50Z</time>
      </trkpt>
      <trkpt lat="46.32881" lon="6.78176">
        <ele>2329.4</ele>
        <time>2021-10-10T11:12:54Z</time>
      </trkpt>
      <trkpt lat="46.32879" lon="6.78168">
        <ele>2329</ele>
        <time>2021-10-10T11:12:58Z</time>
      </trkpt>
      <trkpt lat="46.32878" lon="6.78161">
        <ele>2327.8</ele>
        <time>2021-10-10T11:13:04Z</time>
      </trkpt>
      <trkpt lat="46.32878" lon="6.78155">
        <ele>2329.8</ele>
        <time>2021-10-10T11:13:08Z</time>
      </trkpt>
      <trkpt lat="46.32878" lon="6.78148">
        <ele>2329.4</ele>
        <time>2021-10-10T11:13:14Z</time>
      </trkpt>
      <trkpt lat="46.32877" lon="6.78142">
        <ele>2329.8</ele>
        <time>2021-10-10T11:13:21Z</time>
      </trkpt>
      <trkpt lat="46.32875" lon="6.78135">
        <ele>2330</ele>
        <time>2021-10-10T11:13:25Z</time>
      </trkpt>
      <trkpt lat="46.32874" lon="6.78128">
        <ele>2328.2</ele>
        <time>2021-10-10T11:13:29Z</time>
      </trkpt>
      <trkpt lat="46.32872" lon="6.78123">
        <ele>2330.4</ele>
        <time>2021-10-10T11:13:34Z</time>
      </trkpt>
      <trkpt lat="46.32869" lon="6.78117">
        <ele>2330.4</ele>
        <time>2021-10-10T11:13:43Z</time>
      </trkpt>
      <trkpt lat="46.32867" lon="6.78112">
        <ele>2327.8</ele>
        <time>2021-10-10T11:13:52Z</time>
      </trkpt>
      <trkpt lat="46.32865" lon="6.78109">
        <ele>2332</ele>
        <time>2021-10-10T11:13:57Z</time>
      </trkpt>
      <trkpt lat="46.32863" lon="6.78103">
        <ele>2332.8</ele>
        <time>2021-10-10T11:14:03Z</time>
      </trkpt>
      <trkpt lat="46.32859" lon="6.78101">
        <ele>2335.4</ele>
        <time>2021-10-10T11:14:31Z</time>
      </trkpt>
      <trkpt lat="46.32856" lon="6.78096">
        <ele>2339.2</ele>
        <time>2021-10-10T11:14:40Z</time>
      </trkpt>
      <trkpt lat="46.32857" lon="6.78097">
        <ele>2333.2</ele>
        <time>2021-10-10T11:16:01Z</time>
      </trkpt>
      <trkpt lat="46.32859" lon="6.78102">
        <ele>2334.2</ele>
        <time>2021-10-10T11:17:28Z</time>
      </trkpt>
      <trkpt lat="46.32863" lon="6.78099">
        <ele>2333.2</ele>
        <time>2021-10-10T11:17:50Z</time>
      </trkpt>
      <trkpt lat="46.32861" lon="6.78094">
        <ele>2330.8</ele>
        <time>2021-10-10T11:18:17Z</time>
      </trkpt>
      <trkpt lat="46.32862" lon="6.78089">
        <ele>2327</ele>
        <time>2021-10-10T11:18:40Z</time>
      </trkpt>
      <trkpt lat="46.32866" lon="6.78086">
        <ele>2327.6</ele>
        <time>2021-10-10T11:19:05Z</time>
      </trkpt>
      <trkpt lat="46.3287" lon="6.78084">
        <ele>2327.6</ele>
        <time>2021-10-10T11:19:17Z</time>
      </trkpt>
      <trkpt lat="46.32873" lon="6.78081">
        <ele>2323.2</ele>
        <time>2021-10-10T11:19:27Z</time>
      </trkpt>
      <trkpt lat="46.32872" lon="6.78075">
        <ele>2319.4</ele>
        <time>2021-10-10T11:19:56Z</time>
      </trkpt>
      <trkpt lat="46.32868" lon="6.78073">
        <ele>2319.6</ele>
        <time>2021-10-10T11:20:04Z</time>
      </trkpt>
      <trkpt lat="46.3287" lon="6.78069">
        <ele>2315.6</ele>
        <time>2021-10-10T11:20:19Z</time>
      </trkpt>
      <trkpt lat="46.32872" lon="6.78066">
        <ele>2311.6</ele>
        <time>2021-10-10T11:20:29Z</time>
      </trkpt>
      <trkpt lat="46.32869" lon="6.78062">
        <ele>2309</ele>
        <time>2021-10-10T11:20:38Z</time>
      </trkpt>
      <trkpt lat="46.32865" lon="6.78058">
        <ele>2306</ele>
        <time>2021-10-10T11:20:45Z</time>
      </trkpt>
      <trkpt lat="46.32861" lon="6.78055">
        <ele>2308.6</ele>
        <time>2021-10-10T11:20:55Z</time>
      </trkpt>
      <trkpt lat="46.32859" lon="6.78052">
        <ele>2305.8</ele>
        <time>2021-10-10T11:21:00Z</time>
      </trkpt>
      <trkpt lat="46.32861" lon="6.78049">
        <ele>2302.4</ele>
        <time>2021-10-10T11:21:19Z</time>
      </trkpt>
      <trkpt lat="46.32861" lon="6.78043">
        <ele>2299.6</ele>
        <time>2021-10-10T11:21:30Z</time>
      </trkpt>
      <trkpt lat="46.32862" lon="6.78041">
        <ele>2294.4</ele>
        <time>2021-10-10T11:21:34Z</time>
      </trkpt>
      <trkpt lat="46.3286" lon="6.78036">
        <ele>2296</ele>
        <time>2021-10-10T11:21:43Z</time>
      </trkpt>
      <trkpt lat="46.32861" lon="6.78034">
        <ele>2291.6</ele>
        <time>2021-10-10T11:22:19Z</time>
      </trkpt>
      <trkpt lat="46.32864" lon="6.78032">
        <ele>2286.8</ele>
        <time>2021-10-10T11:23:00Z</time>
      </trkpt>
      <trkpt lat="46.32866" lon="6.78027">
        <ele>2285</ele>
        <time>2021-10-10T11:23:16Z</time>
      </trkpt>
      <trkpt lat="46.32867" lon="6.78019">
        <ele>2282</ele>
        <time>2021-10-10T11:23:23Z</time>
      </trkpt>
      <trkpt lat="46.32867" lon="6.78014">
        <ele>2282.2</ele>
        <time>2021-10-10T11:23:28Z</time>
      </trkpt>
      <trkpt lat="46.32868" lon="6.78006">
        <ele>2280.2</ele>
        <time>2021-10-10T11:23:31Z</time>
      </trkpt>
      <trkpt lat="46.32868" lon="6.78">
        <ele>2280.2</ele>
        <time>2021-10-10T11:23:34Z</time>
      </trkpt>
      <trkpt lat="46.32869" lon="6.77993">
        <ele>2281.6</ele>
        <time>2021-10-10T11:23:38Z</time>
      </trkpt>
      <trkpt lat="46.32869" lon="6.77987">
        <ele>2279.8</ele>
        <time>2021-10-10T11:24:00Z</time>
      </trkpt>
      <trkpt lat="46.32866" lon="6.77982">
        <ele>2278.2</ele>
        <time>2021-10-10T11:24:13Z</time>
      </trkpt>
      <trkpt lat="46.32863" lon="6.77976">
        <ele>2275.2</ele>
        <time>2021-10-10T11:24:20Z</time>
      </trkpt>
      <trkpt lat="46.32861" lon="6.7797">
        <ele>2276</ele>
        <time>2021-10-10T11:24:25Z</time>
      </trkpt>
      <trkpt lat="46.32859" lon="6.77964">
        <ele>2274</ele>
        <time>2021-10-10T11:24:45Z</time>
      </trkpt>
      <trkpt lat="46.32857" lon="6.77958">
        <ele>2271.4</ele>
        <time>2021-10-10T11:24:51Z</time>
      </trkpt>
      <trkpt lat="46.32856" lon="6.77952">
        <ele>2270.6</ele>
        <time>2021-10-10T11:24:57Z</time>
      </trkpt>
      <trkpt lat="46.32853" lon="6.77946">
        <ele>2267.4</ele>
        <time>2021-10-10T11:25:05Z</time>
      </trkpt>
      <trkpt lat="46.32852" lon="6.7794">
        <ele>2269.8</ele>
        <time>2021-10-10T11:25:10Z</time>
      </trkpt>
      <trkpt lat="46.32851" lon="6.77935">
        <ele>2266.2</ele>
        <time>2021-10-10T11:25:19Z</time>
      </trkpt>
      <trkpt lat="46.32846" lon="6.7793">
        <ele>2266.4</ele>
        <time>2021-10-10T11:25:32Z</time>
      </trkpt>
      <trkpt lat="46.32843" lon="6.77926">
        <ele>2266</ele>
        <time>2021-10-10T11:25:39Z</time>
      </trkpt>
      <trkpt lat="46.32841" lon="6.77929">
        <ele>2262.4</ele>
        <time>2021-10-10T11:25:44Z</time>
      </trkpt>
      <trkpt lat="46.32838" lon="6.77931">
        <ele>2259.4</ele>
        <time>2021-10-10T11:25:55Z</time>
      </trkpt>
      <trkpt lat="46.32834" lon="6.7793">
        <ele>2253.6</ele>
        <time>2021-10-10T11:26:03Z</time>
      </trkpt>
      <trkpt lat="46.32831" lon="6.77926">
        <ele>2251.8</ele>
        <time>2021-10-10T11:26:30Z</time>
      </trkpt>
      <trkpt lat="46.32827" lon="6.77924">
        <ele>2248.2</ele>
        <time>2021-10-10T11:27:17Z</time>
      </trkpt>
      <trkpt lat="46.32824" lon="6.7792">
        <ele>2246</ele>
        <time>2021-10-10T11:27:24Z</time>
      </trkpt>
      <trkpt lat="46.32821" lon="6.77914">
        <ele>2245.8</ele>
        <time>2021-10-10T11:27:34Z</time>
      </trkpt>
      <trkpt lat="46.32818" lon="6.77907">
        <ele>2242.4</ele>
        <time>2021-10-10T11:27:41Z</time>
      </trkpt>
      <trkpt lat="46.32818" lon="6.77901">
        <ele>2244.2</ele>
        <time>2021-10-10T11:27:47Z</time>
      </trkpt>
      <trkpt lat="46.32817" lon="6.77895">
        <ele>2241</ele>
        <time>2021-10-10T11:27:54Z</time>
      </trkpt>
      <trkpt lat="46.32816" lon="6.77889">
        <ele>2237.8</ele>
        <time>2021-10-10T11:28:02Z</time>
      </trkpt>
      <trkpt lat="46.32816" lon="6.77883">
        <ele>2237.6</ele>
        <time>2021-10-10T11:28:09Z</time>
      </trkpt>
      <trkpt lat="46.32813" lon="6.7788">
        <ele>2234.4</ele>
        <time>2021-10-10T11:28:22Z</time>
      </trkpt>
      <trkpt lat="46.32809" lon="6.77881">
        <ele>2231</ele>
        <time>2021-10-10T11:28:28Z</time>
      </trkpt>
      <trkpt lat="46.32807" lon="6.77886">
        <ele>2230.2</ele>
        <time>2021-10-10T11:28:33Z</time>
      </trkpt>
      <trkpt lat="46.32802" lon="6.77888">
        <ele>2229.6</ele>
        <time>2021-10-10T11:28:46Z</time>
      </trkpt>
      <trkpt lat="46.32798" lon="6.7789">
        <ele>2224.6</ele>
        <time>2021-10-10T11:28:57Z</time>
      </trkpt>
      <trkpt lat="46.32796" lon="6.77884">
        <ele>2223</ele>
        <time>2021-10-10T11:29:11Z</time>
      </trkpt>
      <trkpt lat="46.32794" lon="6.77884">
        <ele>2218.4</ele>
        <time>2021-10-10T11:29:16Z</time>
      </trkpt>
      <trkpt lat="46.32794" lon="6.77878">
        <ele>2219.8</ele>
        <time>2021-10-10T11:29:30Z</time>
      </trkpt>
      <trkpt lat="46.32796" lon="6.77872">
        <ele>2215.6</ele>
        <time>2021-10-10T11:29:39Z</time>
      </trkpt>
      <trkpt lat="46.328" lon="6.7787">
        <ele>2214.2</ele>
        <time>2021-10-10T11:29:56Z</time>
      </trkpt>
      <trkpt lat="46.32805" lon="6.7787">
        <ele>2216</ele>
        <time>2021-10-10T11:30:02Z</time>
      </trkpt>
      <trkpt lat="46.3281" lon="6.77871">
        <ele>2215.2</ele>
        <time>2021-10-10T11:30:10Z</time>
      </trkpt>
      <trkpt lat="46.32814" lon="6.77869">
        <ele>2214.8</ele>
        <time>2021-10-10T11:30:17Z</time>
      </trkpt>
      <trkpt lat="46.32818" lon="6.77864">
        <ele>2215</ele>
        <time>2021-10-10T11:30:31Z</time>
      </trkpt>
      <trkpt lat="46.32823" lon="6.77861">
        <ele>2217.6</ele>
        <time>2021-10-10T11:30:37Z</time>
      </trkpt>
      <trkpt lat="46.32827" lon="6.77859">
        <ele>2216.2</ele>
        <time>2021-10-10T11:30:42Z</time>
      </trkpt>
      <trkpt lat="46.32832" lon="6.77858">
        <ele>2216.8</ele>
        <time>2021-10-10T11:30:47Z</time>
      </trkpt>
      <trkpt lat="46.32837" lon="6.77855">
        <ele>2216.4</ele>
        <time>2021-10-10T11:30:52Z</time>
      </trkpt>
      <trkpt lat="46.3284" lon="6.7785">
        <ele>2216.2</ele>
        <time>2021-10-10T11:30:56Z</time>
      </trkpt>
      <trkpt lat="46.32845" lon="6.77848">
        <ele>2216.6</ele>
        <time>2021-10-10T11:31:02Z</time>
      </trkpt>
      <trkpt lat="46.32847" lon="6.77842">
        <ele>2216.4</ele>
        <time>2021-10-10T11:31:08Z</time>
      </trkpt>
      <trkpt lat="46.32848" lon="6.77836">
        <ele>2216.6</ele>
        <time>2021-10-10T11:31:16Z</time>
      </trkpt>
      <trkpt lat="46.32846" lon="6.77831">
        <ele>2213</ele>
        <time>2021-10-10T11:31:39Z</time>
      </trkpt>
      <trkpt lat="46.32845" lon="6.77825">
        <ele>2212.2</ele>
        <time>2021-10-10T11:31:43Z</time>
      </trkpt>
      <trkpt lat="46.32846" lon="6.77817">
        <ele>2212.6</ele>
        <time>2021-10-10T11:31:47Z</time>
      </trkpt>
      <trkpt lat="46.32847" lon="6.77811">
        <ele>2211</ele>
        <time>2021-10-10T11:31:53Z</time>
      </trkpt>
      <trkpt lat="46.32848" lon="6.77805">
        <ele>2213.8</ele>
        <time>2021-10-10T11:32:00Z</time>
      </trkpt>
      <trkpt lat="46.32848" lon="6.77804">
        <ele>2218.4</ele>
        <time>2021-10-10T11:32:56Z</time>
      </trkpt>
      <trkpt lat="46.32845" lon="6.77806">
        <ele>2216</ele>
        <time>2021-10-10T11:33:41Z</time>
      </trkpt>
      <trkpt lat="46.32844" lon="6.77813">
        <ele>2214.2</ele>
        <time>2021-10-10T11:33:55Z</time>
      </trkpt>
      <trkpt lat="46.32842" lon="6.77813">
        <ele>2210.8</ele>
        <time>2021-10-10T11:36:32Z</time>
      </trkpt>
      <trkpt lat="46.32829" lon="6.77809">
        <ele>2204.2</ele>
        <time>2021-10-10T12:04:40Z</time>
      </trkpt>
      <trkpt lat="46.32823" lon="6.77813">
        <ele>2204.2</ele>
        <time>2021-10-10T12:04:41Z</time>
      </trkpt>
      <trkpt lat="46.32828" lon="6.77817">
        <ele>2204.2</ele>
        <time>2021-10-10T12:04:44Z</time>
      </trkpt>
      <trkpt lat="46.3283" lon="6.77817">
        <ele>2212.4</ele>
        <time>2021-10-10T12:04:47Z</time>
      </trkpt>
      <trkpt lat="46.32836" lon="6.77817">
        <ele>2212.4</ele>
        <time>2021-10-10T12:04:49Z</time>
      </trkpt>
      <trkpt lat="46.32833" lon="6.7782">
        <ele>2215.6</ele>
        <time>2021-10-10T12:05:17Z</time>
      </trkpt>
      <trkpt lat="46.32831" lon="6.77824">
        <ele>2212</ele>
        <time>2021-10-10T12:05:22Z</time>
      </trkpt>
      <trkpt lat="46.32828" lon="6.77828">
        <ele>2209.8</ele>
        <time>2021-10-10T12:05:30Z</time>
      </trkpt>
      <trkpt lat="46.32826" lon="6.77823">
        <ele>2211.4</ele>
        <time>2021-10-10T12:05:41Z</time>
      </trkpt>
      <trkpt lat="46.32825" lon="6.77818">
        <ele>2208.2</ele>
        <time>2021-10-10T12:05:47Z</time>
      </trkpt>
      <trkpt lat="46.32823" lon="6.77812">
        <ele>2205.8</ele>
        <time>2021-10-10T12:05:54Z</time>
      </trkpt>
      <trkpt lat="46.3282" lon="6.77807">
        <ele>2205.6</ele>
        <time>2021-10-10T12:06:01Z</time>
      </trkpt>
      <trkpt lat="46.32816" lon="6.77811">
        <ele>2203.2</ele>
        <time>2021-10-10T12:06:11Z</time>
      </trkpt>
      <trkpt lat="46.32812" lon="6.77814">
        <ele>2201.4</ele>
        <time>2021-10-10T12:06:17Z</time>
      </trkpt>
      <trkpt lat="46.3281" lon="6.77814">
        <ele>2198</ele>
        <time>2021-10-10T12:06:29Z</time>
      </trkpt>
      <trkpt lat="46.32807" lon="6.77811">
        <ele>2194</ele>
        <time>2021-10-10T12:06:35Z</time>
      </trkpt>
      <trkpt lat="46.32802" lon="6.77816">
        <ele>2194.6</ele>
        <time>2021-10-10T12:06:45Z</time>
      </trkpt>
      <trkpt lat="46.328" lon="6.7782">
        <ele>2191.4</ele>
        <time>2021-10-10T12:06:52Z</time>
      </trkpt>
      <trkpt lat="46.32797" lon="6.77824">
        <ele>2191.2</ele>
        <time>2021-10-10T12:07:01Z</time>
      </trkpt>
      <trkpt lat="46.32795" lon="6.77824">
        <ele>2187.8</ele>
        <time>2021-10-10T12:07:07Z</time>
      </trkpt>
      <trkpt lat="46.32791" lon="6.7783">
        <ele>2187</ele>
        <time>2021-10-10T12:07:17Z</time>
      </trkpt>
      <trkpt lat="46.32788" lon="6.77828">
        <ele>2184</ele>
        <time>2021-10-10T12:07:27Z</time>
      </trkpt>
      <trkpt lat="46.32785" lon="6.77823">
        <ele>2183.2</ele>
        <time>2021-10-10T12:07:34Z</time>
      </trkpt>
      <trkpt lat="46.32782" lon="6.77817">
        <ele>2183.4</ele>
        <time>2021-10-10T12:07:43Z</time>
      </trkpt>
      <trkpt lat="46.32779" lon="6.77813">
        <ele>2181.8</ele>
        <time>2021-10-10T12:07:50Z</time>
      </trkpt>
      <trkpt lat="46.32776" lon="6.77819">
        <ele>2179.8</ele>
        <time>2021-10-10T12:07:57Z</time>
      </trkpt>
      <trkpt lat="46.32775" lon="6.77826">
        <ele>2179</ele>
        <time>2021-10-10T12:08:02Z</time>
      </trkpt>
      <trkpt lat="46.32773" lon="6.77832">
        <ele>2175.2</ele>
        <time>2021-10-10T12:08:07Z</time>
      </trkpt>
      <trkpt lat="46.32772" lon="6.77838">
        <ele>2175.2</ele>
        <time>2021-10-10T12:08:11Z</time>
      </trkpt>
      <trkpt lat="46.3277" lon="6.77843">
        <ele>2173.2</ele>
        <time>2021-10-10T12:08:16Z</time>
      </trkpt>
      <trkpt lat="46.32766" lon="6.77846">
        <ele>2173.8</ele>
        <time>2021-10-10T12:08:25Z</time>
      </trkpt>
      <trkpt lat="46.32763" lon="6.7785">
        <ele>2170.6</ele>
        <time>2021-10-10T12:08:30Z</time>
      </trkpt>
      <trkpt lat="46.3276" lon="6.77855">
        <ele>2171</ele>
        <time>2021-10-10T12:08:36Z</time>
      </trkpt>
      <trkpt lat="46.32759" lon="6.77857">
        <ele>2167.2</ele>
        <time>2021-10-10T12:08:38Z</time>
      </trkpt>
      <trkpt lat="46.32754" lon="6.77859">
        <ele>2164.6</ele>
        <time>2021-10-10T12:08:44Z</time>
      </trkpt>
      <trkpt lat="46.3275" lon="6.77859">
        <ele>2164.2</ele>
        <time>2021-10-10T12:08:49Z</time>
      </trkpt>
      <trkpt lat="46.32746" lon="6.7786">
        <ele>2165</ele>
        <time>2021-10-10T12:08:54Z</time>
      </trkpt>
      <trkpt lat="46.32741" lon="6.7786">
        <ele>2164.2</ele>
        <time>2021-10-10T12:09:01Z</time>
      </trkpt>
      <trkpt lat="46.32743" lon="6.77857">
        <ele>2159.6</ele>
        <time>2021-10-10T12:09:14Z</time>
      </trkpt>
      <trkpt lat="46.32741" lon="6.77854">
        <ele>2154.2</ele>
        <time>2021-10-10T12:09:38Z</time>
      </trkpt>
      <trkpt lat="46.32738" lon="6.77859">
        <ele>2150.8</ele>
        <time>2021-10-10T12:09:43Z</time>
      </trkpt>
      <trkpt lat="46.32733" lon="6.7786">
        <ele>2146.6</ele>
        <time>2021-10-10T12:09:48Z</time>
      </trkpt>
      <trkpt lat="46.32729" lon="6.77863">
        <ele>2146.6</ele>
        <time>2021-10-10T12:09:52Z</time>
      </trkpt>
      <trkpt lat="46.32726" lon="6.77861">
        <ele>2143.4</ele>
        <time>2021-10-10T12:10:01Z</time>
      </trkpt>
      <trkpt lat="46.32721" lon="6.77857">
        <ele>2142.6</ele>
        <time>2021-10-10T12:10:07Z</time>
      </trkpt>
      <trkpt lat="46.3272" lon="6.77856">
        <ele>2138.4</ele>
        <time>2021-10-10T12:10:11Z</time>
      </trkpt>
      <trkpt lat="46.32715" lon="6.77856">
        <ele>2137.4</ele>
        <time>2021-10-10T12:10:23Z</time>
      </trkpt>
      <trkpt lat="46.32712" lon="6.77856">
        <ele>2134.6</ele>
        <time>2021-10-10T12:10:27Z</time>
      </trkpt>
      <trkpt lat="46.32708" lon="6.77858">
        <ele>2131.6</ele>
        <time>2021-10-10T12:10:36Z</time>
      </trkpt>
      <trkpt lat="46.32705" lon="6.77859">
        <ele>2128.4</ele>
        <time>2021-10-10T12:10:44Z</time>
      </trkpt>
      <trkpt lat="46.32702" lon="6.77856">
        <ele>2123.6</ele>
        <time>2021-10-10T12:10:59Z</time>
      </trkpt>
      <trkpt lat="46.32698" lon="6.77854">
        <ele>2121.8</ele>
        <time>2021-10-10T12:11:08Z</time>
      </trkpt>
      <trkpt lat="46.32694" lon="6.77854">
        <ele>2118.8</ele>
        <time>2021-10-10T12:11:26Z</time>
      </trkpt>
      <trkpt lat="46.32692" lon="6.77849">
        <ele>2116.2</ele>
        <time>2021-10-10T12:11:38Z</time>
      </trkpt>
      <trkpt lat="46.32689" lon="6.77846">
        <ele>2113.2</ele>
        <time>2021-10-10T12:11:43Z</time>
      </trkpt>
      <trkpt lat="46.32685" lon="6.77845">
        <ele>2111.4</ele>
        <time>2021-10-10T12:11:53Z</time>
      </trkpt>
      <trkpt lat="46.32683" lon="6.7785">
        <ele>2108.2</ele>
        <time>2021-10-10T12:11:57Z</time>
      </trkpt>
      <trkpt lat="46.3268" lon="6.77855">
        <ele>2109</ele>
        <time>2021-10-10T12:12:05Z</time>
      </trkpt>
      <trkpt lat="46.32677" lon="6.77856">
        <ele>2104.6</ele>
        <time>2021-10-10T12:12:13Z</time>
      </trkpt>
      <trkpt lat="46.32675" lon="6.77861">
        <ele>2101.6</ele>
        <time>2021-10-10T12:15:44Z</time>
      </trkpt>
      <trkpt lat="46.32671" lon="6.77862">
        <ele>2098.8</ele>
        <time>2021-10-10T12:16:10Z</time>
      </trkpt>
      <trkpt lat="46.32668" lon="6.77868">
        <ele>2100</ele>
        <time>2021-10-10T12:16:16Z</time>
      </trkpt>
      <trkpt lat="46.32665" lon="6.77869">
        <ele>2095.2</ele>
        <time>2021-10-10T12:16:23Z</time>
      </trkpt>
      <trkpt lat="46.32665" lon="6.77863">
        <ele>2097.6</ele>
        <time>2021-10-10T12:16:26Z</time>
      </trkpt>
      <trkpt lat="46.32664" lon="6.77857">
        <ele>2096</ele>
        <time>2021-10-10T12:16:29Z</time>
      </trkpt>
      <trkpt lat="46.32662" lon="6.77851">
        <ele>2094.2</ele>
        <time>2021-10-10T12:16:35Z</time>
      </trkpt>
      <trkpt lat="46.32659" lon="6.77848">
        <ele>2096</ele>
        <time>2021-10-10T12:16:42Z</time>
      </trkpt>
      <trkpt lat="46.32657" lon="6.77848">
        <ele>2092</ele>
        <time>2021-10-10T12:16:45Z</time>
      </trkpt>
      <trkpt lat="46.32653" lon="6.77851">
        <ele>2091.8</ele>
        <time>2021-10-10T12:16:50Z</time>
      </trkpt>
      <trkpt lat="46.32651" lon="6.77857">
        <ele>2089</ele>
        <time>2021-10-10T12:16:57Z</time>
      </trkpt>
      <trkpt lat="46.32649" lon="6.77861">
        <ele>2084.8</ele>
        <time>2021-10-10T12:17:01Z</time>
      </trkpt>
      <trkpt lat="46.32648" lon="6.77868">
        <ele>2083.6</ele>
        <time>2021-10-10T12:17:06Z</time>
      </trkpt>
      <trkpt lat="46.32646" lon="6.77875">
        <ele>2080.2</ele>
        <time>2021-10-10T12:17:10Z</time>
      </trkpt>
      <trkpt lat="46.32645" lon="6.77882">
        <ele>2079.8</ele>
        <time>2021-10-10T12:17:16Z</time>
      </trkpt>
      <trkpt lat="46.32642" lon="6.77886">
        <ele>2076.8</ele>
        <time>2021-10-10T12:17:27Z</time>
      </trkpt>
      <trkpt lat="46.32639" lon="6.77882">
        <ele>2076</ele>
        <time>2021-10-10T12:17:34Z</time>
      </trkpt>
      <trkpt lat="46.32634" lon="6.77882">
        <ele>2073.4</ele>
        <time>2021-10-10T12:17:41Z</time>
      </trkpt>
      <trkpt lat="46.32632" lon="6.77877">
        <ele>2071.4</ele>
        <time>2021-10-10T12:17:46Z</time>
      </trkpt>
      <trkpt lat="46.32631" lon="6.77877">
        <ele>2065.8</ele>
        <time>2021-10-10T12:17:51Z</time>
      </trkpt>
      <trkpt lat="46.32627" lon="6.77875">
        <ele>2068</ele>
        <time>2021-10-10T12:18:06Z</time>
      </trkpt>
      <trkpt lat="46.32625" lon="6.7788">
        <ele>2064.2</ele>
        <time>2021-10-10T12:18:11Z</time>
      </trkpt>
      <trkpt lat="46.32625" lon="6.77887">
        <ele>2061.8</ele>
        <time>2021-10-10T12:18:17Z</time>
      </trkpt>
      <trkpt lat="46.32624" lon="6.77893">
        <ele>2060.6</ele>
        <time>2021-10-10T12:18:22Z</time>
      </trkpt>
      <trkpt lat="46.32623" lon="6.77899">
        <ele>2059.4</ele>
        <time>2021-10-10T12:18:27Z</time>
      </trkpt>
      <trkpt lat="46.32622" lon="6.77906">
        <ele>2058.8</ele>
        <time>2021-10-10T12:18:33Z</time>
      </trkpt>
      <trkpt lat="46.32619" lon="6.77907">
        <ele>2056.2</ele>
        <time>2021-10-10T12:18:40Z</time>
      </trkpt>
      <trkpt lat="46.32614" lon="6.77909">
        <ele>2053.2</ele>
        <time>2021-10-10T12:18:47Z</time>
      </trkpt>
      <trkpt lat="46.3261" lon="6.77911">
        <ele>2053</ele>
        <time>2021-10-10T12:18:54Z</time>
      </trkpt>
      <trkpt lat="46.32606" lon="6.7791">
        <ele>2053</ele>
        <time>2021-10-10T12:19:00Z</time>
      </trkpt>
      <trkpt lat="46.32604" lon="6.77911">
        <ele>2048.4</ele>
        <time>2021-10-10T12:19:03Z</time>
      </trkpt>
      <trkpt lat="46.32599" lon="6.77913">
        <ele>2049.8</ele>
        <time>2021-10-10T12:19:13Z</time>
      </trkpt>
      <trkpt lat="46.32594" lon="6.77912">
        <ele>2046.2</ele>
        <time>2021-10-10T12:19:20Z</time>
      </trkpt>
      <trkpt lat="46.32594" lon="6.77909">
        <ele>2041</ele>
        <time>2021-10-10T12:19:37Z</time>
      </trkpt>
      <trkpt lat="46.32594" lon="6.77902">
        <ele>2040.4</ele>
        <time>2021-10-10T12:19:43Z</time>
      </trkpt>
      <trkpt lat="46.32589" lon="6.77901">
        <ele>2040.2</ele>
        <time>2021-10-10T12:19:52Z</time>
      </trkpt>
      <trkpt lat="46.32585" lon="6.779">
        <ele>2036.4</ele>
        <time>2021-10-10T12:19:59Z</time>
      </trkpt>
      <trkpt lat="46.32586" lon="6.77894">
        <ele>2038.8</ele>
        <time>2021-10-10T12:20:05Z</time>
      </trkpt>
      <trkpt lat="46.32582" lon="6.77893">
        <ele>2037.2</ele>
        <time>2021-10-10T12:20:18Z</time>
      </trkpt>
      <trkpt lat="46.32579" lon="6.77895">
        <ele>2032.8</ele>
        <time>2021-10-10T12:20:25Z</time>
      </trkpt>
      <trkpt lat="46.32575" lon="6.77894">
        <ele>2033.4</ele>
        <time>2021-10-10T12:20:33Z</time>
      </trkpt>
      <trkpt lat="46.32572" lon="6.77888">
        <ele>2033</ele>
        <time>2021-10-10T12:20:43Z</time>
      </trkpt>
      <trkpt lat="46.3257" lon="6.77884">
        <ele>2030.8</ele>
        <time>2021-10-10T12:20:59Z</time>
      </trkpt>
      <trkpt lat="46.32567" lon="6.77883">
        <ele>2031.4</ele>
        <time>2021-10-10T12:21:15Z</time>
      </trkpt>
      <trkpt lat="46.32563" lon="6.77884">
        <ele>2028</ele>
        <time>2021-10-10T12:21:23Z</time>
      </trkpt>
      <trkpt lat="46.32559" lon="6.77884">
        <ele>2020.6</ele>
        <time>2021-10-10T12:21:33Z</time>
      </trkpt>
      <trkpt lat="46.32555" lon="6.77886">
        <ele>2021.4</ele>
        <time>2021-10-10T12:21:40Z</time>
      </trkpt>
      <trkpt lat="46.32552" lon="6.77882">
        <ele>2024.2</ele>
        <time>2021-10-10T12:21:48Z</time>
      </trkpt>
      <trkpt lat="46.32548" lon="6.77879">
        <ele>2021</ele>
        <time>2021-10-10T12:21:55Z</time>
      </trkpt>
      <trkpt lat="46.32544" lon="6.77878">
        <ele>2017.6</ele>
        <time>2021-10-10T12:22:01Z</time>
      </trkpt>
      <trkpt lat="46.32539" lon="6.77879">
        <ele>2017.6</ele>
        <time>2021-10-10T12:22:15Z</time>
      </trkpt>
      <trkpt lat="46.32542" lon="6.77883">
        <ele>2013.8</ele>
        <time>2021-10-10T12:22:32Z</time>
      </trkpt>
      <trkpt lat="46.32543" lon="6.77886">
        <ele>2009.4</ele>
        <time>2021-10-10T12:22:38Z</time>
      </trkpt>
      <trkpt lat="46.32544" lon="6.77891">
        <ele>2005.8</ele>
        <time>2021-10-10T12:22:47Z</time>
      </trkpt>
      <trkpt lat="46.32544" lon="6.77897">
        <ele>2003</ele>
        <time>2021-10-10T12:22:52Z</time>
      </trkpt>
      <trkpt lat="46.32543" lon="6.77899">
        <ele>1998</ele>
        <time>2021-10-10T12:23:00Z</time>
      </trkpt>
      <trkpt lat="46.32541" lon="6.77906">
        <ele>1997.4</ele>
        <time>2021-10-10T12:23:04Z</time>
      </trkpt>
      <trkpt lat="46.3254" lon="6.7791">
        <ele>1993</ele>
        <time>2021-10-10T12:23:06Z</time>
      </trkpt>
      <trkpt lat="46.32537" lon="6.77911">
        <ele>1988.2</ele>
        <time>2021-10-10T12:23:13Z</time>
      </trkpt>
      <trkpt lat="46.32535" lon="6.77905">
        <ele>1986.2</ele>
        <time>2021-10-10T12:23:18Z</time>
      </trkpt>
      <trkpt lat="46.32535" lon="6.77899">
        <ele>1984</ele>
        <time>2021-10-10T12:23:23Z</time>
      </trkpt>
      <trkpt lat="46.32535" lon="6.77893">
        <ele>1981.4</ele>
        <time>2021-10-10T12:23:27Z</time>
      </trkpt>
      <trkpt lat="46.32533" lon="6.77891">
        <ele>1977</ele>
        <time>2021-10-10T12:23:31Z</time>
      </trkpt>
      <trkpt lat="46.32531" lon="6.77885">
        <ele>1975.6</ele>
        <time>2021-10-10T12:23:36Z</time>
      </trkpt>
      <trkpt lat="46.32525" lon="6.77883">
        <ele>1975</ele>
        <time>2021-10-10T12:23:42Z</time>
      </trkpt>
      <trkpt lat="46.32521" lon="6.77879">
        <ele>1973.8</ele>
        <time>2021-10-10T12:23:48Z</time>
      </trkpt>
      <trkpt lat="46.32521" lon="6.77873">
        <ele>1969.4</ele>
        <time>2021-10-10T12:24:01Z</time>
      </trkpt>
      <trkpt lat="46.32519" lon="6.77868">
        <ele>1967.2</ele>
        <time>2021-10-10T12:24:07Z</time>
      </trkpt>
      <trkpt lat="46.32515" lon="6.77871">
        <ele>1965.2</ele>
        <time>2021-10-10T12:24:13Z</time>
      </trkpt>
      <trkpt lat="46.32513" lon="6.77878">
        <ele>1961.8</ele>
        <time>2021-10-10T12:24:17Z</time>
      </trkpt>
      <trkpt lat="46.3251" lon="6.77883">
        <ele>1961.4</ele>
        <time>2021-10-10T12:24:21Z</time>
      </trkpt>
      <trkpt lat="46.32507" lon="6.77885">
        <ele>1956.6</ele>
        <time>2021-10-10T12:24:27Z</time>
      </trkpt>
      <trkpt lat="46.32502" lon="6.77883">
        <ele>1956</ele>
        <time>2021-10-10T12:24:32Z</time>
      </trkpt>
      <trkpt lat="46.32498" lon="6.77886">
        <ele>1954.2</ele>
        <time>2021-10-10T12:24:37Z</time>
      </trkpt>
      <trkpt lat="46.32494" lon="6.77884">
        <ele>1951.8</ele>
        <time>2021-10-10T12:24:43Z</time>
      </trkpt>
      <trkpt lat="46.32491" lon="6.77888">
        <ele>1949.4</ele>
        <time>2021-10-10T12:24:48Z</time>
      </trkpt>
      <trkpt lat="46.32488" lon="6.77892">
        <ele>1948</ele>
        <time>2021-10-10T12:24:57Z</time>
      </trkpt>
      <trkpt lat="46.32486" lon="6.779">
        <ele>1948.2</ele>
        <time>2021-10-10T12:25:05Z</time>
      </trkpt>
      <trkpt lat="46.32485" lon="6.77905">
        <ele>1945.4</ele>
        <time>2021-10-10T12:25:11Z</time>
      </trkpt>
      <trkpt lat="46.32481" lon="6.77906">
        <ele>1942</ele>
        <time>2021-10-10T12:25:20Z</time>
      </trkpt>
      <trkpt lat="46.32477" lon="6.77904">
        <ele>1938.8</ele>
        <time>2021-10-10T12:25:25Z</time>
      </trkpt>
      <trkpt lat="46.32475" lon="6.77909">
        <ele>1936.8</ele>
        <time>2021-10-10T12:25:28Z</time>
      </trkpt>
      <trkpt lat="46.3247" lon="6.7791">
        <ele>1933.4</ele>
        <time>2021-10-10T12:25:36Z</time>
      </trkpt>
      <trkpt lat="46.32468" lon="6.77904">
        <ele>1930.6</ele>
        <time>2021-10-10T12:25:45Z</time>
      </trkpt>
      <trkpt lat="46.32465" lon="6.77903">
        <ele>1927</ele>
        <time>2021-10-10T12:26:01Z</time>
      </trkpt>
      <trkpt lat="46.32463" lon="6.77898">
        <ele>1925.8</ele>
        <time>2021-10-10T12:26:12Z</time>
      </trkpt>
      <trkpt lat="46.32461" lon="6.77894">
        <ele>1921.8</ele>
        <time>2021-10-10T12:26:25Z</time>
      </trkpt>
      <trkpt lat="46.32457" lon="6.77889">
        <ele>1921</ele>
        <time>2021-10-10T12:26:31Z</time>
      </trkpt>
      <trkpt lat="46.32457" lon="6.77885">
        <ele>1915.8</ele>
        <time>2021-10-10T12:26:34Z</time>
      </trkpt>
      <trkpt lat="46.32454" lon="6.77884">
        <ele>1919.8</ele>
        <time>2021-10-10T12:26:37Z</time>
      </trkpt>
      <trkpt lat="46.3245" lon="6.77883">
        <ele>1916.6</ele>
        <time>2021-10-10T12:26:44Z</time>
      </trkpt>
      <trkpt lat="46.32451" lon="6.77877">
        <ele>1911.6</ele>
        <time>2021-10-10T12:26:59Z</time>
      </trkpt>
      <trkpt lat="46.32448" lon="6.77871">
        <ele>1911.4</ele>
        <time>2021-10-10T12:27:07Z</time>
      </trkpt>
      <trkpt lat="46.32451" lon="6.77866">
        <ele>1911.2</ele>
        <time>2021-10-10T12:27:24Z</time>
      </trkpt>
      <trkpt lat="46.32451" lon="6.77862">
        <ele>1906.2</ele>
        <time>2021-10-10T12:27:32Z</time>
      </trkpt>
      <trkpt lat="46.32449" lon="6.77856">
        <ele>1903.8</ele>
        <time>2021-10-10T12:27:37Z</time>
      </trkpt>
      <trkpt lat="46.32449" lon="6.77847">
        <ele>1901.2</ele>
        <time>2021-10-10T12:27:43Z</time>
      </trkpt>
      <trkpt lat="46.32448" lon="6.77841">
        <ele>1900.8</ele>
        <time>2021-10-10T12:27:46Z</time>
      </trkpt>
      <trkpt lat="46.32448" lon="6.77835">
        <ele>1899.2</ele>
        <time>2021-10-10T12:27:50Z</time>
      </trkpt>
      <trkpt lat="46.32448" lon="6.77828">
        <ele>1896</ele>
        <time>2021-10-10T12:27:54Z</time>
      </trkpt>
      <trkpt lat="46.32447" lon="6.77822">
        <ele>1896.2</ele>
        <time>2021-10-10T12:28:01Z</time>
      </trkpt>
      <trkpt lat="46.32443" lon="6.77821">
        <ele>1893.6</ele>
        <time>2021-10-10T12:28:06Z</time>
      </trkpt>
      <trkpt lat="46.32438" lon="6.77819">
        <ele>1892.4</ele>
        <time>2021-10-10T12:28:13Z</time>
      </trkpt>
      <trkpt lat="46.32437" lon="6.77816">
        <ele>1887.8</ele>
        <time>2021-10-10T12:28:17Z</time>
      </trkpt>
      <trkpt lat="46.32435" lon="6.77819">
        <ele>1890</ele>
        <time>2021-10-10T12:28:22Z</time>
      </trkpt>
      <trkpt lat="46.32433" lon="6.7782">
        <ele>1886.2</ele>
        <time>2021-10-10T12:28:25Z</time>
      </trkpt>
      <trkpt lat="46.32431" lon="6.77826">
        <ele>1886.6</ele>
        <time>2021-10-10T12:28:30Z</time>
      </trkpt>
      <trkpt lat="46.32429" lon="6.7783">
        <ele>1888.6</ele>
        <time>2021-10-10T12:28:35Z</time>
      </trkpt>
      <trkpt lat="46.32427" lon="6.77831">
        <ele>1883.8</ele>
        <time>2021-10-10T12:28:39Z</time>
      </trkpt>
      <trkpt lat="46.32423" lon="6.77836">
        <ele>1883.8</ele>
        <time>2021-10-10T12:28:44Z</time>
      </trkpt>
      <trkpt lat="46.3242" lon="6.77837">
        <ele>1878.2</ele>
        <time>2021-10-10T12:28:54Z</time>
      </trkpt>
      <trkpt lat="46.32416" lon="6.77838">
        <ele>1877.4</ele>
        <time>2021-10-10T12:29:02Z</time>
      </trkpt>
      <trkpt lat="46.32411" lon="6.77838">
        <ele>1876.2</ele>
        <time>2021-10-10T12:29:16Z</time>
      </trkpt>
      <trkpt lat="46.32407" lon="6.77836">
        <ele>1874.4</ele>
        <time>2021-10-10T12:29:20Z</time>
      </trkpt>
      <trkpt lat="46.32407" lon="6.77834">
        <ele>1869.4</ele>
        <time>2021-10-10T12:29:42Z</time>
      </trkpt>
      <trkpt lat="46.32409" lon="6.77828">
        <ele>1866.2</ele>
        <time>2021-10-10T12:29:52Z</time>
      </trkpt>
      <trkpt lat="46.32411" lon="6.77822">
        <ele>1864</ele>
        <time>2021-10-10T12:29:56Z</time>
      </trkpt>
      <trkpt lat="46.3241" lon="6.77817">
        <ele>1864.4</ele>
        <time>2021-10-10T12:30:01Z</time>
      </trkpt>
      <trkpt lat="46.32408" lon="6.77822">
        <ele>1861.8</ele>
        <time>2021-10-10T12:30:04Z</time>
      </trkpt>
      <trkpt lat="46.32407" lon="6.77827">
        <ele>1859</ele>
        <time>2021-10-10T12:30:09Z</time>
      </trkpt>
      <trkpt lat="46.32402" lon="6.77824">
        <ele>1858</ele>
        <time>2021-10-10T12:30:21Z</time>
      </trkpt>
      <trkpt lat="46.32401" lon="6.77817">
        <ele>1854</ele>
        <time>2021-10-10T12:30:29Z</time>
      </trkpt>
      <trkpt lat="46.32401" lon="6.7781">
        <ele>1851.4</ele>
        <time>2021-10-10T12:30:38Z</time>
      </trkpt>
      <trkpt lat="46.32397" lon="6.77806">
        <ele>1849.8</ele>
        <time>2021-10-10T12:30:48Z</time>
      </trkpt>
      <trkpt lat="46.32398" lon="6.778">
        <ele>1844.6</ele>
        <time>2021-10-10T12:31:00Z</time>
      </trkpt>
      <trkpt lat="46.32402" lon="6.77795">
        <ele>1844</ele>
        <time>2021-10-10T12:31:08Z</time>
      </trkpt>
      <trkpt lat="46.32405" lon="6.7779">
        <ele>1842</ele>
        <time>2021-10-10T12:31:15Z</time>
      </trkpt>
      <trkpt lat="46.32406" lon="6.77783">
        <ele>1842.2</ele>
        <time>2021-10-10T12:31:20Z</time>
      </trkpt>
      <trkpt lat="46.32408" lon="6.77777">
        <ele>1840.6</ele>
        <time>2021-10-10T12:31:26Z</time>
      </trkpt>
      <trkpt lat="46.32405" lon="6.77773">
        <ele>1840.6</ele>
        <time>2021-10-10T12:31:34Z</time>
      </trkpt>
      <trkpt lat="46.324" lon="6.7777">
        <ele>1837.2</ele>
        <time>2021-10-10T12:31:39Z</time>
      </trkpt>
      <trkpt lat="46.32402" lon="6.77764">
        <ele>1838.4</ele>
        <time>2021-10-10T12:31:56Z</time>
      </trkpt>
      <trkpt lat="46.32403" lon="6.77758">
        <ele>1836</ele>
        <time>2021-10-10T12:32:01Z</time>
      </trkpt>
      <trkpt lat="46.32406" lon="6.77753">
        <ele>1833</ele>
        <time>2021-10-10T12:32:07Z</time>
      </trkpt>
      <trkpt lat="46.32407" lon="6.7775">
        <ele>1827.6</ele>
        <time>2021-10-10T12:32:10Z</time>
      </trkpt>
      <trkpt lat="46.3241" lon="6.77747">
        <ele>1831.2</ele>
        <time>2021-10-10T12:32:14Z</time>
      </trkpt>
      <trkpt lat="46.32414" lon="6.77747">
        <ele>1830.6</ele>
        <time>2021-10-10T12:32:18Z</time>
      </trkpt>
      <trkpt lat="46.32419" lon="6.77748">
        <ele>1828.2</ele>
        <time>2021-10-10T12:32:22Z</time>
      </trkpt>
      <trkpt lat="46.32421" lon="6.77741">
        <ele>1828.6</ele>
        <time>2021-10-10T12:32:27Z</time>
      </trkpt>
      <trkpt lat="46.32423" lon="6.7774">
        <ele>1824.4</ele>
        <time>2021-10-10T12:32:30Z</time>
      </trkpt>
      <trkpt lat="46.32427" lon="6.77739">
        <ele>1821.6</ele>
        <time>2021-10-10T12:32:34Z</time>
      </trkpt>
      <trkpt lat="46.32431" lon="6.77735">
        <ele>1820.4</ele>
        <time>2021-10-10T12:32:39Z</time>
      </trkpt>
      <trkpt lat="46.32434" lon="6.77732">
        <ele>1817.4</ele>
        <time>2021-10-10T12:32:42Z</time>
      </trkpt>
      <trkpt lat="46.32437" lon="6.77729">
        <ele>1820.2</ele>
        <time>2021-10-10T12:32:45Z</time>
      </trkpt>
      <trkpt lat="46.32443" lon="6.77723">
        <ele>1820</ele>
        <time>2021-10-10T12:32:50Z</time>
      </trkpt>
      <trkpt lat="46.32447" lon="6.77718">
        <ele>1818.4</ele>
        <time>2021-10-10T12:32:54Z</time>
      </trkpt>
      <trkpt lat="46.3245" lon="6.77715">
        <ele>1819.4</ele>
        <time>2021-10-10T12:32:58Z</time>
      </trkpt>
      <trkpt lat="46.32454" lon="6.77709">
        <ele>1817.8</ele>
        <time>2021-10-10T12:33:02Z</time>
      </trkpt>
      <trkpt lat="46.32456" lon="6.77705">
        <ele>1820</ele>
        <time>2021-10-10T12:33:05Z</time>
      </trkpt>
      <trkpt lat="46.3246" lon="6.77699">
        <ele>1819.4</ele>
        <time>2021-10-10T12:33:10Z</time>
      </trkpt>
      <trkpt lat="46.32462" lon="6.77693">
        <ele>1818.2</ele>
        <time>2021-10-10T12:33:14Z</time>
      </trkpt>
      <trkpt lat="46.32466" lon="6.77685">
        <ele>1817.6</ele>
        <time>2021-10-10T12:33:19Z</time>
      </trkpt>
      <trkpt lat="46.32471" lon="6.77682">
        <ele>1819.8</ele>
        <time>2021-10-10T12:33:23Z</time>
      </trkpt>
      <trkpt lat="46.32474" lon="6.7768">
        <ele>1817.2</ele>
        <time>2021-10-10T12:33:26Z</time>
      </trkpt>
      <trkpt lat="46.32479" lon="6.7768">
        <ele>1820.2</ele>
        <time>2021-10-10T12:33:31Z</time>
      </trkpt>
      <trkpt lat="46.32482" lon="6.77674">
        <ele>1819</ele>
        <time>2021-10-10T12:33:36Z</time>
      </trkpt>
      <trkpt lat="46.32485" lon="6.7767">
        <ele>1817.6</ele>
        <time>2021-10-10T12:33:41Z</time>
      </trkpt>
      <trkpt lat="46.32487" lon="6.77664">
        <ele>1820</ele>
        <time>2021-10-10T12:33:48Z</time>
      </trkpt>
      <trkpt lat="46.32489" lon="6.77657">
        <ele>1819.6</ele>
        <time>2021-10-10T12:33:53Z</time>
      </trkpt>
      <trkpt lat="46.32492" lon="6.77651">
        <ele>1821</ele>
        <time>2021-10-10T12:33:57Z</time>
      </trkpt>
      <trkpt lat="46.32494" lon="6.77645">
        <ele>1819.8</ele>
        <time>2021-10-10T12:34:01Z</time>
      </trkpt>
      <trkpt lat="46.32497" lon="6.77639">
        <ele>1820</ele>
        <time>2021-10-10T12:34:06Z</time>
      </trkpt>
      <trkpt lat="46.325" lon="6.77632">
        <ele>1820.4</ele>
        <time>2021-10-10T12:34:11Z</time>
      </trkpt>
      <trkpt lat="46.32504" lon="6.77628">
        <ele>1817.2</ele>
        <time>2021-10-10T12:34:15Z</time>
      </trkpt>
      <trkpt lat="46.32508" lon="6.77629">
        <ele>1819.4</ele>
        <time>2021-10-10T12:34:18Z</time>
      </trkpt>
      <trkpt lat="46.32512" lon="6.7763">
        <ele>1818.6</ele>
        <time>2021-10-10T12:34:22Z</time>
      </trkpt>
      <trkpt lat="46.32516" lon="6.77624">
        <ele>1820.8</ele>
        <time>2021-10-10T12:34:27Z</time>
      </trkpt>
      <trkpt lat="46.32519" lon="6.77618">
        <ele>1819.6</ele>
        <time>2021-10-10T12:34:31Z</time>
      </trkpt>
      <trkpt lat="46.3252" lon="6.77611">
        <ele>1817.6</ele>
        <time>2021-10-10T12:34:35Z</time>
      </trkpt>
      <trkpt lat="46.32523" lon="6.77605">
        <ele>1817.2</ele>
        <time>2021-10-10T12:34:39Z</time>
      </trkpt>
      <trkpt lat="46.32526" lon="6.77599">
        <ele>1816.6</ele>
        <time>2021-10-10T12:34:44Z</time>
      </trkpt>
      <trkpt lat="46.32531" lon="6.77595">
        <ele>1819.4</ele>
        <time>2021-10-10T12:34:50Z</time>
      </trkpt>
      <trkpt lat="46.32533" lon="6.7759">
        <ele>1817.2</ele>
        <time>2021-10-10T12:34:54Z</time>
      </trkpt>
      <trkpt lat="46.32534" lon="6.77583">
        <ele>1820.4</ele>
        <time>2021-10-10T12:34:58Z</time>
      </trkpt>
      <trkpt lat="46.32535" lon="6.77578">
        <ele>1818</ele>
        <time>2021-10-10T12:35:03Z</time>
      </trkpt>
      <trkpt lat="46.32536" lon="6.77572">
        <ele>1820</ele>
        <time>2021-10-10T12:35:07Z</time>
      </trkpt>
      <trkpt lat="46.32537" lon="6.77566">
        <ele>1819</ele>
        <time>2021-10-10T12:35:11Z</time>
      </trkpt>
      <trkpt lat="46.32536" lon="6.77558">
        <ele>1819.2</ele>
        <time>2021-10-10T12:35:15Z</time>
      </trkpt>
      <trkpt lat="46.32537" lon="6.77551">
        <ele>1821</ele>
        <time>2021-10-10T12:35:18Z</time>
      </trkpt>
      <trkpt lat="46.32537" lon="6.77544">
        <ele>1819.4</ele>
        <time>2021-10-10T12:35:21Z</time>
      </trkpt>
      <trkpt lat="46.32538" lon="6.77537">
        <ele>1819.6</ele>
        <time>2021-10-10T12:35:25Z</time>
      </trkpt>
      <trkpt lat="46.32537" lon="6.77532">
        <ele>1822.4</ele>
        <time>2021-10-10T12:35:28Z</time>
      </trkpt>
      <trkpt lat="46.32539" lon="6.77524">
        <ele>1822</ele>
        <time>2021-10-10T12:35:33Z</time>
      </trkpt>
      <trkpt lat="46.32539" lon="6.77518">
        <ele>1820.2</ele>
        <time>2021-10-10T12:35:37Z</time>
      </trkpt>
      <trkpt lat="46.3254" lon="6.7751">
        <ele>1822.2</ele>
        <time>2021-10-10T12:35:41Z</time>
      </trkpt>
      <trkpt lat="46.32541" lon="6.77502">
        <ele>1821.4</ele>
        <time>2021-10-10T12:35:45Z</time>
      </trkpt>
      <trkpt lat="46.32542" lon="6.77494">
        <ele>1822.6</ele>
        <time>2021-10-10T12:35:49Z</time>
      </trkpt>
      <trkpt lat="46.32544" lon="6.77488">
        <ele>1820</ele>
        <time>2021-10-10T12:35:53Z</time>
      </trkpt>
      <trkpt lat="46.32547" lon="6.77482">
        <ele>1822.2</ele>
        <time>2021-10-10T12:35:57Z</time>
      </trkpt>
      <trkpt lat="46.32549" lon="6.77478">
        <ele>1820.2</ele>
        <time>2021-10-10T12:36:00Z</time>
      </trkpt>
      <trkpt lat="46.32552" lon="6.77472">
        <ele>1819.4</ele>
        <time>2021-10-10T12:36:04Z</time>
      </trkpt>
      <trkpt lat="46.32556" lon="6.77465">
        <ele>1820.2</ele>
        <time>2021-10-10T12:36:09Z</time>
      </trkpt>
      <trkpt lat="46.32556" lon="6.77458">
        <ele>1819.2</ele>
        <time>2021-10-10T12:36:13Z</time>
      </trkpt>
      <trkpt lat="46.32557" lon="6.77451">
        <ele>1820.4</ele>
        <time>2021-10-10T12:36:18Z</time>
      </trkpt>
      <trkpt lat="46.32559" lon="6.77446">
        <ele>1821</ele>
        <time>2021-10-10T12:36:23Z</time>
      </trkpt>
      <trkpt lat="46.32558" lon="6.77438">
        <ele>1820.8</ele>
        <time>2021-10-10T12:36:28Z</time>
      </trkpt>
      <trkpt lat="46.32556" lon="6.77432">
        <ele>1820.8</ele>
        <time>2021-10-10T12:36:32Z</time>
      </trkpt>
      <trkpt lat="46.32555" lon="6.77426">
        <ele>1820.6</ele>
        <time>2021-10-10T12:36:36Z</time>
      </trkpt>
      <trkpt lat="46.32553" lon="6.77418">
        <ele>1820.2</ele>
        <time>2021-10-10T12:36:42Z</time>
      </trkpt>
      <trkpt lat="46.32552" lon="6.77412">
        <ele>1820.6</ele>
        <time>2021-10-10T12:36:46Z</time>
      </trkpt>
      <trkpt lat="46.3255" lon="6.77406">
        <ele>1822.2</ele>
        <time>2021-10-10T12:36:50Z</time>
      </trkpt>
      <trkpt lat="46.32548" lon="6.774">
        <ele>1821.2</ele>
        <time>2021-10-10T12:36:55Z</time>
      </trkpt>
      <trkpt lat="46.32547" lon="6.77394">
        <ele>1823.4</ele>
        <time>2021-10-10T12:37:00Z</time>
      </trkpt>
      <trkpt lat="46.32546" lon="6.7739">
        <ele>1819.2</ele>
        <time>2021-10-10T12:37:04Z</time>
      </trkpt>
      <trkpt lat="46.32544" lon="6.77386">
        <ele>1823.8</ele>
        <time>2021-10-10T12:37:08Z</time>
      </trkpt>
      <trkpt lat="46.32542" lon="6.77381">
        <ele>1823</ele>
        <time>2021-10-10T12:37:13Z</time>
      </trkpt>
      <trkpt lat="46.32538" lon="6.77378">
        <ele>1823.6</ele>
        <time>2021-10-10T12:37:19Z</time>
      </trkpt>
      <trkpt lat="46.32533" lon="6.77377">
        <ele>1825.8</ele>
        <time>2021-10-10T12:37:25Z</time>
      </trkpt>
      <trkpt lat="46.32531" lon="6.77371">
        <ele>1826.8</ele>
        <time>2021-10-10T12:37:31Z</time>
      </trkpt>
      <trkpt lat="46.32529" lon="6.77365">
        <ele>1827.8</ele>
        <time>2021-10-10T12:37:37Z</time>
      </trkpt>
      <trkpt lat="46.32525" lon="6.77362">
        <ele>1830.4</ele>
        <time>2021-10-10T12:37:46Z</time>
      </trkpt>
      <trkpt lat="46.3252" lon="6.77359">
        <ele>1829.8</ele>
        <time>2021-10-10T12:37:54Z</time>
      </trkpt>
      <trkpt lat="46.32516" lon="6.77356">
        <ele>1830.2</ele>
        <time>2021-10-10T12:38:03Z</time>
      </trkpt>
      <trkpt lat="46.32513" lon="6.77351">
        <ele>1831.8</ele>
        <time>2021-10-10T12:38:12Z</time>
      </trkpt>
      <trkpt lat="46.3251" lon="6.77345">
        <ele>1832</ele>
        <time>2021-10-10T12:38:23Z</time>
      </trkpt>
      <trkpt lat="46.32509" lon="6.7734">
        <ele>1833.4</ele>
        <time>2021-10-10T12:38:32Z</time>
      </trkpt>
      <trkpt lat="46.32506" lon="6.77335">
        <ele>1838</ele>
        <time>2021-10-10T12:38:41Z</time>
      </trkpt>
      <trkpt lat="46.3251" lon="6.7733">
        <ele>1838.4</ele>
        <time>2021-10-10T12:38:49Z</time>
      </trkpt>
      <trkpt lat="46.32512" lon="6.77325">
        <ele>1839.6</ele>
        <time>2021-10-10T12:38:59Z</time>
      </trkpt>
      <trkpt lat="46.32516" lon="6.77322">
        <ele>1839.6</ele>
        <time>2021-10-10T12:40:05Z</time>
      </trkpt>
      <trkpt lat="46.32513" lon="6.77318">
        <ele>1842</ele>
        <time>2021-10-10T12:40:11Z</time>
      </trkpt>
      <trkpt lat="46.32511" lon="6.77313">
        <ele>1844.8</ele>
        <time>2021-10-10T12:40:18Z</time>
      </trkpt>
      <trkpt lat="46.3251" lon="6.77306">
        <ele>1844.8</ele>
        <time>2021-10-10T12:40:27Z</time>
      </trkpt>
      <trkpt lat="46.32509" lon="6.77301">
        <ele>1849.4</ele>
        <time>2021-10-10T12:40:47Z</time>
      </trkpt>
      <trkpt lat="46.3251" lon="6.77295">
        <ele>1850.6</ele>
        <time>2021-10-10T12:40:54Z</time>
      </trkpt>
      <trkpt lat="46.32513" lon="6.77293">
        <ele>1855</ele>
        <time>2021-10-10T12:40:58Z</time>
      </trkpt>
      <trkpt lat="46.32516" lon="6.77289">
        <ele>1852.4</ele>
        <time>2021-10-10T12:41:04Z</time>
      </trkpt>
      <trkpt lat="46.32518" lon="6.77285">
        <ele>1855.6</ele>
        <time>2021-10-10T12:41:09Z</time>
      </trkpt>
      <trkpt lat="46.32521" lon="6.77278">
        <ele>1856.4</ele>
        <time>2021-10-10T12:41:17Z</time>
      </trkpt>
      <trkpt lat="46.32525" lon="6.77274">
        <ele>1856.4</ele>
        <time>2021-10-10T12:41:23Z</time>
      </trkpt>
      <trkpt lat="46.32529" lon="6.77271">
        <ele>1859.4</ele>
        <time>2021-10-10T12:41:30Z</time>
      </trkpt>
      <trkpt lat="46.32533" lon="6.77275">
        <ele>1861.4</ele>
        <time>2021-10-10T12:41:39Z</time>
      </trkpt>
      <trkpt lat="46.32536" lon="6.7727">
        <ele>1862</ele>
        <time>2021-10-10T12:43:30Z</time>
      </trkpt>
      <trkpt lat="46.32539" lon="6.77265">
        <ele>1864.8</ele>
        <time>2021-10-10T12:43:56Z</time>
      </trkpt>
      <trkpt lat="46.3254" lon="6.77261">
        <ele>1860.6</ele>
        <time>2021-10-10T12:44:28Z</time>
      </trkpt>
      <trkpt lat="46.32542" lon="6.77254">
        <ele>1861.4</ele>
        <time>2021-10-10T12:44:37Z</time>
      </trkpt>
      <trkpt lat="46.32544" lon="6.77248">
        <ele>1859.4</ele>
        <time>2021-10-10T12:44:42Z</time>
      </trkpt>
      <trkpt lat="46.32541" lon="6.77242">
        <ele>1859.4</ele>
        <time>2021-10-10T12:44:49Z</time>
      </trkpt>
      <trkpt lat="46.32542" lon="6.77235">
        <ele>1859.2</ele>
        <time>2021-10-10T12:44:54Z</time>
      </trkpt>
      <trkpt lat="46.32542" lon="6.77228">
        <ele>1857</ele>
        <time>2021-10-10T12:44:58Z</time>
      </trkpt>
      <trkpt lat="46.32542" lon="6.77223">
        <ele>1858.4</ele>
        <time>2021-10-10T12:45:01Z</time>
      </trkpt>
      <trkpt lat="46.32541" lon="6.77217">
        <ele>1855.4</ele>
        <time>2021-10-10T12:45:04Z</time>
      </trkpt>
      <trkpt lat="46.32539" lon="6.77211">
        <ele>1854.2</ele>
        <time>2021-10-10T12:45:08Z</time>
      </trkpt>
      <trkpt lat="46.32536" lon="6.77206">
        <ele>1855.8</ele>
        <time>2021-10-10T12:45:11Z</time>
      </trkpt>
      <trkpt lat="46.32533" lon="6.77199">
        <ele>1855.8</ele>
        <time>2021-10-10T12:45:16Z</time>
      </trkpt>
      <trkpt lat="46.32531" lon="6.77193">
        <ele>1854</ele>
        <time>2021-10-10T12:45:21Z</time>
      </trkpt>
      <trkpt lat="46.32528" lon="6.77187">
        <ele>1854.2</ele>
        <time>2021-10-10T12:45:26Z</time>
      </trkpt>
      <trkpt lat="46.32525" lon="6.77181">
        <ele>1854.6</ele>
        <time>2021-10-10T12:45:31Z</time>
      </trkpt>
      <trkpt lat="46.32527" lon="6.77177">
        <ele>1855.6</ele>
        <time>2021-10-10T12:45:37Z</time>
      </trkpt>
      <trkpt lat="46.32529" lon="6.77171">
        <ele>1858</ele>
        <time>2021-10-10T12:45:44Z</time>
      </trkpt>
      <trkpt lat="46.32531" lon="6.77166">
        <ele>1855</ele>
        <time>2021-10-10T12:45:49Z</time>
      </trkpt>
      <trkpt lat="46.3253" lon="6.77166">
        <ele>1859.4</ele>
        <time>2021-10-10T12:46:36Z</time>
      </trkpt>
      <trkpt lat="46.32529" lon="6.77172">
        <ele>1857.6</ele>
        <time>2021-10-10T12:47:21Z</time>
      </trkpt>
      <trkpt lat="46.32527" lon="6.77177">
        <ele>1854.4</ele>
        <time>2021-10-10T12:47:27Z</time>
      </trkpt>
      <trkpt lat="46.32525" lon="6.77184">
        <ele>1854.4</ele>
        <time>2021-10-10T12:47:32Z</time>
      </trkpt>
      <trkpt lat="46.32522" lon="6.7719">
        <ele>1853.4</ele>
        <time>2021-10-10T12:47:36Z</time>
      </trkpt>
      <trkpt lat="46.32518" lon="6.77194">
        <ele>1854.4</ele>
        <time>2021-10-10T12:47:41Z</time>
      </trkpt>
      <trkpt lat="46.32513" lon="6.77191">
        <ele>1853.4</ele>
        <time>2021-10-10T12:50:37Z</time>
      </trkpt>
      <trkpt lat="46.3251" lon="6.77186">
        <ele>1853</ele>
        <time>2021-10-10T12:50:41Z</time>
      </trkpt>
      <trkpt lat="46.32508" lon="6.77182">
        <ele>1856.6</ele>
        <time>2021-10-10T12:50:44Z</time>
      </trkpt>
      <trkpt lat="46.32506" lon="6.77178">
        <ele>1852.2</ele>
        <time>2021-10-10T12:50:47Z</time>
      </trkpt>
      <trkpt lat="46.32502" lon="6.77173">
        <ele>1849.6</ele>
        <time>2021-10-10T12:50:53Z</time>
      </trkpt>
      <trkpt lat="46.32501" lon="6.77167">
        <ele>1848.8</ele>
        <time>2021-10-10T12:50:58Z</time>
      </trkpt>
      <trkpt lat="46.32498" lon="6.77162">
        <ele>1849</ele>
        <time>2021-10-10T12:51:02Z</time>
      </trkpt>
      <trkpt lat="46.32494" lon="6.77159">
        <ele>1846.2</ele>
        <time>2021-10-10T12:51:07Z</time>
      </trkpt>
      <trkpt lat="46.32491" lon="6.77154">
        <ele>1843.4</ele>
        <time>2021-10-10T12:51:12Z</time>
      </trkpt>
      <trkpt lat="46.3249" lon="6.77148">
        <ele>1843.6</ele>
        <time>2021-10-10T12:51:16Z</time>
      </trkpt>
      <trkpt lat="46.32488" lon="6.77139">
        <ele>1841</ele>
        <time>2021-10-10T12:51:19Z</time>
      </trkpt>
      <trkpt lat="46.32487" lon="6.77131">
        <ele>1839</ele>
        <time>2021-10-10T12:51:22Z</time>
      </trkpt>
      <trkpt lat="46.32486" lon="6.77124">
        <ele>1840.4</ele>
        <time>2021-10-10T12:51:24Z</time>
      </trkpt>
      <trkpt lat="46.32484" lon="6.77117">
        <ele>1838.8</ele>
        <time>2021-10-10T12:51:27Z</time>
      </trkpt>
      <trkpt lat="46.32482" lon="6.77111">
        <ele>1839.4</ele>
        <time>2021-10-10T12:51:30Z</time>
      </trkpt>
      <trkpt lat="46.3248" lon="6.77103">
        <ele>1838.8</ele>
        <time>2021-10-10T12:51:34Z</time>
      </trkpt>
      <trkpt lat="46.3248" lon="6.77095">
        <ele>1838.6</ele>
        <time>2021-10-10T12:51:38Z</time>
      </trkpt>
      <trkpt lat="46.32479" lon="6.77087">
        <ele>1836.4</ele>
        <time>2021-10-10T12:51:42Z</time>
      </trkpt>
      <trkpt lat="46.32477" lon="6.77077">
        <ele>1835</ele>
        <time>2021-10-10T12:51:46Z</time>
      </trkpt>
      <trkpt lat="46.32476" lon="6.77069">
        <ele>1834.2</ele>
        <time>2021-10-10T12:51:50Z</time>
      </trkpt>
      <trkpt lat="46.32476" lon="6.77062">
        <ele>1834.6</ele>
        <time>2021-10-10T12:51:53Z</time>
      </trkpt>
      <trkpt lat="46.32475" lon="6.77056">
        <ele>1833.2</ele>
        <time>2021-10-10T12:51:56Z</time>
      </trkpt>
      <trkpt lat="46.32472" lon="6.77048">
        <ele>1832.6</ele>
        <time>2021-10-10T12:52:00Z</time>
      </trkpt>
      <trkpt lat="46.32471" lon="6.77043">
        <ele>1836</ele>
        <time>2021-10-10T12:52:02Z</time>
      </trkpt>
      <trkpt lat="46.32471" lon="6.77037">
        <ele>1833.4</ele>
        <time>2021-10-10T12:52:05Z</time>
      </trkpt>
      <trkpt lat="46.32469" lon="6.7703">
        <ele>1833.2</ele>
        <time>2021-10-10T12:52:09Z</time>
      </trkpt>
      <trkpt lat="46.32463" lon="6.77025">
        <ele>1835.2</ele>
        <time>2021-10-10T12:52:13Z</time>
      </trkpt>
      <trkpt lat="46.3246" lon="6.77021">
        <ele>1833</ele>
        <time>2021-10-10T12:52:16Z</time>
      </trkpt>
      <trkpt lat="46.32457" lon="6.77015">
        <ele>1833.2</ele>
        <time>2021-10-10T12:52:20Z</time>
      </trkpt>
      <trkpt lat="46.32454" lon="6.77009">
        <ele>1832.8</ele>
        <time>2021-10-10T12:52:23Z</time>
      </trkpt>
      <trkpt lat="46.32453" lon="6.77001">
        <ele>1833.8</ele>
        <time>2021-10-10T12:52:27Z</time>
      </trkpt>
      <trkpt lat="46.32451" lon="6.76993">
        <ele>1834.2</ele>
        <time>2021-10-10T12:52:31Z</time>
      </trkpt>
      <trkpt lat="46.32449" lon="6.76988">
        <ele>1835.6</ele>
        <time>2021-10-10T12:52:34Z</time>
      </trkpt>
      <trkpt lat="46.32447" lon="6.76981">
        <ele>1833.4</ele>
        <time>2021-10-10T12:52:39Z</time>
      </trkpt>
      <trkpt lat="46.32447" lon="6.76973">
        <ele>1834.8</ele>
        <time>2021-10-10T12:52:43Z</time>
      </trkpt>
      <trkpt lat="46.32448" lon="6.76965">
        <ele>1836.6</ele>
        <time>2021-10-10T12:52:47Z</time>
      </trkpt>
      <trkpt lat="46.32448" lon="6.76958">
        <ele>1836.8</ele>
        <time>2021-10-10T12:52:52Z</time>
      </trkpt>
      <trkpt lat="46.32447" lon="6.76952">
        <ele>1835.2</ele>
        <time>2021-10-10T12:52:56Z</time>
      </trkpt>
      <trkpt lat="46.32446" lon="6.76946">
        <ele>1838.4</ele>
        <time>2021-10-10T12:53:01Z</time>
      </trkpt>
      <trkpt lat="46.32446" lon="6.76939">
        <ele>1838.8</ele>
        <time>2021-10-10T12:53:06Z</time>
      </trkpt>
      <trkpt lat="46.32446" lon="6.76933">
        <ele>1837.8</ele>
        <time>2021-10-10T12:53:12Z</time>
      </trkpt>
      <trkpt lat="46.32449" lon="6.76926">
        <ele>1839.8</ele>
        <time>2021-10-10T12:53:18Z</time>
      </trkpt>
      <trkpt lat="46.32449" lon="6.76919">
        <ele>1838.6</ele>
        <time>2021-10-10T12:53:23Z</time>
      </trkpt>
      <trkpt lat="46.32449" lon="6.76913">
        <ele>1842.2</ele>
        <time>2021-10-10T12:53:27Z</time>
      </trkpt>
      <trkpt lat="46.32448" lon="6.76906">
        <ele>1842.2</ele>
        <time>2021-10-10T12:53:32Z</time>
      </trkpt>
      <trkpt lat="46.32446" lon="6.769">
        <ele>1841.8</ele>
        <time>2021-10-10T12:53:37Z</time>
      </trkpt>
      <trkpt lat="46.32445" lon="6.76893">
        <ele>1841</ele>
        <time>2021-10-10T12:53:43Z</time>
      </trkpt>
      <trkpt lat="46.32446" lon="6.76888">
        <ele>1838.4</ele>
        <time>2021-10-10T12:53:46Z</time>
      </trkpt>
      <trkpt lat="46.32446" lon="6.76885">
        <ele>1843.4</ele>
        <time>2021-10-10T12:53:48Z</time>
      </trkpt>
      <trkpt lat="46.32446" lon="6.76879">
        <ele>1839.8</ele>
        <time>2021-10-10T12:53:52Z</time>
      </trkpt>
      <trkpt lat="46.32446" lon="6.76872">
        <ele>1838.4</ele>
        <time>2021-10-10T12:53:56Z</time>
      </trkpt>
      <trkpt lat="46.32446" lon="6.76865">
        <ele>1839</ele>
        <time>2021-10-10T12:54:01Z</time>
      </trkpt>
      <trkpt lat="46.32446" lon="6.76856">
        <ele>1839.4</ele>
        <time>2021-10-10T12:54:05Z</time>
      </trkpt>
      <trkpt lat="46.32446" lon="6.7685">
        <ele>1836.8</ele>
        <time>2021-10-10T12:54:08Z</time>
      </trkpt>
      <trkpt lat="46.32447" lon="6.76844">
        <ele>1840</ele>
        <time>2021-10-10T12:54:12Z</time>
      </trkpt>
      <trkpt lat="46.32449" lon="6.7684">
        <ele>1836.4</ele>
        <time>2021-10-10T12:54:14Z</time>
      </trkpt>
      <trkpt lat="46.32452" lon="6.76834">
        <ele>1834.8</ele>
        <time>2021-10-10T12:54:18Z</time>
      </trkpt>
      <trkpt lat="46.32454" lon="6.76828">
        <ele>1836.8</ele>
        <time>2021-10-10T12:54:22Z</time>
      </trkpt>
      <trkpt lat="46.32457" lon="6.76822">
        <ele>1835.4</ele>
        <time>2021-10-10T12:54:25Z</time>
      </trkpt>
      <trkpt lat="46.3246" lon="6.76818">
        <ele>1837</ele>
        <time>2021-10-10T12:54:28Z</time>
      </trkpt>
      <trkpt lat="46.32463" lon="6.76813">
        <ele>1833.8</ele>
        <time>2021-10-10T12:54:31Z</time>
      </trkpt>
      <trkpt lat="46.32466" lon="6.76806">
        <ele>1834</ele>
        <time>2021-10-10T12:54:34Z</time>
      </trkpt>
      <trkpt lat="46.32469" lon="6.76801">
        <ele>1834.4</ele>
        <time>2021-10-10T12:54:39Z</time>
      </trkpt>
      <trkpt lat="46.32471" lon="6.76796">
        <ele>1832.8</ele>
        <time>2021-10-10T12:54:43Z</time>
      </trkpt>
      <trkpt lat="46.32474" lon="6.7679">
        <ele>1832.6</ele>
        <time>2021-10-10T12:54:54Z</time>
      </trkpt>
      <trkpt lat="46.32476" lon="6.76784">
        <ele>1831.8</ele>
        <time>2021-10-10T12:55:25Z</time>
      </trkpt>
      <trkpt lat="46.32475" lon="6.76779">
        <ele>1828.6</ele>
        <time>2021-10-10T12:55:29Z</time>
      </trkpt>
      <trkpt lat="46.32471" lon="6.76778">
        <ele>1829.6</ele>
        <time>2021-10-10T12:55:37Z</time>
      </trkpt>
      <trkpt lat="46.32466" lon="6.76779">
        <ele>1828</ele>
        <time>2021-10-10T12:55:43Z</time>
      </trkpt>
      <trkpt lat="46.32462" lon="6.76782">
        <ele>1824.8</ele>
        <time>2021-10-10T12:55:47Z</time>
      </trkpt>
      <trkpt lat="46.32458" lon="6.76785">
        <ele>1823.4</ele>
        <time>2021-10-10T12:55:53Z</time>
      </trkpt>
      <trkpt lat="46.32453" lon="6.76789">
        <ele>1822.8</ele>
        <time>2021-10-10T12:55:59Z</time>
      </trkpt>
      <trkpt lat="46.32449" lon="6.76792">
        <ele>1821.4</ele>
        <time>2021-10-10T12:56:03Z</time>
      </trkpt>
      <trkpt lat="46.32445" lon="6.76796">
        <ele>1820.4</ele>
        <time>2021-10-10T12:56:06Z</time>
      </trkpt>
      <trkpt lat="46.32442" lon="6.768">
        <ele>1817.4</ele>
        <time>2021-10-10T12:56:08Z</time>
      </trkpt>
      <trkpt lat="46.32437" lon="6.76804">
        <ele>1814.2</ele>
        <time>2021-10-10T12:56:12Z</time>
      </trkpt>
      <trkpt lat="46.32432" lon="6.76808">
        <ele>1815</ele>
        <time>2021-10-10T12:56:15Z</time>
      </trkpt>
      <trkpt lat="46.32429" lon="6.76813">
        <ele>1814.2</ele>
        <time>2021-10-10T12:56:18Z</time>
      </trkpt>
      <trkpt lat="46.32425" lon="6.76817">
        <ele>1817</ele>
        <time>2021-10-10T12:56:21Z</time>
      </trkpt>
      <trkpt lat="46.32421" lon="6.76821">
        <ele>1812.6</ele>
        <time>2021-10-10T12:56:24Z</time>
      </trkpt>
      <trkpt lat="46.32418" lon="6.76824">
        <ele>1811.6</ele>
        <time>2021-10-10T12:56:27Z</time>
      </trkpt>
      <trkpt lat="46.32413" lon="6.76824">
        <ele>1812.6</ele>
        <time>2021-10-10T12:56:31Z</time>
      </trkpt>
      <trkpt lat="46.3241" lon="6.76827">
        <ele>1808.2</ele>
        <time>2021-10-10T12:56:34Z</time>
      </trkpt>
      <trkpt lat="46.32405" lon="6.76829">
        <ele>1811.8</ele>
        <time>2021-10-10T12:56:37Z</time>
      </trkpt>
      <trkpt lat="46.32402" lon="6.7683">
        <ele>1808.8</ele>
        <time>2021-10-10T12:56:40Z</time>
      </trkpt>
      <trkpt lat="46.32399" lon="6.76835">
        <ele>1807</ele>
        <time>2021-10-10T12:56:44Z</time>
      </trkpt>
      <trkpt lat="46.32397" lon="6.76842">
        <ele>1806.2</ele>
        <time>2021-10-10T12:56:50Z</time>
      </trkpt>
      <trkpt lat="46.32393" lon="6.76842">
        <ele>1804</ele>
        <time>2021-10-10T12:56:55Z</time>
      </trkpt>
      <trkpt lat="46.3239" lon="6.76836">
        <ele>1803.4</ele>
        <time>2021-10-10T12:57:00Z</time>
      </trkpt>
      <trkpt lat="46.32386" lon="6.76836">
        <ele>1802.6</ele>
        <time>2021-10-10T12:57:05Z</time>
      </trkpt>
      <trkpt lat="46.32383" lon="6.76837">
        <ele>1799</ele>
        <time>2021-10-10T12:57:09Z</time>
      </trkpt>
      <trkpt lat="46.32379" lon="6.76833">
        <ele>1800</ele>
        <time>2021-10-10T12:57:12Z</time>
      </trkpt>
      <trkpt lat="46.32375" lon="6.76832">
        <ele>1800.4</ele>
        <time>2021-10-10T12:57:15Z</time>
      </trkpt>
      <trkpt lat="46.32372" lon="6.76832">
        <ele>1797.8</ele>
        <time>2021-10-10T12:57:18Z</time>
      </trkpt>
      <trkpt lat="46.32366" lon="6.76831">
        <ele>1800</ele>
        <time>2021-10-10T12:57:23Z</time>
      </trkpt>
      <trkpt lat="46.32361" lon="6.76828">
        <ele>1799.8</ele>
        <time>2021-10-10T12:57:27Z</time>
      </trkpt>
      <trkpt lat="46.32357" lon="6.76826">
        <ele>1800.4</ele>
        <time>2021-10-10T12:57:30Z</time>
      </trkpt>
      <trkpt lat="46.32352" lon="6.76826">
        <ele>1795.8</ele>
        <time>2021-10-10T12:57:34Z</time>
      </trkpt>
      <trkpt lat="46.32347" lon="6.76831">
        <ele>1795.6</ele>
        <time>2021-10-10T12:57:38Z</time>
      </trkpt>
      <trkpt lat="46.32343" lon="6.76832">
        <ele>1796</ele>
        <time>2021-10-10T12:57:42Z</time>
      </trkpt>
      <trkpt lat="46.32337" lon="6.76827">
        <ele>1792.6</ele>
        <time>2021-10-10T12:57:47Z</time>
      </trkpt>
      <trkpt lat="46.32332" lon="6.76827">
        <ele>1792</ele>
        <time>2021-10-10T12:57:50Z</time>
      </trkpt>
      <trkpt lat="46.32328" lon="6.76829">
        <ele>1790.2</ele>
        <time>2021-10-10T12:57:53Z</time>
      </trkpt>
      <trkpt lat="46.32323" lon="6.76829">
        <ele>1791.4</ele>
        <time>2021-10-10T12:57:56Z</time>
      </trkpt>
      <trkpt lat="46.32317" lon="6.76832">
        <ele>1792.4</ele>
        <time>2021-10-10T12:57:59Z</time>
      </trkpt>
      <trkpt lat="46.32312" lon="6.76831">
        <ele>1789.8</ele>
        <time>2021-10-10T12:58:02Z</time>
      </trkpt>
      <trkpt lat="46.32307" lon="6.7683">
        <ele>1789.4</ele>
        <time>2021-10-10T12:58:06Z</time>
      </trkpt>
      <trkpt lat="46.32302" lon="6.76832">
        <ele>1791</ele>
        <time>2021-10-10T12:58:09Z</time>
      </trkpt>
      <trkpt lat="46.32297" lon="6.76829">
        <ele>1789</ele>
        <time>2021-10-10T12:58:14Z</time>
      </trkpt>
      <trkpt lat="46.32294" lon="6.76824">
        <ele>1788</ele>
        <time>2021-10-10T12:58:18Z</time>
      </trkpt>
      <trkpt lat="46.3229" lon="6.7682">
        <ele>1783.8</ele>
        <time>2021-10-10T12:58:22Z</time>
      </trkpt>
      <trkpt lat="46.32286" lon="6.76819">
        <ele>1785.2</ele>
        <time>2021-10-10T12:58:26Z</time>
      </trkpt>
      <trkpt lat="46.32281" lon="6.76818">
        <ele>1785.4</ele>
        <time>2021-10-10T12:58:30Z</time>
      </trkpt>
      <trkpt lat="46.32281" lon="6.76813">
        <ele>1783.4</ele>
        <time>2021-10-10T12:58:34Z</time>
      </trkpt>
      <trkpt lat="46.32281" lon="6.76806">
        <ele>1780.4</ele>
        <time>2021-10-10T12:58:38Z</time>
      </trkpt>
      <trkpt lat="46.32281" lon="6.76799">
        <ele>1777.4</ele>
        <time>2021-10-10T12:58:46Z</time>
      </trkpt>
      <trkpt lat="46.32285" lon="6.76794">
        <ele>1776</ele>
        <time>2021-10-10T12:58:51Z</time>
      </trkpt>
      <trkpt lat="46.32287" lon="6.76793">
        <ele>1772.8</ele>
        <time>2021-10-10T12:58:54Z</time>
      </trkpt>
      <trkpt lat="46.32287" lon="6.76786">
        <ele>1769.8</ele>
        <time>2021-10-10T12:58:59Z</time>
      </trkpt>
      <trkpt lat="46.32283" lon="6.76785">
        <ele>1771</ele>
        <time>2021-10-10T12:59:02Z</time>
      </trkpt>
      <trkpt lat="46.3228" lon="6.76784">
        <ele>1773.6</ele>
        <time>2021-10-10T12:59:05Z</time>
      </trkpt>
      <trkpt lat="46.32276" lon="6.7678">
        <ele>1768.8</ele>
        <time>2021-10-10T12:59:09Z</time>
      </trkpt>
      <trkpt lat="46.32277" lon="6.76774">
        <ele>1769</ele>
        <time>2021-10-10T12:59:14Z</time>
      </trkpt>
      <trkpt lat="46.32278" lon="6.76767">
        <ele>1766.6</ele>
        <time>2021-10-10T12:59:19Z</time>
      </trkpt>
      <trkpt lat="46.3228" lon="6.76761">
        <ele>1766.6</ele>
        <time>2021-10-10T12:59:23Z</time>
      </trkpt>
      <trkpt lat="46.32283" lon="6.76757">
        <ele>1762.6</ele>
        <time>2021-10-10T12:59:26Z</time>
      </trkpt>
      <trkpt lat="46.32286" lon="6.7675">
        <ele>1764.8</ele>
        <time>2021-10-10T12:59:30Z</time>
      </trkpt>
      <trkpt lat="46.32289" lon="6.76746">
        <ele>1761</ele>
        <time>2021-10-10T12:59:33Z</time>
      </trkpt>
      <trkpt lat="46.32292" lon="6.76741">
        <ele>1761</ele>
        <time>2021-10-10T12:59:37Z</time>
      </trkpt>
      <trkpt lat="46.32294" lon="6.76735">
        <ele>1758.8</ele>
        <time>2021-10-10T12:59:41Z</time>
      </trkpt>
      <trkpt lat="46.32296" lon="6.76728">
        <ele>1755.2</ele>
        <time>2021-10-10T12:59:46Z</time>
      </trkpt>
      <trkpt lat="46.32295" lon="6.76722">
        <ele>1755.2</ele>
        <time>2021-10-10T12:59:50Z</time>
      </trkpt>
      <trkpt lat="46.3229" lon="6.76717">
        <ele>1754.4</ele>
        <time>2021-10-10T12:59:55Z</time>
      </trkpt>
      <trkpt lat="46.32291" lon="6.76711">
        <ele>1753</ele>
        <time>2021-10-10T13:00:05Z</time>
      </trkpt>
      <trkpt lat="46.32287" lon="6.76706">
        <ele>1752.6</ele>
        <time>2021-10-10T13:00:11Z</time>
      </trkpt>
      <trkpt lat="46.32286" lon="6.767">
        <ele>1750.8</ele>
        <time>2021-10-10T13:00:16Z</time>
      </trkpt>
      <trkpt lat="46.3229" lon="6.76696">
        <ele>1748.2</ele>
        <time>2021-10-10T13:00:19Z</time>
      </trkpt>
      <trkpt lat="46.32294" lon="6.76694">
        <ele>1747</ele>
        <time>2021-10-10T13:00:22Z</time>
      </trkpt>
      <trkpt lat="46.32295" lon="6.76685">
        <ele>1743.4</ele>
        <time>2021-10-10T13:00:27Z</time>
      </trkpt>
      <trkpt lat="46.32293" lon="6.76677">
        <ele>1742.2</ele>
        <time>2021-10-10T13:00:31Z</time>
      </trkpt>
      <trkpt lat="46.32289" lon="6.7667">
        <ele>1741.2</ele>
        <time>2021-10-10T13:00:35Z</time>
      </trkpt>
      <trkpt lat="46.32284" lon="6.76666">
        <ele>1739.8</ele>
        <time>2021-10-10T13:00:39Z</time>
      </trkpt>
      <trkpt lat="46.3228" lon="6.76663">
        <ele>1738.4</ele>
        <time>2021-10-10T13:00:43Z</time>
      </trkpt>
      <trkpt lat="46.32275" lon="6.76659">
        <ele>1735.4</ele>
        <time>2021-10-10T13:00:47Z</time>
      </trkpt>
      <trkpt lat="46.32271" lon="6.76662">
        <ele>1738.8</ele>
        <time>2021-10-10T13:01:01Z</time>
      </trkpt>
      <trkpt lat="46.32269" lon="6.76656">
        <ele>1736.4</ele>
        <time>2021-10-10T13:01:08Z</time>
      </trkpt>
      <trkpt lat="46.32264" lon="6.76653">
        <ele>1738.8</ele>
        <time>2021-10-10T13:01:12Z</time>
      </trkpt>
      <trkpt lat="46.3226" lon="6.76651">
        <ele>1736.8</ele>
        <time>2021-10-10T13:01:15Z</time>
      </trkpt>
      <trkpt lat="46.32254" lon="6.76648">
        <ele>1737.4</ele>
        <time>2021-10-10T13:01:19Z</time>
      </trkpt>
      <trkpt lat="46.3225" lon="6.76645">
        <ele>1736.2</ele>
        <time>2021-10-10T13:01:23Z</time>
      </trkpt>
      <trkpt lat="46.32244" lon="6.76643">
        <ele>1736.8</ele>
        <time>2021-10-10T13:01:27Z</time>
      </trkpt>
      <trkpt lat="46.32242" lon="6.76643">
        <ele>1733.2</ele>
        <time>2021-10-10T13:01:29Z</time>
      </trkpt>
      <trkpt lat="46.32237" lon="6.76644">
        <ele>1732.8</ele>
        <time>2021-10-10T13:01:33Z</time>
      </trkpt>
      <trkpt lat="46.32232" lon="6.76647">
        <ele>1732</ele>
        <time>2021-10-10T13:01:37Z</time>
      </trkpt>
      <trkpt lat="46.3223" lon="6.76652">
        <ele>1729.2</ele>
        <time>2021-10-10T13:01:40Z</time>
      </trkpt>
      <trkpt lat="46.32228" lon="6.76658">
        <ele>1730.4</ele>
        <time>2021-10-10T13:01:43Z</time>
      </trkpt>
      <trkpt lat="46.32227" lon="6.76664">
        <ele>1727.6</ele>
        <time>2021-10-10T13:01:46Z</time>
      </trkpt>
      <trkpt lat="46.32227" lon="6.76671">
        <ele>1726.8</ele>
        <time>2021-10-10T13:01:49Z</time>
      </trkpt>
      <trkpt lat="46.32226" lon="6.76677">
        <ele>1725.4</ele>
        <time>2021-10-10T13:01:52Z</time>
      </trkpt>
      <trkpt lat="46.32223" lon="6.76685">
        <ele>1724.4</ele>
        <time>2021-10-10T13:01:56Z</time>
      </trkpt>
      <trkpt lat="46.3222" lon="6.76691">
        <ele>1721.8</ele>
        <time>2021-10-10T13:02:00Z</time>
      </trkpt>
      <trkpt lat="46.32218" lon="6.76697">
        <ele>1722.6</ele>
        <time>2021-10-10T13:02:03Z</time>
      </trkpt>
      <trkpt lat="46.32216" lon="6.76703">
        <ele>1723.2</ele>
        <time>2021-10-10T13:02:06Z</time>
      </trkpt>
      <trkpt lat="46.32213" lon="6.76709">
        <ele>1720.2</ele>
        <time>2021-10-10T13:02:09Z</time>
      </trkpt>
      <trkpt lat="46.3221" lon="6.76712">
        <ele>1720.8</ele>
        <time>2021-10-10T13:02:13Z</time>
      </trkpt>
      <trkpt lat="46.32206" lon="6.76716">
        <ele>1717</ele>
        <time>2021-10-10T13:02:18Z</time>
      </trkpt>
      <trkpt lat="46.32203" lon="6.76721">
        <ele>1714.8</ele>
        <time>2021-10-10T13:02:22Z</time>
      </trkpt>
      <trkpt lat="46.32199" lon="6.76724">
        <ele>1714</ele>
        <time>2021-10-10T13:02:26Z</time>
      </trkpt>
      <trkpt lat="46.32195" lon="6.76727">
        <ele>1711</ele>
        <time>2021-10-10T13:02:49Z</time>
      </trkpt>
      <trkpt lat="46.32189" lon="6.7673">
        <ele>1711.4</ele>
        <time>2021-10-10T13:02:54Z</time>
      </trkpt>
      <trkpt lat="46.32186" lon="6.7673">
        <ele>1715.6</ele>
        <time>2021-10-10T13:02:57Z</time>
      </trkpt>
      <trkpt lat="46.32182" lon="6.76732">
        <ele>1715.4</ele>
        <time>2021-10-10T13:03:01Z</time>
      </trkpt>
      <trkpt lat="46.32177" lon="6.76733">
        <ele>1712.6</ele>
        <time>2021-10-10T13:03:05Z</time>
      </trkpt>
      <trkpt lat="46.32172" lon="6.76734">
        <ele>1711.8</ele>
        <time>2021-10-10T13:03:09Z</time>
      </trkpt>
      <trkpt lat="46.32174" lon="6.76738">
        <ele>1714.2</ele>
        <time>2021-10-10T13:03:21Z</time>
      </trkpt>
      <trkpt lat="46.3217" lon="6.76739">
        <ele>1714</ele>
        <time>2021-10-10T13:03:28Z</time>
      </trkpt>
      <trkpt lat="46.32166" lon="6.76739">
        <ele>1716.2</ele>
        <time>2021-10-10T13:03:33Z</time>
      </trkpt>
      <trkpt lat="46.3216" lon="6.76738">
        <ele>1716.4</ele>
        <time>2021-10-10T13:03:38Z</time>
      </trkpt>
      <trkpt lat="46.32154" lon="6.7674">
        <ele>1715.8</ele>
        <time>2021-10-10T13:03:44Z</time>
      </trkpt>
      <trkpt lat="46.32151" lon="6.76738">
        <ele>1715.4</ele>
        <time>2021-10-10T13:04:20Z</time>
      </trkpt>
      <trkpt lat="46.32148" lon="6.76744">
        <ele>1715</ele>
        <time>2021-10-10T13:04:25Z</time>
      </trkpt>
      <trkpt lat="46.32144" lon="6.7675">
        <ele>1712.8</ele>
        <time>2021-10-10T13:04:29Z</time>
      </trkpt>
      <trkpt lat="46.32141" lon="6.76753">
        <ele>1710.6</ele>
        <time>2021-10-10T13:04:33Z</time>
      </trkpt>
      <trkpt lat="46.32136" lon="6.76754">
        <ele>1711.4</ele>
        <time>2021-10-10T13:04:39Z</time>
      </trkpt>
      <trkpt lat="46.32132" lon="6.76753">
        <ele>1708.6</ele>
        <time>2021-10-10T13:04:47Z</time>
      </trkpt>
      <trkpt lat="46.32127" lon="6.76753">
        <ele>1708.8</ele>
        <time>2021-10-10T13:04:53Z</time>
      </trkpt>
      <trkpt lat="46.32125" lon="6.76747">
        <ele>1705.2</ele>
        <time>2021-10-10T13:04:59Z</time>
      </trkpt>
      <trkpt lat="46.32125" lon="6.76741">
        <ele>1705.4</ele>
        <time>2021-10-10T13:05:04Z</time>
      </trkpt>
      <trkpt lat="46.32125" lon="6.76734">
        <ele>1703.8</ele>
        <time>2021-10-10T13:05:08Z</time>
      </trkpt>
      <trkpt lat="46.32127" lon="6.76728">
        <ele>1703.4</ele>
        <time>2021-10-10T13:05:12Z</time>
      </trkpt>
      <trkpt lat="46.32126" lon="6.76721">
        <ele>1701.2</ele>
        <time>2021-10-10T13:05:17Z</time>
      </trkpt>
      <trkpt lat="46.32122" lon="6.76721">
        <ele>1698.2</ele>
        <time>2021-10-10T13:05:23Z</time>
      </trkpt>
      <trkpt lat="46.32121" lon="6.76715">
        <ele>1696.6</ele>
        <time>2021-10-10T13:05:32Z</time>
      </trkpt>
      <trkpt lat="46.32118" lon="6.76714">
        <ele>1692.8</ele>
        <time>2021-10-10T13:05:35Z</time>
      </trkpt>
      <trkpt lat="46.32114" lon="6.76716">
        <ele>1693.8</ele>
        <time>2021-10-10T13:05:39Z</time>
      </trkpt>
      <trkpt lat="46.32109" lon="6.76717">
        <ele>1691.6</ele>
        <time>2021-10-10T13:05:43Z</time>
      </trkpt>
      <trkpt lat="46.32104" lon="6.76715">
        <ele>1691.8</ele>
        <time>2021-10-10T13:05:47Z</time>
      </trkpt>
      <trkpt lat="46.32101" lon="6.76714">
        <ele>1689</ele>
        <time>2021-10-10T13:05:51Z</time>
      </trkpt>
      <trkpt lat="46.32096" lon="6.76713">
        <ele>1689.2</ele>
        <time>2021-10-10T13:05:55Z</time>
      </trkpt>
      <trkpt lat="46.32093" lon="6.76714">
        <ele>1686.4</ele>
        <time>2021-10-10T13:05:58Z</time>
      </trkpt>
      <trkpt lat="46.32088" lon="6.76717">
        <ele>1686.4</ele>
        <time>2021-10-10T13:06:02Z</time>
      </trkpt>
      <trkpt lat="46.32085" lon="6.76722">
        <ele>1684.8</ele>
        <time>2021-10-10T13:06:05Z</time>
      </trkpt>
      <trkpt lat="46.3208" lon="6.76724">
        <ele>1683.8</ele>
        <time>2021-10-10T13:06:09Z</time>
      </trkpt>
      <trkpt lat="46.32076" lon="6.76719">
        <ele>1684.8</ele>
        <time>2021-10-10T13:06:13Z</time>
      </trkpt>
      <trkpt lat="46.32075" lon="6.76714">
        <ele>1681.4</ele>
        <time>2021-10-10T13:06:16Z</time>
      </trkpt>
      <trkpt lat="46.32075" lon="6.76707">
        <ele>1680.8</ele>
        <time>2021-10-10T13:06:20Z</time>
      </trkpt>
      <trkpt lat="46.32075" lon="6.767">
        <ele>1678.2</ele>
        <time>2021-10-10T13:06:24Z</time>
      </trkpt>
      <trkpt lat="46.32074" lon="6.76694">
        <ele>1677.4</ele>
        <time>2021-10-10T13:06:27Z</time>
      </trkpt>
      <trkpt lat="46.32073" lon="6.76686">
        <ele>1675.8</ele>
        <time>2021-10-10T13:06:30Z</time>
      </trkpt>
      <trkpt lat="46.32071" lon="6.76679">
        <ele>1676.2</ele>
        <time>2021-10-10T13:06:34Z</time>
      </trkpt>
      <trkpt lat="46.32072" lon="6.76672">
        <ele>1673.4</ele>
        <time>2021-10-10T13:06:38Z</time>
      </trkpt>
      <trkpt lat="46.32076" lon="6.76669">
        <ele>1671.8</ele>
        <time>2021-10-10T13:06:42Z</time>
      </trkpt>
      <trkpt lat="46.32082" lon="6.76668">
        <ele>1671.8</ele>
        <time>2021-10-10T13:06:46Z</time>
      </trkpt>
      <trkpt lat="46.32088" lon="6.76668">
        <ele>1669.6</ele>
        <time>2021-10-10T13:06:50Z</time>
      </trkpt>
      <trkpt lat="46.32092" lon="6.76666">
        <ele>1667.6</ele>
        <time>2021-10-10T13:06:53Z</time>
      </trkpt>
      <trkpt lat="46.32097" lon="6.76663">
        <ele>1663.2</ele>
        <time>2021-10-10T13:06:57Z</time>
      </trkpt>
      <trkpt lat="46.321" lon="6.76657">
        <ele>1663.2</ele>
        <time>2021-10-10T13:07:02Z</time>
      </trkpt>
      <trkpt lat="46.321" lon="6.76651">
        <ele>1661.6</ele>
        <time>2021-10-10T13:07:06Z</time>
      </trkpt>
      <trkpt lat="46.32097" lon="6.76645">
        <ele>1662.2</ele>
        <time>2021-10-10T13:07:10Z</time>
      </trkpt>
      <trkpt lat="46.32091" lon="6.76642">
        <ele>1661.6</ele>
        <time>2021-10-10T13:07:14Z</time>
      </trkpt>
      <trkpt lat="46.32087" lon="6.76641">
        <ele>1659.2</ele>
        <time>2021-10-10T13:07:17Z</time>
      </trkpt>
      <trkpt lat="46.32083" lon="6.7664">
        <ele>1660.6</ele>
        <time>2021-10-10T13:07:20Z</time>
      </trkpt>
      <trkpt lat="46.32079" lon="6.76637">
        <ele>1663.4</ele>
        <time>2021-10-10T13:07:23Z</time>
      </trkpt>
      <trkpt lat="46.32076" lon="6.76636">
        <ele>1657.4</ele>
        <time>2021-10-10T13:07:25Z</time>
      </trkpt>
      <trkpt lat="46.32072" lon="6.76635">
        <ele>1659.8</ele>
        <time>2021-10-10T13:07:28Z</time>
      </trkpt>
      <trkpt lat="46.32067" lon="6.76637">
        <ele>1660.6</ele>
        <time>2021-10-10T13:07:32Z</time>
      </trkpt>
      <trkpt lat="46.32063" lon="6.76639">
        <ele>1657</ele>
        <time>2021-10-10T13:07:35Z</time>
      </trkpt>
      <trkpt lat="46.32059" lon="6.76641">
        <ele>1653.6</ele>
        <time>2021-10-10T13:07:38Z</time>
      </trkpt>
      <trkpt lat="46.32053" lon="6.7664">
        <ele>1655.4</ele>
        <time>2021-10-10T13:07:42Z</time>
      </trkpt>
      <trkpt lat="46.32049" lon="6.76639">
        <ele>1656.6</ele>
        <time>2021-10-10T13:07:45Z</time>
      </trkpt>
      <trkpt lat="46.32044" lon="6.76639">
        <ele>1656.6</ele>
        <time>2021-10-10T13:07:48Z</time>
      </trkpt>
      <trkpt lat="46.32039" lon="6.76638">
        <ele>1653.6</ele>
        <time>2021-10-10T13:07:51Z</time>
      </trkpt>
      <trkpt lat="46.32035" lon="6.76638">
        <ele>1654.8</ele>
        <time>2021-10-10T13:07:54Z</time>
      </trkpt>
      <trkpt lat="46.3203" lon="6.76639">
        <ele>1653.6</ele>
        <time>2021-10-10T13:07:57Z</time>
      </trkpt>
      <trkpt lat="46.32025" lon="6.76639">
        <ele>1652.4</ele>
        <time>2021-10-10T13:08:01Z</time>
      </trkpt>
      <trkpt lat="46.32019" lon="6.76639">
        <ele>1653.8</ele>
        <time>2021-10-10T13:08:05Z</time>
      </trkpt>
      <trkpt lat="46.32015" lon="6.76641">
        <ele>1652</ele>
        <time>2021-10-10T13:08:08Z</time>
      </trkpt>
      <trkpt lat="46.3201" lon="6.76644">
        <ele>1650.4</ele>
        <time>2021-10-10T13:08:11Z</time>
      </trkpt>
      <trkpt lat="46.32005" lon="6.76649">
        <ele>1650.8</ele>
        <time>2021-10-10T13:08:15Z</time>
      </trkpt>
      <trkpt lat="46.32002" lon="6.76654">
        <ele>1649.2</ele>
        <time>2021-10-10T13:08:18Z</time>
      </trkpt>
      <trkpt lat="46.32" lon="6.7666">
        <ele>1647</ele>
        <time>2021-10-10T13:08:21Z</time>
      </trkpt>
      <trkpt lat="46.32" lon="6.76667">
        <ele>1648</ele>
        <time>2021-10-10T13:08:25Z</time>
      </trkpt>
      <trkpt lat="46.32002" lon="6.76672">
        <ele>1643.6</ele>
        <time>2021-10-10T13:08:28Z</time>
      </trkpt>
      <trkpt lat="46.32003" lon="6.76678">
        <ele>1647.6</ele>
        <time>2021-10-10T13:08:31Z</time>
      </trkpt>
      <trkpt lat="46.32004" lon="6.76683">
        <ele>1644.8</ele>
        <time>2021-10-10T13:08:34Z</time>
      </trkpt>
      <trkpt lat="46.32005" lon="6.76691">
        <ele>1646.2</ele>
        <time>2021-10-10T13:08:38Z</time>
      </trkpt>
      <trkpt lat="46.32005" lon="6.76697">
        <ele>1645.6</ele>
        <time>2021-10-10T13:08:41Z</time>
      </trkpt>
      <trkpt lat="46.32005" lon="6.76704">
        <ele>1646.2</ele>
        <time>2021-10-10T13:08:44Z</time>
      </trkpt>
      <trkpt lat="46.32002" lon="6.7671">
        <ele>1646.6</ele>
        <time>2021-10-10T13:08:47Z</time>
      </trkpt>
      <trkpt lat="46.31998" lon="6.76714">
        <ele>1645.8</ele>
        <time>2021-10-10T13:08:50Z</time>
      </trkpt>
      <trkpt lat="46.31994" lon="6.76715">
        <ele>1642.4</ele>
        <time>2021-10-10T13:08:53Z</time>
      </trkpt>
      <trkpt lat="46.31989" lon="6.76713">
        <ele>1642.4</ele>
        <time>2021-10-10T13:08:56Z</time>
      </trkpt>
      <trkpt lat="46.31983" lon="6.76712">
        <ele>1643.2</ele>
        <time>2021-10-10T13:09:00Z</time>
      </trkpt>
      <trkpt lat="46.31978" lon="6.76712">
        <ele>1642.6</ele>
        <time>2021-10-10T13:09:03Z</time>
      </trkpt>
      <trkpt lat="46.31973" lon="6.76713">
        <ele>1641.8</ele>
        <time>2021-10-10T13:09:07Z</time>
      </trkpt>
      <trkpt lat="46.31969" lon="6.76714">
        <ele>1641.4</ele>
        <time>2021-10-10T13:09:11Z</time>
      </trkpt>
      <trkpt lat="46.31964" lon="6.76716">
        <ele>1639.8</ele>
        <time>2021-10-10T13:09:15Z</time>
      </trkpt>
      <trkpt lat="46.31959" lon="6.76718">
        <ele>1642</ele>
        <time>2021-10-10T13:09:19Z</time>
      </trkpt>
      <trkpt lat="46.31954" lon="6.76721">
        <ele>1641</ele>
        <time>2021-10-10T13:09:23Z</time>
      </trkpt>
      <trkpt lat="46.31951" lon="6.76724">
        <ele>1640.2</ele>
        <time>2021-10-10T13:09:26Z</time>
      </trkpt>
      <trkpt lat="46.31946" lon="6.76729">
        <ele>1639.4</ele>
        <time>2021-10-10T13:09:30Z</time>
      </trkpt>
      <trkpt lat="46.31941" lon="6.76733">
        <ele>1636.8</ele>
        <time>2021-10-10T13:09:34Z</time>
      </trkpt>
      <trkpt lat="46.31937" lon="6.76734">
        <ele>1639.6</ele>
        <time>2021-10-10T13:09:37Z</time>
      </trkpt>
      <trkpt lat="46.31932" lon="6.76737">
        <ele>1637</ele>
        <time>2021-10-10T13:09:41Z</time>
      </trkpt>
      <trkpt lat="46.31926" lon="6.76739">
        <ele>1634.6</ele>
        <time>2021-10-10T13:09:45Z</time>
      </trkpt>
      <trkpt lat="46.31922" lon="6.7674">
        <ele>1636.2</ele>
        <time>2021-10-10T13:09:48Z</time>
      </trkpt>
      <trkpt lat="46.31918" lon="6.76743">
        <ele>1636.4</ele>
        <time>2021-10-10T13:09:51Z</time>
      </trkpt>
      <trkpt lat="46.31913" lon="6.76745">
        <ele>1635.8</ele>
        <time>2021-10-10T13:09:55Z</time>
      </trkpt>
      <trkpt lat="46.31907" lon="6.76747">
        <ele>1635.6</ele>
        <time>2021-10-10T13:09:59Z</time>
      </trkpt>
      <trkpt lat="46.31903" lon="6.76748">
        <ele>1635.4</ele>
        <time>2021-10-10T13:10:02Z</time>
      </trkpt>
      <trkpt lat="46.31898" lon="6.7675">
        <ele>1637</ele>
        <time>2021-10-10T13:10:06Z</time>
      </trkpt>
      <trkpt lat="46.31894" lon="6.7675">
        <ele>1638.4</ele>
        <time>2021-10-10T13:10:09Z</time>
      </trkpt>
      <trkpt lat="46.31889" lon="6.76748">
        <ele>1635.6</ele>
        <time>2021-10-10T13:10:13Z</time>
      </trkpt>
      <trkpt lat="46.31884" lon="6.76746">
        <ele>1635</ele>
        <time>2021-10-10T13:10:17Z</time>
      </trkpt>
      <trkpt lat="46.31881" lon="6.76741">
        <ele>1631.6</ele>
        <time>2021-10-10T13:10:25Z</time>
      </trkpt>
      <trkpt lat="46.31878" lon="6.76736">
        <ele>1634</ele>
        <time>2021-10-10T13:10:28Z</time>
      </trkpt>
      <trkpt lat="46.31875" lon="6.76732">
        <ele>1630.6</ele>
        <time>2021-10-10T13:10:32Z</time>
      </trkpt>
      <trkpt lat="46.31871" lon="6.76728">
        <ele>1630.8</ele>
        <time>2021-10-10T13:10:36Z</time>
      </trkpt>
      <trkpt lat="46.31868" lon="6.76728">
        <ele>1626.8</ele>
        <time>2021-10-10T13:10:39Z</time>
      </trkpt>
      <trkpt lat="46.31864" lon="6.76728">
        <ele>1624.4</ele>
        <time>2021-10-10T13:10:51Z</time>
      </trkpt>
      <trkpt lat="46.31859" lon="6.76726">
        <ele>1622</ele>
        <time>2021-10-10T13:11:03Z</time>
      </trkpt>
      <trkpt lat="46.31855" lon="6.76726">
        <ele>1621</ele>
        <time>2021-10-10T13:11:07Z</time>
      </trkpt>
      <trkpt lat="46.31851" lon="6.7672">
        <ele>1622</ele>
        <time>2021-10-10T13:11:14Z</time>
      </trkpt>
      <trkpt lat="46.31849" lon="6.76719">
        <ele>1618.2</ele>
        <time>2021-10-10T13:11:16Z</time>
      </trkpt>
      <trkpt lat="46.31845" lon="6.76716">
        <ele>1617</ele>
        <time>2021-10-10T13:11:20Z</time>
      </trkpt>
      <trkpt lat="46.31841" lon="6.76712">
        <ele>1615.8</ele>
        <time>2021-10-10T13:11:25Z</time>
      </trkpt>
      <trkpt lat="46.31839" lon="6.76704">
        <ele>1612.6</ele>
        <time>2021-10-10T13:11:30Z</time>
      </trkpt>
      <trkpt lat="46.31837" lon="6.76698">
        <ele>1610.2</ele>
        <time>2021-10-10T13:11:34Z</time>
      </trkpt>
      <trkpt lat="46.31835" lon="6.76691">
        <ele>1610.4</ele>
        <time>2021-10-10T13:11:38Z</time>
      </trkpt>
      <trkpt lat="46.31835" lon="6.76683">
        <ele>1607.2</ele>
        <time>2021-10-10T13:11:42Z</time>
      </trkpt>
      <trkpt lat="46.31836" lon="6.76678">
        <ele>1608.8</ele>
        <time>2021-10-10T13:11:45Z</time>
      </trkpt>
      <trkpt lat="46.31835" lon="6.7667">
        <ele>1605.6</ele>
        <time>2021-10-10T13:11:50Z</time>
      </trkpt>
      <trkpt lat="46.31834" lon="6.76663">
        <ele>1607</ele>
        <time>2021-10-10T13:11:55Z</time>
      </trkpt>
      <trkpt lat="46.31832" lon="6.76655">
        <ele>1603</ele>
        <time>2021-10-10T13:12:00Z</time>
      </trkpt>
      <trkpt lat="46.3183" lon="6.76648">
        <ele>1601.6</ele>
        <time>2021-10-10T13:12:04Z</time>
      </trkpt>
      <trkpt lat="46.31829" lon="6.76644">
        <ele>1603.2</ele>
        <time>2021-10-10T13:12:07Z</time>
      </trkpt>
      <trkpt lat="46.31828" lon="6.76637">
        <ele>1601</ele>
        <time>2021-10-10T13:12:12Z</time>
      </trkpt>
      <trkpt lat="46.31824" lon="6.76632">
        <ele>1601.2</ele>
        <time>2021-10-10T13:12:17Z</time>
      </trkpt>
      <trkpt lat="46.31819" lon="6.76628">
        <ele>1598.8</ele>
        <time>2021-10-10T13:12:22Z</time>
      </trkpt>
      <trkpt lat="46.31815" lon="6.76627">
        <ele>1596.2</ele>
        <time>2021-10-10T13:12:26Z</time>
      </trkpt>
      <trkpt lat="46.3181" lon="6.76628">
        <ele>1595.8</ele>
        <time>2021-10-10T13:12:30Z</time>
      </trkpt>
      <trkpt lat="46.31806" lon="6.76632">
        <ele>1594.4</ele>
        <time>2021-10-10T13:12:34Z</time>
      </trkpt>
      <trkpt lat="46.31801" lon="6.76635">
        <ele>1594.8</ele>
        <time>2021-10-10T13:12:38Z</time>
      </trkpt>
      <trkpt lat="46.31797" lon="6.76636">
        <ele>1593</ele>
        <time>2021-10-10T13:12:41Z</time>
      </trkpt>
      <trkpt lat="46.31794" lon="6.7663">
        <ele>1594.2</ele>
        <time>2021-10-10T13:12:44Z</time>
      </trkpt>
      <trkpt lat="46.31793" lon="6.76622">
        <ele>1593.4</ele>
        <time>2021-10-10T13:12:48Z</time>
      </trkpt>
      <trkpt lat="46.31793" lon="6.76617">
        <ele>1594.2</ele>
        <time>2021-10-10T13:12:51Z</time>
      </trkpt>
      <trkpt lat="46.31795" lon="6.76611">
        <ele>1590.2</ele>
        <time>2021-10-10T13:12:54Z</time>
      </trkpt>
      <trkpt lat="46.31797" lon="6.76606">
        <ele>1594.4</ele>
        <time>2021-10-10T13:12:57Z</time>
      </trkpt>
      <trkpt lat="46.31799" lon="6.76603">
        <ele>1592</ele>
        <time>2021-10-10T13:12:59Z</time>
      </trkpt>
      <trkpt lat="46.31803" lon="6.766">
        <ele>1591.8</ele>
        <time>2021-10-10T13:13:02Z</time>
      </trkpt>
      <trkpt lat="46.31809" lon="6.76596">
        <ele>1590</ele>
        <time>2021-10-10T13:13:06Z</time>
      </trkpt>
      <trkpt lat="46.31813" lon="6.76594">
        <ele>1591</ele>
        <time>2021-10-10T13:13:09Z</time>
      </trkpt>
      <trkpt lat="46.31817" lon="6.76593">
        <ele>1586.6</ele>
        <time>2021-10-10T13:13:12Z</time>
      </trkpt>
      <trkpt lat="46.31821" lon="6.76587">
        <ele>1589.4</ele>
        <time>2021-10-10T13:13:16Z</time>
      </trkpt>
      <trkpt lat="46.3182" lon="6.76581">
        <ele>1590.6</ele>
        <time>2021-10-10T13:13:19Z</time>
      </trkpt>
      <trkpt lat="46.31816" lon="6.76575">
        <ele>1588.8</ele>
        <time>2021-10-10T13:13:23Z</time>
      </trkpt>
      <trkpt lat="46.31811" lon="6.76573">
        <ele>1591.4</ele>
        <time>2021-10-10T13:13:26Z</time>
      </trkpt>
      <trkpt lat="46.31807" lon="6.76571">
        <ele>1587.8</ele>
        <time>2021-10-10T13:13:29Z</time>
      </trkpt>
      <trkpt lat="46.31803" lon="6.76569">
        <ele>1587.6</ele>
        <time>2021-10-10T13:13:32Z</time>
      </trkpt>
      <trkpt lat="46.31798" lon="6.76568">
        <ele>1590.4</ele>
        <time>2021-10-10T13:13:35Z</time>
      </trkpt>
      <trkpt lat="46.31792" lon="6.76568">
        <ele>1587.8</ele>
        <time>2021-10-10T13:13:39Z</time>
      </trkpt>
      <trkpt lat="46.31788" lon="6.76568">
        <ele>1588.8</ele>
        <time>2021-10-10T13:13:42Z</time>
      </trkpt>
      <trkpt lat="46.31781" lon="6.76569">
        <ele>1586.2</ele>
        <time>2021-10-10T13:13:47Z</time>
      </trkpt>
      <trkpt lat="46.31777" lon="6.76571">
        <ele>1586.6</ele>
        <time>2021-10-10T13:13:50Z</time>
      </trkpt>
      <trkpt lat="46.31772" lon="6.76572">
        <ele>1585.8</ele>
        <time>2021-10-10T13:13:53Z</time>
      </trkpt>
      <trkpt lat="46.31767" lon="6.76572">
        <ele>1586</ele>
        <time>2021-10-10T13:13:56Z</time>
      </trkpt>
      <trkpt lat="46.31763" lon="6.76573">
        <ele>1585.4</ele>
        <time>2021-10-10T13:13:59Z</time>
      </trkpt>
      <trkpt lat="46.31758" lon="6.76574">
        <ele>1586</ele>
        <time>2021-10-10T13:14:02Z</time>
      </trkpt>
      <trkpt lat="46.31753" lon="6.76575">
        <ele>1585.8</ele>
        <time>2021-10-10T13:14:06Z</time>
      </trkpt>
      <trkpt lat="46.31749" lon="6.76577">
        <ele>1583.8</ele>
        <time>2021-10-10T13:14:09Z</time>
      </trkpt>
      <trkpt lat="46.31742" lon="6.7658">
        <ele>1584.6</ele>
        <time>2021-10-10T13:14:13Z</time>
      </trkpt>
      <trkpt lat="46.31737" lon="6.76578">
        <ele>1586.6</ele>
        <time>2021-10-10T13:14:17Z</time>
      </trkpt>
      <trkpt lat="46.31733" lon="6.76573">
        <ele>1583.6</ele>
        <time>2021-10-10T13:14:20Z</time>
      </trkpt>
      <trkpt lat="46.31731" lon="6.76567">
        <ele>1582.8</ele>
        <time>2021-10-10T13:14:23Z</time>
      </trkpt>
      <trkpt lat="46.31731" lon="6.76558">
        <ele>1583.4</ele>
        <time>2021-10-10T13:14:27Z</time>
      </trkpt>
      <trkpt lat="46.31731" lon="6.76552">
        <ele>1579.8</ele>
        <time>2021-10-10T13:14:30Z</time>
      </trkpt>
      <trkpt lat="46.31732" lon="6.76546">
        <ele>1581.4</ele>
        <time>2021-10-10T13:14:33Z</time>
      </trkpt>
      <trkpt lat="46.31732" lon="6.7654">
        <ele>1580</ele>
        <time>2021-10-10T13:14:36Z</time>
      </trkpt>
      <trkpt lat="46.31731" lon="6.76533">
        <ele>1574.6</ele>
        <time>2021-10-10T13:14:39Z</time>
      </trkpt>
      <trkpt lat="46.3173" lon="6.76527">
        <ele>1578.4</ele>
        <time>2021-10-10T13:14:42Z</time>
      </trkpt>
      <trkpt lat="46.31728" lon="6.76521">
        <ele>1576.4</ele>
        <time>2021-10-10T13:14:45Z</time>
      </trkpt>
      <trkpt lat="46.31726" lon="6.76517">
        <ele>1579.4</ele>
        <time>2021-10-10T13:14:47Z</time>
      </trkpt>
      <trkpt lat="46.31723" lon="6.76512">
        <ele>1577.6</ele>
        <time>2021-10-10T13:14:50Z</time>
      </trkpt>
      <trkpt lat="46.31719" lon="6.76507">
        <ele>1578.4</ele>
        <time>2021-10-10T13:14:54Z</time>
      </trkpt>
      <trkpt lat="46.31713" lon="6.76503">
        <ele>1578.2</ele>
        <time>2021-10-10T13:14:58Z</time>
      </trkpt>
      <trkpt lat="46.31708" lon="6.765">
        <ele>1576.8</ele>
        <time>2021-10-10T13:15:02Z</time>
      </trkpt>
      <trkpt lat="46.31703" lon="6.76499">
        <ele>1574.6</ele>
        <time>2021-10-10T13:15:05Z</time>
      </trkpt>
      <trkpt lat="46.31699" lon="6.76499">
        <ele>1573.2</ele>
        <time>2021-10-10T13:15:08Z</time>
      </trkpt>
      <trkpt lat="46.31694" lon="6.765">
        <ele>1576</ele>
        <time>2021-10-10T13:15:11Z</time>
      </trkpt>
      <trkpt lat="46.31689" lon="6.76504">
        <ele>1572</ele>
        <time>2021-10-10T13:15:15Z</time>
      </trkpt>
      <trkpt lat="46.31686" lon="6.76507">
        <ele>1574.4</ele>
        <time>2021-10-10T13:15:18Z</time>
      </trkpt>
      <trkpt lat="46.31683" lon="6.76511">
        <ele>1572.4</ele>
        <time>2021-10-10T13:15:21Z</time>
      </trkpt>
      <trkpt lat="46.31679" lon="6.76515">
        <ele>1572</ele>
        <time>2021-10-10T13:15:25Z</time>
      </trkpt>
      <trkpt lat="46.31674" lon="6.76519">
        <ele>1573.2</ele>
        <time>2021-10-10T13:15:29Z</time>
      </trkpt>
      <trkpt lat="46.31672" lon="6.76522">
        <ele>1569.4</ele>
        <time>2021-10-10T13:15:31Z</time>
      </trkpt>
      <trkpt lat="46.31668" lon="6.76525">
        <ele>1567.4</ele>
        <time>2021-10-10T13:15:34Z</time>
      </trkpt>
      <trkpt lat="46.31665" lon="6.76529">
        <ele>1568.8</ele>
        <time>2021-10-10T13:15:37Z</time>
      </trkpt>
      <trkpt lat="46.3166" lon="6.76534">
        <ele>1568.2</ele>
        <time>2021-10-10T13:15:41Z</time>
      </trkpt>
      <trkpt lat="46.31656" lon="6.76539">
        <ele>1565.2</ele>
        <time>2021-10-10T13:15:45Z</time>
      </trkpt>
      <trkpt lat="46.31652" lon="6.76545">
        <ele>1566.4</ele>
        <time>2021-10-10T13:15:49Z</time>
      </trkpt>
      <trkpt lat="46.31649" lon="6.76549">
        <ele>1564.2</ele>
        <time>2021-10-10T13:15:52Z</time>
      </trkpt>
      <trkpt lat="46.31644" lon="6.76553">
        <ele>1562.8</ele>
        <time>2021-10-10T13:15:55Z</time>
      </trkpt>
      <trkpt lat="46.31639" lon="6.76552">
        <ele>1563.2</ele>
        <time>2021-10-10T13:15:59Z</time>
      </trkpt>
      <trkpt lat="46.31634" lon="6.76548">
        <ele>1561.2</ele>
        <time>2021-10-10T13:16:03Z</time>
      </trkpt>
      <trkpt lat="46.31629" lon="6.76545">
        <ele>1563.2</ele>
        <time>2021-10-10T13:16:06Z</time>
      </trkpt>
      <trkpt lat="46.31625" lon="6.76542">
        <ele>1560.2</ele>
        <time>2021-10-10T13:16:09Z</time>
      </trkpt>
      <trkpt lat="46.3162" lon="6.76539">
        <ele>1560.8</ele>
        <time>2021-10-10T13:16:13Z</time>
      </trkpt>
      <trkpt lat="46.31616" lon="6.76534">
        <ele>1562</ele>
        <time>2021-10-10T13:16:17Z</time>
      </trkpt>
      <trkpt lat="46.31612" lon="6.7653">
        <ele>1559.8</ele>
        <time>2021-10-10T13:16:20Z</time>
      </trkpt>
      <trkpt lat="46.31609" lon="6.76525">
        <ele>1557.8</ele>
        <time>2021-10-10T13:16:23Z</time>
      </trkpt>
      <trkpt lat="46.31604" lon="6.76523">
        <ele>1557.4</ele>
        <time>2021-10-10T13:16:26Z</time>
      </trkpt>
      <trkpt lat="46.31599" lon="6.76522">
        <ele>1555.4</ele>
        <time>2021-10-10T13:16:30Z</time>
      </trkpt>
      <trkpt lat="46.31593" lon="6.76525">
        <ele>1553.2</ele>
        <time>2021-10-10T13:16:35Z</time>
      </trkpt>
      <trkpt lat="46.31589" lon="6.76527">
        <ele>1552</ele>
        <time>2021-10-10T13:16:38Z</time>
      </trkpt>
      <trkpt lat="46.31584" lon="6.76529">
        <ele>1553.4</ele>
        <time>2021-10-10T13:16:42Z</time>
      </trkpt>
      <trkpt lat="46.3158" lon="6.76531">
        <ele>1550.2</ele>
        <time>2021-10-10T13:16:45Z</time>
      </trkpt>
      <trkpt lat="46.31576" lon="6.76535">
        <ele>1549.4</ele>
        <time>2021-10-10T13:16:49Z</time>
      </trkpt>
      <trkpt lat="46.31571" lon="6.76537">
        <ele>1548.2</ele>
        <time>2021-10-10T13:16:52Z</time>
      </trkpt>
      <trkpt lat="46.31567" lon="6.76541">
        <ele>1546.4</ele>
        <time>2021-10-10T13:16:56Z</time>
      </trkpt>
      <trkpt lat="46.31563" lon="6.76547">
        <ele>1546.4</ele>
        <time>2021-10-10T13:17:00Z</time>
      </trkpt>
      <trkpt lat="46.31561" lon="6.76553">
        <ele>1547.6</ele>
        <time>2021-10-10T13:17:03Z</time>
      </trkpt>
      <trkpt lat="46.31561" lon="6.76561">
        <ele>1547.8</ele>
        <time>2021-10-10T13:17:07Z</time>
      </trkpt>
      <trkpt lat="46.31562" lon="6.76568">
        <ele>1544.4</ele>
        <time>2021-10-10T13:17:10Z</time>
      </trkpt>
      <trkpt lat="46.31563" lon="6.76574">
        <ele>1544.6</ele>
        <time>2021-10-10T13:17:13Z</time>
      </trkpt>
      <trkpt lat="46.31564" lon="6.7658">
        <ele>1541.6</ele>
        <time>2021-10-10T13:17:16Z</time>
      </trkpt>
      <trkpt lat="46.31566" lon="6.76587">
        <ele>1544</ele>
        <time>2021-10-10T13:17:25Z</time>
      </trkpt>
      <trkpt lat="46.31569" lon="6.76592">
        <ele>1538.6</ele>
        <time>2021-10-10T13:17:28Z</time>
      </trkpt>
      <trkpt lat="46.31571" lon="6.76595">
        <ele>1540.8</ele>
        <time>2021-10-10T13:17:30Z</time>
      </trkpt>
      <trkpt lat="46.31575" lon="6.766">
        <ele>1540.4</ele>
        <time>2021-10-10T13:17:34Z</time>
      </trkpt>
      <trkpt lat="46.31579" lon="6.76606">
        <ele>1539</ele>
        <time>2021-10-10T13:17:37Z</time>
      </trkpt>
      <trkpt lat="46.31581" lon="6.76611">
        <ele>1538</ele>
        <time>2021-10-10T13:17:40Z</time>
      </trkpt>
      <trkpt lat="46.31582" lon="6.76617">
        <ele>1535</ele>
        <time>2021-10-10T13:17:43Z</time>
      </trkpt>
      <trkpt lat="46.31582" lon="6.76624">
        <ele>1536.2</ele>
        <time>2021-10-10T13:17:47Z</time>
      </trkpt>
      <trkpt lat="46.3158" lon="6.76631">
        <ele>1533.4</ele>
        <time>2021-10-10T13:17:50Z</time>
      </trkpt>
      <trkpt lat="46.3158" lon="6.76637">
        <ele>1534.8</ele>
        <time>2021-10-10T13:17:53Z</time>
      </trkpt>
      <trkpt lat="46.31581" lon="6.76644">
        <ele>1532.2</ele>
        <time>2021-10-10T13:17:57Z</time>
      </trkpt>
      <trkpt lat="46.31585" lon="6.76649">
        <ele>1530.4</ele>
        <time>2021-10-10T13:18:00Z</time>
      </trkpt>
      <trkpt lat="46.31589" lon="6.76655">
        <ele>1531.8</ele>
        <time>2021-10-10T13:18:03Z</time>
      </trkpt>
      <trkpt lat="46.31591" lon="6.76661">
        <ele>1530.8</ele>
        <time>2021-10-10T13:18:06Z</time>
      </trkpt>
      <trkpt lat="46.31592" lon="6.76667">
        <ele>1531.6</ele>
        <time>2021-10-10T13:18:09Z</time>
      </trkpt>
      <trkpt lat="46.3159" lon="6.76673">
        <ele>1528.8</ele>
        <time>2021-10-10T13:18:12Z</time>
      </trkpt>
      <trkpt lat="46.31587" lon="6.76678">
        <ele>1533</ele>
        <time>2021-10-10T13:18:16Z</time>
      </trkpt>
      <trkpt lat="46.31584" lon="6.76684">
        <ele>1530.8</ele>
        <time>2021-10-10T13:18:20Z</time>
      </trkpt>
      <trkpt lat="46.31582" lon="6.76691">
        <ele>1531.6</ele>
        <time>2021-10-10T13:18:24Z</time>
      </trkpt>
      <trkpt lat="46.31581" lon="6.76698">
        <ele>1528.6</ele>
        <time>2021-10-10T13:18:27Z</time>
      </trkpt>
      <trkpt lat="46.31581" lon="6.76705">
        <ele>1529.4</ele>
        <time>2021-10-10T13:18:31Z</time>
      </trkpt>
      <trkpt lat="46.31582" lon="6.76712">
        <ele>1528.6</ele>
        <time>2021-10-10T13:18:34Z</time>
      </trkpt>
      <trkpt lat="46.31585" lon="6.76718">
        <ele>1528</ele>
        <time>2021-10-10T13:18:38Z</time>
      </trkpt>
      <trkpt lat="46.31586" lon="6.76724">
        <ele>1529.8</ele>
        <time>2021-10-10T13:18:42Z</time>
      </trkpt>
      <trkpt lat="46.31588" lon="6.7673">
        <ele>1528.6</ele>
        <time>2021-10-10T13:18:46Z</time>
      </trkpt>
      <trkpt lat="46.31588" lon="6.76736">
        <ele>1527</ele>
        <time>2021-10-10T13:18:50Z</time>
      </trkpt>
      <trkpt lat="46.31583" lon="6.76741">
        <ele>1525.4</ele>
        <time>2021-10-10T13:18:54Z</time>
      </trkpt>
      <trkpt lat="46.31579" lon="6.76744">
        <ele>1522.2</ele>
        <time>2021-10-10T13:18:58Z</time>
      </trkpt>
      <trkpt lat="46.31574" lon="6.76748">
        <ele>1521.4</ele>
        <time>2021-10-10T13:19:02Z</time>
      </trkpt>
      <trkpt lat="46.31571" lon="6.76751">
        <ele>1518.6</ele>
        <time>2021-10-10T13:19:04Z</time>
      </trkpt>
      <trkpt lat="46.31568" lon="6.76757">
        <ele>1518.2</ele>
        <time>2021-10-10T13:19:07Z</time>
      </trkpt>
      <trkpt lat="46.31566" lon="6.76763">
        <ele>1519.8</ele>
        <time>2021-10-10T13:19:10Z</time>
      </trkpt>
      <trkpt lat="46.31564" lon="6.7677">
        <ele>1519.6</ele>
        <time>2021-10-10T13:19:14Z</time>
      </trkpt>
      <trkpt lat="46.31562" lon="6.76776">
        <ele>1517.8</ele>
        <time>2021-10-10T13:19:18Z</time>
      </trkpt>
      <trkpt lat="46.31561" lon="6.76779">
        <ele>1513.4</ele>
        <time>2021-10-10T13:19:20Z</time>
      </trkpt>
      <trkpt lat="46.31558" lon="6.76785">
        <ele>1515.2</ele>
        <time>2021-10-10T13:19:24Z</time>
      </trkpt>
      <trkpt lat="46.31557" lon="6.7679">
        <ele>1512.8</ele>
        <time>2021-10-10T13:19:27Z</time>
      </trkpt>
      <trkpt lat="46.31555" lon="6.76796">
        <ele>1511.6</ele>
        <time>2021-10-10T13:19:31Z</time>
      </trkpt>
      <trkpt lat="46.31553" lon="6.76803">
        <ele>1511.4</ele>
        <time>2021-10-10T13:19:35Z</time>
      </trkpt>
      <trkpt lat="46.31552" lon="6.76808">
        <ele>1514.4</ele>
        <time>2021-10-10T13:19:38Z</time>
      </trkpt>
      <trkpt lat="46.3155" lon="6.76813">
        <ele>1511.4</ele>
        <time>2021-10-10T13:19:41Z</time>
      </trkpt>
      <trkpt lat="46.31549" lon="6.76819">
        <ele>1510</ele>
        <time>2021-10-10T13:19:45Z</time>
      </trkpt>
      <trkpt lat="46.31547" lon="6.76826">
        <ele>1510.6</ele>
        <time>2021-10-10T13:19:50Z</time>
      </trkpt>
      <trkpt lat="46.31543" lon="6.76833">
        <ele>1511.2</ele>
        <time>2021-10-10T13:19:55Z</time>
      </trkpt>
      <trkpt lat="46.31541" lon="6.76839">
        <ele>1512</ele>
        <time>2021-10-10T13:19:59Z</time>
      </trkpt>
      <trkpt lat="46.31539" lon="6.76845">
        <ele>1511.6</ele>
        <time>2021-10-10T13:20:03Z</time>
      </trkpt>
      <trkpt lat="46.31536" lon="6.76853">
        <ele>1513.4</ele>
        <time>2021-10-10T13:20:07Z</time>
      </trkpt>
      <trkpt lat="46.31534" lon="6.76858">
        <ele>1510</ele>
        <time>2021-10-10T13:20:11Z</time>
      </trkpt>
      <trkpt lat="46.31531" lon="6.76865">
        <ele>1511.6</ele>
        <time>2021-10-10T13:20:16Z</time>
      </trkpt>
      <trkpt lat="46.3153" lon="6.76871">
        <ele>1512.2</ele>
        <time>2021-10-10T13:20:20Z</time>
      </trkpt>
      <trkpt lat="46.31527" lon="6.76876">
        <ele>1512</ele>
        <time>2021-10-10T13:20:24Z</time>
      </trkpt>
      <trkpt lat="46.31523" lon="6.76881">
        <ele>1510.4</ele>
        <time>2021-10-10T13:20:28Z</time>
      </trkpt>
      <trkpt lat="46.31518" lon="6.76888">
        <ele>1510.8</ele>
        <time>2021-10-10T13:20:33Z</time>
      </trkpt>
      <trkpt lat="46.31516" lon="6.76894">
        <ele>1511.4</ele>
        <time>2021-10-10T13:20:36Z</time>
      </trkpt>
      <trkpt lat="46.31514" lon="6.76899">
        <ele>1508.8</ele>
        <time>2021-10-10T13:20:39Z</time>
      </trkpt>
      <trkpt lat="46.31513" lon="6.76905">
        <ele>1510.8</ele>
        <time>2021-10-10T13:20:42Z</time>
      </trkpt>
      <trkpt lat="46.3151" lon="6.76912">
        <ele>1507.4</ele>
        <time>2021-10-10T13:20:46Z</time>
      </trkpt>
      <trkpt lat="46.31509" lon="6.76918">
        <ele>1506.4</ele>
        <time>2021-10-10T13:20:49Z</time>
      </trkpt>
      <trkpt lat="46.31509" lon="6.76925">
        <ele>1503.6</ele>
        <time>2021-10-10T13:20:53Z</time>
      </trkpt>
      <trkpt lat="46.3151" lon="6.76932">
        <ele>1504.6</ele>
        <time>2021-10-10T13:20:56Z</time>
      </trkpt>
      <trkpt lat="46.31511" lon="6.76939">
        <ele>1503.2</ele>
        <time>2021-10-10T13:20:59Z</time>
      </trkpt>
      <trkpt lat="46.31509" lon="6.76945">
        <ele>1503</ele>
        <time>2021-10-10T13:21:02Z</time>
      </trkpt>
      <trkpt lat="46.31508" lon="6.76952">
        <ele>1501.8</ele>
        <time>2021-10-10T13:21:06Z</time>
      </trkpt>
      <trkpt lat="46.31506" lon="6.76958">
        <ele>1498.8</ele>
        <time>2021-10-10T13:21:09Z</time>
      </trkpt>
      <trkpt lat="46.31504" lon="6.76964">
        <ele>1499.6</ele>
        <time>2021-10-10T13:21:12Z</time>
      </trkpt>
      <trkpt lat="46.31503" lon="6.76967">
        <ele>1494</ele>
        <time>2021-10-10T13:21:14Z</time>
      </trkpt>
      <trkpt lat="46.31501" lon="6.76972">
        <ele>1492</ele>
        <time>2021-10-10T13:21:17Z</time>
      </trkpt>
      <trkpt lat="46.31499" lon="6.76978">
        <ele>1490.2</ele>
        <time>2021-10-10T13:21:21Z</time>
      </trkpt>
      <trkpt lat="46.31498" lon="6.76983">
        <ele>1484.6</ele>
        <time>2021-10-10T13:21:24Z</time>
      </trkpt>
      <trkpt lat="46.31497" lon="6.7699">
        <ele>1485</ele>
        <time>2021-10-10T13:21:28Z</time>
      </trkpt>
      <trkpt lat="46.31493" lon="6.76998">
        <ele>1481</ele>
        <time>2021-10-10T13:21:33Z</time>
      </trkpt>
      <trkpt lat="46.31489" lon="6.77001">
        <ele>1481.4</ele>
        <time>2021-10-10T13:21:36Z</time>
      </trkpt>
      <trkpt lat="46.31486" lon="6.76997">
        <ele>1478</ele>
        <time>2021-10-10T13:21:41Z</time>
      </trkpt>
      <trkpt lat="46.31482" lon="6.76993">
        <ele>1477</ele>
        <time>2021-10-10T13:21:45Z</time>
      </trkpt>
      <trkpt lat="46.31478" lon="6.76993">
        <ele>1479.4</ele>
        <time>2021-10-10T13:21:49Z</time>
      </trkpt>
      <trkpt lat="46.31474" lon="6.76999">
        <ele>1476.4</ele>
        <time>2021-10-10T13:21:54Z</time>
      </trkpt>
      <trkpt lat="46.31472" lon="6.77005">
        <ele>1476.2</ele>
        <time>2021-10-10T13:21:58Z</time>
      </trkpt>
      <trkpt lat="46.31471" lon="6.77011">
        <ele>1474.8</ele>
        <time>2021-10-10T13:22:02Z</time>
      </trkpt>
      <trkpt lat="46.31472" lon="6.77016">
        <ele>1478.8</ele>
        <time>2021-10-10T13:22:06Z</time>
      </trkpt>
      <trkpt lat="46.31474" lon="6.77021">
        <ele>1477</ele>
        <time>2021-10-10T13:22:11Z</time>
      </trkpt>
      <trkpt lat="46.31477" lon="6.77026">
        <ele>1474.8</ele>
        <time>2021-10-10T13:22:15Z</time>
      </trkpt>
      <trkpt lat="46.31475" lon="6.77033">
        <ele>1475.6</ele>
        <time>2021-10-10T13:22:19Z</time>
      </trkpt>
      <trkpt lat="46.31472" lon="6.77038">
        <ele>1474.8</ele>
        <time>2021-10-10T13:22:23Z</time>
      </trkpt>
      <trkpt lat="46.31468" lon="6.77036">
        <ele>1475.4</ele>
        <time>2021-10-10T13:22:29Z</time>
      </trkpt>
      <trkpt lat="46.31463" lon="6.77033">
        <ele>1474.8</ele>
        <time>2021-10-10T13:22:36Z</time>
      </trkpt>
      <trkpt lat="46.31457" lon="6.77031">
        <ele>1474.8</ele>
        <time>2021-10-10T13:22:52Z</time>
      </trkpt>
      <trkpt lat="46.31455" lon="6.7703">
        <ele>1479.4</ele>
        <time>2021-10-10T13:22:55Z</time>
      </trkpt>
      <trkpt lat="46.31452" lon="6.77026">
        <ele>1475</ele>
        <time>2021-10-10T13:22:59Z</time>
      </trkpt>
      <trkpt lat="46.31448" lon="6.77027">
        <ele>1468.2</ele>
        <time>2021-10-10T13:23:04Z</time>
      </trkpt>
      <trkpt lat="46.31444" lon="6.77024">
        <ele>1469</ele>
        <time>2021-10-10T13:23:08Z</time>
      </trkpt>
      <trkpt lat="46.31443" lon="6.77022">
        <ele>1463.6</ele>
        <time>2021-10-10T13:23:09Z</time>
      </trkpt>
      <trkpt lat="46.3144" lon="6.77016">
        <ele>1459.2</ele>
        <time>2021-10-10T13:23:14Z</time>
      </trkpt>
      <trkpt lat="46.31438" lon="6.7701">
        <ele>1457.4</ele>
        <time>2021-10-10T13:23:18Z</time>
      </trkpt>
      <trkpt lat="46.31437" lon="6.77004">
        <ele>1456.2</ele>
        <time>2021-10-10T13:23:22Z</time>
      </trkpt>
      <trkpt lat="46.31435" lon="6.76999">
        <ele>1453.4</ele>
        <time>2021-10-10T13:23:25Z</time>
      </trkpt>
      <trkpt lat="46.31434" lon="6.76992">
        <ele>1454.2</ele>
        <time>2021-10-10T13:23:28Z</time>
      </trkpt>
      <trkpt lat="46.31433" lon="6.76988">
        <ele>1450.4</ele>
        <time>2021-10-10T13:23:30Z</time>
      </trkpt>
      <trkpt lat="46.31428" lon="6.76985">
        <ele>1448.8</ele>
        <time>2021-10-10T13:23:35Z</time>
      </trkpt>
      <trkpt lat="46.31424" lon="6.76988">
        <ele>1445.2</ele>
        <time>2021-10-10T13:23:49Z</time>
      </trkpt>
      <trkpt lat="46.3142" lon="6.76993">
        <ele>1445.4</ele>
        <time>2021-10-10T13:23:52Z</time>
      </trkpt>
      <trkpt lat="46.31418" lon="6.76998">
        <ele>1446</ele>
        <time>2021-10-10T13:23:55Z</time>
      </trkpt>
      <trkpt lat="46.31414" lon="6.77002">
        <ele>1443.4</ele>
        <time>2021-10-10T13:23:58Z</time>
      </trkpt>
      <trkpt lat="46.31413" lon="6.7701">
        <ele>1442.4</ele>
        <time>2021-10-10T13:24:02Z</time>
      </trkpt>
      <trkpt lat="46.31411" lon="6.77017">
        <ele>1441.8</ele>
        <time>2021-10-10T13:24:06Z</time>
      </trkpt>
      <trkpt lat="46.3141" lon="6.77023">
        <ele>1443.2</ele>
        <time>2021-10-10T13:24:10Z</time>
      </trkpt>
      <trkpt lat="46.31409" lon="6.77032">
        <ele>1443.2</ele>
        <time>2021-10-10T13:24:14Z</time>
      </trkpt>
      <trkpt lat="46.3141" lon="6.77038">
        <ele>1442.8</ele>
        <time>2021-10-10T13:24:17Z</time>
      </trkpt>
      <trkpt lat="46.3141" lon="6.77044">
        <ele>1444</ele>
        <time>2021-10-10T13:24:20Z</time>
      </trkpt>
      <trkpt lat="46.31409" lon="6.77051">
        <ele>1442</ele>
        <time>2021-10-10T13:24:23Z</time>
      </trkpt>
      <trkpt lat="46.31407" lon="6.77055">
        <ele>1445.8</ele>
        <time>2021-10-10T13:24:25Z</time>
      </trkpt>
      <trkpt lat="46.31406" lon="6.77062">
        <ele>1439.4</ele>
        <time>2021-10-10T13:24:28Z</time>
      </trkpt>
      <trkpt lat="46.31405" lon="6.77067">
        <ele>1442</ele>
        <time>2021-10-10T13:24:30Z</time>
      </trkpt>
      <trkpt lat="46.31403" lon="6.77073">
        <ele>1438.8</ele>
        <time>2021-10-10T13:24:33Z</time>
      </trkpt>
      <trkpt lat="46.31403" lon="6.7708">
        <ele>1440.4</ele>
        <time>2021-10-10T13:24:36Z</time>
      </trkpt>
      <trkpt lat="46.31401" lon="6.77085">
        <ele>1436.6</ele>
        <time>2021-10-10T13:24:39Z</time>
      </trkpt>
      <trkpt lat="46.31401" lon="6.77091">
        <ele>1439.6</ele>
        <time>2021-10-10T13:24:42Z</time>
      </trkpt>
      <trkpt lat="46.31401" lon="6.77099">
        <ele>1440</ele>
        <time>2021-10-10T13:24:47Z</time>
      </trkpt>
      <trkpt lat="46.31399" lon="6.77105">
        <ele>1440.2</ele>
        <time>2021-10-10T13:24:51Z</time>
      </trkpt>
      <trkpt lat="46.31397" lon="6.77109">
        <ele>1436.8</ele>
        <time>2021-10-10T13:24:53Z</time>
      </trkpt>
      <trkpt lat="46.31393" lon="6.77113">
        <ele>1435.2</ele>
        <time>2021-10-10T13:24:57Z</time>
      </trkpt>
      <trkpt lat="46.31389" lon="6.7711">
        <ele>1434</ele>
        <time>2021-10-10T13:25:01Z</time>
      </trkpt>
      <trkpt lat="46.31385" lon="6.77106">
        <ele>1429.8</ele>
        <time>2021-10-10T13:25:05Z</time>
      </trkpt>
      <trkpt lat="46.31381" lon="6.77103">
        <ele>1428</ele>
        <time>2021-10-10T13:25:08Z</time>
      </trkpt>
      <trkpt lat="46.31378" lon="6.771">
        <ele>1423.4</ele>
        <time>2021-10-10T13:25:11Z</time>
      </trkpt>
      <trkpt lat="46.31373" lon="6.77096">
        <ele>1422.6</ele>
        <time>2021-10-10T13:25:15Z</time>
      </trkpt>
      <trkpt lat="46.31368" lon="6.77094">
        <ele>1422.4</ele>
        <time>2021-10-10T13:25:19Z</time>
      </trkpt>
      <trkpt lat="46.31364" lon="6.77093">
        <ele>1418.6</ele>
        <time>2021-10-10T13:25:22Z</time>
      </trkpt>
      <trkpt lat="46.31358" lon="6.77092">
        <ele>1417.4</ele>
        <time>2021-10-10T13:25:26Z</time>
      </trkpt>
      <trkpt lat="46.31354" lon="6.77091">
        <ele>1419</ele>
        <time>2021-10-10T13:25:29Z</time>
      </trkpt>
      <trkpt lat="46.31352" lon="6.7709">
        <ele>1413.2</ele>
        <time>2021-10-10T13:25:31Z</time>
      </trkpt>
      <trkpt lat="46.31348" lon="6.77087">
        <ele>1410.2</ele>
        <time>2021-10-10T13:25:35Z</time>
      </trkpt>
      <trkpt lat="46.31344" lon="6.77084">
        <ele>1411.4</ele>
        <time>2021-10-10T13:25:42Z</time>
      </trkpt>
      <trkpt lat="46.3134" lon="6.77082">
        <ele>1412.4</ele>
        <time>2021-10-10T13:25:47Z</time>
      </trkpt>
      <trkpt lat="46.31334" lon="6.77087">
        <ele>1412.6</ele>
        <time>2021-10-10T13:25:51Z</time>
      </trkpt>
      <trkpt lat="46.31334" lon="6.77094">
        <ele>1412.6</ele>
        <time>2021-10-10T13:25:55Z</time>
      </trkpt>
      <trkpt lat="46.31334" lon="6.77099">
        <ele>1413.6</ele>
        <time>2021-10-10T13:25:58Z</time>
      </trkpt>
      <trkpt lat="46.31335" lon="6.77106">
        <ele>1414.4</ele>
        <time>2021-10-10T13:26:02Z</time>
      </trkpt>
      <trkpt lat="46.31334" lon="6.77113">
        <ele>1414</ele>
        <time>2021-10-10T13:26:05Z</time>
      </trkpt>
      <trkpt lat="46.31332" lon="6.7712">
        <ele>1413.6</ele>
        <time>2021-10-10T13:26:09Z</time>
      </trkpt>
      <trkpt lat="46.31333" lon="6.77128">
        <ele>1414.4</ele>
        <time>2021-10-10T13:26:12Z</time>
      </trkpt>
      <trkpt lat="46.31332" lon="6.77135">
        <ele>1415.4</ele>
        <time>2021-10-10T13:26:15Z</time>
      </trkpt>
      <trkpt lat="46.31332" lon="6.77143">
        <ele>1414.6</ele>
        <time>2021-10-10T13:26:19Z</time>
      </trkpt>
      <trkpt lat="46.31333" lon="6.77149">
        <ele>1415.8</ele>
        <time>2021-10-10T13:26:22Z</time>
      </trkpt>
      <trkpt lat="46.31336" lon="6.77157">
        <ele>1416.2</ele>
        <time>2021-10-10T13:26:26Z</time>
      </trkpt>
      <trkpt lat="46.3134" lon="6.77163">
        <ele>1417.4</ele>
        <time>2021-10-10T13:26:30Z</time>
      </trkpt>
      <trkpt lat="46.31342" lon="6.7717">
        <ele>1414.6</ele>
        <time>2021-10-10T13:26:34Z</time>
      </trkpt>
      <trkpt lat="46.31343" lon="6.77176">
        <ele>1417.6</ele>
        <time>2021-10-10T13:26:38Z</time>
      </trkpt>
      <trkpt lat="46.31344" lon="6.77183">
        <ele>1418.4</ele>
        <time>2021-10-10T13:26:42Z</time>
      </trkpt>
      <trkpt lat="46.31344" lon="6.77189">
        <ele>1416.2</ele>
        <time>2021-10-10T13:26:46Z</time>
      </trkpt>
      <trkpt lat="46.31344" lon="6.77197">
        <ele>1416.2</ele>
        <time>2021-10-10T13:26:50Z</time>
      </trkpt>
      <trkpt lat="46.31346" lon="6.77204">
        <ele>1416.2</ele>
        <time>2021-10-10T13:26:54Z</time>
      </trkpt>
      <trkpt lat="46.31349" lon="6.77208">
        <ele>1413.6</ele>
        <time>2021-10-10T13:26:57Z</time>
      </trkpt>
      <trkpt lat="46.31351" lon="6.77215">
        <ele>1414</ele>
        <time>2021-10-10T13:27:01Z</time>
      </trkpt>
      <trkpt lat="46.31353" lon="6.7722">
        <ele>1413.8</ele>
        <time>2021-10-10T13:27:04Z</time>
      </trkpt>
      <trkpt lat="46.31352" lon="6.77227">
        <ele>1415.2</ele>
        <time>2021-10-10T13:27:08Z</time>
      </trkpt>
      <trkpt lat="46.3135" lon="6.77233">
        <ele>1414.8</ele>
        <time>2021-10-10T13:27:12Z</time>
      </trkpt>
      <trkpt lat="46.3135" lon="6.77239">
        <ele>1413.4</ele>
        <time>2021-10-10T13:27:15Z</time>
      </trkpt>
      <trkpt lat="46.31347" lon="6.77246">
        <ele>1412.2</ele>
        <time>2021-10-10T13:27:19Z</time>
      </trkpt>
      <trkpt lat="46.31345" lon="6.7725">
        <ele>1416.2</ele>
        <time>2021-10-10T13:27:22Z</time>
      </trkpt>
      <trkpt lat="46.31345" lon="6.77257">
        <ele>1417.4</ele>
        <time>2021-10-10T13:27:26Z</time>
      </trkpt>
      <trkpt lat="46.31345" lon="6.77263">
        <ele>1413.8</ele>
        <time>2021-10-10T13:27:29Z</time>
      </trkpt>
      <trkpt lat="46.31343" lon="6.7727">
        <ele>1414.8</ele>
        <time>2021-10-10T13:27:34Z</time>
      </trkpt>
      <trkpt lat="46.31341" lon="6.77278">
        <ele>1416.6</ele>
        <time>2021-10-10T13:27:38Z</time>
      </trkpt>
      <trkpt lat="46.31339" lon="6.77284">
        <ele>1417</ele>
        <time>2021-10-10T13:27:41Z</time>
      </trkpt>
      <trkpt lat="46.31338" lon="6.77289">
        <ele>1413.6</ele>
        <time>2021-10-10T13:27:44Z</time>
      </trkpt>
      <trkpt lat="46.31338" lon="6.77295">
        <ele>1415.4</ele>
        <time>2021-10-10T13:27:47Z</time>
      </trkpt>
      <trkpt lat="46.31338" lon="6.77302">
        <ele>1416.8</ele>
        <time>2021-10-10T13:27:51Z</time>
      </trkpt>
      <trkpt lat="46.31338" lon="6.77308">
        <ele>1413.4</ele>
        <time>2021-10-10T13:27:54Z</time>
      </trkpt>
      <trkpt lat="46.31337" lon="6.77314">
        <ele>1411.4</ele>
        <time>2021-10-10T13:27:58Z</time>
      </trkpt>
      <trkpt lat="46.31337" lon="6.77317">
        <ele>1416.8</ele>
        <time>2021-10-10T13:28:00Z</time>
      </trkpt>
      <trkpt lat="46.31335" lon="6.77324">
        <ele>1415.4</ele>
        <time>2021-10-10T13:28:04Z</time>
      </trkpt>
      <trkpt lat="46.31331" lon="6.77329">
        <ele>1415.6</ele>
        <time>2021-10-10T13:28:08Z</time>
      </trkpt>
      <trkpt lat="46.31329" lon="6.77332">
        <ele>1412.6</ele>
        <time>2021-10-10T13:28:11Z</time>
      </trkpt>
      <trkpt lat="46.31326" lon="6.77336">
        <ele>1417.2</ele>
        <time>2021-10-10T13:28:15Z</time>
      </trkpt>
      <trkpt lat="46.31322" lon="6.77341">
        <ele>1415.8</ele>
        <time>2021-10-10T13:28:19Z</time>
      </trkpt>
      <trkpt lat="46.31318" lon="6.77346">
        <ele>1414.2</ele>
        <time>2021-10-10T13:28:23Z</time>
      </trkpt>
      <trkpt lat="46.31315" lon="6.77351">
        <ele>1416.6</ele>
        <time>2021-10-10T13:28:26Z</time>
      </trkpt>
      <trkpt lat="46.31312" lon="6.77355">
        <ele>1415</ele>
        <time>2021-10-10T13:28:29Z</time>
      </trkpt>
      <trkpt lat="46.31311" lon="6.7736">
        <ele>1409.6</ele>
        <time>2021-10-10T13:28:31Z</time>
      </trkpt>
      <trkpt lat="46.31307" lon="6.77366">
        <ele>1408.4</ele>
        <time>2021-10-10T13:28:35Z</time>
      </trkpt>
      <trkpt lat="46.31305" lon="6.7737">
        <ele>1406.2</ele>
        <time>2021-10-10T13:28:39Z</time>
      </trkpt>
      <trkpt lat="46.31303" lon="6.77374">
        <ele>1402.6</ele>
        <time>2021-10-10T13:28:43Z</time>
      </trkpt>
      <trkpt lat="46.31301" lon="6.77379">
        <ele>1396.6</ele>
        <time>2021-10-10T13:28:46Z</time>
      </trkpt>
      <trkpt lat="46.31298" lon="6.77385">
        <ele>1396.4</ele>
        <time>2021-10-10T13:28:50Z</time>
      </trkpt>
      <trkpt lat="46.31296" lon="6.77391">
        <ele>1393.2</ele>
        <time>2021-10-10T13:28:53Z</time>
      </trkpt>
      <trkpt lat="46.31294" lon="6.77396">
        <ele>1390.2</ele>
        <time>2021-10-10T13:28:57Z</time>
      </trkpt>
      <trkpt lat="46.31292" lon="6.77402">
        <ele>1388.8</ele>
        <time>2021-10-10T13:29:01Z</time>
      </trkpt>
      <trkpt lat="46.31289" lon="6.77407">
        <ele>1388</ele>
        <time>2021-10-10T13:29:05Z</time>
      </trkpt>
      <trkpt lat="46.31288" lon="6.77412">
        <ele>1384.2</ele>
        <time>2021-10-10T13:29:08Z</time>
      </trkpt>
      <trkpt lat="46.31283" lon="6.77419">
        <ele>1384.2</ele>
        <time>2021-10-10T13:29:13Z</time>
      </trkpt>
      <trkpt lat="46.31281" lon="6.77426">
        <ele>1381.8</ele>
        <time>2021-10-10T13:29:17Z</time>
      </trkpt>
      <trkpt lat="46.31278" lon="6.77433">
        <ele>1382.6</ele>
        <time>2021-10-10T13:29:21Z</time>
      </trkpt>
      <trkpt lat="46.31277" lon="6.77439">
        <ele>1381.4</ele>
        <time>2021-10-10T13:29:24Z</time>
      </trkpt>
      <trkpt lat="46.31275" lon="6.77445">
        <ele>1381.6</ele>
        <time>2021-10-10T13:29:28Z</time>
      </trkpt>
      <trkpt lat="46.31274" lon="6.7745">
        <ele>1378.6</ele>
        <time>2021-10-10T13:29:31Z</time>
      </trkpt>
      <trkpt lat="46.31272" lon="6.77458">
        <ele>1380.2</ele>
        <time>2021-10-10T13:29:36Z</time>
      </trkpt>
      <trkpt lat="46.31271" lon="6.77463">
        <ele>1377.2</ele>
        <time>2021-10-10T13:29:40Z</time>
      </trkpt>
      <trkpt lat="46.31271" lon="6.77469">
        <ele>1380.8</ele>
        <time>2021-10-10T13:29:44Z</time>
      </trkpt>
      <trkpt lat="46.3127" lon="6.77477">
        <ele>1377.8</ele>
        <time>2021-10-10T13:29:49Z</time>
      </trkpt>
      <trkpt lat="46.3127" lon="6.77484">
        <ele>1378</ele>
        <time>2021-10-10T13:29:53Z</time>
      </trkpt>
      <trkpt lat="46.31269" lon="6.7749">
        <ele>1378.6</ele>
        <time>2021-10-10T13:29:56Z</time>
      </trkpt>
      <trkpt lat="46.31266" lon="6.77496">
        <ele>1376.6</ele>
        <time>2021-10-10T13:30:00Z</time>
      </trkpt>
      <trkpt lat="46.31262" lon="6.77501">
        <ele>1374.6</ele>
        <time>2021-10-10T13:30:04Z</time>
      </trkpt>
      <trkpt lat="46.31258" lon="6.77506">
        <ele>1371.8</ele>
        <time>2021-10-10T13:30:08Z</time>
      </trkpt>
      <trkpt lat="46.31257" lon="6.77513">
        <ele>1367.6</ele>
        <time>2021-10-10T13:30:12Z</time>
      </trkpt>
      <trkpt lat="46.31257" lon="6.7752">
        <ele>1368</ele>
        <time>2021-10-10T13:30:16Z</time>
      </trkpt>
      <trkpt lat="46.31255" lon="6.77525">
        <ele>1365.8</ele>
        <time>2021-10-10T13:30:19Z</time>
      </trkpt>
      <trkpt lat="46.31254" lon="6.77532">
        <ele>1365</ele>
        <time>2021-10-10T13:30:23Z</time>
      </trkpt>
      <trkpt lat="46.31253" lon="6.7754">
        <ele>1362.6</ele>
        <time>2021-10-10T13:30:27Z</time>
      </trkpt>
      <trkpt lat="46.3125" lon="6.77545">
        <ele>1364.8</ele>
        <time>2021-10-10T13:30:30Z</time>
      </trkpt>
      <trkpt lat="46.31247" lon="6.77548">
        <ele>1362.4</ele>
        <time>2021-10-10T13:30:32Z</time>
      </trkpt>
      <trkpt lat="46.31244" lon="6.77553">
        <ele>1361.6</ele>
        <time>2021-10-10T13:30:35Z</time>
      </trkpt>
      <trkpt lat="46.31243" lon="6.77559">
        <ele>1362.8</ele>
        <time>2021-10-10T13:30:38Z</time>
      </trkpt>
      <trkpt lat="46.31242" lon="6.77566">
        <ele>1360.2</ele>
        <time>2021-10-10T13:30:41Z</time>
      </trkpt>
      <trkpt lat="46.3124" lon="6.77572">
        <ele>1360.2</ele>
        <time>2021-10-10T13:30:44Z</time>
      </trkpt>
      <trkpt lat="46.3124" lon="6.77579">
        <ele>1359</ele>
        <time>2021-10-10T13:30:49Z</time>
      </trkpt>
      <trkpt lat="46.31241" lon="6.77585">
        <ele>1357</ele>
        <time>2021-10-10T13:30:53Z</time>
      </trkpt>
      <trkpt lat="46.31241" lon="6.77593">
        <ele>1357.4</ele>
        <time>2021-10-10T13:30:56Z</time>
      </trkpt>
      <trkpt lat="46.3124" lon="6.77599">
        <ele>1356</ele>
        <time>2021-10-10T13:31:01Z</time>
      </trkpt>
      <trkpt lat="46.31241" lon="6.77601">
        <ele>1350.6</ele>
        <time>2021-10-10T13:31:11Z</time>
      </trkpt>
      <trkpt lat="46.31241" lon="6.77607">
        <ele>1346</ele>
        <time>2021-10-10T13:31:27Z</time>
      </trkpt>
      <trkpt lat="46.31242" lon="6.77614">
        <ele>1345.8</ele>
        <time>2021-10-10T13:31:32Z</time>
      </trkpt>
      <trkpt lat="46.31242" lon="6.7762">
        <ele>1346.2</ele>
        <time>2021-10-10T13:31:36Z</time>
      </trkpt>
      <trkpt lat="46.31242" lon="6.77626">
        <ele>1347.6</ele>
        <time>2021-10-10T13:32:05Z</time>
      </trkpt>
      <trkpt lat="46.31241" lon="6.77628">
        <ele>1342</ele>
        <time>2021-10-10T13:32:07Z</time>
      </trkpt>
      <trkpt lat="46.3124" lon="6.77635">
        <ele>1343.6</ele>
        <time>2021-10-10T13:32:12Z</time>
      </trkpt>
      <trkpt lat="46.31238" lon="6.7764">
        <ele>1339.8</ele>
        <time>2021-10-10T13:32:16Z</time>
      </trkpt>
      <trkpt lat="46.31235" lon="6.77644">
        <ele>1335</ele>
        <time>2021-10-10T13:32:21Z</time>
      </trkpt>
      <trkpt lat="46.31231" lon="6.77647">
        <ele>1335.4</ele>
        <time>2021-10-10T13:32:28Z</time>
      </trkpt>
      <trkpt lat="46.31228" lon="6.77648">
        <ele>1331</ele>
        <time>2021-10-10T13:32:32Z</time>
      </trkpt>
      <trkpt lat="46.31224" lon="6.7765">
        <ele>1331.6</ele>
        <time>2021-10-10T13:32:37Z</time>
      </trkpt>
      <trkpt lat="46.31219" lon="6.77652">
        <ele>1331.4</ele>
        <time>2021-10-10T13:32:42Z</time>
      </trkpt>
      <trkpt lat="46.31215" lon="6.77655">
        <ele>1329.6</ele>
        <time>2021-10-10T13:32:46Z</time>
      </trkpt>
      <trkpt lat="46.31211" lon="6.7766">
        <ele>1330.4</ele>
        <time>2021-10-10T13:32:51Z</time>
      </trkpt>
      <trkpt lat="46.31208" lon="6.77663">
        <ele>1329.6</ele>
        <time>2021-10-10T13:32:56Z</time>
      </trkpt>
      <trkpt lat="46.31204" lon="6.77666">
        <ele>1330.2</ele>
        <time>2021-10-10T13:33:01Z</time>
      </trkpt>
      <trkpt lat="46.31199" lon="6.77669">
        <ele>1331</ele>
        <time>2021-10-10T13:33:06Z</time>
      </trkpt>
      <trkpt lat="46.31195" lon="6.77673">
        <ele>1332.4</ele>
        <time>2021-10-10T13:33:11Z</time>
      </trkpt>
      <trkpt lat="46.31192" lon="6.77678">
        <ele>1331.4</ele>
        <time>2021-10-10T13:33:16Z</time>
      </trkpt>
      <trkpt lat="46.31188" lon="6.77685">
        <ele>1331.2</ele>
        <time>2021-10-10T13:33:22Z</time>
      </trkpt>
      <trkpt lat="46.31185" lon="6.7769">
        <ele>1329.6</ele>
        <time>2021-10-10T13:33:28Z</time>
      </trkpt>
      <trkpt lat="46.31183" lon="6.77693">
        <ele>1334.6</ele>
        <time>2021-10-10T13:33:32Z</time>
      </trkpt>
      <trkpt lat="46.31179" lon="6.77697">
        <ele>1336.2</ele>
        <time>2021-10-10T13:33:39Z</time>
      </trkpt>
      <trkpt lat="46.31176" lon="6.77702">
        <ele>1338.6</ele>
        <time>2021-10-10T13:33:44Z</time>
      </trkpt>
      <trkpt lat="46.31174" lon="6.77707">
        <ele>1337.6</ele>
        <time>2021-10-10T13:33:52Z</time>
      </trkpt>
      <trkpt lat="46.31171" lon="6.77712">
        <ele>1339.8</ele>
        <time>2021-10-10T13:33:57Z</time>
      </trkpt>
      <trkpt lat="46.31167" lon="6.77717">
        <ele>1342</ele>
        <time>2021-10-10T13:34:03Z</time>
      </trkpt>
      <trkpt lat="46.31165" lon="6.77721">
        <ele>1339.2</ele>
        <time>2021-10-10T13:34:08Z</time>
      </trkpt>
      <trkpt lat="46.31162" lon="6.77724">
        <ele>1342.8</ele>
        <time>2021-10-10T13:34:12Z</time>
      </trkpt>
      <trkpt lat="46.31159" lon="6.77728">
        <ele>1343.4</ele>
        <time>2021-10-10T13:34:17Z</time>
      </trkpt>
      <trkpt lat="46.31155" lon="6.77734">
        <ele>1344.4</ele>
        <time>2021-10-10T13:34:24Z</time>
      </trkpt>
      <trkpt lat="46.31153" lon="6.77737">
        <ele>1341.2</ele>
        <time>2021-10-10T13:34:28Z</time>
      </trkpt>
      <trkpt lat="46.31151" lon="6.77739">
        <ele>1345.6</ele>
        <time>2021-10-10T13:34:31Z</time>
      </trkpt>
      <trkpt lat="46.31149" lon="6.77743">
        <ele>1342.4</ele>
        <time>2021-10-10T13:34:37Z</time>
      </trkpt>
      <trkpt lat="46.31146" lon="6.77748">
        <ele>1345.2</ele>
        <time>2021-10-10T13:34:43Z</time>
      </trkpt>
      <trkpt lat="46.31142" lon="6.77754">
        <ele>1346.4</ele>
        <time>2021-10-10T13:34:50Z</time>
      </trkpt>
      <trkpt lat="46.3114" lon="6.7776">
        <ele>1344.8</ele>
        <time>2021-10-10T13:34:55Z</time>
      </trkpt>
      <trkpt lat="46.31138" lon="6.77764">
        <ele>1348.8</ele>
        <time>2021-10-10T13:34:58Z</time>
      </trkpt>
      <trkpt lat="46.31135" lon="6.7777">
        <ele>1350</ele>
        <time>2021-10-10T13:35:04Z</time>
      </trkpt>
      <trkpt lat="46.31132" lon="6.77775">
        <ele>1348</ele>
        <time>2021-10-10T13:35:10Z</time>
      </trkpt>
      <trkpt lat="46.31128" lon="6.7778">
        <ele>1349.2</ele>
        <time>2021-10-10T13:35:16Z</time>
      </trkpt>
      <trkpt lat="46.31129" lon="6.77785">
        <ele>1350</ele>
        <time>2021-10-10T13:35:22Z</time>
      </trkpt>
      <trkpt lat="46.31125" lon="6.77791">
        <ele>1350.2</ele>
        <time>2021-10-10T13:35:26Z</time>
      </trkpt>
      <trkpt lat="46.3112" lon="6.77795">
        <ele>1349.4</ele>
        <time>2021-10-10T13:35:30Z</time>
      </trkpt>
      <trkpt lat="46.31116" lon="6.77798">
        <ele>1351.6</ele>
        <time>2021-10-10T13:35:33Z</time>
      </trkpt>
      <trkpt lat="46.31111" lon="6.77802">
        <ele>1352.8</ele>
        <time>2021-10-10T13:35:39Z</time>
      </trkpt>
      <trkpt lat="46.31108" lon="6.77806">
        <ele>1354.8</ele>
        <time>2021-10-10T13:35:45Z</time>
      </trkpt>
      <trkpt lat="46.31105" lon="6.7781">
        <ele>1352.6</ele>
        <time>2021-10-10T13:35:50Z</time>
      </trkpt>
      <trkpt lat="46.31104" lon="6.77816">
        <ele>1350.4</ele>
        <time>2021-10-10T13:36:02Z</time>
      </trkpt>
      <trkpt lat="46.31104" lon="6.77821">
        <ele>1350.8</ele>
        <time>2021-10-10T13:36:11Z</time>
      </trkpt>
      <trkpt lat="46.31105" lon="6.77828">
        <ele>1352.8</ele>
        <time>2021-10-10T13:36:19Z</time>
      </trkpt>
      <trkpt lat="46.31109" lon="6.77828">
        <ele>1352</ele>
        <time>2021-10-10T13:36:43Z</time>
      </trkpt>
      <trkpt lat="46.31105" lon="6.77826">
        <ele>1350</ele>
        <time>2021-10-10T13:36:59Z</time>
      </trkpt>
      <trkpt lat="46.31104" lon="6.7783">
        <ele>1354.6</ele>
        <time>2021-10-10T13:38:12Z</time>
      </trkpt>
      <trkpt lat="46.31099" lon="6.77829">
        <ele>1354</ele>
        <time>2021-10-10T13:38:24Z</time>
      </trkpt>
      <trkpt lat="46.311" lon="6.77824">
        <ele>1351.2</ele>
        <time>2021-10-10T13:39:58Z</time>
      </trkpt>
      <trkpt lat="46.31103" lon="6.77824">
        <ele>1347</ele>
        <time>2021-10-10T13:40:07Z</time>
      </trkpt>
      <trkpt lat="46.31107" lon="6.77832">
        <ele>1347</ele>
        <time>2021-10-10T13:40:12Z</time>
      </trkpt>
      <trkpt lat="46.31109" lon="6.77834">
        <ele>1350.6</ele>
        <time>2021-10-10T13:40:14Z</time>
      </trkpt>
      <trkpt lat="46.31109" lon="6.77842">
        <ele>1350.2</ele>
        <time>2021-10-10T13:40:19Z</time>
      </trkpt>
      <trkpt lat="46.31106" lon="6.77847">
        <ele>1350.4</ele>
        <time>2021-10-10T13:40:38Z</time>
      </trkpt>
      <trkpt lat="46.31106" lon="6.77854">
        <ele>1350</ele>
        <time>2021-10-10T13:40:44Z</time>
      </trkpt>
      <trkpt lat="46.31106" lon="6.7786">
        <ele>1350.4</ele>
        <time>2021-10-10T13:40:49Z</time>
      </trkpt>
      <trkpt lat="46.31105" lon="6.77864">
        <ele>1354.8</ele>
        <time>2021-10-10T13:40:52Z</time>
      </trkpt>
      <trkpt lat="46.31103" lon="6.77868">
        <ele>1351</ele>
        <time>2021-10-10T13:40:55Z</time>
      </trkpt>
      <trkpt lat="46.31103" lon="6.77875">
        <ele>1352.8</ele>
        <time>2021-10-10T13:41:10Z</time>
      </trkpt>
      <trkpt lat="46.31103" lon="6.77881">
        <ele>1353.4</ele>
        <time>2021-10-10T13:41:24Z</time>
      </trkpt>
      <trkpt lat="46.31099" lon="6.77886">
        <ele>1351</ele>
        <time>2021-10-10T13:41:28Z</time>
      </trkpt>
      <trkpt lat="46.31098" lon="6.7789">
        <ele>1356.6</ele>
        <time>2021-10-10T13:41:29Z</time>
      </trkpt>
      <trkpt lat="46.31096" lon="6.77896">
        <ele>1355.6</ele>
        <time>2021-10-10T13:41:32Z</time>
      </trkpt>
      <trkpt lat="46.31099" lon="6.77899">
        <ele>1352.4</ele>
        <time>2021-10-10T13:41:46Z</time>
      </trkpt>
      <trkpt lat="46.31096" lon="6.77899">
        <ele>1348.2</ele>
        <time>2021-10-10T13:42:29Z</time>
      </trkpt>
      <trkpt lat="46.31094" lon="6.77906">
        <ele>1348</ele>
        <time>2021-10-10T13:42:37Z</time>
      </trkpt>
      <trkpt lat="46.31092" lon="6.77912">
        <ele>1347.2</ele>
        <time>2021-10-10T13:42:43Z</time>
      </trkpt>
      <trkpt lat="46.31091" lon="6.77918">
        <ele>1344.8</ele>
        <time>2021-10-10T13:42:49Z</time>
      </trkpt>
      <trkpt lat="46.31088" lon="6.77928">
        <ele>1346.4</ele>
        <time>2021-10-10T13:42:54Z</time>
      </trkpt>
      <trkpt lat="46.3109" lon="6.7793">
        <ele>1350.2</ele>
        <time>2021-10-10T13:43:19Z</time>
      </trkpt>
      <trkpt lat="46.31091" lon="6.77932">
        <ele>1355.4</ele>
        <time>2021-10-10T13:43:59Z</time>
      </trkpt>
      <trkpt lat="46.31092" lon="6.7794">
        <ele>1354</ele>
        <time>2021-10-10T13:44:04Z</time>
      </trkpt>
      <trkpt lat="46.31093" lon="6.77944">
        <ele>1356.6</ele>
        <time>2021-10-10T13:44:07Z</time>
      </trkpt>
      <trkpt lat="46.31094" lon="6.77949">
        <ele>1354</ele>
        <time>2021-10-10T13:44:12Z</time>
      </trkpt>
      <trkpt lat="46.31094" lon="6.77957">
        <ele>1353.6</ele>
        <time>2021-10-10T13:44:17Z</time>
      </trkpt>
      <trkpt lat="46.31094" lon="6.77961">
        <ele>1357.4</ele>
        <time>2021-10-10T13:44:19Z</time>
      </trkpt>
      <trkpt lat="46.31093" lon="6.77968">
        <ele>1358</ele>
        <time>2021-10-10T13:44:24Z</time>
      </trkpt>
      <trkpt lat="46.31091" lon="6.77975">
        <ele>1355.2</ele>
        <time>2021-10-10T13:44:29Z</time>
      </trkpt>
      <trkpt lat="46.3109" lon="6.77981">
        <ele>1355.2</ele>
        <time>2021-10-10T13:44:34Z</time>
      </trkpt>
      <trkpt lat="46.31087" lon="6.77989">
        <ele>1353.2</ele>
        <time>2021-10-10T13:44:40Z</time>
      </trkpt>
      <trkpt lat="46.31087" lon="6.77996">
        <ele>1354.4</ele>
        <time>2021-10-10T13:44:44Z</time>
      </trkpt>
      <trkpt lat="46.31087" lon="6.78003">
        <ele>1354.8</ele>
        <time>2021-10-10T13:44:49Z</time>
      </trkpt>
      <trkpt lat="46.31086" lon="6.78008">
        <ele>1357.2</ele>
        <time>2021-10-10T13:44:53Z</time>
      </trkpt>
      <trkpt lat="46.31087" lon="6.78016">
        <ele>1353.2</ele>
        <time>2021-10-10T13:44:59Z</time>
      </trkpt>
      <trkpt lat="46.31087" lon="6.78022">
        <ele>1355.6</ele>
        <time>2021-10-10T13:45:03Z</time>
      </trkpt>
      <trkpt lat="46.31088" lon="6.78028">
        <ele>1353</ele>
        <time>2021-10-10T13:45:08Z</time>
      </trkpt>
      <trkpt lat="46.31087" lon="6.78034">
        <ele>1352.4</ele>
        <time>2021-10-10T13:45:13Z</time>
      </trkpt>
      <trkpt lat="46.31086" lon="6.78041">
        <ele>1352.8</ele>
        <time>2021-10-10T13:45:19Z</time>
      </trkpt>
      <trkpt lat="46.31085" lon="6.78047">
        <ele>1349.6</ele>
        <time>2021-10-10T13:45:25Z</time>
      </trkpt>
      <trkpt lat="46.31087" lon="6.78054">
        <ele>1349.2</ele>
        <time>2021-10-10T13:45:30Z</time>
      </trkpt>
      <trkpt lat="46.31084" lon="6.78062">
        <ele>1348.4</ele>
        <time>2021-10-10T13:45:34Z</time>
      </trkpt>
      <trkpt lat="46.31082" lon="6.78066">
        <ele>1351.6</ele>
        <time>2021-10-10T13:45:37Z</time>
      </trkpt>
      <trkpt lat="46.3108" lon="6.7807">
        <ele>1348</ele>
        <time>2021-10-10T13:45:40Z</time>
      </trkpt>
      <trkpt lat="46.31078" lon="6.78077">
        <ele>1346.6</ele>
        <time>2021-10-10T13:45:46Z</time>
      </trkpt>
      <trkpt lat="46.31074" lon="6.78082">
        <ele>1344.6</ele>
        <time>2021-10-10T13:45:50Z</time>
      </trkpt>
      <trkpt lat="46.31072" lon="6.78086">
        <ele>1342.6</ele>
        <time>2021-10-10T13:45:53Z</time>
      </trkpt>
      <trkpt lat="46.3107" lon="6.78092">
        <ele>1344.8</ele>
        <time>2021-10-10T13:45:58Z</time>
      </trkpt>
      <trkpt lat="46.31067" lon="6.78097">
        <ele>1341</ele>
        <time>2021-10-10T13:46:02Z</time>
      </trkpt>
      <trkpt lat="46.31067" lon="6.78105">
        <ele>1340.2</ele>
        <time>2021-10-10T13:46:06Z</time>
      </trkpt>
      <trkpt lat="46.31067" lon="6.78111">
        <ele>1342.2</ele>
        <time>2021-10-10T13:46:10Z</time>
      </trkpt>
      <trkpt lat="46.31065" lon="6.78116">
        <ele>1339.8</ele>
        <time>2021-10-10T13:46:14Z</time>
      </trkpt>
      <trkpt lat="46.31063" lon="6.7812">
        <ele>1342.4</ele>
        <time>2021-10-10T13:46:17Z</time>
      </trkpt>
      <trkpt lat="46.31059" lon="6.78124">
        <ele>1340.8</ele>
        <time>2021-10-10T13:46:21Z</time>
      </trkpt>
      <trkpt lat="46.31058" lon="6.7813">
        <ele>1337.6</ele>
        <time>2021-10-10T13:46:26Z</time>
      </trkpt>
      <trkpt lat="46.31055" lon="6.78137">
        <ele>1338</ele>
        <time>2021-10-10T13:46:31Z</time>
      </trkpt>
      <trkpt lat="46.31053" lon="6.78143">
        <ele>1337.8</ele>
        <time>2021-10-10T13:46:36Z</time>
      </trkpt>
      <trkpt lat="46.31052" lon="6.78148">
        <ele>1337.4</ele>
        <time>2021-10-10T13:46:40Z</time>
      </trkpt>
      <trkpt lat="46.31049" lon="6.78154">
        <ele>1335.6</ele>
        <time>2021-10-10T13:46:45Z</time>
      </trkpt>
      <trkpt lat="46.31047" lon="6.78159">
        <ele>1334.2</ele>
        <time>2021-10-10T13:46:50Z</time>
      </trkpt>
      <trkpt lat="46.31046" lon="6.78165">
        <ele>1335.6</ele>
        <time>2021-10-10T13:46:57Z</time>
      </trkpt>
      <trkpt lat="46.31043" lon="6.78169">
        <ele>1333.6</ele>
        <time>2021-10-10T13:47:01Z</time>
      </trkpt>
      <trkpt lat="46.31039" lon="6.78174">
        <ele>1334.4</ele>
        <time>2021-10-10T13:47:05Z</time>
      </trkpt>
      <trkpt lat="46.31034" lon="6.78178">
        <ele>1334.6</ele>
        <time>2021-10-10T13:47:09Z</time>
      </trkpt>
      <trkpt lat="46.3103" lon="6.78183">
        <ele>1335.2</ele>
        <time>2021-10-10T13:47:12Z</time>
      </trkpt>
      <trkpt lat="46.31028" lon="6.78188">
        <ele>1337</ele>
        <time>2021-10-10T13:47:15Z</time>
      </trkpt>
      <trkpt lat="46.31024" lon="6.78194">
        <ele>1333.8</ele>
        <time>2021-10-10T13:47:19Z</time>
      </trkpt>
      <trkpt lat="46.31021" lon="6.782">
        <ele>1331.8</ele>
        <time>2021-10-10T13:47:23Z</time>
      </trkpt>
      <trkpt lat="46.31016" lon="6.78204">
        <ele>1333.6</ele>
        <time>2021-10-10T13:47:26Z</time>
      </trkpt>
      <trkpt lat="46.31013" lon="6.78207">
        <ele>1331.8</ele>
        <time>2021-10-10T13:47:28Z</time>
      </trkpt>
      <trkpt lat="46.31009" lon="6.78212">
        <ele>1330.2</ele>
        <time>2021-10-10T13:47:32Z</time>
      </trkpt>
      <trkpt lat="46.31007" lon="6.78219">
        <ele>1332.4</ele>
        <time>2021-10-10T13:47:40Z</time>
      </trkpt>
      <trkpt lat="46.31005" lon="6.78225">
        <ele>1328.6</ele>
        <time>2021-10-10T13:47:46Z</time>
      </trkpt>
      <trkpt lat="46.31003" lon="6.78231">
        <ele>1327.4</ele>
        <time>2021-10-10T13:47:51Z</time>
      </trkpt>
      <trkpt lat="46.30998" lon="6.78234">
        <ele>1326.6</ele>
        <time>2021-10-10T13:47:56Z</time>
      </trkpt>
      <trkpt lat="46.30998" lon="6.78241">
        <ele>1325</ele>
        <time>2021-10-10T13:48:05Z</time>
      </trkpt>
      <trkpt lat="46.30995" lon="6.78247">
        <ele>1325.6</ele>
        <time>2021-10-10T13:48:12Z</time>
      </trkpt>
      <trkpt lat="46.3099" lon="6.78252">
        <ele>1325.6</ele>
        <time>2021-10-10T13:48:17Z</time>
      </trkpt>
      <trkpt lat="46.30987" lon="6.78256">
        <ele>1323.8</ele>
        <time>2021-10-10T13:48:21Z</time>
      </trkpt>
      <trkpt lat="46.30983" lon="6.7826">
        <ele>1322.2</ele>
        <time>2021-10-10T13:48:27Z</time>
      </trkpt>
      <trkpt lat="46.30978" lon="6.78264">
        <ele>1322.8</ele>
        <time>2021-10-10T13:48:31Z</time>
      </trkpt>
      <trkpt lat="46.30974" lon="6.78267">
        <ele>1324.2</ele>
        <time>2021-10-10T13:48:37Z</time>
      </trkpt>
      <trkpt lat="46.30968" lon="6.78269">
        <ele>1323</ele>
        <time>2021-10-10T13:48:41Z</time>
      </trkpt>
      <trkpt lat="46.30964" lon="6.78271">
        <ele>1325.8</ele>
        <time>2021-10-10T13:48:44Z</time>
      </trkpt>
      <trkpt lat="46.30961" lon="6.78276">
        <ele>1325.4</ele>
        <time>2021-10-10T13:48:52Z</time>
      </trkpt>
      <trkpt lat="46.30961" lon="6.78282">
        <ele>1326.6</ele>
        <time>2021-10-10T13:48:56Z</time>
      </trkpt>
      <trkpt lat="46.30959" lon="6.78288">
        <ele>1327.2</ele>
        <time>2021-10-10T13:48:59Z</time>
      </trkpt>
      <trkpt lat="46.30953" lon="6.78293">
        <ele>1329.2</ele>
        <time>2021-10-10T13:49:02Z</time>
      </trkpt>
      <trkpt lat="46.30949" lon="6.78297">
        <ele>1330.4</ele>
        <time>2021-10-10T13:49:04Z</time>
      </trkpt>
      <trkpt lat="46.30945" lon="6.783">
        <ele>1327.4</ele>
        <time>2021-10-10T13:49:06Z</time>
      </trkpt>
      <trkpt lat="46.30942" lon="6.78304">
        <ele>1328.8</ele>
        <time>2021-10-10T13:49:08Z</time>
      </trkpt>
      <trkpt lat="46.30938" lon="6.7831">
        <ele>1330.2</ele>
        <time>2021-10-10T13:49:11Z</time>
      </trkpt>
      <trkpt lat="46.30933" lon="6.78316">
        <ele>1330.2</ele>
        <time>2021-10-10T13:49:14Z</time>
      </trkpt>
      <trkpt lat="46.30929" lon="6.78321">
        <ele>1330.6</ele>
        <time>2021-10-10T13:49:17Z</time>
      </trkpt>
      <trkpt lat="46.30927" lon="6.78324">
        <ele>1333</ele>
        <time>2021-10-10T13:49:20Z</time>
      </trkpt>
      <trkpt lat="46.30923" lon="6.78328">
        <ele>1333</ele>
        <time>2021-10-10T13:49:25Z</time>
      </trkpt>
      <trkpt lat="46.3092" lon="6.78333">
        <ele>1332</ele>
        <time>2021-10-10T13:49:30Z</time>
      </trkpt>
      <trkpt lat="46.30915" lon="6.78337">
        <ele>1332.4</ele>
        <time>2021-10-10T13:49:35Z</time>
      </trkpt>
      <trkpt lat="46.30911" lon="6.78337">
        <ele>1334</ele>
        <time>2021-10-10T13:49:43Z</time>
      </trkpt>
      <trkpt lat="46.30906" lon="6.7834">
        <ele>1332</ele>
        <time>2021-10-10T13:49:48Z</time>
      </trkpt>
      <trkpt lat="46.30902" lon="6.78343">
        <ele>1333</ele>
        <time>2021-10-10T13:49:52Z</time>
      </trkpt>
      <trkpt lat="46.30899" lon="6.78349">
        <ele>1334.4</ele>
        <time>2021-10-10T13:49:55Z</time>
      </trkpt>
      <trkpt lat="46.30896" lon="6.78354">
        <ele>1335.6</ele>
        <time>2021-10-10T13:49:58Z</time>
      </trkpt>
      <trkpt lat="46.30892" lon="6.78357">
        <ele>1333.4</ele>
        <time>2021-10-10T13:50:01Z</time>
      </trkpt>
      <trkpt lat="46.30888" lon="6.78359">
        <ele>1330.6</ele>
        <time>2021-10-10T13:50:05Z</time>
      </trkpt>
      <trkpt lat="46.30883" lon="6.7836">
        <ele>1330.6</ele>
        <time>2021-10-10T13:50:13Z</time>
      </trkpt>
      <trkpt lat="46.30879" lon="6.78362">
        <ele>1330.2</ele>
        <time>2021-10-10T13:50:19Z</time>
      </trkpt>
      <trkpt lat="46.30876" lon="6.78362">
        <ele>1325.8</ele>
        <time>2021-10-10T13:50:30Z</time>
      </trkpt>
      <trkpt lat="46.30873" lon="6.7836">
        <ele>1329</ele>
        <time>2021-10-10T13:50:47Z</time>
      </trkpt>
      <trkpt lat="46.3087" lon="6.78362">
        <ele>1332.2</ele>
        <time>2021-10-10T13:51:06Z</time>
      </trkpt>
      <trkpt lat="46.30874" lon="6.78361">
        <ele>1329.6</ele>
        <time>2021-10-10T13:51:14Z</time>
      </trkpt>
      <trkpt lat="46.30875" lon="6.78354">
        <ele>1331.4</ele>
        <time>2021-10-10T13:51:32Z</time>
      </trkpt>
      <trkpt lat="46.30875" lon="6.78349">
        <ele>1336.8</ele>
        <time>2021-10-10T13:51:50Z</time>
      </trkpt>
      <trkpt lat="46.30878" lon="6.78345">
        <ele>1336</ele>
        <time>2021-10-10T13:52:36Z</time>
      </trkpt>
      <trkpt lat="46.30875" lon="6.78347">
        <ele>1337.8</ele>
        <time>2021-10-10T13:53:46Z</time>
      </trkpt>
      <trkpt lat="46.30879" lon="6.78348">
        <ele>1336.8</ele>
        <time>2021-10-10T13:54:12Z</time>
      </trkpt>
      <trkpt lat="46.30875" lon="6.78353">
        <ele>1336.8</ele>
        <time>2021-10-10T13:55:17Z</time>
      </trkpt>
      <trkpt lat="46.30874" lon="6.78358">
        <ele>1326.6</ele>
        <time>2021-10-10T13:55:42Z</time>
      </trkpt>
      <trkpt lat="46.30878" lon="6.78355">
        <ele>1329.6</ele>
        <time>2021-10-10T13:55:49Z</time>
      </trkpt>
      <trkpt lat="46.30876" lon="6.78355">
        <ele>1336.4</ele>
        <time>2021-10-10T13:55:54Z</time>
      </trkpt>
      <trkpt lat="46.30872" lon="6.78352">
        <ele>1336.8</ele>
        <time>2021-10-10T13:56:17Z</time>
      </trkpt>
      <trkpt lat="46.30872" lon="6.78347">
        <ele>1338.2</ele>
        <time>2021-10-10T13:56:30Z</time>
      </trkpt>
      <trkpt lat="46.30875" lon="6.7834">
        <ele>1337</ele>
        <time>2021-10-10T13:56:35Z</time>
      </trkpt>
      <trkpt lat="46.30878" lon="6.78341">
        <ele>1340.8</ele>
        <time>2021-10-10T13:57:08Z</time>
      </trkpt>
      <trkpt lat="46.3088" lon="6.78337">
        <ele>1337</ele>
        <time>2021-10-10T13:57:37Z</time>
      </trkpt>
      <trkpt lat="46.30884" lon="6.78338">
        <ele>1338</ele>
        <time>2021-10-10T13:57:51Z</time>
      </trkpt>
      <trkpt lat="46.30885" lon="6.78337">
        <ele>1332.6</ele>
        <time>2021-10-10T13:57:53Z</time>
      </trkpt>
      <trkpt lat="46.30889" lon="6.78338">
        <ele>1332.6</ele>
        <time>2021-10-10T13:58:06Z</time>
      </trkpt>
      <trkpt lat="46.30889" lon="6.78339">
        <ele>1337.2</ele>
        <time>2021-10-10T13:58:22Z</time>
      </trkpt>
      <trkpt lat="46.30886" lon="6.78345">
        <ele>1337.8</ele>
        <time>2021-10-10T13:58:35Z</time>
      </trkpt>
      <trkpt lat="46.30882" lon="6.78351">
        <ele>1337.2</ele>
        <time>2021-10-10T13:58:44Z</time>
      </trkpt>
      <trkpt lat="46.30878" lon="6.78352">
        <ele>1336.2</ele>
        <time>2021-10-10T13:58:51Z</time>
      </trkpt>
      <trkpt lat="46.30873" lon="6.78354">
        <ele>1338</ele>
        <time>2021-10-10T13:58:56Z</time>
      </trkpt>
      <trkpt lat="46.30869" lon="6.78354">
        <ele>1335.8</ele>
        <time>2021-10-10T13:59:03Z</time>
      </trkpt>
      <trkpt lat="46.30864" lon="6.78355">
        <ele>1335</ele>
        <time>2021-10-10T13:59:09Z</time>
      </trkpt>
      <trkpt lat="46.3086" lon="6.78355">
        <ele>1338.8</ele>
        <time>2021-10-10T13:59:15Z</time>
      </trkpt>
      <trkpt lat="46.30855" lon="6.78356">
        <ele>1336.2</ele>
        <time>2021-10-10T13:59:32Z</time>
      </trkpt>
      <trkpt lat="46.3085" lon="6.78357">
        <ele>1334.6</ele>
        <time>2021-10-10T13:59:57Z</time>
      </trkpt>
      <trkpt lat="46.30844" lon="6.78357">
        <ele>1335.2</ele>
        <time>2021-10-10T14:00:01Z</time>
      </trkpt>
      <trkpt lat="46.30839" lon="6.78358">
        <ele>1334.8</ele>
        <time>2021-10-10T14:00:03Z</time>
      </trkpt>
      <trkpt lat="46.30835" lon="6.78357">
        <ele>1335.4</ele>
        <time>2021-10-10T14:00:06Z</time>
      </trkpt>
      <trkpt lat="46.3083" lon="6.78356">
        <ele>1334.2</ele>
        <time>2021-10-10T14:00:09Z</time>
      </trkpt>
      <trkpt lat="46.30826" lon="6.78356">
        <ele>1333.6</ele>
        <time>2021-10-10T14:00:11Z</time>
      </trkpt>
      <trkpt lat="46.30822" lon="6.78357">
        <ele>1336.8</ele>
        <time>2021-10-10T14:00:13Z</time>
      </trkpt>
      <trkpt lat="46.30817" lon="6.78359">
        <ele>1335</ele>
        <time>2021-10-10T14:00:17Z</time>
      </trkpt>
      <trkpt lat="46.30812" lon="6.7836">
        <ele>1333.4</ele>
        <time>2021-10-10T14:00:19Z</time>
      </trkpt>
      <trkpt lat="46.30809" lon="6.78363">
        <ele>1330</ele>
        <time>2021-10-10T14:00:22Z</time>
      </trkpt>
      <trkpt lat="46.30805" lon="6.78366">
        <ele>1333.4</ele>
        <time>2021-10-10T14:00:25Z</time>
      </trkpt>
      <trkpt lat="46.308" lon="6.78369">
        <ele>1328.2</ele>
        <time>2021-10-10T14:00:28Z</time>
      </trkpt>
      <trkpt lat="46.30796" lon="6.78374">
        <ele>1328.6</ele>
        <time>2021-10-10T14:00:31Z</time>
      </trkpt>
      <trkpt lat="46.30791" lon="6.7838">
        <ele>1327.6</ele>
        <time>2021-10-10T14:00:35Z</time>
      </trkpt>
      <trkpt lat="46.30788" lon="6.78384">
        <ele>1321.8</ele>
        <time>2021-10-10T14:00:38Z</time>
      </trkpt>
      <trkpt lat="46.30783" lon="6.78388">
        <ele>1324.4</ele>
        <time>2021-10-10T14:00:40Z</time>
      </trkpt>
      <trkpt lat="46.30779" lon="6.78392">
        <ele>1324.4</ele>
        <time>2021-10-10T14:00:42Z</time>
      </trkpt>
      <trkpt lat="46.30775" lon="6.78396">
        <ele>1326.2</ele>
        <time>2021-10-10T14:00:44Z</time>
      </trkpt>
      <trkpt lat="46.30771" lon="6.78401">
        <ele>1323.6</ele>
        <time>2021-10-10T14:00:47Z</time>
      </trkpt>
      <trkpt lat="46.30765" lon="6.78405">
        <ele>1323.6</ele>
        <time>2021-10-10T14:00:54Z</time>
      </trkpt>
      <trkpt lat="46.3076" lon="6.78409">
        <ele>1322.2</ele>
        <time>2021-10-10T14:00:57Z</time>
      </trkpt>
      <trkpt lat="46.30756" lon="6.78413">
        <ele>1323</ele>
        <time>2021-10-10T14:01:00Z</time>
      </trkpt>
      <trkpt lat="46.30752" lon="6.78417">
        <ele>1324.6</ele>
        <time>2021-10-10T14:01:02Z</time>
      </trkpt>
      <trkpt lat="46.30748" lon="6.78421">
        <ele>1321.2</ele>
        <time>2021-10-10T14:01:05Z</time>
      </trkpt>
      <trkpt lat="46.30743" lon="6.78425">
        <ele>1320.6</ele>
        <time>2021-10-10T14:01:07Z</time>
      </trkpt>
      <trkpt lat="46.3074" lon="6.78429">
        <ele>1319</ele>
        <time>2021-10-10T14:01:11Z</time>
      </trkpt>
      <trkpt lat="46.30735" lon="6.78432">
        <ele>1314.8</ele>
        <time>2021-10-10T14:01:15Z</time>
      </trkpt>
      <trkpt lat="46.30733" lon="6.78438">
        <ele>1319.2</ele>
        <time>2021-10-10T14:01:20Z</time>
      </trkpt>
      <trkpt lat="46.30731" lon="6.78445">
        <ele>1318.6</ele>
        <time>2021-10-10T14:01:25Z</time>
      </trkpt>
      <trkpt lat="46.30723" lon="6.78451">
        <ele>1318.4</ele>
        <time>2021-10-10T14:01:28Z</time>
      </trkpt>
      <trkpt lat="46.30719" lon="6.78456">
        <ele>1317</ele>
        <time>2021-10-10T14:01:31Z</time>
      </trkpt>
      <trkpt lat="46.30715" lon="6.78462">
        <ele>1319.2</ele>
        <time>2021-10-10T14:01:35Z</time>
      </trkpt>
      <trkpt lat="46.30712" lon="6.78465">
        <ele>1316.8</ele>
        <time>2021-10-10T14:01:39Z</time>
      </trkpt>
      <trkpt lat="46.30709" lon="6.78472">
        <ele>1314</ele>
        <time>2021-10-10T14:01:47Z</time>
      </trkpt>
      <trkpt lat="46.30703" lon="6.78479">
        <ele>1315.2</ele>
        <time>2021-10-10T14:01:51Z</time>
      </trkpt>
      <trkpt lat="46.30698" lon="6.78483">
        <ele>1314.6</ele>
        <time>2021-10-10T14:01:54Z</time>
      </trkpt>
      <trkpt lat="46.30693" lon="6.78486">
        <ele>1313.8</ele>
        <time>2021-10-10T14:01:58Z</time>
      </trkpt>
      <trkpt lat="46.30688" lon="6.7849">
        <ele>1308.8</ele>
        <time>2021-10-10T14:02:01Z</time>
      </trkpt>
      <trkpt lat="46.30685" lon="6.78493">
        <ele>1312.2</ele>
        <time>2021-10-10T14:02:03Z</time>
      </trkpt>
      <trkpt lat="46.30681" lon="6.78499">
        <ele>1312.2</ele>
        <time>2021-10-10T14:02:07Z</time>
      </trkpt>
      <trkpt lat="46.30677" lon="6.78503">
        <ele>1312.2</ele>
        <time>2021-10-10T14:02:11Z</time>
      </trkpt>
      <trkpt lat="46.30672" lon="6.78504">
        <ele>1312.2</ele>
        <time>2021-10-10T14:02:14Z</time>
      </trkpt>
      <trkpt lat="46.30667" lon="6.78507">
        <ele>1312.2</ele>
        <time>2021-10-10T14:02:18Z</time>
      </trkpt>
      <trkpt lat="46.30663" lon="6.78512">
        <ele>1312.2</ele>
        <time>2021-10-10T14:02:23Z</time>
      </trkpt>
      <trkpt lat="46.30648" lon="6.78526">
        <ele>1312.2</ele>
        <time>2021-10-10T14:02:32Z</time>
      </trkpt>
      <trkpt lat="46.30587" lon="6.78599">
        <ele>1312.2</ele>
        <time>2021-10-10T14:02:58Z</time>
      </trkpt>
      <trkpt lat="46.30485" lon="6.78741">
        <ele>1311.4</ele>
        <time>2021-10-10T14:03:28Z</time>
      </trkpt>
      <trkpt lat="46.30475" lon="6.78749">
        <ele>1312.4</ele>
        <time>2021-10-10T14:03:32Z</time>
      </trkpt>
      <trkpt lat="46.30467" lon="6.78758">
        <ele>1312</ele>
        <time>2021-10-10T14:03:36Z</time>
      </trkpt>
      <trkpt lat="46.30462" lon="6.78763">
        <ele>1312.6</ele>
        <time>2021-10-10T14:03:39Z</time>
      </trkpt>
      <trkpt lat="46.30457" lon="6.78767">
        <ele>1313.4</ele>
        <time>2021-10-10T14:03:43Z</time>
      </trkpt>
      <trkpt lat="46.30451" lon="6.78775">
        <ele>1312.4</ele>
        <time>2021-10-10T14:03:45Z</time>
      </trkpt>
      <trkpt lat="46.30446" lon="6.78782">
        <ele>1314.8</ele>
        <time>2021-10-10T14:03:46Z</time>
      </trkpt>
      <trkpt lat="46.30434" lon="6.78796">
        <ele>1315.6</ele>
        <time>2021-10-10T14:03:48Z</time>
      </trkpt>
      <trkpt lat="46.30427" lon="6.78801">
        <ele>1316.4</ele>
        <time>2021-10-10T14:03:50Z</time>
      </trkpt>
      <trkpt lat="46.30422" lon="6.78806">
        <ele>1317</ele>
        <time>2021-10-10T14:03:51Z</time>
      </trkpt>
      <trkpt lat="46.30417" lon="6.78809">
        <ele>1317.6</ele>
        <time>2021-10-10T14:03:53Z</time>
      </trkpt>
      <trkpt lat="46.3041" lon="6.78817">
        <ele>1316.4</ele>
        <time>2021-10-10T14:03:54Z</time>
      </trkpt>
      <trkpt lat="46.30404" lon="6.78823">
        <ele>1315.2</ele>
        <time>2021-10-10T14:03:56Z</time>
      </trkpt>
      <trkpt lat="46.304" lon="6.78827">
        <ele>1315.4</ele>
        <time>2021-10-10T14:03:58Z</time>
      </trkpt>
      <trkpt lat="46.30395" lon="6.78832">
        <ele>1315.6</ele>
        <time>2021-10-10T14:03:59Z</time>
      </trkpt>
      <trkpt lat="46.3039" lon="6.78836">
        <ele>1315</ele>
        <time>2021-10-10T14:04:01Z</time>
      </trkpt>
      <trkpt lat="46.30387" lon="6.78841">
        <ele>1315.2</ele>
        <time>2021-10-10T14:04:03Z</time>
      </trkpt>
      <trkpt lat="46.30383" lon="6.78848">
        <ele>1314.8</ele>
        <time>2021-10-10T14:04:05Z</time>
      </trkpt>
      <trkpt lat="46.30381" lon="6.78853">
        <ele>1315.2</ele>
        <time>2021-10-10T14:04:06Z</time>
      </trkpt>
      <trkpt lat="46.30377" lon="6.78858">
        <ele>1316</ele>
        <time>2021-10-10T14:04:08Z</time>
      </trkpt>
      <trkpt lat="46.30372" lon="6.78862">
        <ele>1313.8</ele>
        <time>2021-10-10T14:04:11Z</time>
      </trkpt>
      <trkpt lat="46.30368" lon="6.78865">
        <ele>1315</ele>
        <time>2021-10-10T14:04:15Z</time>
      </trkpt>
      <trkpt lat="46.30362" lon="6.78866">
        <ele>1314</ele>
        <time>2021-10-10T14:04:21Z</time>
      </trkpt>
      <trkpt lat="46.30359" lon="6.78869">
        <ele>1317</ele>
        <time>2021-10-10T14:04:24Z</time>
      </trkpt>
      <trkpt lat="46.30355" lon="6.78872">
        <ele>1314.2</ele>
        <time>2021-10-10T14:04:29Z</time>
      </trkpt>
      <trkpt lat="46.30317" lon="6.78904">
        <ele>1317</ele>
        <time>2021-10-10T14:04:51Z</time>
      </trkpt>
      <trkpt lat="46.30321" lon="6.78894">
        <ele>1317.4</ele>
        <time>2021-10-10T14:04:54Z</time>
      </trkpt>
      <trkpt lat="46.30326" lon="6.78886">
        <ele>1317.6</ele>
        <time>2021-10-10T14:04:55Z</time>
      </trkpt>
      <trkpt lat="46.30329" lon="6.78878">
        <ele>1317</ele>
        <time>2021-10-10T14:04:57Z</time>
      </trkpt>
      <trkpt lat="46.30331" lon="6.78869">
        <ele>1317.2</ele>
        <time>2021-10-10T14:05:00Z</time>
      </trkpt>
      <trkpt lat="46.30326" lon="6.78874">
        <ele>1317.8</ele>
        <time>2021-10-10T14:05:01Z</time>
      </trkpt>
      <trkpt lat="46.30323" lon="6.78876">
        <ele>1315.8</ele>
        <time>2021-10-10T14:05:04Z</time>
      </trkpt>
      <trkpt lat="46.30323" lon="6.78866">
        <ele>1317.8</ele>
        <time>2021-10-10T14:05:07Z</time>
      </trkpt>
      <trkpt lat="46.30337" lon="6.78836">
        <ele>1317.2</ele>
        <time>2021-10-10T14:05:10Z</time>
      </trkpt>
      <trkpt lat="46.30349" lon="6.78803">
        <ele>1314.2</ele>
        <time>2021-10-10T14:05:15Z</time>
      </trkpt>
      <trkpt lat="46.30353" lon="6.78793">
        <ele>1316.6</ele>
        <time>2021-10-10T14:05:17Z</time>
      </trkpt>
      <trkpt lat="46.30346" lon="6.788">
        <ele>1315.4</ele>
        <time>2021-10-10T14:05:18Z</time>
      </trkpt>
      <trkpt lat="46.30349" lon="6.78789">
        <ele>1316</ele>
        <time>2021-10-10T14:05:21Z</time>
      </trkpt>
      <trkpt lat="46.30352" lon="6.78783">
        <ele>1313.8</ele>
        <time>2021-10-10T14:05:22Z</time>
      </trkpt>
      <trkpt lat="46.30353" lon="6.78777">
        <ele>1314.6</ele>
        <time>2021-10-10T14:05:23Z</time>
      </trkpt>
      <trkpt lat="46.30355" lon="6.78771">
        <ele>1315.6</ele>
        <time>2021-10-10T14:05:25Z</time>
      </trkpt>
      <trkpt lat="46.30357" lon="6.78764">
        <ele>1315.2</ele>
        <time>2021-10-10T14:05:27Z</time>
      </trkpt>
      <trkpt lat="46.3036" lon="6.78756">
        <ele>1314.6</ele>
        <time>2021-10-10T14:05:29Z</time>
      </trkpt>
      <trkpt lat="46.30362" lon="6.78748">
        <ele>1311</ele>
        <time>2021-10-10T14:05:31Z</time>
      </trkpt>
      <trkpt lat="46.30365" lon="6.78741">
        <ele>1309.8</ele>
        <time>2021-10-10T14:05:33Z</time>
      </trkpt>
      <trkpt lat="46.30366" lon="6.78736">
        <ele>1311.4</ele>
        <time>2021-10-10T14:05:34Z</time>
      </trkpt>
      <trkpt lat="46.30373" lon="6.78721">
        <ele>1308.2</ele>
        <time>2021-10-10T14:05:36Z</time>
      </trkpt>
      <trkpt lat="46.30379" lon="6.78709">
        <ele>1308</ele>
        <time>2021-10-10T14:05:37Z</time>
      </trkpt>
      <trkpt lat="46.30386" lon="6.78694">
        <ele>1308.8</ele>
        <time>2021-10-10T14:05:38Z</time>
      </trkpt>
      <trkpt lat="46.30388" lon="6.78687">
        <ele>1309.2</ele>
        <time>2021-10-10T14:05:39Z</time>
      </trkpt>
      <trkpt lat="46.30391" lon="6.78681">
        <ele>1308.2</ele>
        <time>2021-10-10T14:05:40Z</time>
      </trkpt>
      <trkpt lat="46.30395" lon="6.78669">
        <ele>1307</ele>
        <time>2021-10-10T14:05:42Z</time>
      </trkpt>
      <trkpt lat="46.30398" lon="6.78659">
        <ele>1307.6</ele>
        <time>2021-10-10T14:05:44Z</time>
      </trkpt>
      <trkpt lat="46.30402" lon="6.78648">
        <ele>1307.4</ele>
        <time>2021-10-10T14:05:45Z</time>
      </trkpt>
      <trkpt lat="46.30405" lon="6.78639">
        <ele>1306.8</ele>
        <time>2021-10-10T14:05:46Z</time>
      </trkpt>
      <trkpt lat="46.30409" lon="6.7863">
        <ele>1305.2</ele>
        <time>2021-10-10T14:05:47Z</time>
      </trkpt>
      <trkpt lat="46.30411" lon="6.78619">
        <ele>1305.8</ele>
        <time>2021-10-10T14:05:49Z</time>
      </trkpt>
      <trkpt lat="46.30417" lon="6.78603">
        <ele>1306.4</ele>
        <time>2021-10-10T14:05:51Z</time>
      </trkpt>
      <trkpt lat="46.30418" lon="6.78591">
        <ele>1306.2</ele>
        <time>2021-10-10T14:05:53Z</time>
      </trkpt>
      <trkpt lat="46.30421" lon="6.78583">
        <ele>1303.6</ele>
        <time>2021-10-10T14:05:54Z</time>
      </trkpt>
      <trkpt lat="46.30423" lon="6.78575">
        <ele>1303.6</ele>
        <time>2021-10-10T14:05:55Z</time>
      </trkpt>
      <trkpt lat="46.30418" lon="6.78579">
        <ele>1303.6</ele>
        <time>2021-10-10T14:05:56Z</time>
      </trkpt>
      <trkpt lat="46.30413" lon="6.78583">
        <ele>1303.6</ele>
        <time>2021-10-10T14:05:57Z</time>
      </trkpt>
      <trkpt lat="46.30407" lon="6.78587">
        <ele>1304.6</ele>
        <time>2021-10-10T14:05:59Z</time>
      </trkpt>
      <trkpt lat="46.30403" lon="6.78591">
        <ele>1304.6</ele>
        <time>2021-10-10T14:06:00Z</time>
      </trkpt>
      <trkpt lat="46.30399" lon="6.78595">
        <ele>1304.4</ele>
        <time>2021-10-10T14:06:01Z</time>
      </trkpt>
      <trkpt lat="46.30392" lon="6.78599">
        <ele>1304.4</ele>
        <time>2021-10-10T14:06:04Z</time>
      </trkpt>
      <trkpt lat="46.30386" lon="6.78604">
        <ele>1304.8</ele>
        <time>2021-10-10T14:06:05Z</time>
      </trkpt>
      <trkpt lat="46.30381" lon="6.78609">
        <ele>1304.8</ele>
        <time>2021-10-10T14:06:06Z</time>
      </trkpt>
      <trkpt lat="46.30377" lon="6.7861">
        <ele>1303.4</ele>
        <time>2021-10-10T14:06:08Z</time>
      </trkpt>
      <trkpt lat="46.30369" lon="6.78613">
        <ele>1306.2</ele>
        <time>2021-10-10T14:06:11Z</time>
      </trkpt>
      <trkpt lat="46.30363" lon="6.78618">
        <ele>1304.6</ele>
        <time>2021-10-10T14:06:13Z</time>
      </trkpt>
      <trkpt lat="46.30361" lon="6.78614">
        <ele>1302.4</ele>
        <time>2021-10-10T14:06:17Z</time>
      </trkpt>
      <trkpt lat="46.30359" lon="6.78606">
        <ele>1304.8</ele>
        <time>2021-10-10T14:06:20Z</time>
      </trkpt>
      <trkpt lat="46.30355" lon="6.78602">
        <ele>1301.2</ele>
        <time>2021-10-10T14:06:22Z</time>
      </trkpt>
      <trkpt lat="46.30351" lon="6.78602">
        <ele>1302.6</ele>
        <time>2021-10-10T14:06:24Z</time>
      </trkpt>
      <trkpt lat="46.30345" lon="6.78601">
        <ele>1304.4</ele>
        <time>2021-10-10T14:06:27Z</time>
      </trkpt>
      <trkpt lat="46.30343" lon="6.78597">
        <ele>1300.8</ele>
        <time>2021-10-10T14:06:30Z</time>
      </trkpt>
      <trkpt lat="46.30341" lon="6.78592">
        <ele>1298.4</ele>
        <time>2021-10-10T14:06:34Z</time>
      </trkpt>
      <trkpt lat="46.30337" lon="6.78588">
        <ele>1298</ele>
        <time>2021-10-10T14:06:38Z</time>
      </trkpt>
      <trkpt lat="46.30334" lon="6.78582">
        <ele>1297.4</ele>
        <time>2021-10-10T14:06:44Z</time>
      </trkpt>
      <trkpt lat="46.30328" lon="6.78582">
        <ele>1297</ele>
        <time>2021-10-10T14:06:50Z</time>
      </trkpt>
      <trkpt lat="46.30326" lon="6.78579">
        <ele>1292.8</ele>
        <time>2021-10-10T14:06:54Z</time>
      </trkpt>
      <trkpt lat="46.30323" lon="6.78572">
        <ele>1294</ele>
        <time>2021-10-10T14:06:59Z</time>
      </trkpt>
      <trkpt lat="46.30324" lon="6.78566">
        <ele>1291.2</ele>
        <time>2021-10-10T14:07:02Z</time>
      </trkpt>
      <trkpt lat="46.30324" lon="6.78559">
        <ele>1292.8</ele>
        <time>2021-10-10T14:07:06Z</time>
      </trkpt>
      <trkpt lat="46.30319" lon="6.78557">
        <ele>1291</ele>
        <time>2021-10-10T14:07:15Z</time>
      </trkpt>
      <trkpt lat="46.30314" lon="6.78557">
        <ele>1292.4</ele>
        <time>2021-10-10T14:07:21Z</time>
      </trkpt>
      <trkpt lat="46.30311" lon="6.78558">
        <ele>1290</ele>
        <time>2021-10-10T14:07:25Z</time>
      </trkpt>
      <trkpt lat="46.3031" lon="6.78558">
        <ele>1284.6</ele>
        <time>2021-10-10T14:07:59Z</time>
      </trkpt>
      <trkpt lat="46.30308" lon="6.78555">
        <ele>1279.2</ele>
        <time>2021-10-10T14:08:37Z</time>
      </trkpt>
      <trkpt lat="46.30304" lon="6.78555">
        <ele>1279.8</ele>
        <time>2021-10-10T14:08:39Z</time>
      </trkpt>
      <trkpt lat="46.30302" lon="6.78551">
        <ele>1276.8</ele>
        <time>2021-10-10T14:08:43Z</time>
      </trkpt>
      <trkpt lat="46.30301" lon="6.78546">
        <ele>1279.8</ele>
        <time>2021-10-10T14:08:47Z</time>
      </trkpt>
      <trkpt lat="46.303" lon="6.78541">
        <ele>1279.6</ele>
        <time>2021-10-10T14:08:52Z</time>
      </trkpt>
      <trkpt lat="46.30294" lon="6.78537">
        <ele>1280</ele>
        <time>2021-10-10T14:08:56Z</time>
      </trkpt>
      <trkpt lat="46.30291" lon="6.78533">
        <ele>1282.4</ele>
        <time>2021-10-10T14:09:00Z</time>
      </trkpt>
      <trkpt lat="46.30289" lon="6.78529">
        <ele>1279</ele>
        <time>2021-10-10T14:09:03Z</time>
      </trkpt>
      <trkpt lat="46.30288" lon="6.78521">
        <ele>1281</ele>
        <time>2021-10-10T14:09:10Z</time>
      </trkpt>
      <trkpt lat="46.30286" lon="6.78517">
        <ele>1282.8</ele>
        <time>2021-10-10T14:09:15Z</time>
      </trkpt>
      <trkpt lat="46.30283" lon="6.78512">
        <ele>1281.2</ele>
        <time>2021-10-10T14:09:20Z</time>
      </trkpt>
      <trkpt lat="46.30277" lon="6.78511">
        <ele>1282.8</ele>
        <time>2021-10-10T14:09:24Z</time>
      </trkpt>
      <trkpt lat="46.30272" lon="6.78512">
        <ele>1285.4</ele>
        <time>2021-10-10T14:09:26Z</time>
      </trkpt>
      <trkpt lat="46.30268" lon="6.78515">
        <ele>1283</ele>
        <time>2021-10-10T14:09:29Z</time>
      </trkpt>
      <trkpt lat="46.30264" lon="6.78518">
        <ele>1282.4</ele>
        <time>2021-10-10T14:09:32Z</time>
      </trkpt>
      <trkpt lat="46.30258" lon="6.78521">
        <ele>1285</ele>
        <time>2021-10-10T14:09:36Z</time>
      </trkpt>
      <trkpt lat="46.30253" lon="6.78523">
        <ele>1283.6</ele>
        <time>2021-10-10T14:09:39Z</time>
      </trkpt>
      <trkpt lat="46.30247" lon="6.78526">
        <ele>1283.2</ele>
        <time>2021-10-10T14:09:42Z</time>
      </trkpt>
      <trkpt lat="46.30242" lon="6.78527">
        <ele>1282.8</ele>
        <time>2021-10-10T14:09:44Z</time>
      </trkpt>
      <trkpt lat="46.30238" lon="6.78528">
        <ele>1280.8</ele>
        <time>2021-10-10T14:09:47Z</time>
      </trkpt>
      <trkpt lat="46.30235" lon="6.78526">
        <ele>1283.2</ele>
        <time>2021-10-10T14:09:51Z</time>
      </trkpt>
      <trkpt lat="46.30231" lon="6.78526">
        <ele>1284</ele>
        <time>2021-10-10T14:09:54Z</time>
      </trkpt>
      <trkpt lat="46.30228" lon="6.78525">
        <ele>1280.6</ele>
        <time>2021-10-10T14:09:57Z</time>
      </trkpt>
      <trkpt lat="46.30223" lon="6.78525">
        <ele>1279.8</ele>
        <time>2021-10-10T14:10:01Z</time>
      </trkpt>
      <trkpt lat="46.30218" lon="6.78524">
        <ele>1280.6</ele>
        <time>2021-10-10T14:10:05Z</time>
      </trkpt>
      <trkpt lat="46.30213" lon="6.78524">
        <ele>1278.4</ele>
        <time>2021-10-10T14:10:08Z</time>
      </trkpt>
      <trkpt lat="46.3021" lon="6.78523">
        <ele>1281.6</ele>
        <time>2021-10-10T14:10:11Z</time>
      </trkpt>
      <trkpt lat="46.30204" lon="6.78523">
        <ele>1279.6</ele>
        <time>2021-10-10T14:10:14Z</time>
      </trkpt>
      <trkpt lat="46.302" lon="6.78522">
        <ele>1277.8</ele>
        <time>2021-10-10T14:10:17Z</time>
      </trkpt>
      <trkpt lat="46.30193" lon="6.78523">
        <ele>1278.6</ele>
        <time>2021-10-10T14:10:19Z</time>
      </trkpt>
      <trkpt lat="46.30187" lon="6.78524">
        <ele>1277</ele>
        <time>2021-10-10T14:10:22Z</time>
      </trkpt>
      <trkpt lat="46.30182" lon="6.78523">
        <ele>1276.4</ele>
        <time>2021-10-10T14:10:24Z</time>
      </trkpt>
      <trkpt lat="46.30178" lon="6.78523">
        <ele>1277.4</ele>
        <time>2021-10-10T14:10:27Z</time>
      </trkpt>
      <trkpt lat="46.30172" lon="6.78524">
        <ele>1276.4</ele>
        <time>2021-10-10T14:10:32Z</time>
      </trkpt>
      <trkpt lat="46.30167" lon="6.78526">
        <ele>1276.2</ele>
        <time>2021-10-10T14:10:36Z</time>
      </trkpt>
      <trkpt lat="46.30162" lon="6.78528">
        <ele>1277</ele>
        <time>2021-10-10T14:10:40Z</time>
      </trkpt>
      <trkpt lat="46.30156" lon="6.7853">
        <ele>1276</ele>
        <time>2021-10-10T14:10:43Z</time>
      </trkpt>
      <trkpt lat="46.30152" lon="6.7853">
        <ele>1279.8</ele>
        <time>2021-10-10T14:10:46Z</time>
      </trkpt>
      <trkpt lat="46.30147" lon="6.7853">
        <ele>1278.4</ele>
        <time>2021-10-10T14:10:49Z</time>
      </trkpt>
      <trkpt lat="46.30142" lon="6.78527">
        <ele>1277.8</ele>
        <time>2021-10-10T14:10:54Z</time>
      </trkpt>
      <trkpt lat="46.30136" lon="6.78527">
        <ele>1277.4</ele>
        <time>2021-10-10T14:10:57Z</time>
      </trkpt>
      <trkpt lat="46.30132" lon="6.78527">
        <ele>1277.2</ele>
        <time>2021-10-10T14:10:59Z</time>
      </trkpt>
      <trkpt lat="46.30127" lon="6.78527">
        <ele>1278</ele>
        <time>2021-10-10T14:11:02Z</time>
      </trkpt>
      <trkpt lat="46.30123" lon="6.78527">
        <ele>1275.6</ele>
        <time>2021-10-10T14:11:04Z</time>
      </trkpt>
      <trkpt lat="46.30119" lon="6.78525">
        <ele>1278</ele>
        <time>2021-10-10T14:11:07Z</time>
      </trkpt>
      <trkpt lat="46.30115" lon="6.78522">
        <ele>1277.2</ele>
        <time>2021-10-10T14:11:12Z</time>
      </trkpt>
      <trkpt lat="46.3011" lon="6.78522">
        <ele>1278.4</ele>
        <time>2021-10-10T14:11:18Z</time>
      </trkpt>
      <trkpt lat="46.30107" lon="6.78521">
        <ele>1273.4</ele>
        <time>2021-10-10T14:11:21Z</time>
      </trkpt>
      <trkpt lat="46.30102" lon="6.7852">
        <ele>1276.4</ele>
        <time>2021-10-10T14:11:24Z</time>
      </trkpt>
      <trkpt lat="46.30097" lon="6.78519">
        <ele>1274.8</ele>
        <time>2021-10-10T14:11:27Z</time>
      </trkpt>
      <trkpt lat="46.30092" lon="6.78518">
        <ele>1275.2</ele>
        <time>2021-10-10T14:11:32Z</time>
      </trkpt>
      <trkpt lat="46.30087" lon="6.78516">
        <ele>1274.4</ele>
        <time>2021-10-10T14:11:36Z</time>
      </trkpt>
      <trkpt lat="46.30085" lon="6.7851">
        <ele>1271.6</ele>
        <time>2021-10-10T14:11:42Z</time>
      </trkpt>
      <trkpt lat="46.30081" lon="6.78508">
        <ele>1268.2</ele>
        <time>2021-10-10T14:11:46Z</time>
      </trkpt>
      <trkpt lat="46.30076" lon="6.78507">
        <ele>1266.6</ele>
        <time>2021-10-10T14:11:50Z</time>
      </trkpt>
      <trkpt lat="46.30072" lon="6.78504">
        <ele>1267.2</ele>
        <time>2021-10-10T14:11:55Z</time>
      </trkpt>
      <trkpt lat="46.30066" lon="6.78504">
        <ele>1265.6</ele>
        <time>2021-10-10T14:11:58Z</time>
      </trkpt>
      <trkpt lat="46.30061" lon="6.78504">
        <ele>1265.6</ele>
        <time>2021-10-10T14:12:00Z</time>
      </trkpt>
      <trkpt lat="46.30056" lon="6.78505">
        <ele>1264.6</ele>
        <time>2021-10-10T14:12:02Z</time>
      </trkpt>
      <trkpt lat="46.30051" lon="6.78502">
        <ele>1263.2</ele>
        <time>2021-10-10T14:12:06Z</time>
      </trkpt>
      <trkpt lat="46.30047" lon="6.78498">
        <ele>1261.2</ele>
        <time>2021-10-10T14:12:10Z</time>
      </trkpt>
      <trkpt lat="46.30044" lon="6.78493">
        <ele>1260.8</ele>
        <time>2021-10-10T14:12:15Z</time>
      </trkpt>
      <trkpt lat="46.30042" lon="6.78486">
        <ele>1258.4</ele>
        <time>2021-10-10T14:12:19Z</time>
      </trkpt>
      <trkpt lat="46.3004" lon="6.78481">
        <ele>1260.4</ele>
        <time>2021-10-10T14:12:23Z</time>
      </trkpt>
      <trkpt lat="46.30038" lon="6.78476">
        <ele>1255.8</ele>
        <time>2021-10-10T14:12:29Z</time>
      </trkpt>
      <trkpt lat="46.30036" lon="6.78471">
        <ele>1258.4</ele>
        <time>2021-10-10T14:12:33Z</time>
      </trkpt>
      <trkpt lat="46.30031" lon="6.78466">
        <ele>1257.2</ele>
        <time>2021-10-10T14:12:40Z</time>
      </trkpt>
      <trkpt lat="46.30025" lon="6.78466">
        <ele>1258.4</ele>
        <time>2021-10-10T14:12:43Z</time>
      </trkpt>
      <trkpt lat="46.30022" lon="6.78464">
        <ele>1255.4</ele>
        <time>2021-10-10T14:12:46Z</time>
      </trkpt>
      <trkpt lat="46.30018" lon="6.78463">
        <ele>1255.4</ele>
        <time>2021-10-10T14:12:50Z</time>
      </trkpt>
      <trkpt lat="46.30014" lon="6.7846">
        <ele>1253</ele>
        <time>2021-10-10T14:12:54Z</time>
      </trkpt>
      <trkpt lat="46.30011" lon="6.78457">
        <ele>1250.8</ele>
        <time>2021-10-10T14:12:59Z</time>
      </trkpt>
      <trkpt lat="46.30008" lon="6.78454">
        <ele>1254.2</ele>
        <time>2021-10-10T14:13:02Z</time>
      </trkpt>
      <trkpt lat="46.30006" lon="6.78447">
        <ele>1251</ele>
        <time>2021-10-10T14:13:06Z</time>
      </trkpt>
      <trkpt lat="46.30005" lon="6.78442">
        <ele>1252.8</ele>
        <time>2021-10-10T14:13:10Z</time>
      </trkpt>
      <trkpt lat="46.30004" lon="6.78435">
        <ele>1249.2</ele>
        <time>2021-10-10T14:13:14Z</time>
      </trkpt>
      <trkpt lat="46.3" lon="6.78433">
        <ele>1249.6</ele>
        <time>2021-10-10T14:13:19Z</time>
      </trkpt>
      <trkpt lat="46.29996" lon="6.78429">
        <ele>1249.2</ele>
        <time>2021-10-10T14:13:23Z</time>
      </trkpt>
      <trkpt lat="46.29993" lon="6.78426">
        <ele>1246.4</ele>
        <time>2021-10-10T14:13:27Z</time>
      </trkpt>
      <trkpt lat="46.29991" lon="6.78419">
        <ele>1249</ele>
        <time>2021-10-10T14:13:31Z</time>
      </trkpt>
      <trkpt lat="46.29988" lon="6.78414">
        <ele>1246.6</ele>
        <time>2021-10-10T14:13:34Z</time>
      </trkpt>
      <trkpt lat="46.29984" lon="6.78407">
        <ele>1245.8</ele>
        <time>2021-10-10T14:13:38Z</time>
      </trkpt>
      <trkpt lat="46.29982" lon="6.78402">
        <ele>1247.2</ele>
        <time>2021-10-10T14:13:42Z</time>
      </trkpt>
      <trkpt lat="46.29978" lon="6.78398">
        <ele>1245.2</ele>
        <time>2021-10-10T14:13:48Z</time>
      </trkpt>
      <trkpt lat="46.29979" lon="6.78391">
        <ele>1243.6</ele>
        <time>2021-10-10T14:13:50Z</time>
      </trkpt>
      <trkpt lat="46.29976" lon="6.78384">
        <ele>1245</ele>
        <time>2021-10-10T14:13:57Z</time>
      </trkpt>
      <trkpt lat="46.29972" lon="6.78378">
        <ele>1241.6</ele>
        <time>2021-10-10T14:14:01Z</time>
      </trkpt>
      <trkpt lat="46.29971" lon="6.78373">
        <ele>1240</ele>
        <time>2021-10-10T14:14:06Z</time>
      </trkpt>
      <trkpt lat="46.29966" lon="6.7837">
        <ele>1240.6</ele>
        <time>2021-10-10T14:14:09Z</time>
      </trkpt>
      <trkpt lat="46.29962" lon="6.78365">
        <ele>1237.4</ele>
        <time>2021-10-10T14:14:13Z</time>
      </trkpt>
      <trkpt lat="46.29959" lon="6.7836">
        <ele>1234.8</ele>
        <time>2021-10-10T14:14:16Z</time>
      </trkpt>
      <trkpt lat="46.29953" lon="6.78357">
        <ele>1234</ele>
        <time>2021-10-10T14:14:18Z</time>
      </trkpt>
      <trkpt lat="46.29949" lon="6.78354">
        <ele>1235.8</ele>
        <time>2021-10-10T14:14:20Z</time>
      </trkpt>
      <trkpt lat="46.29945" lon="6.78349">
        <ele>1233.6</ele>
        <time>2021-10-10T14:14:23Z</time>
      </trkpt>
      <trkpt lat="46.29938" lon="6.78349">
        <ele>1229.8</ele>
        <time>2021-10-10T14:14:26Z</time>
      </trkpt>
      <trkpt lat="46.29932" lon="6.7835">
        <ele>1229.8</ele>
        <time>2021-10-10T14:14:28Z</time>
      </trkpt>
      <trkpt lat="46.29927" lon="6.78349">
        <ele>1224.2</ele>
        <time>2021-10-10T14:14:31Z</time>
      </trkpt>
      <trkpt lat="46.29926" lon="6.78343">
        <ele>1225.6</ele>
        <time>2021-10-10T14:14:35Z</time>
      </trkpt>
      <trkpt lat="46.29925" lon="6.7834">
        <ele>1220.2</ele>
        <time>2021-10-10T14:14:38Z</time>
      </trkpt>
      <trkpt lat="46.29923" lon="6.78336">
        <ele>1217</ele>
        <time>2021-10-10T14:14:42Z</time>
      </trkpt>
      <trkpt lat="46.29922" lon="6.7833">
        <ele>1215</ele>
        <time>2021-10-10T14:14:47Z</time>
      </trkpt>
      <trkpt lat="46.29917" lon="6.78332">
        <ele>1214.2</ele>
        <time>2021-10-10T14:15:00Z</time>
      </trkpt>
      <trkpt lat="46.29917" lon="6.7834">
        <ele>1214.2</ele>
        <time>2021-10-10T14:15:04Z</time>
      </trkpt>
      <trkpt lat="46.29919" lon="6.78346">
        <ele>1212.2</ele>
        <time>2021-10-10T14:15:07Z</time>
      </trkpt>
      <trkpt lat="46.29921" lon="6.78352">
        <ele>1211</ele>
        <time>2021-10-10T14:15:11Z</time>
      </trkpt>
      <trkpt lat="46.29924" lon="6.78359">
        <ele>1209.2</ele>
        <time>2021-10-10T14:15:15Z</time>
      </trkpt>
      <trkpt lat="46.29925" lon="6.78368">
        <ele>1208.2</ele>
        <time>2021-10-10T14:15:19Z</time>
      </trkpt>
      <trkpt lat="46.29928" lon="6.78374">
        <ele>1210.6</ele>
        <time>2021-10-10T14:15:23Z</time>
      </trkpt>
      <trkpt lat="46.29929" lon="6.78381">
        <ele>1208.6</ele>
        <time>2021-10-10T14:15:27Z</time>
      </trkpt>
      <trkpt lat="46.29932" lon="6.78387">
        <ele>1207.8</ele>
        <time>2021-10-10T14:15:30Z</time>
      </trkpt>
      <trkpt lat="46.29933" lon="6.78395">
        <ele>1209.8</ele>
        <time>2021-10-10T14:15:34Z</time>
      </trkpt>
      <trkpt lat="46.29933" lon="6.78402">
        <ele>1206.6</ele>
        <time>2021-10-10T14:15:37Z</time>
      </trkpt>
      <trkpt lat="46.29934" lon="6.78408">
        <ele>1207.2</ele>
        <time>2021-10-10T14:15:41Z</time>
      </trkpt>
      <trkpt lat="46.29937" lon="6.78415">
        <ele>1207</ele>
        <time>2021-10-10T14:15:45Z</time>
      </trkpt>
      <trkpt lat="46.29937" lon="6.78422">
        <ele>1207.2</ele>
        <time>2021-10-10T14:15:48Z</time>
      </trkpt>
      <trkpt lat="46.29939" lon="6.78427">
        <ele>1206</ele>
        <time>2021-10-10T14:15:51Z</time>
      </trkpt>
      <trkpt lat="46.29942" lon="6.78435">
        <ele>1208</ele>
        <time>2021-10-10T14:15:55Z</time>
      </trkpt>
      <trkpt lat="46.29943" lon="6.78441">
        <ele>1203.2</ele>
        <time>2021-10-10T14:15:58Z</time>
      </trkpt>
      <trkpt lat="46.29946" lon="6.78447">
        <ele>1207.6</ele>
        <time>2021-10-10T14:16:01Z</time>
      </trkpt>
      <trkpt lat="46.29947" lon="6.78453">
        <ele>1204.2</ele>
        <time>2021-10-10T14:16:04Z</time>
      </trkpt>
      <trkpt lat="46.29948" lon="6.7846">
        <ele>1205.2</ele>
        <time>2021-10-10T14:16:07Z</time>
      </trkpt>
      <trkpt lat="46.29948" lon="6.78467">
        <ele>1207</ele>
        <time>2021-10-10T14:16:10Z</time>
      </trkpt>
      <trkpt lat="46.29948" lon="6.78471">
        <ele>1202.2</ele>
        <time>2021-10-10T14:16:12Z</time>
      </trkpt>
      <trkpt lat="46.29949" lon="6.78477">
        <ele>1203.4</ele>
        <time>2021-10-10T14:16:15Z</time>
      </trkpt>
      <trkpt lat="46.2995" lon="6.78483">
        <ele>1201.6</ele>
        <time>2021-10-10T14:16:18Z</time>
      </trkpt>
      <trkpt lat="46.2995" lon="6.78489">
        <ele>1202</ele>
        <time>2021-10-10T14:16:21Z</time>
      </trkpt>
      <trkpt lat="46.29951" lon="6.78496">
        <ele>1202.8</ele>
        <time>2021-10-10T14:16:24Z</time>
      </trkpt>
      <trkpt lat="46.29951" lon="6.78502">
        <ele>1201.4</ele>
        <time>2021-10-10T14:16:27Z</time>
      </trkpt>
      <trkpt lat="46.29952" lon="6.78509">
        <ele>1202.6</ele>
        <time>2021-10-10T14:16:30Z</time>
      </trkpt>
      <trkpt lat="46.29954" lon="6.78516">
        <ele>1201.6</ele>
        <time>2021-10-10T14:16:34Z</time>
      </trkpt>
      <trkpt lat="46.29957" lon="6.78511">
        <ele>1201.8</ele>
        <time>2021-10-10T14:16:40Z</time>
      </trkpt>
      <trkpt lat="46.2996" lon="6.78506">
        <ele>1200.6</ele>
        <time>2021-10-10T14:16:44Z</time>
      </trkpt>
      <trkpt lat="46.29959" lon="6.78513">
        <ele>1199.6</ele>
        <time>2021-10-10T14:17:04Z</time>
      </trkpt>
      <trkpt lat="46.29959" lon="6.78519">
        <ele>1199</ele>
        <time>2021-10-10T14:17:07Z</time>
      </trkpt>
      <trkpt lat="46.29959" lon="6.78526">
        <ele>1200.4</ele>
        <time>2021-10-10T14:17:11Z</time>
      </trkpt>
      <trkpt lat="46.2996" lon="6.78532">
        <ele>1199.4</ele>
        <time>2021-10-10T14:17:14Z</time>
      </trkpt>
      <trkpt lat="46.2996" lon="6.7854">
        <ele>1197</ele>
        <time>2021-10-10T14:17:18Z</time>
      </trkpt>
      <trkpt lat="46.29961" lon="6.78547">
        <ele>1196.6</ele>
        <time>2021-10-10T14:17:21Z</time>
      </trkpt>
      <trkpt lat="46.29961" lon="6.78553">
        <ele>1195.8</ele>
        <time>2021-10-10T14:17:24Z</time>
      </trkpt>
      <trkpt lat="46.29962" lon="6.7856">
        <ele>1195.6</ele>
        <time>2021-10-10T14:17:27Z</time>
      </trkpt>
      <trkpt lat="46.29962" lon="6.78566">
        <ele>1195.6</ele>
        <time>2021-10-10T14:17:30Z</time>
      </trkpt>
      <trkpt lat="46.29964" lon="6.78572">
        <ele>1195.2</ele>
        <time>2021-10-10T14:17:33Z</time>
      </trkpt>
      <trkpt lat="46.29967" lon="6.78579">
        <ele>1194.2</ele>
        <time>2021-10-10T14:17:37Z</time>
      </trkpt>
      <trkpt lat="46.29969" lon="6.78585">
        <ele>1194.6</ele>
        <time>2021-10-10T14:17:40Z</time>
      </trkpt>
      <trkpt lat="46.2997" lon="6.78593">
        <ele>1193</ele>
        <time>2021-10-10T14:17:44Z</time>
      </trkpt>
      <trkpt lat="46.29972" lon="6.78599">
        <ele>1192</ele>
        <time>2021-10-10T14:17:47Z</time>
      </trkpt>
      <trkpt lat="46.29975" lon="6.78607">
        <ele>1192.4</ele>
        <time>2021-10-10T14:17:51Z</time>
      </trkpt>
      <trkpt lat="46.29977" lon="6.78614">
        <ele>1192.8</ele>
        <time>2021-10-10T14:17:55Z</time>
      </trkpt>
      <trkpt lat="46.2998" lon="6.78618">
        <ele>1191.4</ele>
        <time>2021-10-10T14:17:58Z</time>
      </trkpt>
      <trkpt lat="46.29984" lon="6.78623">
        <ele>1192.6</ele>
        <time>2021-10-10T14:18:01Z</time>
      </trkpt>
      <trkpt lat="46.29986" lon="6.78627">
        <ele>1190</ele>
        <time>2021-10-10T14:18:03Z</time>
      </trkpt>
      <trkpt lat="46.29989" lon="6.78634">
        <ele>1190.2</ele>
        <time>2021-10-10T14:18:06Z</time>
      </trkpt>
      <trkpt lat="46.29991" lon="6.7864">
        <ele>1191.8</ele>
        <time>2021-10-10T14:18:09Z</time>
      </trkpt>
      <trkpt lat="46.29995" lon="6.78645">
        <ele>1189.6</ele>
        <time>2021-10-10T14:18:12Z</time>
      </trkpt>
      <trkpt lat="46.3" lon="6.7865">
        <ele>1192</ele>
        <time>2021-10-10T14:18:16Z</time>
      </trkpt>
      <trkpt lat="46.30003" lon="6.78654">
        <ele>1189.6</ele>
        <time>2021-10-10T14:18:19Z</time>
      </trkpt>
      <trkpt lat="46.30004" lon="6.78661">
        <ele>1189.2</ele>
        <time>2021-10-10T14:18:22Z</time>
      </trkpt>
      <trkpt lat="46.30008" lon="6.78666">
        <ele>1192.4</ele>
        <time>2021-10-10T14:18:26Z</time>
      </trkpt>
      <trkpt lat="46.30009" lon="6.78673">
        <ele>1188.4</ele>
        <time>2021-10-10T14:18:29Z</time>
      </trkpt>
      <trkpt lat="46.30012" lon="6.78679">
        <ele>1185.2</ele>
        <time>2021-10-10T14:18:32Z</time>
      </trkpt>
      <trkpt lat="46.30015" lon="6.78684">
        <ele>1184.4</ele>
        <time>2021-10-10T14:18:36Z</time>
      </trkpt>
      <trkpt lat="46.30019" lon="6.78689">
        <ele>1187</ele>
        <time>2021-10-10T14:18:39Z</time>
      </trkpt>
      <trkpt lat="46.30022" lon="6.78693">
        <ele>1182.2</ele>
        <time>2021-10-10T14:18:42Z</time>
      </trkpt>
      <trkpt lat="46.30026" lon="6.78698">
        <ele>1182.8</ele>
        <time>2021-10-10T14:18:45Z</time>
      </trkpt>
      <trkpt lat="46.30029" lon="6.78704">
        <ele>1182.4</ele>
        <time>2021-10-10T14:18:49Z</time>
      </trkpt>
      <trkpt lat="46.30033" lon="6.78709">
        <ele>1182.2</ele>
        <time>2021-10-10T14:18:53Z</time>
      </trkpt>
      <trkpt lat="46.30035" lon="6.78714">
        <ele>1185.6</ele>
        <time>2021-10-10T14:18:56Z</time>
      </trkpt>
      <trkpt lat="46.30038" lon="6.78719">
        <ele>1183.6</ele>
        <time>2021-10-10T14:18:59Z</time>
      </trkpt>
      <trkpt lat="46.30042" lon="6.78723">
        <ele>1181</ele>
        <time>2021-10-10T14:19:03Z</time>
      </trkpt>
      <trkpt lat="46.30045" lon="6.7873">
        <ele>1183.2</ele>
        <time>2021-10-10T14:19:07Z</time>
      </trkpt>
      <trkpt lat="46.30049" lon="6.78734">
        <ele>1180</ele>
        <time>2021-10-10T14:19:11Z</time>
      </trkpt>
      <trkpt lat="46.30053" lon="6.78738">
        <ele>1183</ele>
        <time>2021-10-10T14:19:14Z</time>
      </trkpt>
      <trkpt lat="46.30055" lon="6.78746">
        <ele>1183</ele>
        <time>2021-10-10T14:19:18Z</time>
      </trkpt>
      <trkpt lat="46.30058" lon="6.78751">
        <ele>1180.6</ele>
        <time>2021-10-10T14:19:21Z</time>
      </trkpt>
      <trkpt lat="46.30062" lon="6.78752">
        <ele>1182.2</ele>
        <time>2021-10-10T14:19:23Z</time>
      </trkpt>
      <trkpt lat="46.30067" lon="6.78755">
        <ele>1182.8</ele>
        <time>2021-10-10T14:19:26Z</time>
      </trkpt>
      <trkpt lat="46.30072" lon="6.78762">
        <ele>1182.2</ele>
        <time>2021-10-10T14:19:31Z</time>
      </trkpt>
      <trkpt lat="46.30078" lon="6.78763">
        <ele>1180.4</ele>
        <time>2021-10-10T14:19:34Z</time>
      </trkpt>
      <trkpt lat="46.30083" lon="6.78766">
        <ele>1182.2</ele>
        <time>2021-10-10T14:19:38Z</time>
      </trkpt>
      <trkpt lat="46.30086" lon="6.7877">
        <ele>1180.2</ele>
        <time>2021-10-10T14:19:41Z</time>
      </trkpt>
      <trkpt lat="46.30093" lon="6.78773">
        <ele>1180</ele>
        <time>2021-10-10T14:19:46Z</time>
      </trkpt>
      <trkpt lat="46.30098" lon="6.78774">
        <ele>1181.6</ele>
        <time>2021-10-10T14:19:52Z</time>
      </trkpt>
      <trkpt lat="46.30098" lon="6.78775">
        <ele>1176.8</ele>
        <time>2021-10-10T14:19:55Z</time>
      </trkpt>
      <trkpt lat="46.30103" lon="6.78771">
        <ele>1178.8</ele>
        <time>2021-10-10T14:20:26Z</time>
      </trkpt>
      <trkpt lat="46.30109" lon="6.78768">
        <ele>1178.6</ele>
        <time>2021-10-10T14:20:29Z</time>
      </trkpt>
      <trkpt lat="46.30114" lon="6.78768">
        <ele>1178.4</ele>
        <time>2021-10-10T14:20:32Z</time>
      </trkpt>
      <trkpt lat="46.30119" lon="6.78767">
        <ele>1179.8</ele>
        <time>2021-10-10T14:20:35Z</time>
      </trkpt>
      <trkpt lat="46.30124" lon="6.78768">
        <ele>1179</ele>
        <time>2021-10-10T14:20:38Z</time>
      </trkpt>
      <trkpt lat="46.30128" lon="6.78769">
        <ele>1176</ele>
        <time>2021-10-10T14:20:41Z</time>
      </trkpt>
      <trkpt lat="46.30133" lon="6.7877">
        <ele>1176.2</ele>
        <time>2021-10-10T14:20:44Z</time>
      </trkpt>
      <trkpt lat="46.30137" lon="6.78772">
        <ele>1175.8</ele>
        <time>2021-10-10T14:20:47Z</time>
      </trkpt>
      <trkpt lat="46.30142" lon="6.78775">
        <ele>1175.8</ele>
        <time>2021-10-10T14:20:51Z</time>
      </trkpt>
      <trkpt lat="46.30148" lon="6.78778">
        <ele>1176.2</ele>
        <time>2021-10-10T14:20:55Z</time>
      </trkpt>
      <trkpt lat="46.30152" lon="6.78782">
        <ele>1175.4</ele>
        <time>2021-10-10T14:20:59Z</time>
      </trkpt>
      <trkpt lat="46.30156" lon="6.78787">
        <ele>1172.8</ele>
        <time>2021-10-10T14:21:03Z</time>
      </trkpt>
      <trkpt lat="46.3016" lon="6.78791">
        <ele>1174.4</ele>
        <time>2021-10-10T14:21:07Z</time>
      </trkpt>
      <trkpt lat="46.30165" lon="6.78794">
        <ele>1171.4</ele>
        <time>2021-10-10T14:21:11Z</time>
      </trkpt>
      <trkpt lat="46.30169" lon="6.78798">
        <ele>1170.6</ele>
        <time>2021-10-10T14:21:15Z</time>
      </trkpt>
      <trkpt lat="46.30171" lon="6.78804">
        <ele>1168.4</ele>
        <time>2021-10-10T14:21:19Z</time>
      </trkpt>
      <trkpt lat="46.30174" lon="6.7881">
        <ele>1169</ele>
        <time>2021-10-10T14:21:23Z</time>
      </trkpt>
      <trkpt lat="46.30178" lon="6.78815">
        <ele>1168.8</ele>
        <time>2021-10-10T14:21:26Z</time>
      </trkpt>
      <trkpt lat="46.30181" lon="6.78821">
        <ele>1168</ele>
        <time>2021-10-10T14:21:30Z</time>
      </trkpt>
      <trkpt lat="46.30182" lon="6.78828">
        <ele>1165.2</ele>
        <time>2021-10-10T14:21:33Z</time>
      </trkpt>
      <trkpt lat="46.30183" lon="6.78834">
        <ele>1163.8</ele>
        <time>2021-10-10T14:21:36Z</time>
      </trkpt>
      <trkpt lat="46.30184" lon="6.78842">
        <ele>1165.6</ele>
        <time>2021-10-10T14:21:40Z</time>
      </trkpt>
      <trkpt lat="46.30185" lon="6.78848">
        <ele>1163.2</ele>
        <time>2021-10-10T14:21:43Z</time>
      </trkpt>
      <trkpt lat="46.3019" lon="6.78849">
        <ele>1163.2</ele>
        <time>2021-10-10T14:21:46Z</time>
      </trkpt>
      <trkpt lat="46.30194" lon="6.7885">
        <ele>1160.6</ele>
        <time>2021-10-10T14:21:49Z</time>
      </trkpt>
      <trkpt lat="46.30199" lon="6.78849">
        <ele>1161.2</ele>
        <time>2021-10-10T14:21:52Z</time>
      </trkpt>
      <trkpt lat="46.30203" lon="6.78853">
        <ele>1159.8</ele>
        <time>2021-10-10T14:21:56Z</time>
      </trkpt>
      <trkpt lat="46.30208" lon="6.78857">
        <ele>1159.8</ele>
        <time>2021-10-10T14:22:00Z</time>
      </trkpt>
      <trkpt lat="46.30213" lon="6.78859">
        <ele>1157.6</ele>
        <time>2021-10-10T14:22:03Z</time>
      </trkpt>
      <trkpt lat="46.30217" lon="6.78862">
        <ele>1158.2</ele>
        <time>2021-10-10T14:22:07Z</time>
      </trkpt>
      <trkpt lat="46.3022" lon="6.78864">
        <ele>1155.6</ele>
        <time>2021-10-10T14:22:10Z</time>
      </trkpt>
      <trkpt lat="46.30225" lon="6.78868">
        <ele>1155.8</ele>
        <time>2021-10-10T14:22:16Z</time>
      </trkpt>
      <trkpt lat="46.3023" lon="6.78868">
        <ele>1154.8</ele>
        <time>2021-10-10T14:22:19Z</time>
      </trkpt>
      <trkpt lat="46.30234" lon="6.78869">
        <ele>1154</ele>
        <time>2021-10-10T14:22:23Z</time>
      </trkpt>
      <trkpt lat="46.30239" lon="6.78874">
        <ele>1152.2</ele>
        <time>2021-10-10T14:22:30Z</time>
      </trkpt>
      <trkpt lat="46.30244" lon="6.78873">
        <ele>1155.4</ele>
        <time>2021-10-10T14:22:33Z</time>
      </trkpt>
      <trkpt lat="46.3025" lon="6.78872">
        <ele>1154</ele>
        <time>2021-10-10T14:22:37Z</time>
      </trkpt>
      <trkpt lat="46.30254" lon="6.78875">
        <ele>1155</ele>
        <time>2021-10-10T14:22:41Z</time>
      </trkpt>
      <trkpt lat="46.30257" lon="6.78881">
        <ele>1156.4</ele>
        <time>2021-10-10T14:22:47Z</time>
      </trkpt>
      <trkpt lat="46.30261" lon="6.78885">
        <ele>1156.2</ele>
        <time>2021-10-10T14:22:53Z</time>
      </trkpt>
      <trkpt lat="46.30266" lon="6.78888">
        <ele>1156</ele>
        <time>2021-10-10T14:22:58Z</time>
      </trkpt>
      <trkpt lat="46.3027" lon="6.78891">
        <ele>1156.6</ele>
        <time>2021-10-10T14:23:02Z</time>
      </trkpt>
      <trkpt lat="46.30275" lon="6.78894">
        <ele>1157.6</ele>
        <time>2021-10-10T14:23:07Z</time>
      </trkpt>
      <trkpt lat="46.30281" lon="6.78894">
        <ele>1157.4</ele>
        <time>2021-10-10T14:23:10Z</time>
      </trkpt>
      <trkpt lat="46.30285" lon="6.78894">
        <ele>1158.4</ele>
        <time>2021-10-10T14:23:13Z</time>
      </trkpt>
      <trkpt lat="46.30291" lon="6.78894">
        <ele>1159</ele>
        <time>2021-10-10T14:23:16Z</time>
      </trkpt>
      <trkpt lat="46.30296" lon="6.78897">
        <ele>1159.8</ele>
        <time>2021-10-10T14:23:20Z</time>
      </trkpt>
      <trkpt lat="46.303" lon="6.78897">
        <ele>1157.8</ele>
        <time>2021-10-10T14:23:22Z</time>
      </trkpt>
      <trkpt lat="46.30306" lon="6.78895">
        <ele>1158.6</ele>
        <time>2021-10-10T14:23:25Z</time>
      </trkpt>
      <trkpt lat="46.30311" lon="6.78896">
        <ele>1156.6</ele>
        <time>2021-10-10T14:23:28Z</time>
      </trkpt>
      <trkpt lat="46.30314" lon="6.78896">
        <ele>1159.6</ele>
        <time>2021-10-10T14:23:30Z</time>
      </trkpt>
      <trkpt lat="46.30319" lon="6.78896">
        <ele>1159.2</ele>
        <time>2021-10-10T14:23:33Z</time>
      </trkpt>
      <trkpt lat="46.30324" lon="6.78896">
        <ele>1158.6</ele>
        <time>2021-10-10T14:23:36Z</time>
      </trkpt>
      <trkpt lat="46.30328" lon="6.78897">
        <ele>1155.8</ele>
        <time>2021-10-10T14:23:39Z</time>
      </trkpt>
      <trkpt lat="46.30333" lon="6.78901">
        <ele>1154.6</ele>
        <time>2021-10-10T14:23:43Z</time>
      </trkpt>
      <trkpt lat="46.30338" lon="6.78903">
        <ele>1154.8</ele>
        <time>2021-10-10T14:23:47Z</time>
      </trkpt>
      <trkpt lat="46.30342" lon="6.78907">
        <ele>1153.6</ele>
        <time>2021-10-10T14:23:51Z</time>
      </trkpt>
      <trkpt lat="46.30343" lon="6.78915">
        <ele>1155.4</ele>
        <time>2021-10-10T14:23:55Z</time>
      </trkpt>
      <trkpt lat="46.30348" lon="6.78917">
        <ele>1154.2</ele>
        <time>2021-10-10T14:23:59Z</time>
      </trkpt>
      <trkpt lat="46.30353" lon="6.7892">
        <ele>1153.6</ele>
        <time>2021-10-10T14:24:03Z</time>
      </trkpt>
      <trkpt lat="46.30357" lon="6.78921">
        <ele>1152.2</ele>
        <time>2021-10-10T14:24:07Z</time>
      </trkpt>
      <trkpt lat="46.30361" lon="6.78924">
        <ele>1150.2</ele>
        <time>2021-10-10T14:24:28Z</time>
      </trkpt>
      <trkpt lat="46.30365" lon="6.78927">
        <ele>1151.4</ele>
        <time>2021-10-10T14:24:34Z</time>
      </trkpt>
      <trkpt lat="46.30369" lon="6.78932">
        <ele>1149.6</ele>
        <time>2021-10-10T14:24:41Z</time>
      </trkpt>
      <trkpt lat="46.30373" lon="6.78931">
        <ele>1153</ele>
        <time>2021-10-10T14:24:44Z</time>
      </trkpt>
      <trkpt lat="46.30377" lon="6.78932">
        <ele>1150.8</ele>
        <time>2021-10-10T14:24:49Z</time>
      </trkpt>
      <trkpt lat="46.30378" lon="6.78936">
        <ele>1153.4</ele>
        <time>2021-10-10T14:24:55Z</time>
      </trkpt>
      <trkpt lat="46.30383" lon="6.78935">
        <ele>1153.2</ele>
        <time>2021-10-10T14:24:58Z</time>
      </trkpt>
      <trkpt lat="46.30387" lon="6.78934">
        <ele>1153.4</ele>
        <time>2021-10-10T14:25:01Z</time>
      </trkpt>
      <trkpt lat="46.30391" lon="6.78936">
        <ele>1156.4</ele>
        <time>2021-10-10T14:25:06Z</time>
      </trkpt>
      <trkpt lat="46.30391" lon="6.78942">
        <ele>1157</ele>
        <time>2021-10-10T14:25:14Z</time>
      </trkpt>
      <trkpt lat="46.30396" lon="6.78945">
        <ele>1158.8</ele>
        <time>2021-10-10T14:25:19Z</time>
      </trkpt>
      <trkpt lat="46.30399" lon="6.78944">
        <ele>1161.6</ele>
        <time>2021-10-10T14:25:21Z</time>
      </trkpt>
      <trkpt lat="46.30405" lon="6.78943">
        <ele>1164</ele>
        <time>2021-10-10T14:25:24Z</time>
      </trkpt>
      <trkpt lat="46.30411" lon="6.78941">
        <ele>1161.6</ele>
        <time>2021-10-10T14:25:27Z</time>
      </trkpt>
      <trkpt lat="46.30414" lon="6.78941">
        <ele>1165</ele>
        <time>2021-10-10T14:25:29Z</time>
      </trkpt>
      <trkpt lat="46.30418" lon="6.78941">
        <ele>1165</ele>
        <time>2021-10-10T14:25:32Z</time>
      </trkpt>
      <trkpt lat="46.30423" lon="6.78941">
        <ele>1167.4</ele>
        <time>2021-10-10T14:25:35Z</time>
      </trkpt>
      <trkpt lat="46.30428" lon="6.7894">
        <ele>1166</ele>
        <time>2021-10-10T14:25:38Z</time>
      </trkpt>
      <trkpt lat="46.30432" lon="6.78938">
        <ele>1170</ele>
        <time>2021-10-10T14:25:40Z</time>
      </trkpt>
      <trkpt lat="46.30437" lon="6.78935">
        <ele>1169.6</ele>
        <time>2021-10-10T14:25:43Z</time>
      </trkpt>
      <trkpt lat="46.3044" lon="6.78935">
        <ele>1166.8</ele>
        <time>2021-10-10T14:25:47Z</time>
      </trkpt>
      <trkpt lat="46.30445" lon="6.78933">
        <ele>1168</ele>
        <time>2021-10-10T14:25:51Z</time>
      </trkpt>
      <trkpt lat="46.30451" lon="6.78931">
        <ele>1167.6</ele>
        <time>2021-10-10T14:25:55Z</time>
      </trkpt>
      <trkpt lat="46.30456" lon="6.7893">
        <ele>1167.2</ele>
        <time>2021-10-10T14:25:58Z</time>
      </trkpt>
      <trkpt lat="46.3046" lon="6.7893">
        <ele>1167.4</ele>
        <time>2021-10-10T14:26:01Z</time>
      </trkpt>
      <trkpt lat="46.30466" lon="6.78929">
        <ele>1169.2</ele>
        <time>2021-10-10T14:26:05Z</time>
      </trkpt>
      <trkpt lat="46.30471" lon="6.78929">
        <ele>1169.2</ele>
        <time>2021-10-10T14:26:09Z</time>
      </trkpt>
      <trkpt lat="46.30475" lon="6.78929">
        <ele>1167.2</ele>
        <time>2021-10-10T14:26:12Z</time>
      </trkpt>
      <trkpt lat="46.30478" lon="6.78929">
        <ele>1171</ele>
        <time>2021-10-10T14:26:14Z</time>
      </trkpt>
      <trkpt lat="46.30484" lon="6.78928">
        <ele>1171.2</ele>
        <time>2021-10-10T14:26:18Z</time>
      </trkpt>
      <trkpt lat="46.30489" lon="6.78925">
        <ele>1167.8</ele>
        <time>2021-10-10T14:26:20Z</time>
      </trkpt>
      <trkpt lat="46.30495" lon="6.78924">
        <ele>1167.2</ele>
        <time>2021-10-10T14:26:24Z</time>
      </trkpt>
      <trkpt lat="46.305" lon="6.78925">
        <ele>1168.4</ele>
        <time>2021-10-10T14:26:28Z</time>
      </trkpt>
      <trkpt lat="46.305" lon="6.7893">
        <ele>1161.4</ele>
        <time>2021-10-10T14:26:35Z</time>
      </trkpt>
      <trkpt lat="46.30496" lon="6.78935">
        <ele>1158</ele>
        <time>2021-10-10T14:27:05Z</time>
      </trkpt>
      <trkpt lat="46.30494" lon="6.78941">
        <ele>1157.8</ele>
        <time>2021-10-10T14:27:22Z</time>
      </trkpt>
      <trkpt lat="46.30496" lon="6.78937">
        <ele>1154.2</ele>
        <time>2021-10-10T14:27:47Z</time>
      </trkpt>
      <trkpt lat="46.30498" lon="6.78932">
        <ele>1152.4</ele>
        <time>2021-10-10T14:27:55Z</time>
      </trkpt>
      <trkpt lat="46.30497" lon="6.7893">
        <ele>1147.6</ele>
        <time>2021-10-10T14:28:15Z</time>
      </trkpt>
      <trkpt lat="46.30492" lon="6.78931">
        <ele>1147</ele>
        <time>2021-10-10T14:28:27Z</time>
      </trkpt>
      <trkpt lat="46.30496" lon="6.78934">
        <ele>1146.4</ele>
        <time>2021-10-10T14:28:51Z</time>
      </trkpt>
      <trkpt lat="46.30498" lon="6.78935">
        <ele>1151.4</ele>
        <time>2021-10-10T14:29:16Z</time>
      </trkpt>
      <trkpt lat="46.30494" lon="6.78935">
        <ele>1153.6</ele>
        <time>2021-10-10T14:29:41Z</time>
      </trkpt>
      <trkpt lat="46.3049" lon="6.78932">
        <ele>1153.6</ele>
        <time>2021-10-10T14:29:51Z</time>
      </trkpt>
      <trkpt lat="46.30494" lon="6.78932">
        <ele>1152.6</ele>
        <time>2021-10-10T14:30:18Z</time>
      </trkpt>
      <trkpt lat="46.30498" lon="6.78931">
        <ele>1154.2</ele>
        <time>2021-10-10T14:30:31Z</time>
      </trkpt>
      <trkpt lat="46.30497" lon="6.78925">
        <ele>1153.6</ele>
        <time>2021-10-10T14:30:56Z</time>
      </trkpt>
      <trkpt lat="46.30492" lon="6.78923">
        <ele>1154.6</ele>
        <time>2021-10-10T14:31:04Z</time>
      </trkpt>
      <trkpt lat="46.30486" lon="6.78925">
        <ele>1151.8</ele>
        <time>2021-10-10T14:31:11Z</time>
      </trkpt>
      <trkpt lat="46.30482" lon="6.78925">
        <ele>1153.2</ele>
        <time>2021-10-10T14:31:15Z</time>
      </trkpt>
      <trkpt lat="46.30478" lon="6.78928">
        <ele>1151.4</ele>
        <time>2021-10-10T14:31:19Z</time>
      </trkpt>
      <trkpt lat="46.30482" lon="6.78927">
        <ele>1149.4</ele>
        <time>2021-10-10T14:31:45Z</time>
      </trkpt>
      <trkpt lat="46.30487" lon="6.7893">
        <ele>1150</ele>
        <time>2021-10-10T14:31:51Z</time>
      </trkpt>
      <trkpt lat="46.30491" lon="6.7893">
        <ele>1150</ele>
        <time>2021-10-10T14:32:37Z</time>
      </trkpt>
      <trkpt lat="46.30488" lon="6.78927">
        <ele>1151.6</ele>
        <time>2021-10-10T14:32:51Z</time>
      </trkpt>
      <trkpt lat="46.30488" lon="6.78924">
        <ele>1147</ele>
        <time>2021-10-10T14:33:05Z</time>
      </trkpt>
      <trkpt lat="46.30491" lon="6.78926">
        <ele>1150.4</ele>
        <time>2021-10-10T14:33:15Z</time>
      </trkpt>
      <trkpt lat="46.30494" lon="6.78931">
        <ele>1148</ele>
        <time>2021-10-10T14:33:21Z</time>
      </trkpt>
      <trkpt lat="46.30499" lon="6.78926">
        <ele>1148</ele>
        <time>2021-10-10T14:33:26Z</time>
      </trkpt>
      <trkpt lat="46.30495" lon="6.78922">
        <ele>1146.6</ele>
        <time>2021-10-10T14:33:33Z</time>
      </trkpt>
      <trkpt lat="46.30491" lon="6.78919">
        <ele>1150.6</ele>
        <time>2021-10-10T14:33:48Z</time>
      </trkpt>
      <trkpt lat="46.30486" lon="6.78919">
        <ele>1149.4</ele>
        <time>2021-10-10T14:33:56Z</time>
      </trkpt>
      <trkpt lat="46.30482" lon="6.78919">
        <ele>1148</ele>
        <time>2021-10-10T14:34:03Z</time>
      </trkpt>
      <trkpt lat="46.30478" lon="6.78919">
        <ele>1150.4</ele>
        <time>2021-10-10T14:34:10Z</time>
      </trkpt>
      <trkpt lat="46.30474" lon="6.7892">
        <ele>1147</ele>
        <time>2021-10-10T14:34:15Z</time>
      </trkpt>
      <trkpt lat="46.30469" lon="6.78922">
        <ele>1147.6</ele>
        <time>2021-10-10T14:34:20Z</time>
      </trkpt>
      <trkpt lat="46.30463" lon="6.78921">
        <ele>1151.2</ele>
        <time>2021-10-10T14:34:25Z</time>
      </trkpt>
      <trkpt lat="46.30459" lon="6.7892">
        <ele>1150</ele>
        <time>2021-10-10T14:34:28Z</time>
      </trkpt>
      <trkpt lat="46.30453" lon="6.7892">
        <ele>1150.4</ele>
        <time>2021-10-10T14:34:36Z</time>
      </trkpt>
      <trkpt lat="46.30448" lon="6.78921">
        <ele>1151.2</ele>
        <time>2021-10-10T14:34:40Z</time>
      </trkpt>
      <trkpt lat="46.30444" lon="6.7892">
        <ele>1151.6</ele>
        <time>2021-10-10T14:34:43Z</time>
      </trkpt>
      <trkpt lat="46.3044" lon="6.7892">
        <ele>1153.4</ele>
        <time>2021-10-10T14:34:46Z</time>
      </trkpt>
      <trkpt lat="46.30434" lon="6.78918">
        <ele>1152.2</ele>
        <time>2021-10-10T14:34:52Z</time>
      </trkpt>
      <trkpt lat="46.3043" lon="6.78918">
        <ele>1152.8</ele>
        <time>2021-10-10T14:34:59Z</time>
      </trkpt>
      <trkpt lat="46.30424" lon="6.7892">
        <ele>1153.8</ele>
        <time>2021-10-10T14:35:03Z</time>
      </trkpt>
      <trkpt lat="46.30419" lon="6.7892">
        <ele>1155.4</ele>
        <time>2021-10-10T14:35:06Z</time>
      </trkpt>
      <trkpt lat="46.30413" lon="6.78921">
        <ele>1156.8</ele>
        <time>2021-10-10T14:35:10Z</time>
      </trkpt>
      <trkpt lat="46.30407" lon="6.78923">
        <ele>1155.8</ele>
        <time>2021-10-10T14:35:16Z</time>
      </trkpt>
      <trkpt lat="46.30404" lon="6.78926">
        <ele>1158.8</ele>
        <time>2021-10-10T14:35:19Z</time>
      </trkpt>
      <trkpt lat="46.30399" lon="6.78929">
        <ele>1160.2</ele>
        <time>2021-10-10T14:35:22Z</time>
      </trkpt>
      <trkpt lat="46.30395" lon="6.78932">
        <ele>1158</ele>
        <time>2021-10-10T14:35:25Z</time>
      </trkpt>
      <trkpt lat="46.30389" lon="6.78935">
        <ele>1157.8</ele>
        <time>2021-10-10T14:35:30Z</time>
      </trkpt>
      <trkpt lat="46.30385" lon="6.78937">
        <ele>1157.4</ele>
        <time>2021-10-10T14:35:34Z</time>
      </trkpt>
      <trkpt lat="46.3038" lon="6.7894">
        <ele>1160.4</ele>
        <time>2021-10-10T14:35:37Z</time>
      </trkpt>
      <trkpt lat="46.30376" lon="6.78942">
        <ele>1159.8</ele>
        <time>2021-10-10T14:35:39Z</time>
      </trkpt>
      <trkpt lat="46.30371" lon="6.78945">
        <ele>1159.4</ele>
        <time>2021-10-10T14:35:41Z</time>
      </trkpt>
      <trkpt lat="46.30366" lon="6.78947">
        <ele>1160</ele>
        <time>2021-10-10T14:35:43Z</time>
      </trkpt>
      <trkpt lat="46.30362" lon="6.7895">
        <ele>1159</ele>
        <time>2021-10-10T14:35:46Z</time>
      </trkpt>
      <trkpt lat="46.30357" lon="6.78953">
        <ele>1161.2</ele>
        <time>2021-10-10T14:35:49Z</time>
      </trkpt>
      <trkpt lat="46.30351" lon="6.78955">
        <ele>1160.2</ele>
        <time>2021-10-10T14:35:53Z</time>
      </trkpt>
      <trkpt lat="46.30347" lon="6.78957">
        <ele>1160.6</ele>
        <time>2021-10-10T14:35:56Z</time>
      </trkpt>
      <trkpt lat="46.30344" lon="6.78952">
        <ele>1157.2</ele>
        <time>2021-10-10T14:36:01Z</time>
      </trkpt>
      <trkpt lat="46.30343" lon="6.78948">
        <ele>1161.8</ele>
        <time>2021-10-10T14:36:03Z</time>
      </trkpt>
      <trkpt lat="46.30341" lon="6.78941">
        <ele>1155.6</ele>
        <time>2021-10-10T14:36:07Z</time>
      </trkpt>
      <trkpt lat="46.30337" lon="6.78938">
        <ele>1150.6</ele>
        <time>2021-10-10T14:36:12Z</time>
      </trkpt>
      <trkpt lat="46.30335" lon="6.78937">
        <ele>1155.2</ele>
        <time>2021-10-10T14:36:15Z</time>
      </trkpt>
      <trkpt lat="46.30334" lon="6.78937">
        <ele>1150.8</ele>
        <time>2021-10-10T14:36:17Z</time>
      </trkpt>
      <trkpt lat="46.3033" lon="6.78937">
        <ele>1148.4</ele>
        <time>2021-10-10T14:36:21Z</time>
      </trkpt>
      <trkpt lat="46.30326" lon="6.78937">
        <ele>1147.2</ele>
        <time>2021-10-10T14:36:24Z</time>
      </trkpt>
      <trkpt lat="46.30321" lon="6.78936">
        <ele>1147.2</ele>
        <time>2021-10-10T14:36:31Z</time>
      </trkpt>
      <trkpt lat="46.30316" lon="6.78939">
        <ele>1148.8</ele>
        <time>2021-10-10T14:36:37Z</time>
      </trkpt>
      <trkpt lat="46.3031" lon="6.78942">
        <ele>1146</ele>
        <time>2021-10-10T14:36:42Z</time>
      </trkpt>
      <trkpt lat="46.30306" lon="6.78945">
        <ele>1148</ele>
        <time>2021-10-10T14:36:46Z</time>
      </trkpt>
      <trkpt lat="46.30303" lon="6.78947">
        <ele>1144</ele>
        <time>2021-10-10T14:36:48Z</time>
      </trkpt>
      <trkpt lat="46.30297" lon="6.78949">
        <ele>1144.6</ele>
        <time>2021-10-10T14:36:51Z</time>
      </trkpt>
      <trkpt lat="46.30293" lon="6.7895">
        <ele>1148.8</ele>
        <time>2021-10-10T14:36:53Z</time>
      </trkpt>
      <trkpt lat="46.30287" lon="6.78953">
        <ele>1145.6</ele>
        <time>2021-10-10T14:36:56Z</time>
      </trkpt>
      <trkpt lat="46.30283" lon="6.78955">
        <ele>1150.4</ele>
        <time>2021-10-10T14:36:58Z</time>
      </trkpt>
      <trkpt lat="46.30279" lon="6.78958">
        <ele>1149</ele>
        <time>2021-10-10T14:37:01Z</time>
      </trkpt>
      <trkpt lat="46.30276" lon="6.78959">
        <ele>1152.2</ele>
        <time>2021-10-10T14:37:03Z</time>
      </trkpt>
      <trkpt lat="46.3027" lon="6.7896">
        <ele>1151.4</ele>
        <time>2021-10-10T14:37:07Z</time>
      </trkpt>
      <trkpt lat="46.30263" lon="6.78962">
        <ele>1152.4</ele>
        <time>2021-10-10T14:37:10Z</time>
      </trkpt>
      <trkpt lat="46.30257" lon="6.78962">
        <ele>1150.2</ele>
        <time>2021-10-10T14:37:12Z</time>
      </trkpt>
      <trkpt lat="46.30252" lon="6.78964">
        <ele>1151.4</ele>
        <time>2021-10-10T14:37:14Z</time>
      </trkpt>
      <trkpt lat="46.30247" lon="6.78966">
        <ele>1153</ele>
        <time>2021-10-10T14:37:16Z</time>
      </trkpt>
      <trkpt lat="46.30241" lon="6.78968">
        <ele>1154.4</ele>
        <time>2021-10-10T14:37:18Z</time>
      </trkpt>
      <trkpt lat="46.30236" lon="6.7897">
        <ele>1156.4</ele>
        <time>2021-10-10T14:37:23Z</time>
      </trkpt>
      <trkpt lat="46.30231" lon="6.7897">
        <ele>1157.4</ele>
        <time>2021-10-10T14:37:26Z</time>
      </trkpt>
      <trkpt lat="46.30226" lon="6.78969">
        <ele>1158.2</ele>
        <time>2021-10-10T14:37:30Z</time>
      </trkpt>
      <trkpt lat="46.30223" lon="6.78965">
        <ele>1157.8</ele>
        <time>2021-10-10T14:37:38Z</time>
      </trkpt>
      <trkpt lat="46.30217" lon="6.78965">
        <ele>1158.4</ele>
        <time>2021-10-10T14:37:43Z</time>
      </trkpt>
      <trkpt lat="46.30212" lon="6.78966">
        <ele>1157</ele>
        <time>2021-10-10T14:37:47Z</time>
      </trkpt>
      <trkpt lat="46.30207" lon="6.78966">
        <ele>1156.6</ele>
        <time>2021-10-10T14:37:51Z</time>
      </trkpt>
      <trkpt lat="46.30203" lon="6.78968">
        <ele>1157</ele>
        <time>2021-10-10T14:37:53Z</time>
      </trkpt>
      <trkpt lat="46.30199" lon="6.78968">
        <ele>1153.4</ele>
        <time>2021-10-10T14:37:56Z</time>
      </trkpt>
      <trkpt lat="46.30194" lon="6.78969">
        <ele>1156.6</ele>
        <time>2021-10-10T14:38:00Z</time>
      </trkpt>
      <trkpt lat="46.3019" lon="6.78969">
        <ele>1156.2</ele>
        <time>2021-10-10T14:38:04Z</time>
      </trkpt>
      <trkpt lat="46.30185" lon="6.7897">
        <ele>1154.8</ele>
        <time>2021-10-10T14:38:08Z</time>
      </trkpt>
      <trkpt lat="46.30179" lon="6.78972">
        <ele>1155.6</ele>
        <time>2021-10-10T14:38:12Z</time>
      </trkpt>
      <trkpt lat="46.30174" lon="6.78974">
        <ele>1153.2</ele>
        <time>2021-10-10T14:38:16Z</time>
      </trkpt>
      <trkpt lat="46.3017" lon="6.78974">
        <ele>1154</ele>
        <time>2021-10-10T14:38:19Z</time>
      </trkpt>
      <trkpt lat="46.30166" lon="6.78976">
        <ele>1153</ele>
        <time>2021-10-10T14:38:23Z</time>
      </trkpt>
      <trkpt lat="46.3016" lon="6.78977">
        <ele>1151</ele>
        <time>2021-10-10T14:38:26Z</time>
      </trkpt>
      <trkpt lat="46.30155" lon="6.78977">
        <ele>1151.4</ele>
        <time>2021-10-10T14:38:30Z</time>
      </trkpt>
      <trkpt lat="46.30152" lon="6.78974">
        <ele>1147.4</ele>
        <time>2021-10-10T14:38:34Z</time>
      </trkpt>
      <trkpt lat="46.30149" lon="6.7897">
        <ele>1150</ele>
        <time>2021-10-10T14:38:41Z</time>
      </trkpt>
      <trkpt lat="46.30155" lon="6.78959">
        <ele>1147.8</ele>
        <time>2021-10-10T14:38:46Z</time>
      </trkpt>
      <trkpt lat="46.30159" lon="6.78954">
        <ele>1147.2</ele>
        <time>2021-10-10T14:38:47Z</time>
      </trkpt>
      <trkpt lat="46.3016" lon="6.78949">
        <ele>1145</ele>
        <time>2021-10-10T14:38:50Z</time>
      </trkpt>
      <trkpt lat="46.30156" lon="6.78949">
        <ele>1144.2</ele>
        <time>2021-10-10T14:38:55Z</time>
      </trkpt>
      <trkpt lat="46.30153" lon="6.78953">
        <ele>1141.2</ele>
        <time>2021-10-10T14:39:02Z</time>
      </trkpt>
      <trkpt lat="46.30149" lon="6.78957">
        <ele>1142.6</ele>
        <time>2021-10-10T14:39:06Z</time>
      </trkpt>
      <trkpt lat="46.30145" lon="6.7896">
        <ele>1139.2</ele>
        <time>2021-10-10T14:39:09Z</time>
      </trkpt>
      <trkpt lat="46.3014" lon="6.78964">
        <ele>1139.8</ele>
        <time>2021-10-10T14:39:14Z</time>
      </trkpt>
      <trkpt lat="46.30135" lon="6.78966">
        <ele>1139.6</ele>
        <time>2021-10-10T14:39:17Z</time>
      </trkpt>
      <trkpt lat="46.30131" lon="6.78968">
        <ele>1139</ele>
        <time>2021-10-10T14:39:20Z</time>
      </trkpt>
      <trkpt lat="46.30125" lon="6.7897">
        <ele>1136.6</ele>
        <time>2021-10-10T14:39:25Z</time>
      </trkpt>
      <trkpt lat="46.3012" lon="6.7897">
        <ele>1137</ele>
        <time>2021-10-10T14:39:29Z</time>
      </trkpt>
      <trkpt lat="46.30116" lon="6.78972">
        <ele>1134</ele>
        <time>2021-10-10T14:39:32Z</time>
      </trkpt>
      <trkpt lat="46.3011" lon="6.7897">
        <ele>1135.4</ele>
        <time>2021-10-10T14:39:36Z</time>
      </trkpt>
      <trkpt lat="46.30106" lon="6.7897">
        <ele>1132.6</ele>
        <time>2021-10-10T14:39:39Z</time>
      </trkpt>
      <trkpt lat="46.30102" lon="6.7897">
        <ele>1132.4</ele>
        <time>2021-10-10T14:39:43Z</time>
      </trkpt>
      <trkpt lat="46.30097" lon="6.78972">
        <ele>1128.8</ele>
        <time>2021-10-10T14:39:48Z</time>
      </trkpt>
      <trkpt lat="46.30093" lon="6.78973">
        <ele>1129.4</ele>
        <time>2021-10-10T14:39:52Z</time>
      </trkpt>
      <trkpt lat="46.30092" lon="6.78974">
        <ele>1124.8</ele>
        <time>2021-10-10T14:39:54Z</time>
      </trkpt>
      <trkpt lat="46.3009" lon="6.78979">
        <ele>1122.4</ele>
        <time>2021-10-10T14:39:58Z</time>
      </trkpt>
      <trkpt lat="46.30085" lon="6.7898">
        <ele>1120</ele>
        <time>2021-10-10T14:40:04Z</time>
      </trkpt>
      <trkpt lat="46.30081" lon="6.78983">
        <ele>1116.4</ele>
        <time>2021-10-10T14:40:08Z</time>
      </trkpt>
      <trkpt lat="46.30075" lon="6.78986">
        <ele>1118.2</ele>
        <time>2021-10-10T14:40:13Z</time>
      </trkpt>
      <trkpt lat="46.30071" lon="6.78987">
        <ele>1117</ele>
        <time>2021-10-10T14:40:16Z</time>
      </trkpt>
      <trkpt lat="46.30066" lon="6.78988">
        <ele>1114.4</ele>
        <time>2021-10-10T14:40:20Z</time>
      </trkpt>
      <trkpt lat="46.30062" lon="6.78991">
        <ele>1115.6</ele>
        <time>2021-10-10T14:40:25Z</time>
      </trkpt>
      <trkpt lat="46.30056" lon="6.78991">
        <ele>1115.6</ele>
        <time>2021-10-10T14:40:29Z</time>
      </trkpt>
      <trkpt lat="46.30052" lon="6.7899">
        <ele>1113</ele>
        <time>2021-10-10T14:40:36Z</time>
      </trkpt>
      <trkpt lat="46.30049" lon="6.7899">
        <ele>1117.2</ele>
        <time>2021-10-10T14:40:38Z</time>
      </trkpt>
      <trkpt lat="46.30045" lon="6.78986">
        <ele>1114.4</ele>
        <time>2021-10-10T14:40:41Z</time>
      </trkpt>
      <trkpt lat="46.30041" lon="6.78984">
        <ele>1117</ele>
        <time>2021-10-10T14:40:43Z</time>
      </trkpt>
      <trkpt lat="46.30038" lon="6.78984">
        <ele>1114.6</ele>
        <time>2021-10-10T14:40:45Z</time>
      </trkpt>
      <trkpt lat="46.30033" lon="6.78982">
        <ele>1114.4</ele>
        <time>2021-10-10T14:40:48Z</time>
      </trkpt>
      <trkpt lat="46.30028" lon="6.7898">
        <ele>1115.6</ele>
        <time>2021-10-10T14:40:51Z</time>
      </trkpt>
      <trkpt lat="46.30024" lon="6.78978">
        <ele>1116.4</ele>
        <time>2021-10-10T14:40:53Z</time>
      </trkpt>
      <trkpt lat="46.3002" lon="6.78976">
        <ele>1114.4</ele>
        <time>2021-10-10T14:40:55Z</time>
      </trkpt>
      <trkpt lat="46.30015" lon="6.78973">
        <ele>1111.8</ele>
        <time>2021-10-10T14:40:58Z</time>
      </trkpt>
      <trkpt lat="46.30011" lon="6.78972">
        <ele>1113.6</ele>
        <time>2021-10-10T14:41:01Z</time>
      </trkpt>
      <trkpt lat="46.30007" lon="6.78972">
        <ele>1111.4</ele>
        <time>2021-10-10T14:41:03Z</time>
      </trkpt>
      <trkpt lat="46.30003" lon="6.78972">
        <ele>1114.2</ele>
        <time>2021-10-10T14:41:06Z</time>
      </trkpt>
      <trkpt lat="46.29998" lon="6.78972">
        <ele>1114.6</ele>
        <time>2021-10-10T14:41:10Z</time>
      </trkpt>
      <trkpt lat="46.29993" lon="6.7897">
        <ele>1114</ele>
        <time>2021-10-10T14:41:15Z</time>
      </trkpt>
      <trkpt lat="46.29987" lon="6.7897">
        <ele>1114</ele>
        <time>2021-10-10T14:41:18Z</time>
      </trkpt>
      <trkpt lat="46.29983" lon="6.78972">
        <ele>1112</ele>
        <time>2021-10-10T14:41:23Z</time>
      </trkpt>
      <trkpt lat="46.2998" lon="6.78974">
        <ele>1120.8</ele>
        <time>2021-10-10T14:41:31Z</time>
      </trkpt>
      <trkpt lat="46.29975" lon="6.78972">
        <ele>1120.8</ele>
        <time>2021-10-10T14:41:36Z</time>
      </trkpt>
      <trkpt lat="46.29971" lon="6.7897">
        <ele>1122.6</ele>
        <time>2021-10-10T14:41:42Z</time>
      </trkpt>
      <trkpt lat="46.29968" lon="6.78968">
        <ele>1118.2</ele>
        <time>2021-10-10T14:41:48Z</time>
      </trkpt>
      <trkpt lat="46.29966" lon="6.78967">
        <ele>1122.4</ele>
        <time>2021-10-10T14:41:51Z</time>
      </trkpt>
      <trkpt lat="46.29962" lon="6.78966">
        <ele>1122</ele>
        <time>2021-10-10T14:41:58Z</time>
      </trkpt>
      <trkpt lat="46.29958" lon="6.78965">
        <ele>1122.8</ele>
        <time>2021-10-10T14:42:03Z</time>
      </trkpt>
      <trkpt lat="46.29952" lon="6.78963">
        <ele>1123.4</ele>
        <time>2021-10-10T14:42:08Z</time>
      </trkpt>
      <trkpt lat="46.29948" lon="6.78962">
        <ele>1124.4</ele>
        <time>2021-10-10T14:42:14Z</time>
      </trkpt>
      <trkpt lat="46.29943" lon="6.7896">
        <ele>1123</ele>
        <time>2021-10-10T14:42:18Z</time>
      </trkpt>
      <trkpt lat="46.29938" lon="6.78959">
        <ele>1123.2</ele>
        <time>2021-10-10T14:42:24Z</time>
      </trkpt>
      <trkpt lat="46.29933" lon="6.78956">
        <ele>1121.4</ele>
        <time>2021-10-10T14:42:28Z</time>
      </trkpt>
      <trkpt lat="46.29928" lon="6.78954">
        <ele>1121.8</ele>
        <time>2021-10-10T14:42:32Z</time>
      </trkpt>
      <trkpt lat="46.29923" lon="6.78952">
        <ele>1124</ele>
        <time>2021-10-10T14:42:36Z</time>
      </trkpt>
      <trkpt lat="46.29916" lon="6.78949">
        <ele>1122.4</ele>
        <time>2021-10-10T14:42:40Z</time>
      </trkpt>
      <trkpt lat="46.2991" lon="6.78946">
        <ele>1122.4</ele>
        <time>2021-10-10T14:42:43Z</time>
      </trkpt>
      <trkpt lat="46.29903" lon="6.78944">
        <ele>1120.2</ele>
        <time>2021-10-10T14:42:46Z</time>
      </trkpt>
      <trkpt lat="46.29899" lon="6.78943">
        <ele>1121.4</ele>
        <time>2021-10-10T14:42:49Z</time>
      </trkpt>
      <trkpt lat="46.29894" lon="6.78941">
        <ele>1119</ele>
        <time>2021-10-10T14:42:52Z</time>
      </trkpt>
      <trkpt lat="46.29888" lon="6.78939">
        <ele>1117.4</ele>
        <time>2021-10-10T14:42:55Z</time>
      </trkpt>
      <trkpt lat="46.29884" lon="6.78937">
        <ele>1113</ele>
        <time>2021-10-10T14:42:57Z</time>
      </trkpt>
      <trkpt lat="46.29879" lon="6.78937">
        <ele>1110.4</ele>
        <time>2021-10-10T14:43:00Z</time>
      </trkpt>
      <trkpt lat="46.29875" lon="6.78938">
        <ele>1105.8</ele>
        <time>2021-10-10T14:43:05Z</time>
      </trkpt>
      <trkpt lat="46.29872" lon="6.78939">
        <ele>1108.8</ele>
        <time>2021-10-10T14:43:07Z</time>
      </trkpt>
      <trkpt lat="46.29869" lon="6.78939">
        <ele>1106.2</ele>
        <time>2021-10-10T14:43:08Z</time>
      </trkpt>
      <trkpt lat="46.29866" lon="6.78939">
        <ele>1102.4</ele>
        <time>2021-10-10T14:43:11Z</time>
      </trkpt>
      <trkpt lat="46.2986" lon="6.78939">
        <ele>1098</ele>
        <time>2021-10-10T14:43:15Z</time>
      </trkpt>
      <trkpt lat="46.29855" lon="6.7894">
        <ele>1099</ele>
        <time>2021-10-10T14:43:18Z</time>
      </trkpt>
      <trkpt lat="46.2985" lon="6.78943">
        <ele>1096.4</ele>
        <time>2021-10-10T14:43:22Z</time>
      </trkpt>
      <trkpt lat="46.29846" lon="6.78944">
        <ele>1095</ele>
        <time>2021-10-10T14:43:26Z</time>
      </trkpt>
      <trkpt lat="46.29839" lon="6.78944">
        <ele>1092.6</ele>
        <time>2021-10-10T14:43:30Z</time>
      </trkpt>
      <trkpt lat="46.29833" lon="6.78942">
        <ele>1092.8</ele>
        <time>2021-10-10T14:43:32Z</time>
      </trkpt>
      <trkpt lat="46.29828" lon="6.78942">
        <ele>1092.4</ele>
        <time>2021-10-10T14:43:34Z</time>
      </trkpt>
      <trkpt lat="46.29825" lon="6.78945">
        <ele>1087.4</ele>
        <time>2021-10-10T14:43:36Z</time>
      </trkpt>
      <trkpt lat="46.2982" lon="6.78946">
        <ele>1088.4</ele>
        <time>2021-10-10T14:43:39Z</time>
      </trkpt>
      <trkpt lat="46.29819" lon="6.78946">
        <ele>1083.8</ele>
        <time>2021-10-10T14:43:40Z</time>
      </trkpt>
      <trkpt lat="46.29815" lon="6.78945">
        <ele>1082.6</ele>
        <time>2021-10-10T14:43:44Z</time>
      </trkpt>
      <trkpt lat="46.29813" lon="6.78946">
        <ele>1078.4</ele>
        <time>2021-10-10T14:43:46Z</time>
      </trkpt>
      <trkpt lat="46.2981" lon="6.78947">
        <ele>1073.2</ele>
        <time>2021-10-10T14:43:50Z</time>
      </trkpt>
      <trkpt lat="46.29805" lon="6.78947">
        <ele>1073.6</ele>
        <time>2021-10-10T14:43:54Z</time>
      </trkpt>
      <trkpt lat="46.29803" lon="6.78947">
        <ele>1069.2</ele>
        <time>2021-10-10T14:43:56Z</time>
      </trkpt>
      <trkpt lat="46.29801" lon="6.78947">
        <ele>1065.2</ele>
        <time>2021-10-10T14:43:58Z</time>
      </trkpt>
      <trkpt lat="46.29796" lon="6.78948">
        <ele>1066.2</ele>
        <time>2021-10-10T14:44:03Z</time>
      </trkpt>
      <trkpt lat="46.29792" lon="6.78951">
        <ele>1064.4</ele>
        <time>2021-10-10T14:44:07Z</time>
      </trkpt>
      <trkpt lat="46.29789" lon="6.78955">
        <ele>1061.6</ele>
        <time>2021-10-10T14:44:10Z</time>
      </trkpt>
      <trkpt lat="46.29786" lon="6.78958">
        <ele>1061.6</ele>
        <time>2021-10-10T14:44:14Z</time>
      </trkpt>
      <trkpt lat="46.29782" lon="6.78961">
        <ele>1058</ele>
        <time>2021-10-10T14:44:18Z</time>
      </trkpt>
      <trkpt lat="46.29779" lon="6.78965">
        <ele>1056.6</ele>
        <time>2021-10-10T14:44:22Z</time>
      </trkpt>
      <trkpt lat="46.29775" lon="6.78966">
        <ele>1055.6</ele>
        <time>2021-10-10T14:44:26Z</time>
      </trkpt>
      <trkpt lat="46.29769" lon="6.78967">
        <ele>1056</ele>
        <time>2021-10-10T14:44:30Z</time>
      </trkpt>
      <trkpt lat="46.29765" lon="6.78967">
        <ele>1055.8</ele>
        <time>2021-10-10T14:44:34Z</time>
      </trkpt>
      <trkpt lat="46.2976" lon="6.78969">
        <ele>1054.8</ele>
        <time>2021-10-10T14:44:39Z</time>
      </trkpt>
      <trkpt lat="46.29756" lon="6.78967">
        <ele>1049.6</ele>
        <time>2021-10-10T14:44:43Z</time>
      </trkpt>
      <trkpt lat="46.29753" lon="6.78965">
        <ele>1052.6</ele>
        <time>2021-10-10T14:44:46Z</time>
      </trkpt>
      <trkpt lat="46.29748" lon="6.78962">
        <ele>1054.2</ele>
        <time>2021-10-10T14:44:50Z</time>
      </trkpt>
      <trkpt lat="46.29745" lon="6.78959">
        <ele>1051.2</ele>
        <time>2021-10-10T14:44:53Z</time>
      </trkpt>
      <trkpt lat="46.29741" lon="6.78955">
        <ele>1050</ele>
        <time>2021-10-10T14:44:57Z</time>
      </trkpt>
      <trkpt lat="46.29737" lon="6.78951">
        <ele>1048.2</ele>
        <time>2021-10-10T14:45:01Z</time>
      </trkpt>
      <trkpt lat="46.29734" lon="6.78947">
        <ele>1049.2</ele>
        <time>2021-10-10T14:45:05Z</time>
      </trkpt>
      <trkpt lat="46.29731" lon="6.78942">
        <ele>1045.6</ele>
        <time>2021-10-10T14:45:09Z</time>
      </trkpt>
      <trkpt lat="46.29729" lon="6.78936">
        <ele>1046.4</ele>
        <time>2021-10-10T14:45:14Z</time>
      </trkpt>
      <trkpt lat="46.29726" lon="6.78931">
        <ele>1049</ele>
        <time>2021-10-10T14:45:19Z</time>
      </trkpt>
      <trkpt lat="46.29722" lon="6.78923">
        <ele>1050.8</ele>
        <time>2021-10-10T14:45:24Z</time>
      </trkpt>
      <trkpt lat="46.29719" lon="6.78917">
        <ele>1048</ele>
        <time>2021-10-10T14:45:28Z</time>
      </trkpt>
      <trkpt lat="46.29718" lon="6.78914">
        <ele>1052.4</ele>
        <time>2021-10-10T14:45:30Z</time>
      </trkpt>
      <trkpt lat="46.29716" lon="6.78911">
        <ele>1048.6</ele>
        <time>2021-10-10T14:45:33Z</time>
      </trkpt>
      <trkpt lat="46.29714" lon="6.78906">
        <ele>1051.4</ele>
        <time>2021-10-10T14:45:37Z</time>
      </trkpt>
      <trkpt lat="46.29712" lon="6.78899">
        <ele>1051</ele>
        <time>2021-10-10T14:45:42Z</time>
      </trkpt>
      <trkpt lat="46.29711" lon="6.78892">
        <ele>1050.8</ele>
        <time>2021-10-10T14:45:46Z</time>
      </trkpt>
      <trkpt lat="46.29707" lon="6.78887">
        <ele>1048.8</ele>
        <time>2021-10-10T14:45:49Z</time>
      </trkpt>
      <trkpt lat="46.29703" lon="6.78887">
        <ele>1048.8</ele>
        <time>2021-10-10T14:45:58Z</time>
      </trkpt>
      <trkpt lat="46.297" lon="6.78888">
        <ele>1044.2</ele>
        <time>2021-10-10T14:46:00Z</time>
      </trkpt>
      <trkpt lat="46.29695" lon="6.78886">
        <ele>1046.6</ele>
        <time>2021-10-10T14:46:04Z</time>
      </trkpt>
      <trkpt lat="46.29691" lon="6.78882">
        <ele>1045.6</ele>
        <time>2021-10-10T14:46:08Z</time>
      </trkpt>
      <trkpt lat="46.29689" lon="6.78877">
        <ele>1042.8</ele>
        <time>2021-10-10T14:46:12Z</time>
      </trkpt>
      <trkpt lat="46.29686" lon="6.78871">
        <ele>1043.2</ele>
        <time>2021-10-10T14:46:17Z</time>
      </trkpt>
      <trkpt lat="46.29683" lon="6.78866">
        <ele>1042.8</ele>
        <time>2021-10-10T14:46:21Z</time>
      </trkpt>
      <trkpt lat="46.29678" lon="6.78861">
        <ele>1041.2</ele>
        <time>2021-10-10T14:46:25Z</time>
      </trkpt>
      <trkpt lat="46.29675" lon="6.78857">
        <ele>1042</ele>
        <time>2021-10-10T14:46:28Z</time>
      </trkpt>
      <trkpt lat="46.2967" lon="6.78854">
        <ele>1041.8</ele>
        <time>2021-10-10T14:46:31Z</time>
      </trkpt>
      <trkpt lat="46.29666" lon="6.78851">
        <ele>1040.4</ele>
        <time>2021-10-10T14:46:34Z</time>
      </trkpt>
      <trkpt lat="46.29662" lon="6.78847">
        <ele>1040.6</ele>
        <time>2021-10-10T14:46:38Z</time>
      </trkpt>
      <trkpt lat="46.29658" lon="6.78842">
        <ele>1042</ele>
        <time>2021-10-10T14:46:42Z</time>
      </trkpt>
      <trkpt lat="46.29654" lon="6.78837">
        <ele>1043</ele>
        <time>2021-10-10T14:46:46Z</time>
      </trkpt>
      <trkpt lat="46.29651" lon="6.78831">
        <ele>1040</ele>
        <time>2021-10-10T14:46:51Z</time>
      </trkpt>
      <trkpt lat="46.29649" lon="6.78826">
        <ele>1042.4</ele>
        <time>2021-10-10T14:46:55Z</time>
      </trkpt>
      <trkpt lat="46.29647" lon="6.78819">
        <ele>1040.2</ele>
        <time>2021-10-10T14:47:00Z</time>
      </trkpt>
      <trkpt lat="46.29646" lon="6.78812">
        <ele>1040.2</ele>
        <time>2021-10-10T14:47:05Z</time>
      </trkpt>
      <trkpt lat="46.29645" lon="6.7881">
        <ele>1044.4</ele>
        <time>2021-10-10T14:47:06Z</time>
      </trkpt>
      <trkpt lat="46.29645" lon="6.78804">
        <ele>1042.8</ele>
        <time>2021-10-10T14:47:10Z</time>
      </trkpt>
      <trkpt lat="46.29644" lon="6.78798">
        <ele>1042</ele>
        <time>2021-10-10T14:47:14Z</time>
      </trkpt>
      <trkpt lat="46.29643" lon="6.78791">
        <ele>1042.8</ele>
        <time>2021-10-10T14:47:18Z</time>
      </trkpt>
      <trkpt lat="46.29642" lon="6.78786">
        <ele>1045.8</ele>
        <time>2021-10-10T14:47:22Z</time>
      </trkpt>
      <trkpt lat="46.2964" lon="6.78779">
        <ele>1046.2</ele>
        <time>2021-10-10T14:47:26Z</time>
      </trkpt>
      <trkpt lat="46.29636" lon="6.78773">
        <ele>1043.8</ele>
        <time>2021-10-10T14:47:30Z</time>
      </trkpt>
      <trkpt lat="46.29633" lon="6.78769">
        <ele>1045.6</ele>
        <time>2021-10-10T14:47:33Z</time>
      </trkpt>
      <trkpt lat="46.29629" lon="6.78764">
        <ele>1045</ele>
        <time>2021-10-10T14:47:36Z</time>
      </trkpt>
      <trkpt lat="46.29627" lon="6.78761">
        <ele>1042</ele>
        <time>2021-10-10T14:47:38Z</time>
      </trkpt>
      <trkpt lat="46.29623" lon="6.78756">
        <ele>1041.6</ele>
        <time>2021-10-10T14:47:42Z</time>
      </trkpt>
      <trkpt lat="46.29619" lon="6.7875">
        <ele>1041.2</ele>
        <time>2021-10-10T14:47:46Z</time>
      </trkpt>
      <trkpt lat="46.29615" lon="6.78744">
        <ele>1042.2</ele>
        <time>2021-10-10T14:47:50Z</time>
      </trkpt>
      <trkpt lat="46.29612" lon="6.78741">
        <ele>1039.6</ele>
        <time>2021-10-10T14:47:53Z</time>
      </trkpt>
      <trkpt lat="46.29609" lon="6.78735">
        <ele>1036</ele>
        <time>2021-10-10T14:47:57Z</time>
      </trkpt>
      <trkpt lat="46.29608" lon="6.78731">
        <ele>1041.2</ele>
        <time>2021-10-10T14:47:59Z</time>
      </trkpt>
      <trkpt lat="46.29606" lon="6.78725">
        <ele>1039.8</ele>
        <time>2021-10-10T14:48:02Z</time>
      </trkpt>
      <trkpt lat="46.29602" lon="6.7872">
        <ele>1037.2</ele>
        <time>2021-10-10T14:48:05Z</time>
      </trkpt>
      <trkpt lat="46.29598" lon="6.78716">
        <ele>1038.8</ele>
        <time>2021-10-10T14:48:08Z</time>
      </trkpt>
      <trkpt lat="46.29596" lon="6.78711">
        <ele>1032.8</ele>
        <time>2021-10-10T14:48:11Z</time>
      </trkpt>
      <trkpt lat="46.29594" lon="6.78706">
        <ele>1034.6</ele>
        <time>2021-10-10T14:48:15Z</time>
      </trkpt>
      <trkpt lat="46.29593" lon="6.78702">
        <ele>1031</ele>
        <time>2021-10-10T14:48:18Z</time>
      </trkpt>
      <trkpt lat="46.29595" lon="6.78695">
        <ele>1031</ele>
        <time>2021-10-10T14:48:23Z</time>
      </trkpt>
      <trkpt lat="46.29597" lon="6.78689">
        <ele>1032.2</ele>
        <time>2021-10-10T14:48:27Z</time>
      </trkpt>
      <trkpt lat="46.29598" lon="6.78682">
        <ele>1031.6</ele>
        <time>2021-10-10T14:48:32Z</time>
      </trkpt>
      <trkpt lat="46.29599" lon="6.78675">
        <ele>1030</ele>
        <time>2021-10-10T14:48:36Z</time>
      </trkpt>
      <trkpt lat="46.29598" lon="6.78669">
        <ele>1032.4</ele>
        <time>2021-10-10T14:48:39Z</time>
      </trkpt>
      <trkpt lat="46.29594" lon="6.78665">
        <ele>1033.6</ele>
        <time>2021-10-10T14:48:44Z</time>
      </trkpt>
      <trkpt lat="46.29596" lon="6.78665">
        <ele>1029.2</ele>
        <time>2021-10-10T14:49:01Z</time>
      </trkpt>
      <trkpt lat="46.29593" lon="6.78669">
        <ele>1027.4</ele>
        <time>2021-10-10T14:49:24Z</time>
      </trkpt>
      <trkpt lat="46.29589" lon="6.78672">
        <ele>1028</ele>
        <time>2021-10-10T14:49:47Z</time>
      </trkpt>
      <trkpt lat="46.29587" lon="6.78667">
        <ele>1025.4</ele>
        <time>2021-10-10T14:49:56Z</time>
      </trkpt>
      <trkpt lat="46.29586" lon="6.78661">
        <ele>1025.4</ele>
        <time>2021-10-10T14:50:16Z</time>
      </trkpt>
      <trkpt lat="46.29587" lon="6.78661">
        <ele>1031.2</ele>
        <time>2021-10-10T14:50:17Z</time>
      </trkpt>
    </trkseg>
  </trk>
</gpx>